<?xml version="1.0" encoding="UTF-8" standalone="no" ?>
<gpx xmlns="http://www.topografix.com/GPX/1/1" xmlns:xsi="http://www.w3.org/2001/XMLSchema-instance" xsi:schemaLocation="http://www.topografix.com/GPX/1/1 http://www.topografix.com/GPX/1/1/gpx.xsd" version="1.1" creator="VisuGPX - https://www.visugpx.com">
  <metadata>
    <name>MB. Sortie du 05/09/2019-1</name>
    <desc><![CDATA[Sortie VTT du jeudi 05 septembre 2019 Kerhinet aller.]]></desc>
  </metadata>
  <trk>
    <name><![CDATA[Pornichet Cyclisme]]></name>
    <trkseg>
      <trkpt lat="47.26407" lon="-2.31576">
        <ele>14.199999809265</ele>
        <time>2019-09-05T07:26:36.000Z</time>
      </trkpt>
      <trkpt lat="47.26408" lon="-2.3159">
        <ele>14.199999809265</ele>
        <time>2019-09-05T07:26:39.000Z</time>
      </trkpt>
      <trkpt lat="47.26408" lon="-2.31595">
        <ele>14</ele>
        <time>2019-09-05T07:26:40.000Z</time>
      </trkpt>
      <trkpt lat="47.26408" lon="-2.31613">
        <ele>14</ele>
        <time>2019-09-05T07:26:44.000Z</time>
      </trkpt>
      <trkpt lat="47.26411" lon="-2.31647">
        <ele>14</ele>
        <time>2019-09-05T07:26:51.000Z</time>
      </trkpt>
      <trkpt lat="47.2641" lon="-2.3165">
        <ele>14</ele>
        <time>2019-09-05T07:26:52.000Z</time>
      </trkpt>
      <trkpt lat="47.26399" lon="-2.31659">
        <ele>14</ele>
        <time>2019-09-05T07:26:58.000Z</time>
      </trkpt>
      <trkpt lat="47.26382" lon="-2.31669">
        <ele>14</ele>
        <time>2019-09-05T07:27:03.000Z</time>
      </trkpt>
      <trkpt lat="47.26352" lon="-2.31684">
        <ele>14</ele>
        <time>2019-09-05T07:27:10.000Z</time>
      </trkpt>
      <trkpt lat="47.26348" lon="-2.31686">
        <ele>13.60000038147</ele>
        <time>2019-09-05T07:27:11.000Z</time>
      </trkpt>
      <trkpt lat="47.26345" lon="-2.31688">
        <ele>13.199999809265</ele>
        <time>2019-09-05T07:27:12.000Z</time>
      </trkpt>
      <trkpt lat="47.26342" lon="-2.31691">
        <ele>12.800000190735</ele>
        <time>2019-09-05T07:27:13.000Z</time>
      </trkpt>
      <trkpt lat="47.26339" lon="-2.31696">
        <ele>12.39999961853</ele>
        <time>2019-09-05T07:27:14.000Z</time>
      </trkpt>
      <trkpt lat="47.26337" lon="-2.31701">
        <ele>12</ele>
        <time>2019-09-05T07:27:15.000Z</time>
      </trkpt>
      <trkpt lat="47.26328" lon="-2.31709">
        <ele>12</ele>
        <time>2019-09-05T07:27:18.000Z</time>
      </trkpt>
      <trkpt lat="47.26324" lon="-2.31711">
        <ele>11.60000038147</ele>
        <time>2019-09-05T07:27:19.000Z</time>
      </trkpt>
      <trkpt lat="47.2632" lon="-2.31713">
        <ele>11.199999809265</ele>
        <time>2019-09-05T07:27:20.000Z</time>
      </trkpt>
      <trkpt lat="47.26316" lon="-2.31715">
        <ele>10.800000190735</ele>
        <time>2019-09-05T07:27:21.000Z</time>
      </trkpt>
      <trkpt lat="47.26311" lon="-2.31715">
        <ele>10.39999961853</ele>
        <time>2019-09-05T07:27:22.000Z</time>
      </trkpt>
      <trkpt lat="47.26307" lon="-2.31713">
        <ele>10</ele>
        <time>2019-09-05T07:27:23.000Z</time>
      </trkpt>
      <trkpt lat="47.26292" lon="-2.31698">
        <ele>10</ele>
        <time>2019-09-05T07:27:27.000Z</time>
      </trkpt>
      <trkpt lat="47.26289" lon="-2.31693">
        <ele>10</ele>
        <time>2019-09-05T07:27:28.000Z</time>
      </trkpt>
      <trkpt lat="47.26286" lon="-2.31688">
        <ele>10</ele>
        <time>2019-09-05T07:27:29.000Z</time>
      </trkpt>
      <trkpt lat="47.26277" lon="-2.31674">
        <ele>10</ele>
        <time>2019-09-05T07:27:32.000Z</time>
      </trkpt>
      <trkpt lat="47.26266" lon="-2.31654">
        <ele>10</ele>
        <time>2019-09-05T07:27:36.000Z</time>
      </trkpt>
      <trkpt lat="47.26261" lon="-2.31644">
        <ele>10</ele>
        <time>2019-09-05T07:27:38.000Z</time>
      </trkpt>
      <trkpt lat="47.26249" lon="-2.31623">
        <ele>10</ele>
        <time>2019-09-05T07:27:42.000Z</time>
      </trkpt>
      <trkpt lat="47.26245" lon="-2.31619">
        <ele>10</ele>
        <time>2019-09-05T07:27:43.000Z</time>
      </trkpt>
      <trkpt lat="47.26227" lon="-2.31601">
        <ele>10</ele>
        <time>2019-09-05T07:27:48.000Z</time>
      </trkpt>
      <trkpt lat="47.26223" lon="-2.31599">
        <ele>10</ele>
        <time>2019-09-05T07:27:49.000Z</time>
      </trkpt>
      <trkpt lat="47.26205" lon="-2.31598">
        <ele>10</ele>
        <time>2019-09-05T07:27:53.000Z</time>
      </trkpt>
      <trkpt lat="47.26201" lon="-2.31599">
        <ele>10</ele>
        <time>2019-09-05T07:27:54.000Z</time>
      </trkpt>
      <trkpt lat="47.26179" lon="-2.31604">
        <ele>10</ele>
        <time>2019-09-05T07:27:59.000Z</time>
      </trkpt>
      <trkpt lat="47.26157" lon="-2.3161">
        <ele>10</ele>
        <time>2019-09-05T07:28:04.000Z</time>
      </trkpt>
      <trkpt lat="47.26147" lon="-2.31614">
        <ele>10</ele>
        <time>2019-09-05T07:28:06.000Z</time>
      </trkpt>
      <trkpt lat="47.26128" lon="-2.31616">
        <ele>10</ele>
        <time>2019-09-05T07:28:10.000Z</time>
      </trkpt>
      <trkpt lat="47.26106" lon="-2.31614">
        <ele>10</ele>
        <time>2019-09-05T07:28:16.000Z</time>
      </trkpt>
      <trkpt lat="47.26095" lon="-2.31599">
        <ele>10</ele>
        <time>2019-09-05T07:28:20.000Z</time>
      </trkpt>
      <trkpt lat="47.26093" lon="-2.31595">
        <ele>10</ele>
        <time>2019-09-05T07:28:21.000Z</time>
      </trkpt>
      <trkpt lat="47.26081" lon="-2.31583">
        <ele>10</ele>
        <time>2019-09-05T07:28:26.000Z</time>
      </trkpt>
      <trkpt lat="47.2607" lon="-2.31564">
        <ele>10</ele>
        <time>2019-09-05T07:28:31.000Z</time>
      </trkpt>
      <trkpt lat="47.26058" lon="-2.31539">
        <ele>10</ele>
        <time>2019-09-05T07:28:36.000Z</time>
      </trkpt>
      <trkpt lat="47.26055" lon="-2.31535">
        <ele>10</ele>
        <time>2019-09-05T07:28:37.000Z</time>
      </trkpt>
      <trkpt lat="47.2604" lon="-2.31518">
        <ele>10</ele>
        <time>2019-09-05T07:28:42.000Z</time>
      </trkpt>
      <trkpt lat="47.26038" lon="-2.31517">
        <ele>10</ele>
        <time>2019-09-05T07:28:43.000Z</time>
      </trkpt>
      <trkpt lat="47.26032" lon="-2.31524">
        <ele>10</ele>
        <time>2019-09-05T07:28:46.000Z</time>
      </trkpt>
      <trkpt lat="47.2603" lon="-2.31532">
        <ele>10</ele>
        <time>2019-09-05T07:28:48.000Z</time>
      </trkpt>
      <trkpt lat="47.26023" lon="-2.31552">
        <ele>10</ele>
        <time>2019-09-05T07:28:52.000Z</time>
      </trkpt>
      <trkpt lat="47.26012" lon="-2.31565">
        <ele>10</ele>
        <time>2019-09-05T07:28:56.000Z</time>
      </trkpt>
      <trkpt lat="47.2601" lon="-2.31563">
        <ele>10</ele>
        <time>2019-09-05T07:28:57.000Z</time>
      </trkpt>
      <trkpt lat="47.26001" lon="-2.31551">
        <ele>10</ele>
        <time>2019-09-05T07:29:00.000Z</time>
      </trkpt>
      <trkpt lat="47.25998" lon="-2.31547">
        <ele>10</ele>
        <time>2019-09-05T07:29:01.000Z</time>
      </trkpt>
      <trkpt lat="47.25992" lon="-2.31537">
        <ele>10.39999961853</ele>
        <time>2019-09-05T07:29:03.000Z</time>
      </trkpt>
      <trkpt lat="47.2599" lon="-2.31532">
        <ele>10.800000190735</ele>
        <time>2019-09-05T07:29:04.000Z</time>
      </trkpt>
      <trkpt lat="47.25987" lon="-2.31526">
        <ele>11.199999809265</ele>
        <time>2019-09-05T07:29:05.000Z</time>
      </trkpt>
      <trkpt lat="47.25984" lon="-2.31521">
        <ele>11.60000038147</ele>
        <time>2019-09-05T07:29:06.000Z</time>
      </trkpt>
      <trkpt lat="47.25982" lon="-2.31516">
        <ele>12</ele>
        <time>2019-09-05T07:29:07.000Z</time>
      </trkpt>
      <trkpt lat="47.25977" lon="-2.31505">
        <ele>12</ele>
        <time>2019-09-05T07:29:09.000Z</time>
      </trkpt>
      <trkpt lat="47.25971" lon="-2.31488">
        <ele>12</ele>
        <time>2019-09-05T07:29:12.000Z</time>
      </trkpt>
      <trkpt lat="47.25967" lon="-2.31483">
        <ele>12</ele>
        <time>2019-09-05T07:29:13.000Z</time>
      </trkpt>
      <trkpt lat="47.25946" lon="-2.31463">
        <ele>12</ele>
        <time>2019-09-05T07:29:19.000Z</time>
      </trkpt>
      <trkpt lat="47.25932" lon="-2.31459">
        <ele>12</ele>
        <time>2019-09-05T07:29:23.000Z</time>
      </trkpt>
      <trkpt lat="47.25929" lon="-2.31461">
        <ele>12</ele>
        <time>2019-09-05T07:29:24.000Z</time>
      </trkpt>
      <trkpt lat="47.25925" lon="-2.31469">
        <ele>12</ele>
        <time>2019-09-05T07:29:26.000Z</time>
      </trkpt>
      <trkpt lat="47.25912" lon="-2.31502">
        <ele>12</ele>
        <time>2019-09-05T07:29:34.000Z</time>
      </trkpt>
      <trkpt lat="47.25911" lon="-2.3151">
        <ele>12</ele>
        <time>2019-09-05T07:29:38.000Z</time>
      </trkpt>
      <trkpt lat="47.25906" lon="-2.31522">
        <ele>12</ele>
        <time>2019-09-05T07:29:43.000Z</time>
      </trkpt>
      <trkpt lat="47.25894" lon="-2.31549">
        <ele>12</ele>
        <time>2019-09-05T07:29:49.000Z</time>
      </trkpt>
      <trkpt lat="47.25885" lon="-2.31572">
        <ele>12.39999961853</ele>
        <time>2019-09-05T07:29:54.000Z</time>
      </trkpt>
      <trkpt lat="47.25882" lon="-2.31576">
        <ele>12.800000190735</ele>
        <time>2019-09-05T07:29:55.000Z</time>
      </trkpt>
      <trkpt lat="47.25879" lon="-2.31579">
        <ele>13.199999809265</ele>
        <time>2019-09-05T07:29:56.000Z</time>
      </trkpt>
      <trkpt lat="47.25877" lon="-2.31582">
        <ele>13.60000038147</ele>
        <time>2019-09-05T07:29:57.000Z</time>
      </trkpt>
      <trkpt lat="47.25874" lon="-2.31585">
        <ele>14</ele>
        <time>2019-09-05T07:29:58.000Z</time>
      </trkpt>
      <trkpt lat="47.2586" lon="-2.31597">
        <ele>14</ele>
        <time>2019-09-05T07:30:02.000Z</time>
      </trkpt>
      <trkpt lat="47.25841" lon="-2.31614">
        <ele>14</ele>
        <time>2019-09-05T07:30:08.000Z</time>
      </trkpt>
      <trkpt lat="47.25828" lon="-2.31624">
        <ele>14.800000190735</ele>
        <time>2019-09-05T07:30:12.000Z</time>
      </trkpt>
      <trkpt lat="47.25825" lon="-2.31626">
        <ele>15.199999809265</ele>
        <time>2019-09-05T07:30:13.000Z</time>
      </trkpt>
      <trkpt lat="47.25822" lon="-2.31629">
        <ele>15.60000038147</ele>
        <time>2019-09-05T07:30:14.000Z</time>
      </trkpt>
      <trkpt lat="47.25818" lon="-2.31632">
        <ele>16</ele>
        <time>2019-09-05T07:30:15.000Z</time>
      </trkpt>
      <trkpt lat="47.25807" lon="-2.31641">
        <ele>16</ele>
        <time>2019-09-05T07:30:18.000Z</time>
      </trkpt>
      <trkpt lat="47.25774" lon="-2.31669">
        <ele>16</ele>
        <time>2019-09-05T07:30:26.000Z</time>
      </trkpt>
      <trkpt lat="47.25744" lon="-2.31694">
        <ele>16</ele>
        <time>2019-09-05T07:30:32.000Z</time>
      </trkpt>
      <trkpt lat="47.25734" lon="-2.31701">
        <ele>16</ele>
        <time>2019-09-05T07:30:34.000Z</time>
      </trkpt>
      <trkpt lat="47.25723" lon="-2.31704">
        <ele>16</ele>
        <time>2019-09-05T07:30:36.000Z</time>
      </trkpt>
      <trkpt lat="47.25719" lon="-2.31703">
        <ele>15.60000038147</ele>
        <time>2019-09-05T07:30:37.000Z</time>
      </trkpt>
      <trkpt lat="47.25714" lon="-2.31702">
        <ele>15.199999809265</ele>
        <time>2019-09-05T07:30:38.000Z</time>
      </trkpt>
      <trkpt lat="47.2571" lon="-2.31698">
        <ele>14.800000190735</ele>
        <time>2019-09-05T07:30:39.000Z</time>
      </trkpt>
      <trkpt lat="47.25705" lon="-2.31695">
        <ele>14.39999961853</ele>
        <time>2019-09-05T07:30:40.000Z</time>
      </trkpt>
      <trkpt lat="47.25701" lon="-2.31693">
        <ele>14</ele>
        <time>2019-09-05T07:30:41.000Z</time>
      </trkpt>
      <trkpt lat="47.2568" lon="-2.31686">
        <ele>14</ele>
        <time>2019-09-05T07:30:46.000Z</time>
      </trkpt>
      <trkpt lat="47.25673" lon="-2.31687">
        <ele>14</ele>
        <time>2019-09-05T07:30:48.000Z</time>
      </trkpt>
      <trkpt lat="47.2567" lon="-2.31689">
        <ele>14</ele>
        <time>2019-09-05T07:30:49.000Z</time>
      </trkpt>
      <trkpt lat="47.25664" lon="-2.31693">
        <ele>14.39999961853</ele>
        <time>2019-09-05T07:30:51.000Z</time>
      </trkpt>
      <trkpt lat="47.2566" lon="-2.31695">
        <ele>14.800000190735</ele>
        <time>2019-09-05T07:30:52.000Z</time>
      </trkpt>
      <trkpt lat="47.25656" lon="-2.31696">
        <ele>15.199999809265</ele>
        <time>2019-09-05T07:30:53.000Z</time>
      </trkpt>
      <trkpt lat="47.25653" lon="-2.31699">
        <ele>15.60000038147</ele>
        <time>2019-09-05T07:30:54.000Z</time>
      </trkpt>
      <trkpt lat="47.2565" lon="-2.31702">
        <ele>16</ele>
        <time>2019-09-05T07:30:55.000Z</time>
      </trkpt>
      <trkpt lat="47.25648" lon="-2.31705">
        <ele>16</ele>
        <time>2019-09-05T07:30:56.000Z</time>
      </trkpt>
      <trkpt lat="47.2564" lon="-2.31714">
        <ele>16</ele>
        <time>2019-09-05T07:30:59.000Z</time>
      </trkpt>
      <trkpt lat="47.25632" lon="-2.31722">
        <ele>16.39999961853</ele>
        <time>2019-09-05T07:31:02.000Z</time>
      </trkpt>
      <trkpt lat="47.25631" lon="-2.31726">
        <ele>17</ele>
        <time>2019-09-05T07:31:03.000Z</time>
      </trkpt>
      <trkpt lat="47.25629" lon="-2.31731">
        <ele>17.39999961853</ele>
        <time>2019-09-05T07:31:04.000Z</time>
      </trkpt>
      <trkpt lat="47.25628" lon="-2.31735">
        <ele>17.799999237061</ele>
        <time>2019-09-05T07:31:05.000Z</time>
      </trkpt>
      <trkpt lat="47.25627" lon="-2.3174">
        <ele>18.200000762939</ele>
        <time>2019-09-05T07:31:06.000Z</time>
      </trkpt>
      <trkpt lat="47.25623" lon="-2.31755">
        <ele>18.200000762939</ele>
        <time>2019-09-05T07:31:09.000Z</time>
      </trkpt>
      <trkpt lat="47.25621" lon="-2.31759">
        <ele>18.200000762939</ele>
        <time>2019-09-05T07:31:10.000Z</time>
      </trkpt>
      <trkpt lat="47.25604" lon="-2.31767">
        <ele>18.200000762939</ele>
        <time>2019-09-05T07:31:14.000Z</time>
      </trkpt>
      <trkpt lat="47.25599" lon="-2.31767">
        <ele>18.200000762939</ele>
        <time>2019-09-05T07:31:15.000Z</time>
      </trkpt>
      <trkpt lat="47.25585" lon="-2.31771">
        <ele>18.200000762939</ele>
        <time>2019-09-05T07:31:18.000Z</time>
      </trkpt>
      <trkpt lat="47.25577" lon="-2.31777">
        <ele>18.200000762939</ele>
        <time>2019-09-05T07:31:20.000Z</time>
      </trkpt>
      <trkpt lat="47.25574" lon="-2.3178">
        <ele>18.200000762939</ele>
        <time>2019-09-05T07:31:21.000Z</time>
      </trkpt>
      <trkpt lat="47.25566" lon="-2.31793">
        <ele>18.60000038147</ele>
        <time>2019-09-05T07:31:24.000Z</time>
      </trkpt>
      <trkpt lat="47.25562" lon="-2.31796">
        <ele>19</ele>
        <time>2019-09-05T07:31:25.000Z</time>
      </trkpt>
      <trkpt lat="47.25559" lon="-2.31798">
        <ele>19.799999237061</ele>
        <time>2019-09-05T07:31:26.000Z</time>
      </trkpt>
      <trkpt lat="47.25556" lon="-2.318">
        <ele>20.200000762939</ele>
        <time>2019-09-05T07:31:27.000Z</time>
      </trkpt>
      <trkpt lat="47.25553" lon="-2.31803">
        <ele>20.200000762939</ele>
        <time>2019-09-05T07:31:28.000Z</time>
      </trkpt>
      <trkpt lat="47.25536" lon="-2.31811">
        <ele>20.200000762939</ele>
        <time>2019-09-05T07:31:33.000Z</time>
      </trkpt>
      <trkpt lat="47.2553" lon="-2.31814">
        <ele>20.60000038147</ele>
        <time>2019-09-05T07:31:35.000Z</time>
      </trkpt>
      <trkpt lat="47.25528" lon="-2.31816">
        <ele>21</ele>
        <time>2019-09-05T07:31:36.000Z</time>
      </trkpt>
      <trkpt lat="47.25527" lon="-2.3182">
        <ele>21.39999961853</ele>
        <time>2019-09-05T07:31:37.000Z</time>
      </trkpt>
      <trkpt lat="47.25526" lon="-2.31823">
        <ele>21.799999237061</ele>
        <time>2019-09-05T07:31:38.000Z</time>
      </trkpt>
      <trkpt lat="47.25525" lon="-2.31824">
        <ele>22.200000762939</ele>
        <time>2019-09-05T07:31:39.000Z</time>
      </trkpt>
      <trkpt lat="47.25525" lon="-2.31824">
        <ele>22.200000762939</ele>
        <time>2019-09-05T07:31:41.000Z</time>
      </trkpt>
      <trkpt lat="47.25525" lon="-2.31824">
        <ele>22.200000762939</ele>
        <time>2019-09-05T07:31:42.000Z</time>
      </trkpt>
      <trkpt lat="47.25521" lon="-2.31831">
        <ele>22.200000762939</ele>
        <time>2019-09-05T07:39:07.000Z</time>
      </trkpt>
      <trkpt lat="47.25518" lon="-2.31835">
        <ele>22.200000762939</ele>
        <time>2019-09-05T07:39:10.000Z</time>
      </trkpt>
      <trkpt lat="47.25513" lon="-2.31834">
        <ele>22.200000762939</ele>
        <time>2019-09-05T07:39:14.000Z</time>
      </trkpt>
      <trkpt lat="47.25512" lon="-2.31833">
        <ele>22.200000762939</ele>
        <time>2019-09-05T07:39:15.000Z</time>
      </trkpt>
      <trkpt lat="47.25508" lon="-2.31829">
        <ele>22.200000762939</ele>
        <time>2019-09-05T07:39:18.000Z</time>
      </trkpt>
      <trkpt lat="47.25502" lon="-2.31826">
        <ele>22.200000762939</ele>
        <time>2019-09-05T07:39:21.000Z</time>
      </trkpt>
      <trkpt lat="47.25486" lon="-2.31832">
        <ele>22.200000762939</ele>
        <time>2019-09-05T07:39:27.000Z</time>
      </trkpt>
      <trkpt lat="47.25471" lon="-2.31847">
        <ele>22.200000762939</ele>
        <time>2019-09-05T07:39:32.000Z</time>
      </trkpt>
      <trkpt lat="47.25468" lon="-2.31846">
        <ele>22.200000762939</ele>
        <time>2019-09-05T07:39:33.000Z</time>
      </trkpt>
      <trkpt lat="47.25462" lon="-2.3184">
        <ele>22.200000762939</ele>
        <time>2019-09-05T07:39:35.000Z</time>
      </trkpt>
      <trkpt lat="47.25456" lon="-2.31825">
        <ele>22.200000762939</ele>
        <time>2019-09-05T07:39:38.000Z</time>
      </trkpt>
      <trkpt lat="47.25452" lon="-2.31808">
        <ele>22.200000762939</ele>
        <time>2019-09-05T07:39:41.000Z</time>
      </trkpt>
      <trkpt lat="47.25447" lon="-2.3179">
        <ele>22.200000762939</ele>
        <time>2019-09-05T07:39:44.000Z</time>
      </trkpt>
      <trkpt lat="47.2544" lon="-2.31773">
        <ele>22.200000762939</ele>
        <time>2019-09-05T07:39:47.000Z</time>
      </trkpt>
      <trkpt lat="47.25425" lon="-2.31725">
        <ele>22.200000762939</ele>
        <time>2019-09-05T07:39:55.000Z</time>
      </trkpt>
      <trkpt lat="47.25406" lon="-2.31675">
        <ele>22.200000762939</ele>
        <time>2019-09-05T07:40:03.000Z</time>
      </trkpt>
      <trkpt lat="47.25383" lon="-2.31629">
        <ele>22.200000762939</ele>
        <time>2019-09-05T07:40:11.000Z</time>
      </trkpt>
      <trkpt lat="47.25377" lon="-2.31619">
        <ele>22.60000038147</ele>
        <time>2019-09-05T07:40:13.000Z</time>
      </trkpt>
      <trkpt lat="47.25374" lon="-2.31614">
        <ele>23</ele>
        <time>2019-09-05T07:40:14.000Z</time>
      </trkpt>
      <trkpt lat="47.25371" lon="-2.31609">
        <ele>23.39999961853</ele>
        <time>2019-09-05T07:40:15.000Z</time>
      </trkpt>
      <trkpt lat="47.25368" lon="-2.31604">
        <ele>23.799999237061</ele>
        <time>2019-09-05T07:40:16.000Z</time>
      </trkpt>
      <trkpt lat="47.25365" lon="-2.316">
        <ele>24.200000762939</ele>
        <time>2019-09-05T07:40:17.000Z</time>
      </trkpt>
      <trkpt lat="47.2536" lon="-2.31591">
        <ele>24.200000762939</ele>
        <time>2019-09-05T07:40:19.000Z</time>
      </trkpt>
      <trkpt lat="47.25343" lon="-2.31561">
        <ele>24.200000762939</ele>
        <time>2019-09-05T07:40:25.000Z</time>
      </trkpt>
      <trkpt lat="47.25341" lon="-2.31556">
        <ele>24.200000762939</ele>
        <time>2019-09-05T07:40:26.000Z</time>
      </trkpt>
      <trkpt lat="47.25334" lon="-2.31533">
        <ele>24.200000762939</ele>
        <time>2019-09-05T07:40:30.000Z</time>
      </trkpt>
      <trkpt lat="47.25327" lon="-2.3151">
        <ele>24.60000038147</ele>
        <time>2019-09-05T07:40:34.000Z</time>
      </trkpt>
      <trkpt lat="47.25326" lon="-2.31504">
        <ele>25</ele>
        <time>2019-09-05T07:40:35.000Z</time>
      </trkpt>
      <trkpt lat="47.25325" lon="-2.31498">
        <ele>25.39999961853</ele>
        <time>2019-09-05T07:40:36.000Z</time>
      </trkpt>
      <trkpt lat="47.25324" lon="-2.31492">
        <ele>25.799999237061</ele>
        <time>2019-09-05T07:40:37.000Z</time>
      </trkpt>
      <trkpt lat="47.25324" lon="-2.31485">
        <ele>26.200000762939</ele>
        <time>2019-09-05T07:40:38.000Z</time>
      </trkpt>
      <trkpt lat="47.2532" lon="-2.31454">
        <ele>26.200000762939</ele>
        <time>2019-09-05T07:40:43.000Z</time>
      </trkpt>
      <trkpt lat="47.25319" lon="-2.31448">
        <ele>26.200000762939</ele>
        <time>2019-09-05T07:40:44.000Z</time>
      </trkpt>
      <trkpt lat="47.25311" lon="-2.31433">
        <ele>26.200000762939</ele>
        <time>2019-09-05T07:40:47.000Z</time>
      </trkpt>
      <trkpt lat="47.25294" lon="-2.31427">
        <ele>26.200000762939</ele>
        <time>2019-09-05T07:40:51.000Z</time>
      </trkpt>
      <trkpt lat="47.2529" lon="-2.31428">
        <ele>26.200000762939</ele>
        <time>2019-09-05T07:40:52.000Z</time>
      </trkpt>
      <trkpt lat="47.25285" lon="-2.3143">
        <ele>26.200000762939</ele>
        <time>2019-09-05T07:40:53.000Z</time>
      </trkpt>
      <trkpt lat="47.25273" lon="-2.31434">
        <ele>26.200000762939</ele>
        <time>2019-09-05T07:40:56.000Z</time>
      </trkpt>
      <trkpt lat="47.2524" lon="-2.31452">
        <ele>26.200000762939</ele>
        <time>2019-09-05T07:41:03.000Z</time>
      </trkpt>
      <trkpt lat="47.25214" lon="-2.3147">
        <ele>26.200000762939</ele>
        <time>2019-09-05T07:41:09.000Z</time>
      </trkpt>
      <trkpt lat="47.25211" lon="-2.31473">
        <ele>26.200000762939</ele>
        <time>2019-09-05T07:41:10.000Z</time>
      </trkpt>
      <trkpt lat="47.25201" lon="-2.31487">
        <ele>26.200000762939</ele>
        <time>2019-09-05T07:41:13.000Z</time>
      </trkpt>
      <trkpt lat="47.25185" lon="-2.315">
        <ele>27.200000762939</ele>
        <time>2019-09-05T07:41:17.000Z</time>
      </trkpt>
      <trkpt lat="47.25181" lon="-2.31505">
        <ele>27.60000038147</ele>
        <time>2019-09-05T07:41:18.000Z</time>
      </trkpt>
      <trkpt lat="47.25178" lon="-2.31509">
        <ele>28</ele>
        <time>2019-09-05T07:41:19.000Z</time>
      </trkpt>
      <trkpt lat="47.25175" lon="-2.31515">
        <ele>28.39999961853</ele>
        <time>2019-09-05T07:41:20.000Z</time>
      </trkpt>
      <trkpt lat="47.2516" lon="-2.31537">
        <ele>28.39999961853</ele>
        <time>2019-09-05T07:41:24.000Z</time>
      </trkpt>
      <trkpt lat="47.25136" lon="-2.31565">
        <ele>28.39999961853</ele>
        <time>2019-09-05T07:41:31.000Z</time>
      </trkpt>
      <trkpt lat="47.2512" lon="-2.31577">
        <ele>28.39999961853</ele>
        <time>2019-09-05T07:41:36.000Z</time>
      </trkpt>
      <trkpt lat="47.25099" lon="-2.31593">
        <ele>28.39999961853</ele>
        <time>2019-09-05T07:41:42.000Z</time>
      </trkpt>
      <trkpt lat="47.25095" lon="-2.31597">
        <ele>28.39999961853</ele>
        <time>2019-09-05T07:41:43.000Z</time>
      </trkpt>
      <trkpt lat="47.25066" lon="-2.31626">
        <ele>28.39999961853</ele>
        <time>2019-09-05T07:41:51.000Z</time>
      </trkpt>
      <trkpt lat="47.25059" lon="-2.31634">
        <ele>28.39999961853</ele>
        <time>2019-09-05T07:41:53.000Z</time>
      </trkpt>
      <trkpt lat="47.25047" lon="-2.31647">
        <ele>28.39999961853</ele>
        <time>2019-09-05T07:41:56.000Z</time>
      </trkpt>
      <trkpt lat="47.25042" lon="-2.3165">
        <ele>28.39999961853</ele>
        <time>2019-09-05T07:41:57.000Z</time>
      </trkpt>
      <trkpt lat="47.25023" lon="-2.31668">
        <ele>28.39999961853</ele>
        <time>2019-09-05T07:42:01.000Z</time>
      </trkpt>
      <trkpt lat="47.25" lon="-2.31692">
        <ele>28.39999961853</ele>
        <time>2019-09-05T07:42:06.000Z</time>
      </trkpt>
      <trkpt lat="47.24991" lon="-2.317">
        <ele>28.39999961853</ele>
        <time>2019-09-05T07:42:08.000Z</time>
      </trkpt>
      <trkpt lat="47.24961" lon="-2.31732">
        <ele>28.39999961853</ele>
        <time>2019-09-05T07:42:15.000Z</time>
      </trkpt>
      <trkpt lat="47.24933" lon="-2.31759">
        <ele>28.39999961853</ele>
        <time>2019-09-05T07:42:21.000Z</time>
      </trkpt>
      <trkpt lat="47.24892" lon="-2.31793">
        <ele>28.39999961853</ele>
        <time>2019-09-05T07:42:29.000Z</time>
      </trkpt>
      <trkpt lat="47.24872" lon="-2.31811">
        <ele>28.39999961853</ele>
        <time>2019-09-05T07:42:33.000Z</time>
      </trkpt>
      <trkpt lat="47.24863" lon="-2.31822">
        <ele>28.39999961853</ele>
        <time>2019-09-05T07:42:35.000Z</time>
      </trkpt>
      <trkpt lat="47.24853" lon="-2.31831">
        <ele>28.39999961853</ele>
        <time>2019-09-05T07:42:37.000Z</time>
      </trkpt>
      <trkpt lat="47.24828" lon="-2.31852">
        <ele>28.39999961853</ele>
        <time>2019-09-05T07:42:42.000Z</time>
      </trkpt>
      <trkpt lat="47.24809" lon="-2.31868">
        <ele>28.39999961853</ele>
        <time>2019-09-05T07:42:47.000Z</time>
      </trkpt>
      <trkpt lat="47.24804" lon="-2.31871">
        <ele>28</ele>
        <time>2019-09-05T07:42:49.000Z</time>
      </trkpt>
      <trkpt lat="47.24802" lon="-2.31873">
        <ele>27.60000038147</ele>
        <time>2019-09-05T07:42:50.000Z</time>
      </trkpt>
      <trkpt lat="47.24799" lon="-2.31873">
        <ele>27</ele>
        <time>2019-09-05T07:42:51.000Z</time>
      </trkpt>
      <trkpt lat="47.24796" lon="-2.31871">
        <ele>26.60000038147</ele>
        <time>2019-09-05T07:42:52.000Z</time>
      </trkpt>
      <trkpt lat="47.24793" lon="-2.31866">
        <ele>26.200000762939</ele>
        <time>2019-09-05T07:42:53.000Z</time>
      </trkpt>
      <trkpt lat="47.24787" lon="-2.31856">
        <ele>26.200000762939</ele>
        <time>2019-09-05T07:42:55.000Z</time>
      </trkpt>
      <trkpt lat="47.24776" lon="-2.31839">
        <ele>26.200000762939</ele>
        <time>2019-09-05T07:42:58.000Z</time>
      </trkpt>
      <trkpt lat="47.24765" lon="-2.31822">
        <ele>26.200000762939</ele>
        <time>2019-09-05T07:43:01.000Z</time>
      </trkpt>
      <trkpt lat="47.24736" lon="-2.31779">
        <ele>26.200000762939</ele>
        <time>2019-09-05T07:43:08.000Z</time>
      </trkpt>
      <trkpt lat="47.2472" lon="-2.31756">
        <ele>26.200000762939</ele>
        <time>2019-09-05T07:43:12.000Z</time>
      </trkpt>
      <trkpt lat="47.24704" lon="-2.31731">
        <ele>26.200000762939</ele>
        <time>2019-09-05T07:43:16.000Z</time>
      </trkpt>
      <trkpt lat="47.24669" lon="-2.31676">
        <ele>26.200000762939</ele>
        <time>2019-09-05T07:43:25.000Z</time>
      </trkpt>
      <trkpt lat="47.24646" lon="-2.31642">
        <ele>26.200000762939</ele>
        <time>2019-09-05T07:43:31.000Z</time>
      </trkpt>
      <trkpt lat="47.24619" lon="-2.31599">
        <ele>26.200000762939</ele>
        <time>2019-09-05T07:43:38.000Z</time>
      </trkpt>
      <trkpt lat="47.24598" lon="-2.31561">
        <ele>26.200000762939</ele>
        <time>2019-09-05T07:43:44.000Z</time>
      </trkpt>
      <trkpt lat="47.24596" lon="-2.31554">
        <ele>26.200000762939</ele>
        <time>2019-09-05T07:43:45.000Z</time>
      </trkpt>
      <trkpt lat="47.24591" lon="-2.31523">
        <ele>26.200000762939</ele>
        <time>2019-09-05T07:43:49.000Z</time>
      </trkpt>
      <trkpt lat="47.24589" lon="-2.31499">
        <ele>26.200000762939</ele>
        <time>2019-09-05T07:43:52.000Z</time>
      </trkpt>
      <trkpt lat="47.24583" lon="-2.31444">
        <ele>26.200000762939</ele>
        <time>2019-09-05T07:43:59.000Z</time>
      </trkpt>
      <trkpt lat="47.24578" lon="-2.31405">
        <ele>26.200000762939</ele>
        <time>2019-09-05T07:44:04.000Z</time>
      </trkpt>
      <trkpt lat="47.24575" lon="-2.31395">
        <ele>26.200000762939</ele>
        <time>2019-09-05T07:44:06.000Z</time>
      </trkpt>
      <trkpt lat="47.24573" lon="-2.31393">
        <ele>26.200000762939</ele>
        <time>2019-09-05T07:44:07.000Z</time>
      </trkpt>
      <trkpt lat="47.24566" lon="-2.31392">
        <ele>26.200000762939</ele>
        <time>2019-09-05T07:44:10.000Z</time>
      </trkpt>
      <trkpt lat="47.24563" lon="-2.31393">
        <ele>26.200000762939</ele>
        <time>2019-09-05T07:44:11.000Z</time>
      </trkpt>
      <trkpt lat="47.24548" lon="-2.31393">
        <ele>26.200000762939</ele>
        <time>2019-09-05T07:44:15.000Z</time>
      </trkpt>
      <trkpt lat="47.2454" lon="-2.31391">
        <ele>26.200000762939</ele>
        <time>2019-09-05T07:44:17.000Z</time>
      </trkpt>
      <trkpt lat="47.24523" lon="-2.31382">
        <ele>26.200000762939</ele>
        <time>2019-09-05T07:44:21.000Z</time>
      </trkpt>
      <trkpt lat="47.24515" lon="-2.31375">
        <ele>26.200000762939</ele>
        <time>2019-09-05T07:44:23.000Z</time>
      </trkpt>
      <trkpt lat="47.24507" lon="-2.31365">
        <ele>26.200000762939</ele>
        <time>2019-09-05T07:44:25.000Z</time>
      </trkpt>
      <trkpt lat="47.24501" lon="-2.31355">
        <ele>26.200000762939</ele>
        <time>2019-09-05T07:44:27.000Z</time>
      </trkpt>
      <trkpt lat="47.24498" lon="-2.31349">
        <ele>25.799999237061</ele>
        <time>2019-09-05T07:44:28.000Z</time>
      </trkpt>
      <trkpt lat="47.24496" lon="-2.31343">
        <ele>25.200000762939</ele>
        <time>2019-09-05T07:44:29.000Z</time>
      </trkpt>
      <trkpt lat="47.24494" lon="-2.31338">
        <ele>24.799999237061</ele>
        <time>2019-09-05T07:44:30.000Z</time>
      </trkpt>
      <trkpt lat="47.24491" lon="-2.31333">
        <ele>24.39999961853</ele>
        <time>2019-09-05T07:44:31.000Z</time>
      </trkpt>
      <trkpt lat="47.24488" lon="-2.31329">
        <ele>23.799999237061</ele>
        <time>2019-09-05T07:44:32.000Z</time>
      </trkpt>
      <trkpt lat="47.2448" lon="-2.3131">
        <ele>23</ele>
        <time>2019-09-05T07:44:35.000Z</time>
      </trkpt>
      <trkpt lat="47.24477" lon="-2.31303">
        <ele>22.60000038147</ele>
        <time>2019-09-05T07:44:36.000Z</time>
      </trkpt>
      <trkpt lat="47.24474" lon="-2.31295">
        <ele>22.200000762939</ele>
        <time>2019-09-05T07:44:37.000Z</time>
      </trkpt>
      <trkpt lat="47.2447" lon="-2.31287">
        <ele>21.60000038147</ele>
        <time>2019-09-05T07:44:38.000Z</time>
      </trkpt>
      <trkpt lat="47.24461" lon="-2.31265">
        <ele>21.60000038147</ele>
        <time>2019-09-05T07:44:41.000Z</time>
      </trkpt>
      <trkpt lat="47.24451" lon="-2.31237">
        <ele>21.60000038147</ele>
        <time>2019-09-05T07:44:46.000Z</time>
      </trkpt>
      <trkpt lat="47.24448" lon="-2.31233">
        <ele>21.200000762939</ele>
        <time>2019-09-05T07:44:47.000Z</time>
      </trkpt>
      <trkpt lat="47.24446" lon="-2.3123">
        <ele>20.799999237061</ele>
        <time>2019-09-05T07:44:48.000Z</time>
      </trkpt>
      <trkpt lat="47.24444" lon="-2.31228">
        <ele>20.39999961853</ele>
        <time>2019-09-05T07:44:49.000Z</time>
      </trkpt>
      <trkpt lat="47.24441" lon="-2.31228">
        <ele>20</ele>
        <time>2019-09-05T07:44:50.000Z</time>
      </trkpt>
      <trkpt lat="47.24439" lon="-2.31228">
        <ele>19.39999961853</ele>
        <time>2019-09-05T07:44:51.000Z</time>
      </trkpt>
      <trkpt lat="47.24436" lon="-2.31229">
        <ele>19</ele>
        <time>2019-09-05T07:44:52.000Z</time>
      </trkpt>
      <trkpt lat="47.24433" lon="-2.3123">
        <ele>18.39999961853</ele>
        <time>2019-09-05T07:44:53.000Z</time>
      </trkpt>
      <trkpt lat="47.24431" lon="-2.3123">
        <ele>18</ele>
        <time>2019-09-05T07:44:54.000Z</time>
      </trkpt>
      <trkpt lat="47.24429" lon="-2.31229">
        <ele>17.39999961853</ele>
        <time>2019-09-05T07:44:55.000Z</time>
      </trkpt>
      <trkpt lat="47.24425" lon="-2.31215">
        <ele>17.39999961853</ele>
        <time>2019-09-05T07:44:59.000Z</time>
      </trkpt>
      <trkpt lat="47.2442" lon="-2.31206">
        <ele>17.39999961853</ele>
        <time>2019-09-05T07:45:02.000Z</time>
      </trkpt>
      <trkpt lat="47.24418" lon="-2.31201">
        <ele>17.39999961853</ele>
        <time>2019-09-05T07:45:04.000Z</time>
      </trkpt>
      <trkpt lat="47.24415" lon="-2.31194">
        <ele>17.39999961853</ele>
        <time>2019-09-05T07:45:07.000Z</time>
      </trkpt>
      <trkpt lat="47.2441" lon="-2.31189">
        <ele>17.39999961853</ele>
        <time>2019-09-05T07:45:09.000Z</time>
      </trkpt>
      <trkpt lat="47.24406" lon="-2.31185">
        <ele>17.799999237061</ele>
        <time>2019-09-05T07:45:10.000Z</time>
      </trkpt>
      <trkpt lat="47.24403" lon="-2.31181">
        <ele>18.200000762939</ele>
        <time>2019-09-05T07:45:11.000Z</time>
      </trkpt>
      <trkpt lat="47.24399" lon="-2.31177">
        <ele>18.799999237061</ele>
        <time>2019-09-05T07:45:12.000Z</time>
      </trkpt>
      <trkpt lat="47.24395" lon="-2.31174">
        <ele>19.200000762939</ele>
        <time>2019-09-05T07:45:13.000Z</time>
      </trkpt>
      <trkpt lat="47.24392" lon="-2.3117">
        <ele>19.60000038147</ele>
        <time>2019-09-05T07:45:14.000Z</time>
      </trkpt>
      <trkpt lat="47.24388" lon="-2.31166">
        <ele>19.60000038147</ele>
        <time>2019-09-05T07:45:15.000Z</time>
      </trkpt>
      <trkpt lat="47.24378" lon="-2.31152">
        <ele>19.60000038147</ele>
        <time>2019-09-05T07:45:18.000Z</time>
      </trkpt>
      <trkpt lat="47.24372" lon="-2.31142">
        <ele>19.60000038147</ele>
        <time>2019-09-05T07:45:20.000Z</time>
      </trkpt>
      <trkpt lat="47.24363" lon="-2.31127">
        <ele>19.60000038147</ele>
        <time>2019-09-05T07:45:23.000Z</time>
      </trkpt>
      <trkpt lat="47.24358" lon="-2.31116">
        <ele>19.60000038147</ele>
        <time>2019-09-05T07:45:25.000Z</time>
      </trkpt>
      <trkpt lat="47.24351" lon="-2.31095">
        <ele>19.60000038147</ele>
        <time>2019-09-05T07:45:29.000Z</time>
      </trkpt>
      <trkpt lat="47.24348" lon="-2.31083">
        <ele>19.60000038147</ele>
        <time>2019-09-05T07:45:31.000Z</time>
      </trkpt>
      <trkpt lat="47.24344" lon="-2.31069">
        <ele>19.60000038147</ele>
        <time>2019-09-05T07:45:33.000Z</time>
      </trkpt>
      <trkpt lat="47.24333" lon="-2.31046">
        <ele>19.60000038147</ele>
        <time>2019-09-05T07:45:37.000Z</time>
      </trkpt>
      <trkpt lat="47.24314" lon="-2.31036">
        <ele>19.60000038147</ele>
        <time>2019-09-05T07:45:41.000Z</time>
      </trkpt>
      <trkpt lat="47.24288" lon="-2.31035">
        <ele>19.60000038147</ele>
        <time>2019-09-05T07:45:46.000Z</time>
      </trkpt>
      <trkpt lat="47.24282" lon="-2.31029">
        <ele>19</ele>
        <time>2019-09-05T07:45:48.000Z</time>
      </trkpt>
      <trkpt lat="47.24281" lon="-2.31025">
        <ele>18.60000038147</ele>
        <time>2019-09-05T07:45:49.000Z</time>
      </trkpt>
      <trkpt lat="47.24281" lon="-2.3102">
        <ele>17.799999237061</ele>
        <time>2019-09-05T07:45:50.000Z</time>
      </trkpt>
      <trkpt lat="47.24282" lon="-2.31014">
        <ele>17.200000762939</ele>
        <time>2019-09-05T07:45:51.000Z</time>
      </trkpt>
      <trkpt lat="47.24282" lon="-2.31009">
        <ele>17.200000762939</ele>
        <time>2019-09-05T07:45:52.000Z</time>
      </trkpt>
      <trkpt lat="47.24283" lon="-2.31002">
        <ele>17.200000762939</ele>
        <time>2019-09-05T07:45:53.000Z</time>
      </trkpt>
      <trkpt lat="47.24287" lon="-2.30972">
        <ele>17.60000038147</ele>
        <time>2019-09-05T07:45:58.000Z</time>
      </trkpt>
      <trkpt lat="47.24288" lon="-2.30966">
        <ele>18</ele>
        <time>2019-09-05T07:45:59.000Z</time>
      </trkpt>
      <trkpt lat="47.24289" lon="-2.30961">
        <ele>18.60000038147</ele>
        <time>2019-09-05T07:46:00.000Z</time>
      </trkpt>
      <trkpt lat="47.2429" lon="-2.30955">
        <ele>19</ele>
        <time>2019-09-05T07:46:01.000Z</time>
      </trkpt>
      <trkpt lat="47.2429" lon="-2.30949">
        <ele>19.39999961853</ele>
        <time>2019-09-05T07:46:02.000Z</time>
      </trkpt>
      <trkpt lat="47.24292" lon="-2.30934">
        <ele>19.799999237061</ele>
        <time>2019-09-05T07:46:05.000Z</time>
      </trkpt>
      <trkpt lat="47.24293" lon="-2.30928">
        <ele>20.200000762939</ele>
        <time>2019-09-05T07:46:06.000Z</time>
      </trkpt>
      <trkpt lat="47.24293" lon="-2.30924">
        <ele>20.60000038147</ele>
        <time>2019-09-05T07:46:07.000Z</time>
      </trkpt>
      <trkpt lat="47.24293" lon="-2.30919">
        <ele>21</ele>
        <time>2019-09-05T07:46:08.000Z</time>
      </trkpt>
      <trkpt lat="47.24292" lon="-2.30913">
        <ele>21.39999961853</ele>
        <time>2019-09-05T07:46:09.000Z</time>
      </trkpt>
      <trkpt lat="47.24291" lon="-2.30903">
        <ele>21.39999961853</ele>
        <time>2019-09-05T07:46:11.000Z</time>
      </trkpt>
      <trkpt lat="47.24285" lon="-2.30875">
        <ele>21.799999237061</ele>
        <time>2019-09-05T07:46:16.000Z</time>
      </trkpt>
      <trkpt lat="47.24284" lon="-2.30869">
        <ele>22.200000762939</ele>
        <time>2019-09-05T07:46:17.000Z</time>
      </trkpt>
      <trkpt lat="47.24285" lon="-2.30863">
        <ele>22.799999237061</ele>
        <time>2019-09-05T07:46:18.000Z</time>
      </trkpt>
      <trkpt lat="47.24285" lon="-2.30858">
        <ele>23.200000762939</ele>
        <time>2019-09-05T07:46:19.000Z</time>
      </trkpt>
      <trkpt lat="47.24286" lon="-2.30852">
        <ele>23.60000038147</ele>
        <time>2019-09-05T07:46:20.000Z</time>
      </trkpt>
      <trkpt lat="47.24289" lon="-2.30843">
        <ele>23.60000038147</ele>
        <time>2019-09-05T07:46:22.000Z</time>
      </trkpt>
      <trkpt lat="47.24302" lon="-2.30818">
        <ele>23.60000038147</ele>
        <time>2019-09-05T07:46:28.000Z</time>
      </trkpt>
      <trkpt lat="47.24305" lon="-2.30815">
        <ele>24</ele>
        <time>2019-09-05T07:46:29.000Z</time>
      </trkpt>
      <trkpt lat="47.24308" lon="-2.30812">
        <ele>24.39999961853</ele>
        <time>2019-09-05T07:46:30.000Z</time>
      </trkpt>
      <trkpt lat="47.24312" lon="-2.30809">
        <ele>24.799999237061</ele>
        <time>2019-09-05T07:46:31.000Z</time>
      </trkpt>
      <trkpt lat="47.24315" lon="-2.30807">
        <ele>25.200000762939</ele>
        <time>2019-09-05T07:46:32.000Z</time>
      </trkpt>
      <trkpt lat="47.24319" lon="-2.30805">
        <ele>25.60000038147</ele>
        <time>2019-09-05T07:46:33.000Z</time>
      </trkpt>
      <trkpt lat="47.24323" lon="-2.30803">
        <ele>25.60000038147</ele>
        <time>2019-09-05T07:46:34.000Z</time>
      </trkpt>
      <trkpt lat="47.24348" lon="-2.30795">
        <ele>25.60000038147</ele>
        <time>2019-09-05T07:46:40.000Z</time>
      </trkpt>
      <trkpt lat="47.24353" lon="-2.30794">
        <ele>25.60000038147</ele>
        <time>2019-09-05T07:46:41.000Z</time>
      </trkpt>
      <trkpt lat="47.24361" lon="-2.30789">
        <ele>25.60000038147</ele>
        <time>2019-09-05T07:46:43.000Z</time>
      </trkpt>
      <trkpt lat="47.24366" lon="-2.30786">
        <ele>26</ele>
        <time>2019-09-05T07:46:44.000Z</time>
      </trkpt>
      <trkpt lat="47.2437" lon="-2.30783">
        <ele>26.39999961853</ele>
        <time>2019-09-05T07:46:45.000Z</time>
      </trkpt>
      <trkpt lat="47.24374" lon="-2.3078">
        <ele>26.799999237061</ele>
        <time>2019-09-05T07:46:46.000Z</time>
      </trkpt>
      <trkpt lat="47.24377" lon="-2.30777">
        <ele>27.200000762939</ele>
        <time>2019-09-05T07:46:47.000Z</time>
      </trkpt>
      <trkpt lat="47.24379" lon="-2.30772">
        <ele>27.799999237061</ele>
        <time>2019-09-05T07:46:48.000Z</time>
      </trkpt>
      <trkpt lat="47.24383" lon="-2.30764">
        <ele>27.799999237061</ele>
        <time>2019-09-05T07:46:50.000Z</time>
      </trkpt>
      <trkpt lat="47.24387" lon="-2.30757">
        <ele>28.200000762939</ele>
        <time>2019-09-05T07:46:52.000Z</time>
      </trkpt>
      <trkpt lat="47.2439" lon="-2.30754">
        <ele>28.60000038147</ele>
        <time>2019-09-05T07:46:53.000Z</time>
      </trkpt>
      <trkpt lat="47.24392" lon="-2.30752">
        <ele>29</ele>
        <time>2019-09-05T07:46:54.000Z</time>
      </trkpt>
      <trkpt lat="47.24393" lon="-2.30749">
        <ele>29.39999961853</ele>
        <time>2019-09-05T07:46:55.000Z</time>
      </trkpt>
      <trkpt lat="47.24396" lon="-2.30745">
        <ele>29.799999237061</ele>
        <time>2019-09-05T07:46:56.000Z</time>
      </trkpt>
      <trkpt lat="47.24399" lon="-2.30734">
        <ele>29.799999237061</ele>
        <time>2019-09-05T07:46:58.000Z</time>
      </trkpt>
      <trkpt lat="47.244" lon="-2.30727">
        <ele>29.799999237061</ele>
        <time>2019-09-05T07:46:59.000Z</time>
      </trkpt>
      <trkpt lat="47.24403" lon="-2.307">
        <ele>29.799999237061</ele>
        <time>2019-09-05T07:47:03.000Z</time>
      </trkpt>
      <trkpt lat="47.24405" lon="-2.30693">
        <ele>29.799999237061</ele>
        <time>2019-09-05T07:47:04.000Z</time>
      </trkpt>
      <trkpt lat="47.24411" lon="-2.30673">
        <ele>29.799999237061</ele>
        <time>2019-09-05T07:47:07.000Z</time>
      </trkpt>
      <trkpt lat="47.24413" lon="-2.30666">
        <ele>29.799999237061</ele>
        <time>2019-09-05T07:47:08.000Z</time>
      </trkpt>
      <trkpt lat="47.24418" lon="-2.30644">
        <ele>29.799999237061</ele>
        <time>2019-09-05T07:47:12.000Z</time>
      </trkpt>
      <trkpt lat="47.24429" lon="-2.30621">
        <ele>29.799999237061</ele>
        <time>2019-09-05T07:47:18.000Z</time>
      </trkpt>
      <trkpt lat="47.24448" lon="-2.30594">
        <ele>29.799999237061</ele>
        <time>2019-09-05T07:47:24.000Z</time>
      </trkpt>
      <trkpt lat="47.24462" lon="-2.30565">
        <ele>29.799999237061</ele>
        <time>2019-09-05T07:47:28.000Z</time>
      </trkpt>
      <trkpt lat="47.24464" lon="-2.30557">
        <ele>29.799999237061</ele>
        <time>2019-09-05T07:47:29.000Z</time>
      </trkpt>
      <trkpt lat="47.24464" lon="-2.30551">
        <ele>29.39999961853</ele>
        <time>2019-09-05T07:47:30.000Z</time>
      </trkpt>
      <trkpt lat="47.24463" lon="-2.30549">
        <ele>28.799999237061</ele>
        <time>2019-09-05T07:47:31.000Z</time>
      </trkpt>
      <trkpt lat="47.24461" lon="-2.30547">
        <ele>28.39999961853</ele>
        <time>2019-09-05T07:47:32.000Z</time>
      </trkpt>
      <trkpt lat="47.2446" lon="-2.30548">
        <ele>27.799999237061</ele>
        <time>2019-09-05T07:47:33.000Z</time>
      </trkpt>
      <trkpt lat="47.24458" lon="-2.3055">
        <ele>27.39999961853</ele>
        <time>2019-09-05T07:47:34.000Z</time>
      </trkpt>
      <trkpt lat="47.24456" lon="-2.30554">
        <ele>27.39999961853</ele>
        <time>2019-09-05T07:47:35.000Z</time>
      </trkpt>
      <trkpt lat="47.24448" lon="-2.30562">
        <ele>27</ele>
        <time>2019-09-05T07:47:37.000Z</time>
      </trkpt>
      <trkpt lat="47.24442" lon="-2.30568">
        <ele>26.60000038147</ele>
        <time>2019-09-05T07:47:38.000Z</time>
      </trkpt>
      <trkpt lat="47.24436" lon="-2.30572">
        <ele>26.200000762939</ele>
        <time>2019-09-05T07:47:39.000Z</time>
      </trkpt>
      <trkpt lat="47.2443" lon="-2.30575">
        <ele>25.799999237061</ele>
        <time>2019-09-05T07:47:40.000Z</time>
      </trkpt>
      <trkpt lat="47.24424" lon="-2.30578">
        <ele>25.39999961853</ele>
        <time>2019-09-05T07:47:41.000Z</time>
      </trkpt>
      <trkpt lat="47.24418" lon="-2.30581">
        <ele>25.39999961853</ele>
        <time>2019-09-05T07:47:42.000Z</time>
      </trkpt>
      <trkpt lat="47.24406" lon="-2.30583">
        <ele>25.39999961853</ele>
        <time>2019-09-05T07:47:44.000Z</time>
      </trkpt>
      <trkpt lat="47.24396" lon="-2.30581">
        <ele>25.39999961853</ele>
        <time>2019-09-05T07:47:46.000Z</time>
      </trkpt>
      <trkpt lat="47.2439" lon="-2.30578">
        <ele>25</ele>
        <time>2019-09-05T07:47:47.000Z</time>
      </trkpt>
      <trkpt lat="47.24385" lon="-2.30574">
        <ele>24.60000038147</ele>
        <time>2019-09-05T07:47:48.000Z</time>
      </trkpt>
      <trkpt lat="47.2438" lon="-2.30569">
        <ele>24</ele>
        <time>2019-09-05T07:47:49.000Z</time>
      </trkpt>
      <trkpt lat="47.24377" lon="-2.30563">
        <ele>23.60000038147</ele>
        <time>2019-09-05T07:47:50.000Z</time>
      </trkpt>
      <trkpt lat="47.24374" lon="-2.30557">
        <ele>23.200000762939</ele>
        <time>2019-09-05T07:47:51.000Z</time>
      </trkpt>
      <trkpt lat="47.24374" lon="-2.30539">
        <ele>23.200000762939</ele>
        <time>2019-09-05T07:47:53.000Z</time>
      </trkpt>
      <trkpt lat="47.24373" lon="-2.30508">
        <ele>23.200000762939</ele>
        <time>2019-09-05T07:47:58.000Z</time>
      </trkpt>
      <trkpt lat="47.24376" lon="-2.30493">
        <ele>23.60000038147</ele>
        <time>2019-09-05T07:48:01.000Z</time>
      </trkpt>
      <trkpt lat="47.24377" lon="-2.30488">
        <ele>24.200000762939</ele>
        <time>2019-09-05T07:48:02.000Z</time>
      </trkpt>
      <trkpt lat="47.24379" lon="-2.30481">
        <ele>24.60000038147</ele>
        <time>2019-09-05T07:48:03.000Z</time>
      </trkpt>
      <trkpt lat="47.24379" lon="-2.30473">
        <ele>25</ele>
        <time>2019-09-05T07:48:04.000Z</time>
      </trkpt>
      <trkpt lat="47.2438" lon="-2.30468">
        <ele>25.60000038147</ele>
        <time>2019-09-05T07:48:05.000Z</time>
      </trkpt>
      <trkpt lat="47.24381" lon="-2.30456">
        <ele>26</ele>
        <time>2019-09-05T07:48:07.000Z</time>
      </trkpt>
      <trkpt lat="47.2438" lon="-2.30452">
        <ele>26.39999961853</ele>
        <time>2019-09-05T07:48:08.000Z</time>
      </trkpt>
      <trkpt lat="47.24377" lon="-2.30449">
        <ele>26.799999237061</ele>
        <time>2019-09-05T07:48:09.000Z</time>
      </trkpt>
      <trkpt lat="47.24373" lon="-2.3045">
        <ele>27.200000762939</ele>
        <time>2019-09-05T07:48:10.000Z</time>
      </trkpt>
      <trkpt lat="47.24369" lon="-2.30451">
        <ele>27.60000038147</ele>
        <time>2019-09-05T07:48:11.000Z</time>
      </trkpt>
      <trkpt lat="47.24365" lon="-2.30452">
        <ele>27.60000038147</ele>
        <time>2019-09-05T07:48:12.000Z</time>
      </trkpt>
      <trkpt lat="47.2436" lon="-2.30453">
        <ele>27.60000038147</ele>
        <time>2019-09-05T07:48:13.000Z</time>
      </trkpt>
      <trkpt lat="47.24349" lon="-2.30449">
        <ele>27.60000038147</ele>
        <time>2019-09-05T07:48:16.000Z</time>
      </trkpt>
      <trkpt lat="47.24345" lon="-2.30447">
        <ele>27.60000038147</ele>
        <time>2019-09-05T07:48:17.000Z</time>
      </trkpt>
      <trkpt lat="47.24325" lon="-2.30439">
        <ele>28</ele>
        <time>2019-09-05T07:48:22.000Z</time>
      </trkpt>
      <trkpt lat="47.2432" lon="-2.30437">
        <ele>28.39999961853</ele>
        <time>2019-09-05T07:48:23.000Z</time>
      </trkpt>
      <trkpt lat="47.24316" lon="-2.30434">
        <ele>28.799999237061</ele>
        <time>2019-09-05T07:48:24.000Z</time>
      </trkpt>
      <trkpt lat="47.24313" lon="-2.30432">
        <ele>29.200000762939</ele>
        <time>2019-09-05T07:48:25.000Z</time>
      </trkpt>
      <trkpt lat="47.24309" lon="-2.30429">
        <ele>29.60000038147</ele>
        <time>2019-09-05T07:48:26.000Z</time>
      </trkpt>
      <trkpt lat="47.24306" lon="-2.30427">
        <ele>29.60000038147</ele>
        <time>2019-09-05T07:48:27.000Z</time>
      </trkpt>
      <trkpt lat="47.24282" lon="-2.30407">
        <ele>29.60000038147</ele>
        <time>2019-09-05T07:48:34.000Z</time>
      </trkpt>
      <trkpt lat="47.24274" lon="-2.30396">
        <ele>29.60000038147</ele>
        <time>2019-09-05T07:48:36.000Z</time>
      </trkpt>
      <trkpt lat="47.24262" lon="-2.30376">
        <ele>29.60000038147</ele>
        <time>2019-09-05T07:48:39.000Z</time>
      </trkpt>
      <trkpt lat="47.24259" lon="-2.30372">
        <ele>29.60000038147</ele>
        <time>2019-09-05T07:48:40.000Z</time>
      </trkpt>
      <trkpt lat="47.24252" lon="-2.3036">
        <ele>29.60000038147</ele>
        <time>2019-09-05T07:48:42.000Z</time>
      </trkpt>
      <trkpt lat="47.24244" lon="-2.30342">
        <ele>29.60000038147</ele>
        <time>2019-09-05T07:48:45.000Z</time>
      </trkpt>
      <trkpt lat="47.24238" lon="-2.30332">
        <ele>29.60000038147</ele>
        <time>2019-09-05T07:48:47.000Z</time>
      </trkpt>
      <trkpt lat="47.24233" lon="-2.30328">
        <ele>29.60000038147</ele>
        <time>2019-09-05T07:48:49.000Z</time>
      </trkpt>
      <trkpt lat="47.2422" lon="-2.30323">
        <ele>29.60000038147</ele>
        <time>2019-09-05T07:48:53.000Z</time>
      </trkpt>
      <trkpt lat="47.24213" lon="-2.30326">
        <ele>29.200000762939</ele>
        <time>2019-09-05T07:48:54.000Z</time>
      </trkpt>
      <trkpt lat="47.24208" lon="-2.30325">
        <ele>28.799999237061</ele>
        <time>2019-09-05T07:48:55.000Z</time>
      </trkpt>
      <trkpt lat="47.24205" lon="-2.30322">
        <ele>28.39999961853</ele>
        <time>2019-09-05T07:48:56.000Z</time>
      </trkpt>
      <trkpt lat="47.24203" lon="-2.30319">
        <ele>28</ele>
        <time>2019-09-05T07:48:57.000Z</time>
      </trkpt>
      <trkpt lat="47.24201" lon="-2.30315">
        <ele>27.60000038147</ele>
        <time>2019-09-05T07:48:58.000Z</time>
      </trkpt>
      <trkpt lat="47.24199" lon="-2.30311">
        <ele>27</ele>
        <time>2019-09-05T07:48:59.000Z</time>
      </trkpt>
      <trkpt lat="47.24198" lon="-2.30304">
        <ele>26.60000038147</ele>
        <time>2019-09-05T07:49:00.000Z</time>
      </trkpt>
      <trkpt lat="47.24197" lon="-2.30297">
        <ele>26.200000762939</ele>
        <time>2019-09-05T07:49:01.000Z</time>
      </trkpt>
      <trkpt lat="47.24195" lon="-2.30288">
        <ele>25.799999237061</ele>
        <time>2019-09-05T07:49:02.000Z</time>
      </trkpt>
      <trkpt lat="47.24194" lon="-2.3028">
        <ele>25.200000762939</ele>
        <time>2019-09-05T07:49:03.000Z</time>
      </trkpt>
      <trkpt lat="47.24188" lon="-2.30243">
        <ele>25.200000762939</ele>
        <time>2019-09-05T07:49:08.000Z</time>
      </trkpt>
      <trkpt lat="47.24179" lon="-2.30244">
        <ele>25.200000762939</ele>
        <time>2019-09-05T07:49:11.000Z</time>
      </trkpt>
      <trkpt lat="47.24163" lon="-2.30241">
        <ele>25.200000762939</ele>
        <time>2019-09-05T07:49:15.000Z</time>
      </trkpt>
      <trkpt lat="47.2415" lon="-2.30228">
        <ele>25.200000762939</ele>
        <time>2019-09-05T07:49:19.000Z</time>
      </trkpt>
      <trkpt lat="47.2414" lon="-2.30206">
        <ele>25.200000762939</ele>
        <time>2019-09-05T07:49:24.000Z</time>
      </trkpt>
      <trkpt lat="47.24139" lon="-2.30201">
        <ele>25.200000762939</ele>
        <time>2019-09-05T07:49:25.000Z</time>
      </trkpt>
      <trkpt lat="47.24134" lon="-2.30186">
        <ele>25.60000038147</ele>
        <time>2019-09-05T07:49:28.000Z</time>
      </trkpt>
      <trkpt lat="47.24132" lon="-2.30182">
        <ele>26.200000762939</ele>
        <time>2019-09-05T07:49:29.000Z</time>
      </trkpt>
      <trkpt lat="47.2413" lon="-2.30177">
        <ele>26.60000038147</ele>
        <time>2019-09-05T07:49:30.000Z</time>
      </trkpt>
      <trkpt lat="47.24129" lon="-2.30174">
        <ele>27.39999961853</ele>
        <time>2019-09-05T07:49:31.000Z</time>
      </trkpt>
      <trkpt lat="47.24128" lon="-2.30171">
        <ele>27.799999237061</ele>
        <time>2019-09-05T07:49:32.000Z</time>
      </trkpt>
      <trkpt lat="47.24127" lon="-2.30169">
        <ele>28.200000762939</ele>
        <time>2019-09-05T07:49:33.000Z</time>
      </trkpt>
      <trkpt lat="47.24126" lon="-2.30168">
        <ele>28.799999237061</ele>
        <time>2019-09-05T07:49:34.000Z</time>
      </trkpt>
      <trkpt lat="47.24124" lon="-2.30169">
        <ele>29.200000762939</ele>
        <time>2019-09-05T07:49:35.000Z</time>
      </trkpt>
      <trkpt lat="47.24122" lon="-2.30169">
        <ele>29.60000038147</ele>
        <time>2019-09-05T07:49:36.000Z</time>
      </trkpt>
      <trkpt lat="47.24119" lon="-2.30172">
        <ele>29.60000038147</ele>
        <time>2019-09-05T07:49:39.000Z</time>
      </trkpt>
      <trkpt lat="47.24114" lon="-2.30172">
        <ele>29.60000038147</ele>
        <time>2019-09-05T07:49:44.000Z</time>
      </trkpt>
      <trkpt lat="47.24112" lon="-2.30172">
        <ele>30</ele>
        <time>2019-09-05T07:49:45.000Z</time>
      </trkpt>
      <trkpt lat="47.24111" lon="-2.30172">
        <ele>30.39999961853</ele>
        <time>2019-09-05T07:49:46.000Z</time>
      </trkpt>
      <trkpt lat="47.24109" lon="-2.30171">
        <ele>30.799999237061</ele>
        <time>2019-09-05T07:49:47.000Z</time>
      </trkpt>
      <trkpt lat="47.24108" lon="-2.3017">
        <ele>31.200000762939</ele>
        <time>2019-09-05T07:49:48.000Z</time>
      </trkpt>
      <trkpt lat="47.24106" lon="-2.3017">
        <ele>31.60000038147</ele>
        <time>2019-09-05T07:49:49.000Z</time>
      </trkpt>
      <trkpt lat="47.24105" lon="-2.30169">
        <ele>31.60000038147</ele>
        <time>2019-09-05T07:49:50.000Z</time>
      </trkpt>
      <trkpt lat="47.24103" lon="-2.30169">
        <ele>31.60000038147</ele>
        <time>2019-09-05T07:49:51.000Z</time>
      </trkpt>
      <trkpt lat="47.241" lon="-2.30168">
        <ele>31.60000038147</ele>
        <time>2019-09-05T07:49:53.000Z</time>
      </trkpt>
      <trkpt lat="47.24096" lon="-2.30168">
        <ele>31.60000038147</ele>
        <time>2019-09-05T07:49:56.000Z</time>
      </trkpt>
      <trkpt lat="47.24085" lon="-2.30172">
        <ele>31.60000038147</ele>
        <time>2019-09-05T07:50:00.000Z</time>
      </trkpt>
      <trkpt lat="47.24077" lon="-2.30179">
        <ele>31.60000038147</ele>
        <time>2019-09-05T07:50:04.000Z</time>
      </trkpt>
      <trkpt lat="47.24072" lon="-2.30179">
        <ele>31.60000038147</ele>
        <time>2019-09-05T07:50:05.000Z</time>
      </trkpt>
      <trkpt lat="47.24049" lon="-2.30192">
        <ele>32</ele>
        <time>2019-09-05T07:50:11.000Z</time>
      </trkpt>
      <trkpt lat="47.24045" lon="-2.30194">
        <ele>32.400001525879</ele>
        <time>2019-09-05T07:50:12.000Z</time>
      </trkpt>
      <trkpt lat="47.24041" lon="-2.30195">
        <ele>32.799999237061</ele>
        <time>2019-09-05T07:50:13.000Z</time>
      </trkpt>
      <trkpt lat="47.24036" lon="-2.30196">
        <ele>33.200000762939</ele>
        <time>2019-09-05T07:50:14.000Z</time>
      </trkpt>
      <trkpt lat="47.24033" lon="-2.30195">
        <ele>33.599998474121</ele>
        <time>2019-09-05T07:50:15.000Z</time>
      </trkpt>
      <trkpt lat="47.2403" lon="-2.30194">
        <ele>33.599998474121</ele>
        <time>2019-09-05T07:50:16.000Z</time>
      </trkpt>
      <trkpt lat="47.24014" lon="-2.30195">
        <ele>33.599998474121</ele>
        <time>2019-09-05T07:50:22.000Z</time>
      </trkpt>
      <trkpt lat="47.24008" lon="-2.30196">
        <ele>33.599998474121</ele>
        <time>2019-09-05T07:50:27.000Z</time>
      </trkpt>
      <trkpt lat="47.24004" lon="-2.30191">
        <ele>33.599998474121</ele>
        <time>2019-09-05T07:50:31.000Z</time>
      </trkpt>
      <trkpt lat="47.24003" lon="-2.30185">
        <ele>33.599998474121</ele>
        <time>2019-09-05T07:50:33.000Z</time>
      </trkpt>
      <trkpt lat="47.24" lon="-2.30176">
        <ele>33.599998474121</ele>
        <time>2019-09-05T07:50:35.000Z</time>
      </trkpt>
      <trkpt lat="47.23995" lon="-2.30161">
        <ele>33.599998474121</ele>
        <time>2019-09-05T07:50:38.000Z</time>
      </trkpt>
      <trkpt lat="47.23984" lon="-2.30151">
        <ele>33.599998474121</ele>
        <time>2019-09-05T07:50:42.000Z</time>
      </trkpt>
      <trkpt lat="47.23972" lon="-2.30143">
        <ele>33.599998474121</ele>
        <time>2019-09-05T07:50:45.000Z</time>
      </trkpt>
      <trkpt lat="47.23967" lon="-2.30141">
        <ele>33.599998474121</ele>
        <time>2019-09-05T07:50:46.000Z</time>
      </trkpt>
      <trkpt lat="47.23957" lon="-2.3014">
        <ele>33.599998474121</ele>
        <time>2019-09-05T07:50:48.000Z</time>
      </trkpt>
      <trkpt lat="47.23945" lon="-2.30139">
        <ele>33.599998474121</ele>
        <time>2019-09-05T07:50:50.000Z</time>
      </trkpt>
      <trkpt lat="47.2394" lon="-2.30139">
        <ele>33.200000762939</ele>
        <time>2019-09-05T07:50:51.000Z</time>
      </trkpt>
      <trkpt lat="47.23936" lon="-2.3014">
        <ele>32.799999237061</ele>
        <time>2019-09-05T07:50:52.000Z</time>
      </trkpt>
      <trkpt lat="47.23932" lon="-2.3014">
        <ele>32.400001525879</ele>
        <time>2019-09-05T07:50:53.000Z</time>
      </trkpt>
      <trkpt lat="47.23927" lon="-2.3014">
        <ele>31.799999237061</ele>
        <time>2019-09-05T07:50:54.000Z</time>
      </trkpt>
      <trkpt lat="47.23923" lon="-2.3014">
        <ele>31.39999961853</ele>
        <time>2019-09-05T07:50:55.000Z</time>
      </trkpt>
      <trkpt lat="47.23916" lon="-2.30132">
        <ele>31</ele>
        <time>2019-09-05T07:50:58.000Z</time>
      </trkpt>
      <trkpt lat="47.23914" lon="-2.3013">
        <ele>30.60000038147</ele>
        <time>2019-09-05T07:50:59.000Z</time>
      </trkpt>
      <trkpt lat="47.23913" lon="-2.30127">
        <ele>30.200000762939</ele>
        <time>2019-09-05T07:51:00.000Z</time>
      </trkpt>
      <trkpt lat="47.23912" lon="-2.30123">
        <ele>29.799999237061</ele>
        <time>2019-09-05T07:51:01.000Z</time>
      </trkpt>
      <trkpt lat="47.23912" lon="-2.30118">
        <ele>29.39999961853</ele>
        <time>2019-09-05T07:51:02.000Z</time>
      </trkpt>
      <trkpt lat="47.2391" lon="-2.30102">
        <ele>29.39999961853</ele>
        <time>2019-09-05T07:51:07.000Z</time>
      </trkpt>
      <trkpt lat="47.23903" lon="-2.30096">
        <ele>29.39999961853</ele>
        <time>2019-09-05T07:51:09.000Z</time>
      </trkpt>
      <trkpt lat="47.23897" lon="-2.30092">
        <ele>29.39999961853</ele>
        <time>2019-09-05T07:51:10.000Z</time>
      </trkpt>
      <trkpt lat="47.23874" lon="-2.30072">
        <ele>29.39999961853</ele>
        <time>2019-09-05T07:51:14.000Z</time>
      </trkpt>
      <trkpt lat="47.23856" lon="-2.30053">
        <ele>29.39999961853</ele>
        <time>2019-09-05T07:51:18.000Z</time>
      </trkpt>
      <trkpt lat="47.23854" lon="-2.30046">
        <ele>29.39999961853</ele>
        <time>2019-09-05T07:51:19.000Z</time>
      </trkpt>
      <trkpt lat="47.23849" lon="-2.30031">
        <ele>29.799999237061</ele>
        <time>2019-09-05T07:51:21.000Z</time>
      </trkpt>
      <trkpt lat="47.23848" lon="-2.30024">
        <ele>30.200000762939</ele>
        <time>2019-09-05T07:51:22.000Z</time>
      </trkpt>
      <trkpt lat="47.23846" lon="-2.30017">
        <ele>30.60000038147</ele>
        <time>2019-09-05T07:51:23.000Z</time>
      </trkpt>
      <trkpt lat="47.23845" lon="-2.3001">
        <ele>31</ele>
        <time>2019-09-05T07:51:24.000Z</time>
      </trkpt>
      <trkpt lat="47.23843" lon="-2.30004">
        <ele>31.39999961853</ele>
        <time>2019-09-05T07:51:25.000Z</time>
      </trkpt>
      <trkpt lat="47.23838" lon="-2.29984">
        <ele>31.39999961853</ele>
        <time>2019-09-05T07:51:28.000Z</time>
      </trkpt>
      <trkpt lat="47.23835" lon="-2.2997">
        <ele>31.39999961853</ele>
        <time>2019-09-05T07:51:30.000Z</time>
      </trkpt>
      <trkpt lat="47.23833" lon="-2.29963">
        <ele>31.799999237061</ele>
        <time>2019-09-05T07:51:31.000Z</time>
      </trkpt>
      <trkpt lat="47.23832" lon="-2.29956">
        <ele>32.200000762939</ele>
        <time>2019-09-05T07:51:32.000Z</time>
      </trkpt>
      <trkpt lat="47.23831" lon="-2.29949">
        <ele>32.599998474121</ele>
        <time>2019-09-05T07:51:33.000Z</time>
      </trkpt>
      <trkpt lat="47.2383" lon="-2.29942">
        <ele>33</ele>
        <time>2019-09-05T07:51:34.000Z</time>
      </trkpt>
      <trkpt lat="47.23829" lon="-2.29935">
        <ele>33.400001525879</ele>
        <time>2019-09-05T07:51:35.000Z</time>
      </trkpt>
      <trkpt lat="47.23826" lon="-2.29922">
        <ele>33.400001525879</ele>
        <time>2019-09-05T07:51:37.000Z</time>
      </trkpt>
      <trkpt lat="47.23817" lon="-2.29876">
        <ele>33.400001525879</ele>
        <time>2019-09-05T07:51:44.000Z</time>
      </trkpt>
      <trkpt lat="47.23815" lon="-2.29863">
        <ele>33.400001525879</ele>
        <time>2019-09-05T07:51:46.000Z</time>
      </trkpt>
      <trkpt lat="47.23811" lon="-2.29834">
        <ele>33.400001525879</ele>
        <time>2019-09-05T07:51:50.000Z</time>
      </trkpt>
      <trkpt lat="47.23811" lon="-2.29826">
        <ele>33.799999237061</ele>
        <time>2019-09-05T07:51:51.000Z</time>
      </trkpt>
      <trkpt lat="47.23811" lon="-2.29819">
        <ele>34.400001525879</ele>
        <time>2019-09-05T07:51:52.000Z</time>
      </trkpt>
      <trkpt lat="47.23811" lon="-2.29811">
        <ele>34.799999237061</ele>
        <time>2019-09-05T07:51:53.000Z</time>
      </trkpt>
      <trkpt lat="47.23811" lon="-2.29802">
        <ele>35.200000762939</ele>
        <time>2019-09-05T07:51:54.000Z</time>
      </trkpt>
      <trkpt lat="47.23811" lon="-2.29793">
        <ele>35.599998474121</ele>
        <time>2019-09-05T07:51:55.000Z</time>
      </trkpt>
      <trkpt lat="47.2381" lon="-2.29726">
        <ele>35.599998474121</ele>
        <time>2019-09-05T07:52:03.000Z</time>
      </trkpt>
      <trkpt lat="47.23812" lon="-2.29709">
        <ele>35.599998474121</ele>
        <time>2019-09-05T07:52:05.000Z</time>
      </trkpt>
      <trkpt lat="47.23815" lon="-2.29685">
        <ele>35.599998474121</ele>
        <time>2019-09-05T07:52:08.000Z</time>
      </trkpt>
      <trkpt lat="47.23814" lon="-2.29629">
        <ele>35.599998474121</ele>
        <time>2019-09-05T07:52:15.000Z</time>
      </trkpt>
      <trkpt lat="47.23817" lon="-2.2958">
        <ele>35.599998474121</ele>
        <time>2019-09-05T07:52:21.000Z</time>
      </trkpt>
      <trkpt lat="47.23818" lon="-2.29534">
        <ele>35.599998474121</ele>
        <time>2019-09-05T07:52:26.000Z</time>
      </trkpt>
      <trkpt lat="47.23819" lon="-2.29466">
        <ele>35.599998474121</ele>
        <time>2019-09-05T07:52:33.000Z</time>
      </trkpt>
      <trkpt lat="47.23821" lon="-2.29432">
        <ele>35.599998474121</ele>
        <time>2019-09-05T07:52:37.000Z</time>
      </trkpt>
      <trkpt lat="47.23823" lon="-2.29426">
        <ele>35.599998474121</ele>
        <time>2019-09-05T07:52:38.000Z</time>
      </trkpt>
      <trkpt lat="47.23834" lon="-2.29406">
        <ele>35.599998474121</ele>
        <time>2019-09-05T07:52:41.000Z</time>
      </trkpt>
      <trkpt lat="47.23838" lon="-2.29399">
        <ele>35.599998474121</ele>
        <time>2019-09-05T07:52:42.000Z</time>
      </trkpt>
      <trkpt lat="47.23855" lon="-2.29362">
        <ele>35.599998474121</ele>
        <time>2019-09-05T07:52:47.000Z</time>
      </trkpt>
      <trkpt lat="47.23866" lon="-2.29342">
        <ele>35.599998474121</ele>
        <time>2019-09-05T07:52:50.000Z</time>
      </trkpt>
      <trkpt lat="47.23871" lon="-2.29337">
        <ele>35.599998474121</ele>
        <time>2019-09-05T07:52:51.000Z</time>
      </trkpt>
      <trkpt lat="47.23889" lon="-2.29332">
        <ele>35.599998474121</ele>
        <time>2019-09-05T07:52:54.000Z</time>
      </trkpt>
      <trkpt lat="47.23895" lon="-2.29333">
        <ele>35.599998474121</ele>
        <time>2019-09-05T07:52:55.000Z</time>
      </trkpt>
      <trkpt lat="47.23906" lon="-2.29333">
        <ele>35.599998474121</ele>
        <time>2019-09-05T07:52:57.000Z</time>
      </trkpt>
      <trkpt lat="47.23914" lon="-2.29342">
        <ele>35.599998474121</ele>
        <time>2019-09-05T07:52:59.000Z</time>
      </trkpt>
      <trkpt lat="47.23925" lon="-2.2936">
        <ele>35.599998474121</ele>
        <time>2019-09-05T07:53:02.000Z</time>
      </trkpt>
      <trkpt lat="47.23932" lon="-2.29373">
        <ele>35.599998474121</ele>
        <time>2019-09-05T07:53:04.000Z</time>
      </trkpt>
      <trkpt lat="47.23956" lon="-2.2942">
        <ele>35.599998474121</ele>
        <time>2019-09-05T07:53:11.000Z</time>
      </trkpt>
      <trkpt lat="47.23983" lon="-2.29473">
        <ele>35.599998474121</ele>
        <time>2019-09-05T07:53:19.000Z</time>
      </trkpt>
      <trkpt lat="47.23995" lon="-2.29497">
        <ele>35.599998474121</ele>
        <time>2019-09-05T07:53:23.000Z</time>
      </trkpt>
      <trkpt lat="47.23997" lon="-2.29512">
        <ele>35.599998474121</ele>
        <time>2019-09-05T07:53:25.000Z</time>
      </trkpt>
      <trkpt lat="47.24001" lon="-2.29573">
        <ele>35.599998474121</ele>
        <time>2019-09-05T07:53:32.000Z</time>
      </trkpt>
      <trkpt lat="47.24003" lon="-2.29607">
        <ele>36</ele>
        <time>2019-09-05T07:53:36.000Z</time>
      </trkpt>
      <trkpt lat="47.24003" lon="-2.29615">
        <ele>36.400001525879</ele>
        <time>2019-09-05T07:53:37.000Z</time>
      </trkpt>
      <trkpt lat="47.24004" lon="-2.29623">
        <ele>36.799999237061</ele>
        <time>2019-09-05T07:53:38.000Z</time>
      </trkpt>
      <trkpt lat="47.24005" lon="-2.29631">
        <ele>37.200000762939</ele>
        <time>2019-09-05T07:53:39.000Z</time>
      </trkpt>
      <trkpt lat="47.24006" lon="-2.29639">
        <ele>37.599998474121</ele>
        <time>2019-09-05T07:53:40.000Z</time>
      </trkpt>
      <trkpt lat="47.2401" lon="-2.297">
        <ele>37.599998474121</ele>
        <time>2019-09-05T07:53:47.000Z</time>
      </trkpt>
      <trkpt lat="47.24011" lon="-2.29722">
        <ele>37.599998474121</ele>
        <time>2019-09-05T07:53:50.000Z</time>
      </trkpt>
      <trkpt lat="47.24012" lon="-2.29737">
        <ele>37.599998474121</ele>
        <time>2019-09-05T07:53:52.000Z</time>
      </trkpt>
      <trkpt lat="47.24013" lon="-2.29767">
        <ele>37.599998474121</ele>
        <time>2019-09-05T07:53:56.000Z</time>
      </trkpt>
      <trkpt lat="47.24013" lon="-2.29778">
        <ele>37.599998474121</ele>
        <time>2019-09-05T07:53:58.000Z</time>
      </trkpt>
      <trkpt lat="47.24012" lon="-2.29784">
        <ele>37.599998474121</ele>
        <time>2019-09-05T07:54:01.000Z</time>
      </trkpt>
      <trkpt lat="47.24013" lon="-2.29784">
        <ele>37.599998474121</ele>
        <time>2019-09-05T07:54:02.000Z</time>
      </trkpt>
      <trkpt lat="47.24014" lon="-2.29793">
        <ele>37.599998474121</ele>
        <time>2019-09-05T07:54:21.000Z</time>
      </trkpt>
      <trkpt lat="47.24016" lon="-2.29797">
        <ele>37.599998474121</ele>
        <time>2019-09-05T07:54:23.000Z</time>
      </trkpt>
      <trkpt lat="47.24018" lon="-2.29801">
        <ele>37.599998474121</ele>
        <time>2019-09-05T07:54:25.000Z</time>
      </trkpt>
      <trkpt lat="47.24024" lon="-2.29805">
        <ele>37.599998474121</ele>
        <time>2019-09-05T07:54:29.000Z</time>
      </trkpt>
      <trkpt lat="47.2403" lon="-2.29815">
        <ele>37.599998474121</ele>
        <time>2019-09-05T07:54:35.000Z</time>
      </trkpt>
      <trkpt lat="47.24034" lon="-2.29833">
        <ele>37.599998474121</ele>
        <time>2019-09-05T07:54:41.000Z</time>
      </trkpt>
      <trkpt lat="47.24035" lon="-2.29837">
        <ele>37.599998474121</ele>
        <time>2019-09-05T07:54:42.000Z</time>
      </trkpt>
      <trkpt lat="47.24034" lon="-2.29854">
        <ele>37.599998474121</ele>
        <time>2019-09-05T07:54:47.000Z</time>
      </trkpt>
      <trkpt lat="47.24031" lon="-2.29874">
        <ele>37.599998474121</ele>
        <time>2019-09-05T07:54:51.000Z</time>
      </trkpt>
      <trkpt lat="47.24031" lon="-2.2988">
        <ele>37.599998474121</ele>
        <time>2019-09-05T07:54:52.000Z</time>
      </trkpt>
      <trkpt lat="47.24033" lon="-2.29889">
        <ele>37.599998474121</ele>
        <time>2019-09-05T07:54:56.000Z</time>
      </trkpt>
      <trkpt lat="47.24034" lon="-2.29889">
        <ele>37.599998474121</ele>
        <time>2019-09-05T07:54:58.000Z</time>
      </trkpt>
      <trkpt lat="47.24037" lon="-2.29878">
        <ele>37.599998474121</ele>
        <time>2019-09-05T07:55:01.000Z</time>
      </trkpt>
      <trkpt lat="47.24041" lon="-2.29866">
        <ele>37.599998474121</ele>
        <time>2019-09-05T07:55:03.000Z</time>
      </trkpt>
      <trkpt lat="47.24046" lon="-2.29854">
        <ele>37.599998474121</ele>
        <time>2019-09-05T07:55:05.000Z</time>
      </trkpt>
      <trkpt lat="47.24047" lon="-2.29848">
        <ele>37.599998474121</ele>
        <time>2019-09-05T07:55:06.000Z</time>
      </trkpt>
      <trkpt lat="47.24059" lon="-2.29838">
        <ele>37.599998474121</ele>
        <time>2019-09-05T07:55:10.000Z</time>
      </trkpt>
      <trkpt lat="47.24073" lon="-2.29843">
        <ele>37.599998474121</ele>
        <time>2019-09-05T07:55:14.000Z</time>
      </trkpt>
      <trkpt lat="47.24078" lon="-2.29846">
        <ele>37.599998474121</ele>
        <time>2019-09-05T07:55:15.000Z</time>
      </trkpt>
      <trkpt lat="47.24083" lon="-2.29847">
        <ele>37.599998474121</ele>
        <time>2019-09-05T07:55:16.000Z</time>
      </trkpt>
      <trkpt lat="47.24094" lon="-2.29849">
        <ele>37.599998474121</ele>
        <time>2019-09-05T07:55:18.000Z</time>
      </trkpt>
      <trkpt lat="47.24119" lon="-2.29846">
        <ele>37.599998474121</ele>
        <time>2019-09-05T07:55:23.000Z</time>
      </trkpt>
      <trkpt lat="47.24124" lon="-2.29844">
        <ele>37.599998474121</ele>
        <time>2019-09-05T07:55:24.000Z</time>
      </trkpt>
      <trkpt lat="47.24147" lon="-2.29842">
        <ele>37.599998474121</ele>
        <time>2019-09-05T07:55:29.000Z</time>
      </trkpt>
      <trkpt lat="47.24167" lon="-2.29849">
        <ele>37.599998474121</ele>
        <time>2019-09-05T07:55:34.000Z</time>
      </trkpt>
      <trkpt lat="47.24172" lon="-2.29853">
        <ele>37.599998474121</ele>
        <time>2019-09-05T07:55:37.000Z</time>
      </trkpt>
      <trkpt lat="47.24174" lon="-2.29857">
        <ele>37.599998474121</ele>
        <time>2019-09-05T07:55:38.000Z</time>
      </trkpt>
      <trkpt lat="47.24178" lon="-2.29871">
        <ele>37.599998474121</ele>
        <time>2019-09-05T07:55:41.000Z</time>
      </trkpt>
      <trkpt lat="47.24178" lon="-2.29887">
        <ele>37.599998474121</ele>
        <time>2019-09-05T07:55:46.000Z</time>
      </trkpt>
      <trkpt lat="47.24176" lon="-2.29894">
        <ele>37.200000762939</ele>
        <time>2019-09-05T07:55:48.000Z</time>
      </trkpt>
      <trkpt lat="47.24175" lon="-2.29898">
        <ele>36.799999237061</ele>
        <time>2019-09-05T07:55:49.000Z</time>
      </trkpt>
      <trkpt lat="47.24174" lon="-2.29901">
        <ele>36.400001525879</ele>
        <time>2019-09-05T07:55:50.000Z</time>
      </trkpt>
      <trkpt lat="47.24173" lon="-2.29904">
        <ele>35.799999237061</ele>
        <time>2019-09-05T07:55:51.000Z</time>
      </trkpt>
      <trkpt lat="47.24172" lon="-2.29907">
        <ele>35.400001525879</ele>
        <time>2019-09-05T07:55:52.000Z</time>
      </trkpt>
      <trkpt lat="47.24171" lon="-2.2991">
        <ele>35.400001525879</ele>
        <time>2019-09-05T07:55:53.000Z</time>
      </trkpt>
      <trkpt lat="47.24166" lon="-2.29928">
        <ele>35.400001525879</ele>
        <time>2019-09-05T07:55:56.000Z</time>
      </trkpt>
      <trkpt lat="47.24163" lon="-2.29967">
        <ele>35.400001525879</ele>
        <time>2019-09-05T07:56:02.000Z</time>
      </trkpt>
      <trkpt lat="47.24163" lon="-2.2997">
        <ele>35.400001525879</ele>
        <time>2019-09-05T07:56:03.000Z</time>
      </trkpt>
      <trkpt lat="47.24165" lon="-2.29978">
        <ele>35.400001525879</ele>
        <time>2019-09-05T07:56:06.000Z</time>
      </trkpt>
      <trkpt lat="47.24178" lon="-2.30004">
        <ele>35.400001525879</ele>
        <time>2019-09-05T07:56:12.000Z</time>
      </trkpt>
      <trkpt lat="47.24182" lon="-2.30009">
        <ele>35</ele>
        <time>2019-09-05T07:56:13.000Z</time>
      </trkpt>
      <trkpt lat="47.24183" lon="-2.30013">
        <ele>34.400001525879</ele>
        <time>2019-09-05T07:56:14.000Z</time>
      </trkpt>
      <trkpt lat="47.24184" lon="-2.30018">
        <ele>34</ele>
        <time>2019-09-05T07:56:15.000Z</time>
      </trkpt>
      <trkpt lat="47.24184" lon="-2.30021">
        <ele>33.599998474121</ele>
        <time>2019-09-05T07:56:16.000Z</time>
      </trkpt>
      <trkpt lat="47.24183" lon="-2.30024">
        <ele>33</ele>
        <time>2019-09-05T07:56:17.000Z</time>
      </trkpt>
      <trkpt lat="47.24178" lon="-2.30027">
        <ele>33</ele>
        <time>2019-09-05T07:56:20.000Z</time>
      </trkpt>
      <trkpt lat="47.2417" lon="-2.30025">
        <ele>33</ele>
        <time>2019-09-05T07:56:24.000Z</time>
      </trkpt>
      <trkpt lat="47.24157" lon="-2.30024">
        <ele>33</ele>
        <time>2019-09-05T07:56:29.000Z</time>
      </trkpt>
      <trkpt lat="47.24155" lon="-2.30038">
        <ele>33</ele>
        <time>2019-09-05T07:56:33.000Z</time>
      </trkpt>
      <trkpt lat="47.24159" lon="-2.30049">
        <ele>33</ele>
        <time>2019-09-05T07:56:36.000Z</time>
      </trkpt>
      <trkpt lat="47.2416" lon="-2.30054">
        <ele>33</ele>
        <time>2019-09-05T07:56:38.000Z</time>
      </trkpt>
      <trkpt lat="47.24159" lon="-2.30058">
        <ele>33</ele>
        <time>2019-09-05T07:56:39.000Z</time>
      </trkpt>
      <trkpt lat="47.24154" lon="-2.3007">
        <ele>33</ele>
        <time>2019-09-05T07:56:42.000Z</time>
      </trkpt>
      <trkpt lat="47.24138" lon="-2.30078">
        <ele>33</ele>
        <time>2019-09-05T07:56:46.000Z</time>
      </trkpt>
      <trkpt lat="47.24122" lon="-2.30085">
        <ele>33</ele>
        <time>2019-09-05T07:56:50.000Z</time>
      </trkpt>
      <trkpt lat="47.2412" lon="-2.30089">
        <ele>33</ele>
        <time>2019-09-05T07:56:51.000Z</time>
      </trkpt>
      <trkpt lat="47.24112" lon="-2.3011">
        <ele>33</ele>
        <time>2019-09-05T07:56:57.000Z</time>
      </trkpt>
      <trkpt lat="47.24113" lon="-2.30125">
        <ele>33</ele>
        <time>2019-09-05T07:57:01.000Z</time>
      </trkpt>
      <trkpt lat="47.24115" lon="-2.30125">
        <ele>33</ele>
        <time>2019-09-05T07:57:02.000Z</time>
      </trkpt>
      <trkpt lat="47.24128" lon="-2.30117">
        <ele>33</ele>
        <time>2019-09-05T07:57:08.000Z</time>
      </trkpt>
      <trkpt lat="47.24131" lon="-2.3012">
        <ele>33</ele>
        <time>2019-09-05T07:57:09.000Z</time>
      </trkpt>
      <trkpt lat="47.24133" lon="-2.30123">
        <ele>32.599998474121</ele>
        <time>2019-09-05T07:57:10.000Z</time>
      </trkpt>
      <trkpt lat="47.24135" lon="-2.30127">
        <ele>32.200000762939</ele>
        <time>2019-09-05T07:57:11.000Z</time>
      </trkpt>
      <trkpt lat="47.24137" lon="-2.30131">
        <ele>31.799999237061</ele>
        <time>2019-09-05T07:57:12.000Z</time>
      </trkpt>
      <trkpt lat="47.24139" lon="-2.30134">
        <ele>31.200000762939</ele>
        <time>2019-09-05T07:57:13.000Z</time>
      </trkpt>
      <trkpt lat="47.24139" lon="-2.30136">
        <ele>30.39999961853</ele>
        <time>2019-09-05T07:57:14.000Z</time>
      </trkpt>
      <trkpt lat="47.2414" lon="-2.30137">
        <ele>29.799999237061</ele>
        <time>2019-09-05T07:57:15.000Z</time>
      </trkpt>
      <trkpt lat="47.24141" lon="-2.30141">
        <ele>29.200000762939</ele>
        <time>2019-09-05T07:57:16.000Z</time>
      </trkpt>
      <trkpt lat="47.2414" lon="-2.30142">
        <ele>28.60000038147</ele>
        <time>2019-09-05T07:57:17.000Z</time>
      </trkpt>
      <trkpt lat="47.24129" lon="-2.30154">
        <ele>28.60000038147</ele>
        <time>2019-09-05T07:57:22.000Z</time>
      </trkpt>
      <trkpt lat="47.24126" lon="-2.30156">
        <ele>28.60000038147</ele>
        <time>2019-09-05T07:57:23.000Z</time>
      </trkpt>
      <trkpt lat="47.2412" lon="-2.3016">
        <ele>29</ele>
        <time>2019-09-05T07:57:25.000Z</time>
      </trkpt>
      <trkpt lat="47.24116" lon="-2.30162">
        <ele>29.39999961853</ele>
        <time>2019-09-05T07:57:26.000Z</time>
      </trkpt>
      <trkpt lat="47.24113" lon="-2.30163">
        <ele>30</ele>
        <time>2019-09-05T07:57:27.000Z</time>
      </trkpt>
      <trkpt lat="47.24109" lon="-2.30162">
        <ele>30.39999961853</ele>
        <time>2019-09-05T07:57:28.000Z</time>
      </trkpt>
      <trkpt lat="47.24105" lon="-2.30162">
        <ele>30.799999237061</ele>
        <time>2019-09-05T07:57:29.000Z</time>
      </trkpt>
      <trkpt lat="47.2409" lon="-2.30163">
        <ele>30.799999237061</ele>
        <time>2019-09-05T07:57:34.000Z</time>
      </trkpt>
      <trkpt lat="47.24087" lon="-2.30159">
        <ele>30.799999237061</ele>
        <time>2019-09-05T07:57:39.000Z</time>
      </trkpt>
      <trkpt lat="47.24093" lon="-2.30157">
        <ele>30.799999237061</ele>
        <time>2019-09-05T07:57:44.000Z</time>
      </trkpt>
      <trkpt lat="47.241" lon="-2.30154">
        <ele>30.799999237061</ele>
        <time>2019-09-05T07:57:47.000Z</time>
      </trkpt>
      <trkpt lat="47.24101" lon="-2.30153">
        <ele>30.799999237061</ele>
        <time>2019-09-05T07:57:48.000Z</time>
      </trkpt>
      <trkpt lat="47.24112" lon="-2.30152">
        <ele>30.799999237061</ele>
        <time>2019-09-05T07:57:53.000Z</time>
      </trkpt>
      <trkpt lat="47.24123" lon="-2.30161">
        <ele>30.200000762939</ele>
        <time>2019-09-05T07:57:59.000Z</time>
      </trkpt>
      <trkpt lat="47.24123" lon="-2.30157">
        <ele>29.200000762939</ele>
        <time>2019-09-05T07:58:01.000Z</time>
      </trkpt>
      <trkpt lat="47.24124" lon="-2.30154">
        <ele>28.799999237061</ele>
        <time>2019-09-05T07:58:02.000Z</time>
      </trkpt>
      <trkpt lat="47.24126" lon="-2.3015">
        <ele>28.200000762939</ele>
        <time>2019-09-05T07:58:03.000Z</time>
      </trkpt>
      <trkpt lat="47.24132" lon="-2.30131">
        <ele>28.200000762939</ele>
        <time>2019-09-05T07:58:07.000Z</time>
      </trkpt>
      <trkpt lat="47.24135" lon="-2.30124">
        <ele>28.200000762939</ele>
        <time>2019-09-05T07:58:08.000Z</time>
      </trkpt>
      <trkpt lat="47.24139" lon="-2.30111">
        <ele>28.60000038147</ele>
        <time>2019-09-05T07:58:10.000Z</time>
      </trkpt>
      <trkpt lat="47.24141" lon="-2.30104">
        <ele>29.60000038147</ele>
        <time>2019-09-05T07:58:11.000Z</time>
      </trkpt>
      <trkpt lat="47.24143" lon="-2.30098">
        <ele>30</ele>
        <time>2019-09-05T07:58:12.000Z</time>
      </trkpt>
      <trkpt lat="47.24145" lon="-2.30091">
        <ele>30.60000038147</ele>
        <time>2019-09-05T07:58:13.000Z</time>
      </trkpt>
      <trkpt lat="47.24146" lon="-2.30085">
        <ele>30.60000038147</ele>
        <time>2019-09-05T07:58:14.000Z</time>
      </trkpt>
      <trkpt lat="47.24154" lon="-2.30059">
        <ele>31</ele>
        <time>2019-09-05T07:58:19.000Z</time>
      </trkpt>
      <trkpt lat="47.24155" lon="-2.30054">
        <ele>31.39999961853</ele>
        <time>2019-09-05T07:58:20.000Z</time>
      </trkpt>
      <trkpt lat="47.24155" lon="-2.3005">
        <ele>31.799999237061</ele>
        <time>2019-09-05T07:58:21.000Z</time>
      </trkpt>
      <trkpt lat="47.24155" lon="-2.30045">
        <ele>32.200000762939</ele>
        <time>2019-09-05T07:58:22.000Z</time>
      </trkpt>
      <trkpt lat="47.24154" lon="-2.30041">
        <ele>32.599998474121</ele>
        <time>2019-09-05T07:58:23.000Z</time>
      </trkpt>
      <trkpt lat="47.24152" lon="-2.30038">
        <ele>32.599998474121</ele>
        <time>2019-09-05T07:58:24.000Z</time>
      </trkpt>
      <trkpt lat="47.24149" lon="-2.30039">
        <ele>32.599998474121</ele>
        <time>2019-09-05T07:58:28.000Z</time>
      </trkpt>
      <trkpt lat="47.24152" lon="-2.30049">
        <ele>32.599998474121</ele>
        <time>2019-09-05T07:58:33.000Z</time>
      </trkpt>
      <trkpt lat="47.24151" lon="-2.30052">
        <ele>32.599998474121</ele>
        <time>2019-09-05T07:58:34.000Z</time>
      </trkpt>
      <trkpt lat="47.2415" lon="-2.30056">
        <ele>32.599998474121</ele>
        <time>2019-09-05T07:58:36.000Z</time>
      </trkpt>
      <trkpt lat="47.24147" lon="-2.30066">
        <ele>32.599998474121</ele>
        <time>2019-09-05T07:58:39.000Z</time>
      </trkpt>
      <trkpt lat="47.24148" lon="-2.30077">
        <ele>32.599998474121</ele>
        <time>2019-09-05T07:58:44.000Z</time>
      </trkpt>
      <trkpt lat="47.24151" lon="-2.30076">
        <ele>32.599998474121</ele>
        <time>2019-09-05T07:58:45.000Z</time>
      </trkpt>
      <trkpt lat="47.24156" lon="-2.30067">
        <ele>32.599998474121</ele>
        <time>2019-09-05T07:58:48.000Z</time>
      </trkpt>
      <trkpt lat="47.24158" lon="-2.30052">
        <ele>32.599998474121</ele>
        <time>2019-09-05T07:58:52.000Z</time>
      </trkpt>
      <trkpt lat="47.24159" lon="-2.30048">
        <ele>32.599998474121</ele>
        <time>2019-09-05T07:58:53.000Z</time>
      </trkpt>
      <trkpt lat="47.2416" lon="-2.30045">
        <ele>32.599998474121</ele>
        <time>2019-09-05T07:58:54.000Z</time>
      </trkpt>
      <trkpt lat="47.24164" lon="-2.3004">
        <ele>32.599998474121</ele>
        <time>2019-09-05T07:58:57.000Z</time>
      </trkpt>
      <trkpt lat="47.24169" lon="-2.30042">
        <ele>32.599998474121</ele>
        <time>2019-09-05T07:59:01.000Z</time>
      </trkpt>
      <trkpt lat="47.24173" lon="-2.30041">
        <ele>32.599998474121</ele>
        <time>2019-09-05T07:59:03.000Z</time>
      </trkpt>
      <trkpt lat="47.24177" lon="-2.30031">
        <ele>32.599998474121</ele>
        <time>2019-09-05T07:59:07.000Z</time>
      </trkpt>
      <trkpt lat="47.24176" lon="-2.30025">
        <ele>32.599998474121</ele>
        <time>2019-09-05T07:59:09.000Z</time>
      </trkpt>
      <trkpt lat="47.24173" lon="-2.30016">
        <ele>32.599998474121</ele>
        <time>2019-09-05T07:59:13.000Z</time>
      </trkpt>
      <trkpt lat="47.24172" lon="-2.30007">
        <ele>33</ele>
        <time>2019-09-05T07:59:15.000Z</time>
      </trkpt>
      <trkpt lat="47.24171" lon="-2.30003">
        <ele>33.400001525879</ele>
        <time>2019-09-05T07:59:16.000Z</time>
      </trkpt>
      <trkpt lat="47.24171" lon="-2.29999">
        <ele>34</ele>
        <time>2019-09-05T07:59:17.000Z</time>
      </trkpt>
      <trkpt lat="47.24172" lon="-2.29995">
        <ele>34.400001525879</ele>
        <time>2019-09-05T07:59:18.000Z</time>
      </trkpt>
      <trkpt lat="47.24174" lon="-2.29991">
        <ele>34.799999237061</ele>
        <time>2019-09-05T07:59:19.000Z</time>
      </trkpt>
      <trkpt lat="47.24182" lon="-2.29985">
        <ele>34.799999237061</ele>
        <time>2019-09-05T07:59:22.000Z</time>
      </trkpt>
      <trkpt lat="47.242" lon="-2.29973">
        <ele>34.799999237061</ele>
        <time>2019-09-05T07:59:27.000Z</time>
      </trkpt>
      <trkpt lat="47.2422" lon="-2.2996">
        <ele>34.799999237061</ele>
        <time>2019-09-05T07:59:31.000Z</time>
      </trkpt>
      <trkpt lat="47.24231" lon="-2.29954">
        <ele>34.799999237061</ele>
        <time>2019-09-05T07:59:33.000Z</time>
      </trkpt>
      <trkpt lat="47.24243" lon="-2.29944">
        <ele>34.400001525879</ele>
        <time>2019-09-05T07:59:36.000Z</time>
      </trkpt>
      <trkpt lat="47.24246" lon="-2.29941">
        <ele>34</ele>
        <time>2019-09-05T07:59:37.000Z</time>
      </trkpt>
      <trkpt lat="47.24251" lon="-2.29935">
        <ele>33.599998474121</ele>
        <time>2019-09-05T07:59:38.000Z</time>
      </trkpt>
      <trkpt lat="47.24254" lon="-2.29931">
        <ele>33.200000762939</ele>
        <time>2019-09-05T07:59:39.000Z</time>
      </trkpt>
      <trkpt lat="47.24258" lon="-2.29925">
        <ele>32.799999237061</ele>
        <time>2019-09-05T07:59:40.000Z</time>
      </trkpt>
      <trkpt lat="47.24266" lon="-2.29917">
        <ele>32.799999237061</ele>
        <time>2019-09-05T07:59:42.000Z</time>
      </trkpt>
      <trkpt lat="47.24272" lon="-2.29913">
        <ele>32.799999237061</ele>
        <time>2019-09-05T07:59:43.000Z</time>
      </trkpt>
      <trkpt lat="47.24287" lon="-2.29903">
        <ele>32.799999237061</ele>
        <time>2019-09-05T07:59:46.000Z</time>
      </trkpt>
      <trkpt lat="47.24299" lon="-2.29895">
        <ele>32.799999237061</ele>
        <time>2019-09-05T07:59:49.000Z</time>
      </trkpt>
      <trkpt lat="47.24306" lon="-2.29884">
        <ele>32.799999237061</ele>
        <time>2019-09-05T07:59:51.000Z</time>
      </trkpt>
      <trkpt lat="47.24311" lon="-2.29868">
        <ele>32.799999237061</ele>
        <time>2019-09-05T07:59:53.000Z</time>
      </trkpt>
      <trkpt lat="47.24314" lon="-2.29849">
        <ele>32.799999237061</ele>
        <time>2019-09-05T07:59:55.000Z</time>
      </trkpt>
      <trkpt lat="47.24315" lon="-2.29832">
        <ele>32.799999237061</ele>
        <time>2019-09-05T07:59:57.000Z</time>
      </trkpt>
      <trkpt lat="47.24321" lon="-2.2982">
        <ele>33.200000762939</ele>
        <time>2019-09-05T07:59:59.000Z</time>
      </trkpt>
      <trkpt lat="47.24326" lon="-2.29816">
        <ele>33.599998474121</ele>
        <time>2019-09-05T08:00:00.000Z</time>
      </trkpt>
      <trkpt lat="47.24331" lon="-2.29813">
        <ele>34</ele>
        <time>2019-09-05T08:00:01.000Z</time>
      </trkpt>
      <trkpt lat="47.24337" lon="-2.29811">
        <ele>34.400001525879</ele>
        <time>2019-09-05T08:00:02.000Z</time>
      </trkpt>
      <trkpt lat="47.24342" lon="-2.29809">
        <ele>34.799999237061</ele>
        <time>2019-09-05T08:00:03.000Z</time>
      </trkpt>
      <trkpt lat="47.24351" lon="-2.29806">
        <ele>34.799999237061</ele>
        <time>2019-09-05T08:00:05.000Z</time>
      </trkpt>
      <trkpt lat="47.24364" lon="-2.29789">
        <ele>34.799999237061</ele>
        <time>2019-09-05T08:00:08.000Z</time>
      </trkpt>
      <trkpt lat="47.2437" lon="-2.29776">
        <ele>34.799999237061</ele>
        <time>2019-09-05T08:00:10.000Z</time>
      </trkpt>
      <trkpt lat="47.24377" lon="-2.29761">
        <ele>35.200000762939</ele>
        <time>2019-09-05T08:00:12.000Z</time>
      </trkpt>
      <trkpt lat="47.2438" lon="-2.29755">
        <ele>35.599998474121</ele>
        <time>2019-09-05T08:00:13.000Z</time>
      </trkpt>
      <trkpt lat="47.24383" lon="-2.29748">
        <ele>36.400001525879</ele>
        <time>2019-09-05T08:00:14.000Z</time>
      </trkpt>
      <trkpt lat="47.24386" lon="-2.29741">
        <ele>36.799999237061</ele>
        <time>2019-09-05T08:00:15.000Z</time>
      </trkpt>
      <trkpt lat="47.24391" lon="-2.29726">
        <ele>36.799999237061</ele>
        <time>2019-09-05T08:00:17.000Z</time>
      </trkpt>
      <trkpt lat="47.244" lon="-2.29706">
        <ele>36.799999237061</ele>
        <time>2019-09-05T08:00:20.000Z</time>
      </trkpt>
      <trkpt lat="47.24408" lon="-2.29701">
        <ele>36.799999237061</ele>
        <time>2019-09-05T08:00:22.000Z</time>
      </trkpt>
      <trkpt lat="47.24424" lon="-2.29695">
        <ele>36.799999237061</ele>
        <time>2019-09-05T08:00:26.000Z</time>
      </trkpt>
      <trkpt lat="47.24428" lon="-2.29694">
        <ele>36.799999237061</ele>
        <time>2019-09-05T08:00:27.000Z</time>
      </trkpt>
      <trkpt lat="47.24433" lon="-2.29696">
        <ele>36.799999237061</ele>
        <time>2019-09-05T08:00:31.000Z</time>
      </trkpt>
      <trkpt lat="47.24434" lon="-2.29696">
        <ele>36.799999237061</ele>
        <time>2019-09-05T08:00:32.000Z</time>
      </trkpt>
      <trkpt lat="47.24435" lon="-2.29699">
        <ele>36.799999237061</ele>
        <time>2019-09-05T08:00:39.000Z</time>
      </trkpt>
      <trkpt lat="47.24437" lon="-2.29703">
        <ele>36.799999237061</ele>
        <time>2019-09-05T08:00:41.000Z</time>
      </trkpt>
      <trkpt lat="47.24443" lon="-2.2972">
        <ele>36.799999237061</ele>
        <time>2019-09-05T08:00:45.000Z</time>
      </trkpt>
      <trkpt lat="47.24447" lon="-2.2973">
        <ele>36.799999237061</ele>
        <time>2019-09-05T08:00:47.000Z</time>
      </trkpt>
      <trkpt lat="47.24455" lon="-2.29749">
        <ele>36.799999237061</ele>
        <time>2019-09-05T08:00:50.000Z</time>
      </trkpt>
      <trkpt lat="47.24459" lon="-2.29763">
        <ele>36.799999237061</ele>
        <time>2019-09-05T08:00:52.000Z</time>
      </trkpt>
      <trkpt lat="47.24463" lon="-2.29783">
        <ele>36.799999237061</ele>
        <time>2019-09-05T08:00:55.000Z</time>
      </trkpt>
      <trkpt lat="47.24475" lon="-2.29816">
        <ele>36.799999237061</ele>
        <time>2019-09-05T08:01:00.000Z</time>
      </trkpt>
      <trkpt lat="47.24477" lon="-2.29823">
        <ele>36.799999237061</ele>
        <time>2019-09-05T08:01:01.000Z</time>
      </trkpt>
      <trkpt lat="47.24485" lon="-2.29836">
        <ele>36.799999237061</ele>
        <time>2019-09-05T08:01:03.000Z</time>
      </trkpt>
      <trkpt lat="47.245" lon="-2.29847">
        <ele>36.799999237061</ele>
        <time>2019-09-05T08:01:06.000Z</time>
      </trkpt>
      <trkpt lat="47.24506" lon="-2.29851">
        <ele>36.799999237061</ele>
        <time>2019-09-05T08:01:07.000Z</time>
      </trkpt>
      <trkpt lat="47.24522" lon="-2.29861">
        <ele>36.799999237061</ele>
        <time>2019-09-05T08:01:10.000Z</time>
      </trkpt>
      <trkpt lat="47.24536" lon="-2.29866">
        <ele>36.799999237061</ele>
        <time>2019-09-05T08:01:13.000Z</time>
      </trkpt>
      <trkpt lat="47.24559" lon="-2.29878">
        <ele>36.799999237061</ele>
        <time>2019-09-05T08:01:19.000Z</time>
      </trkpt>
      <trkpt lat="47.24571" lon="-2.29894">
        <ele>36.799999237061</ele>
        <time>2019-09-05T08:01:23.000Z</time>
      </trkpt>
      <trkpt lat="47.24574" lon="-2.29899">
        <ele>36.799999237061</ele>
        <time>2019-09-05T08:01:24.000Z</time>
      </trkpt>
      <trkpt lat="47.24593" lon="-2.29935">
        <ele>36.799999237061</ele>
        <time>2019-09-05T08:01:31.000Z</time>
      </trkpt>
      <trkpt lat="47.24599" lon="-2.29944">
        <ele>36.799999237061</ele>
        <time>2019-09-05T08:01:33.000Z</time>
      </trkpt>
      <trkpt lat="47.24607" lon="-2.29946">
        <ele>36.799999237061</ele>
        <time>2019-09-05T08:01:35.000Z</time>
      </trkpt>
      <trkpt lat="47.24618" lon="-2.29943">
        <ele>37.200000762939</ele>
        <time>2019-09-05T08:01:38.000Z</time>
      </trkpt>
      <trkpt lat="47.24623" lon="-2.29941">
        <ele>37.599998474121</ele>
        <time>2019-09-05T08:01:39.000Z</time>
      </trkpt>
      <trkpt lat="47.24627" lon="-2.29939">
        <ele>38</ele>
        <time>2019-09-05T08:01:40.000Z</time>
      </trkpt>
      <trkpt lat="47.24631" lon="-2.29937">
        <ele>38.400001525879</ele>
        <time>2019-09-05T08:01:41.000Z</time>
      </trkpt>
      <trkpt lat="47.24635" lon="-2.29936">
        <ele>38.799999237061</ele>
        <time>2019-09-05T08:01:42.000Z</time>
      </trkpt>
      <trkpt lat="47.24656" lon="-2.29927">
        <ele>38.799999237061</ele>
        <time>2019-09-05T08:01:47.000Z</time>
      </trkpt>
      <trkpt lat="47.2469" lon="-2.29916">
        <ele>38.799999237061</ele>
        <time>2019-09-05T08:01:55.000Z</time>
      </trkpt>
      <trkpt lat="47.24725" lon="-2.29906">
        <ele>38.799999237061</ele>
        <time>2019-09-05T08:02:03.000Z</time>
      </trkpt>
      <trkpt lat="47.24729" lon="-2.29904">
        <ele>38.799999237061</ele>
        <time>2019-09-05T08:02:04.000Z</time>
      </trkpt>
      <trkpt lat="47.24753" lon="-2.29892">
        <ele>38.799999237061</ele>
        <time>2019-09-05T08:02:09.000Z</time>
      </trkpt>
      <trkpt lat="47.24757" lon="-2.29888">
        <ele>38.799999237061</ele>
        <time>2019-09-05T08:02:10.000Z</time>
      </trkpt>
      <trkpt lat="47.2478" lon="-2.2987">
        <ele>38.799999237061</ele>
        <time>2019-09-05T08:02:15.000Z</time>
      </trkpt>
      <trkpt lat="47.24814" lon="-2.2985">
        <ele>38.799999237061</ele>
        <time>2019-09-05T08:02:22.000Z</time>
      </trkpt>
      <trkpt lat="47.24824" lon="-2.29849">
        <ele>39.200000762939</ele>
        <time>2019-09-05T08:02:24.000Z</time>
      </trkpt>
      <trkpt lat="47.24829" lon="-2.29848">
        <ele>39.599998474121</ele>
        <time>2019-09-05T08:02:25.000Z</time>
      </trkpt>
      <trkpt lat="47.24834" lon="-2.29846">
        <ele>40</ele>
        <time>2019-09-05T08:02:26.000Z</time>
      </trkpt>
      <trkpt lat="47.24838" lon="-2.29845">
        <ele>40.599998474121</ele>
        <time>2019-09-05T08:02:27.000Z</time>
      </trkpt>
      <trkpt lat="47.24842" lon="-2.29843">
        <ele>41</ele>
        <time>2019-09-05T08:02:28.000Z</time>
      </trkpt>
      <trkpt lat="47.24859" lon="-2.29834">
        <ele>41</ele>
        <time>2019-09-05T08:02:33.000Z</time>
      </trkpt>
      <trkpt lat="47.24869" lon="-2.29835">
        <ele>41</ele>
        <time>2019-09-05T08:02:37.000Z</time>
      </trkpt>
      <trkpt lat="47.24871" lon="-2.29836">
        <ele>41</ele>
        <time>2019-09-05T08:02:38.000Z</time>
      </trkpt>
      <trkpt lat="47.24876" lon="-2.29854">
        <ele>41</ele>
        <time>2019-09-05T08:02:41.000Z</time>
      </trkpt>
      <trkpt lat="47.24878" lon="-2.29861">
        <ele>41</ele>
        <time>2019-09-05T08:02:42.000Z</time>
      </trkpt>
      <trkpt lat="47.24884" lon="-2.299">
        <ele>41</ele>
        <time>2019-09-05T08:02:47.000Z</time>
      </trkpt>
      <trkpt lat="47.2489" lon="-2.29945">
        <ele>41</ele>
        <time>2019-09-05T08:02:52.000Z</time>
      </trkpt>
      <trkpt lat="47.24892" lon="-2.29954">
        <ele>41</ele>
        <time>2019-09-05T08:02:53.000Z</time>
      </trkpt>
      <trkpt lat="47.24901" lon="-2.29999">
        <ele>41</ele>
        <time>2019-09-05T08:02:58.000Z</time>
      </trkpt>
      <trkpt lat="47.24905" lon="-2.30043">
        <ele>41</ele>
        <time>2019-09-05T08:03:04.000Z</time>
      </trkpt>
      <trkpt lat="47.24911" lon="-2.30055">
        <ele>41</ele>
        <time>2019-09-05T08:03:07.000Z</time>
      </trkpt>
      <trkpt lat="47.24928" lon="-2.30057">
        <ele>41</ele>
        <time>2019-09-05T08:03:11.000Z</time>
      </trkpt>
      <trkpt lat="47.24958" lon="-2.30056">
        <ele>41</ele>
        <time>2019-09-05T08:03:16.000Z</time>
      </trkpt>
      <trkpt lat="47.24998" lon="-2.30054">
        <ele>41</ele>
        <time>2019-09-05T08:03:23.000Z</time>
      </trkpt>
      <trkpt lat="47.25038" lon="-2.30055">
        <ele>41</ele>
        <time>2019-09-05T08:03:30.000Z</time>
      </trkpt>
      <trkpt lat="47.25067" lon="-2.30058">
        <ele>40.400001525879</ele>
        <time>2019-09-05T08:03:36.000Z</time>
      </trkpt>
      <trkpt lat="47.25069" lon="-2.30059">
        <ele>40</ele>
        <time>2019-09-05T08:03:37.000Z</time>
      </trkpt>
      <trkpt lat="47.25072" lon="-2.3006">
        <ele>39.599998474121</ele>
        <time>2019-09-05T08:03:38.000Z</time>
      </trkpt>
      <trkpt lat="47.25074" lon="-2.30065">
        <ele>39</ele>
        <time>2019-09-05T08:03:39.000Z</time>
      </trkpt>
      <trkpt lat="47.25074" lon="-2.30068">
        <ele>38.599998474121</ele>
        <time>2019-09-05T08:03:40.000Z</time>
      </trkpt>
      <trkpt lat="47.25071" lon="-2.30088">
        <ele>38.599998474121</ele>
        <time>2019-09-05T08:03:43.000Z</time>
      </trkpt>
      <trkpt lat="47.25069" lon="-2.3013">
        <ele>38.599998474121</ele>
        <time>2019-09-05T08:03:48.000Z</time>
      </trkpt>
      <trkpt lat="47.2507" lon="-2.30137">
        <ele>38.599998474121</ele>
        <time>2019-09-05T08:03:49.000Z</time>
      </trkpt>
      <trkpt lat="47.25078" lon="-2.30145">
        <ele>38.599998474121</ele>
        <time>2019-09-05T08:03:52.000Z</time>
      </trkpt>
      <trkpt lat="47.2509" lon="-2.30148">
        <ele>38.599998474121</ele>
        <time>2019-09-05T08:03:55.000Z</time>
      </trkpt>
      <trkpt lat="47.25095" lon="-2.3015">
        <ele>38.599998474121</ele>
        <time>2019-09-05T08:03:56.000Z</time>
      </trkpt>
      <trkpt lat="47.25103" lon="-2.30146">
        <ele>38.599998474121</ele>
        <time>2019-09-05T08:03:57.000Z</time>
      </trkpt>
      <trkpt lat="47.25117" lon="-2.30141">
        <ele>38.599998474121</ele>
        <time>2019-09-05T08:03:59.000Z</time>
      </trkpt>
      <trkpt lat="47.25124" lon="-2.30139">
        <ele>38.599998474121</ele>
        <time>2019-09-05T08:04:00.000Z</time>
      </trkpt>
      <trkpt lat="47.25147" lon="-2.30131">
        <ele>38.599998474121</ele>
        <time>2019-09-05T08:04:03.000Z</time>
      </trkpt>
      <trkpt lat="47.25182" lon="-2.30123">
        <ele>38.599998474121</ele>
        <time>2019-09-05T08:04:08.000Z</time>
      </trkpt>
      <trkpt lat="47.2519" lon="-2.30125">
        <ele>38.200000762939</ele>
        <time>2019-09-05T08:04:09.000Z</time>
      </trkpt>
      <trkpt lat="47.25196" lon="-2.30127">
        <ele>37.799999237061</ele>
        <time>2019-09-05T08:04:10.000Z</time>
      </trkpt>
      <trkpt lat="47.25202" lon="-2.30129">
        <ele>37.200000762939</ele>
        <time>2019-09-05T08:04:11.000Z</time>
      </trkpt>
      <trkpt lat="47.25206" lon="-2.30136">
        <ele>36.799999237061</ele>
        <time>2019-09-05T08:04:12.000Z</time>
      </trkpt>
      <trkpt lat="47.25211" lon="-2.30144">
        <ele>36.400001525879</ele>
        <time>2019-09-05T08:04:13.000Z</time>
      </trkpt>
      <trkpt lat="47.25231" lon="-2.30172">
        <ele>36</ele>
        <time>2019-09-05T08:04:17.000Z</time>
      </trkpt>
      <trkpt lat="47.25237" lon="-2.30174">
        <ele>35.599998474121</ele>
        <time>2019-09-05T08:04:18.000Z</time>
      </trkpt>
      <trkpt lat="47.25243" lon="-2.30177">
        <ele>35.200000762939</ele>
        <time>2019-09-05T08:04:19.000Z</time>
      </trkpt>
      <trkpt lat="47.25249" lon="-2.30179">
        <ele>34.799999237061</ele>
        <time>2019-09-05T08:04:20.000Z</time>
      </trkpt>
      <trkpt lat="47.25256" lon="-2.30183">
        <ele>34.200000762939</ele>
        <time>2019-09-05T08:04:21.000Z</time>
      </trkpt>
      <trkpt lat="47.25287" lon="-2.302">
        <ele>34.200000762939</ele>
        <time>2019-09-05T08:04:26.000Z</time>
      </trkpt>
      <trkpt lat="47.25293" lon="-2.30203">
        <ele>33.799999237061</ele>
        <time>2019-09-05T08:04:27.000Z</time>
      </trkpt>
      <trkpt lat="47.25297" lon="-2.30205">
        <ele>33.400001525879</ele>
        <time>2019-09-05T08:04:28.000Z</time>
      </trkpt>
      <trkpt lat="47.253" lon="-2.30208">
        <ele>33</ele>
        <time>2019-09-05T08:04:29.000Z</time>
      </trkpt>
      <trkpt lat="47.25303" lon="-2.30207">
        <ele>32.599998474121</ele>
        <time>2019-09-05T08:04:30.000Z</time>
      </trkpt>
      <trkpt lat="47.25304" lon="-2.30205">
        <ele>32</ele>
        <time>2019-09-05T08:04:31.000Z</time>
      </trkpt>
      <trkpt lat="47.25309" lon="-2.30201">
        <ele>32</ele>
        <time>2019-09-05T08:04:33.000Z</time>
      </trkpt>
      <trkpt lat="47.25319" lon="-2.30205">
        <ele>32</ele>
        <time>2019-09-05T08:04:35.000Z</time>
      </trkpt>
      <trkpt lat="47.25325" lon="-2.30206">
        <ele>32</ele>
        <time>2019-09-05T08:04:36.000Z</time>
      </trkpt>
      <trkpt lat="47.25338" lon="-2.30207">
        <ele>32</ele>
        <time>2019-09-05T08:04:38.000Z</time>
      </trkpt>
      <trkpt lat="47.25358" lon="-2.30208">
        <ele>32</ele>
        <time>2019-09-05T08:04:41.000Z</time>
      </trkpt>
      <trkpt lat="47.25376" lon="-2.3021">
        <ele>32</ele>
        <time>2019-09-05T08:04:44.000Z</time>
      </trkpt>
      <trkpt lat="47.25387" lon="-2.30214">
        <ele>31.60000038147</ele>
        <time>2019-09-05T08:04:46.000Z</time>
      </trkpt>
      <trkpt lat="47.25391" lon="-2.30217">
        <ele>31.200000762939</ele>
        <time>2019-09-05T08:04:47.000Z</time>
      </trkpt>
      <trkpt lat="47.25397" lon="-2.3022">
        <ele>30.799999237061</ele>
        <time>2019-09-05T08:04:48.000Z</time>
      </trkpt>
      <trkpt lat="47.25402" lon="-2.30223">
        <ele>30.39999961853</ele>
        <time>2019-09-05T08:04:49.000Z</time>
      </trkpt>
      <trkpt lat="47.25408" lon="-2.30226">
        <ele>30</ele>
        <time>2019-09-05T08:04:50.000Z</time>
      </trkpt>
      <trkpt lat="47.25414" lon="-2.30228">
        <ele>30</ele>
        <time>2019-09-05T08:04:51.000Z</time>
      </trkpt>
      <trkpt lat="47.25419" lon="-2.30229">
        <ele>30</ele>
        <time>2019-09-05T08:04:52.000Z</time>
      </trkpt>
      <trkpt lat="47.25459" lon="-2.30242">
        <ele>30</ele>
        <time>2019-09-05T08:04:59.000Z</time>
      </trkpt>
      <trkpt lat="47.25464" lon="-2.30245">
        <ele>30</ele>
        <time>2019-09-05T08:05:00.000Z</time>
      </trkpt>
      <trkpt lat="47.25469" lon="-2.30246">
        <ele>29.39999961853</ele>
        <time>2019-09-05T08:05:01.000Z</time>
      </trkpt>
      <trkpt lat="47.25472" lon="-2.30244">
        <ele>29</ele>
        <time>2019-09-05T08:05:02.000Z</time>
      </trkpt>
      <trkpt lat="47.25473" lon="-2.30237">
        <ele>28.39999961853</ele>
        <time>2019-09-05T08:05:03.000Z</time>
      </trkpt>
      <trkpt lat="47.25475" lon="-2.30231">
        <ele>28</ele>
        <time>2019-09-05T08:05:04.000Z</time>
      </trkpt>
      <trkpt lat="47.25477" lon="-2.30225">
        <ele>27.39999961853</ele>
        <time>2019-09-05T08:05:05.000Z</time>
      </trkpt>
      <trkpt lat="47.25485" lon="-2.30207">
        <ele>27.39999961853</ele>
        <time>2019-09-05T08:05:08.000Z</time>
      </trkpt>
      <trkpt lat="47.25492" lon="-2.30197">
        <ele>27.39999961853</ele>
        <time>2019-09-05T08:05:10.000Z</time>
      </trkpt>
      <trkpt lat="47.25496" lon="-2.30194">
        <ele>27.39999961853</ele>
        <time>2019-09-05T08:05:11.000Z</time>
      </trkpt>
      <trkpt lat="47.255" lon="-2.30194">
        <ele>27.39999961853</ele>
        <time>2019-09-05T08:05:12.000Z</time>
      </trkpt>
      <trkpt lat="47.25513" lon="-2.30197">
        <ele>27.39999961853</ele>
        <time>2019-09-05T08:05:15.000Z</time>
      </trkpt>
      <trkpt lat="47.25517" lon="-2.30197">
        <ele>27.39999961853</ele>
        <time>2019-09-05T08:05:16.000Z</time>
      </trkpt>
      <trkpt lat="47.25537" lon="-2.30189">
        <ele>27.39999961853</ele>
        <time>2019-09-05T08:05:20.000Z</time>
      </trkpt>
      <trkpt lat="47.25542" lon="-2.30186">
        <ele>27.39999961853</ele>
        <time>2019-09-05T08:05:21.000Z</time>
      </trkpt>
      <trkpt lat="47.25553" lon="-2.30183">
        <ele>27.39999961853</ele>
        <time>2019-09-05T08:05:23.000Z</time>
      </trkpt>
      <trkpt lat="47.25566" lon="-2.30187">
        <ele>27.39999961853</ele>
        <time>2019-09-05T08:05:25.000Z</time>
      </trkpt>
      <trkpt lat="47.2559" lon="-2.30206">
        <ele>27.39999961853</ele>
        <time>2019-09-05T08:05:29.000Z</time>
      </trkpt>
      <trkpt lat="47.25596" lon="-2.30212">
        <ele>27.39999961853</ele>
        <time>2019-09-05T08:05:30.000Z</time>
      </trkpt>
      <trkpt lat="47.2561" lon="-2.30234">
        <ele>27.39999961853</ele>
        <time>2019-09-05T08:05:33.000Z</time>
      </trkpt>
      <trkpt lat="47.25614" lon="-2.30242">
        <ele>27</ele>
        <time>2019-09-05T08:05:34.000Z</time>
      </trkpt>
      <trkpt lat="47.25617" lon="-2.3025">
        <ele>26.200000762939</ele>
        <time>2019-09-05T08:05:35.000Z</time>
      </trkpt>
      <trkpt lat="47.2562" lon="-2.30258">
        <ele>25.799999237061</ele>
        <time>2019-09-05T08:05:36.000Z</time>
      </trkpt>
      <trkpt lat="47.25623" lon="-2.30267">
        <ele>25.39999961853</ele>
        <time>2019-09-05T08:05:37.000Z</time>
      </trkpt>
      <trkpt lat="47.25625" lon="-2.30276">
        <ele>25.39999961853</ele>
        <time>2019-09-05T08:05:38.000Z</time>
      </trkpt>
      <trkpt lat="47.25632" lon="-2.30311">
        <ele>25.39999961853</ele>
        <time>2019-09-05T08:05:42.000Z</time>
      </trkpt>
      <trkpt lat="47.25634" lon="-2.30329">
        <ele>25.39999961853</ele>
        <time>2019-09-05T08:05:44.000Z</time>
      </trkpt>
      <trkpt lat="47.25635" lon="-2.30335">
        <ele>25.39999961853</ele>
        <time>2019-09-05T08:05:45.000Z</time>
      </trkpt>
      <trkpt lat="47.25638" lon="-2.3034">
        <ele>25.39999961853</ele>
        <time>2019-09-05T08:05:47.000Z</time>
      </trkpt>
      <trkpt lat="47.25643" lon="-2.30332">
        <ele>25.39999961853</ele>
        <time>2019-09-05T08:05:50.000Z</time>
      </trkpt>
      <trkpt lat="47.25654" lon="-2.30308">
        <ele>25.39999961853</ele>
        <time>2019-09-05T08:05:54.000Z</time>
      </trkpt>
      <trkpt lat="47.25657" lon="-2.30289">
        <ele>25.39999961853</ele>
        <time>2019-09-05T08:05:57.000Z</time>
      </trkpt>
      <trkpt lat="47.2567" lon="-2.30269">
        <ele>25.39999961853</ele>
        <time>2019-09-05T08:06:01.000Z</time>
      </trkpt>
      <trkpt lat="47.25675" lon="-2.30264">
        <ele>25.39999961853</ele>
        <time>2019-09-05T08:06:02.000Z</time>
      </trkpt>
      <trkpt lat="47.25678" lon="-2.30257">
        <ele>25.39999961853</ele>
        <time>2019-09-05T08:06:03.000Z</time>
      </trkpt>
      <trkpt lat="47.25684" lon="-2.30242">
        <ele>25.39999961853</ele>
        <time>2019-09-05T08:06:05.000Z</time>
      </trkpt>
      <trkpt lat="47.25691" lon="-2.30227">
        <ele>25.39999961853</ele>
        <time>2019-09-05T08:06:07.000Z</time>
      </trkpt>
      <trkpt lat="47.25705" lon="-2.30212">
        <ele>25.39999961853</ele>
        <time>2019-09-05T08:06:10.000Z</time>
      </trkpt>
      <trkpt lat="47.25727" lon="-2.3021">
        <ele>25.39999961853</ele>
        <time>2019-09-05T08:06:13.000Z</time>
      </trkpt>
      <trkpt lat="47.25748" lon="-2.30218">
        <ele>25.39999961853</ele>
        <time>2019-09-05T08:06:16.000Z</time>
      </trkpt>
      <trkpt lat="47.25755" lon="-2.30221">
        <ele>25.39999961853</ele>
        <time>2019-09-05T08:06:17.000Z</time>
      </trkpt>
      <trkpt lat="47.25775" lon="-2.30232">
        <ele>25</ele>
        <time>2019-09-05T08:06:20.000Z</time>
      </trkpt>
      <trkpt lat="47.25782" lon="-2.30235">
        <ele>24.39999961853</ele>
        <time>2019-09-05T08:06:21.000Z</time>
      </trkpt>
      <trkpt lat="47.25789" lon="-2.30239">
        <ele>24</ele>
        <time>2019-09-05T08:06:22.000Z</time>
      </trkpt>
      <trkpt lat="47.25796" lon="-2.30242">
        <ele>23.60000038147</ele>
        <time>2019-09-05T08:06:23.000Z</time>
      </trkpt>
      <trkpt lat="47.25804" lon="-2.30245">
        <ele>23.200000762939</ele>
        <time>2019-09-05T08:06:24.000Z</time>
      </trkpt>
      <trkpt lat="47.25842" lon="-2.30262">
        <ele>23.200000762939</ele>
        <time>2019-09-05T08:06:30.000Z</time>
      </trkpt>
      <trkpt lat="47.25872" lon="-2.30269">
        <ele>23.200000762939</ele>
        <time>2019-09-05T08:06:36.000Z</time>
      </trkpt>
      <trkpt lat="47.25888" lon="-2.30249">
        <ele>23.200000762939</ele>
        <time>2019-09-05T08:06:40.000Z</time>
      </trkpt>
      <trkpt lat="47.25891" lon="-2.30225">
        <ele>23.200000762939</ele>
        <time>2019-09-05T08:06:43.000Z</time>
      </trkpt>
      <trkpt lat="47.2589" lon="-2.30209">
        <ele>23.200000762939</ele>
        <time>2019-09-05T08:06:45.000Z</time>
      </trkpt>
      <trkpt lat="47.2589" lon="-2.30185">
        <ele>23.200000762939</ele>
        <time>2019-09-05T08:06:48.000Z</time>
      </trkpt>
      <trkpt lat="47.25903" lon="-2.30173">
        <ele>23.200000762939</ele>
        <time>2019-09-05T08:06:51.000Z</time>
      </trkpt>
      <trkpt lat="47.25921" lon="-2.30169">
        <ele>23.200000762939</ele>
        <time>2019-09-05T08:06:54.000Z</time>
      </trkpt>
      <trkpt lat="47.25928" lon="-2.30167">
        <ele>23.200000762939</ele>
        <time>2019-09-05T08:06:55.000Z</time>
      </trkpt>
      <trkpt lat="47.25947" lon="-2.30163">
        <ele>22.799999237061</ele>
        <time>2019-09-05T08:06:58.000Z</time>
      </trkpt>
      <trkpt lat="47.25953" lon="-2.3016">
        <ele>22.200000762939</ele>
        <time>2019-09-05T08:06:59.000Z</time>
      </trkpt>
      <trkpt lat="47.25956" lon="-2.30156">
        <ele>21.799999237061</ele>
        <time>2019-09-05T08:07:00.000Z</time>
      </trkpt>
      <trkpt lat="47.25958" lon="-2.30153">
        <ele>21.200000762939</ele>
        <time>2019-09-05T08:07:01.000Z</time>
      </trkpt>
      <trkpt lat="47.2596" lon="-2.3015">
        <ele>20.799999237061</ele>
        <time>2019-09-05T08:07:02.000Z</time>
      </trkpt>
      <trkpt lat="47.25962" lon="-2.30147">
        <ele>20.200000762939</ele>
        <time>2019-09-05T08:07:03.000Z</time>
      </trkpt>
      <trkpt lat="47.25963" lon="-2.30144">
        <ele>19.799999237061</ele>
        <time>2019-09-05T08:07:04.000Z</time>
      </trkpt>
      <trkpt lat="47.25965" lon="-2.3014">
        <ele>19.200000762939</ele>
        <time>2019-09-05T08:07:05.000Z</time>
      </trkpt>
      <trkpt lat="47.25967" lon="-2.30137">
        <ele>18.60000038147</ele>
        <time>2019-09-05T08:07:06.000Z</time>
      </trkpt>
      <trkpt lat="47.25973" lon="-2.30132">
        <ele>18.60000038147</ele>
        <time>2019-09-05T08:07:09.000Z</time>
      </trkpt>
      <trkpt lat="47.25985" lon="-2.30131">
        <ele>18.60000038147</ele>
        <time>2019-09-05T08:07:15.000Z</time>
      </trkpt>
      <trkpt lat="47.25998" lon="-2.3013">
        <ele>18.60000038147</ele>
        <time>2019-09-05T08:07:20.000Z</time>
      </trkpt>
      <trkpt lat="47.26" lon="-2.3013">
        <ele>19</ele>
        <time>2019-09-05T08:07:21.000Z</time>
      </trkpt>
      <trkpt lat="47.26003" lon="-2.3013">
        <ele>19.60000038147</ele>
        <time>2019-09-05T08:07:22.000Z</time>
      </trkpt>
      <trkpt lat="47.26006" lon="-2.3013">
        <ele>20</ele>
        <time>2019-09-05T08:07:23.000Z</time>
      </trkpt>
      <trkpt lat="47.26008" lon="-2.30131">
        <ele>20.39999961853</ele>
        <time>2019-09-05T08:07:24.000Z</time>
      </trkpt>
      <trkpt lat="47.2601" lon="-2.30132">
        <ele>20.799999237061</ele>
        <time>2019-09-05T08:07:25.000Z</time>
      </trkpt>
      <trkpt lat="47.26012" lon="-2.30134">
        <ele>20.799999237061</ele>
        <time>2019-09-05T08:07:26.000Z</time>
      </trkpt>
      <trkpt lat="47.26026" lon="-2.30137">
        <ele>20.799999237061</ele>
        <time>2019-09-05T08:07:30.000Z</time>
      </trkpt>
      <trkpt lat="47.26043" lon="-2.30135">
        <ele>21.200000762939</ele>
        <time>2019-09-05T08:07:34.000Z</time>
      </trkpt>
      <trkpt lat="47.26047" lon="-2.30136">
        <ele>21.60000038147</ele>
        <time>2019-09-05T08:07:35.000Z</time>
      </trkpt>
      <trkpt lat="47.2605" lon="-2.3014">
        <ele>22</ele>
        <time>2019-09-05T08:07:36.000Z</time>
      </trkpt>
      <trkpt lat="47.26055" lon="-2.30145">
        <ele>22.39999961853</ele>
        <time>2019-09-05T08:07:37.000Z</time>
      </trkpt>
      <trkpt lat="47.2606" lon="-2.30148">
        <ele>22.799999237061</ele>
        <time>2019-09-05T08:07:38.000Z</time>
      </trkpt>
      <trkpt lat="47.26066" lon="-2.30151">
        <ele>22.799999237061</ele>
        <time>2019-09-05T08:07:39.000Z</time>
      </trkpt>
      <trkpt lat="47.26073" lon="-2.30151">
        <ele>22.799999237061</ele>
        <time>2019-09-05T08:07:41.000Z</time>
      </trkpt>
      <trkpt lat="47.26082" lon="-2.30152">
        <ele>22.799999237061</ele>
        <time>2019-09-05T08:07:44.000Z</time>
      </trkpt>
      <trkpt lat="47.26085" lon="-2.30153">
        <ele>23.200000762939</ele>
        <time>2019-09-05T08:07:45.000Z</time>
      </trkpt>
      <trkpt lat="47.26087" lon="-2.30155">
        <ele>23.60000038147</ele>
        <time>2019-09-05T08:07:46.000Z</time>
      </trkpt>
      <trkpt lat="47.26089" lon="-2.30157">
        <ele>24</ele>
        <time>2019-09-05T08:07:47.000Z</time>
      </trkpt>
      <trkpt lat="47.26091" lon="-2.30159">
        <ele>24.60000038147</ele>
        <time>2019-09-05T08:07:48.000Z</time>
      </trkpt>
      <trkpt lat="47.26093" lon="-2.30161">
        <ele>25</ele>
        <time>2019-09-05T08:07:49.000Z</time>
      </trkpt>
      <trkpt lat="47.261" lon="-2.30166">
        <ele>25</ele>
        <time>2019-09-05T08:07:52.000Z</time>
      </trkpt>
      <trkpt lat="47.26108" lon="-2.30163">
        <ele>25</ele>
        <time>2019-09-05T08:07:54.000Z</time>
      </trkpt>
      <trkpt lat="47.26114" lon="-2.30162">
        <ele>25</ele>
        <time>2019-09-05T08:07:55.000Z</time>
      </trkpt>
      <trkpt lat="47.26132" lon="-2.30157">
        <ele>25.39999961853</ele>
        <time>2019-09-05T08:07:59.000Z</time>
      </trkpt>
      <trkpt lat="47.26136" lon="-2.30156">
        <ele>25.799999237061</ele>
        <time>2019-09-05T08:08:00.000Z</time>
      </trkpt>
      <trkpt lat="47.26141" lon="-2.30155">
        <ele>26.200000762939</ele>
        <time>2019-09-05T08:08:01.000Z</time>
      </trkpt>
      <trkpt lat="47.26145" lon="-2.30154">
        <ele>26.60000038147</ele>
        <time>2019-09-05T08:08:02.000Z</time>
      </trkpt>
      <trkpt lat="47.26149" lon="-2.30152">
        <ele>27</ele>
        <time>2019-09-05T08:08:03.000Z</time>
      </trkpt>
      <trkpt lat="47.26164" lon="-2.30147">
        <ele>27.39999961853</ele>
        <time>2019-09-05T08:08:07.000Z</time>
      </trkpt>
      <trkpt lat="47.26167" lon="-2.30145">
        <ele>27.799999237061</ele>
        <time>2019-09-05T08:08:08.000Z</time>
      </trkpt>
      <trkpt lat="47.26169" lon="-2.30146">
        <ele>28.200000762939</ele>
        <time>2019-09-05T08:08:09.000Z</time>
      </trkpt>
      <trkpt lat="47.26171" lon="-2.30147">
        <ele>28.799999237061</ele>
        <time>2019-09-05T08:08:10.000Z</time>
      </trkpt>
      <trkpt lat="47.26174" lon="-2.30149">
        <ele>29.200000762939</ele>
        <time>2019-09-05T08:08:11.000Z</time>
      </trkpt>
      <trkpt lat="47.26175" lon="-2.30153">
        <ele>29.200000762939</ele>
        <time>2019-09-05T08:08:12.000Z</time>
      </trkpt>
      <trkpt lat="47.26184" lon="-2.30153">
        <ele>29.200000762939</ele>
        <time>2019-09-05T08:08:15.000Z</time>
      </trkpt>
      <trkpt lat="47.26188" lon="-2.30151">
        <ele>29.200000762939</ele>
        <time>2019-09-05T08:08:16.000Z</time>
      </trkpt>
      <trkpt lat="47.26204" lon="-2.30145">
        <ele>29.200000762939</ele>
        <time>2019-09-05T08:08:20.000Z</time>
      </trkpt>
      <trkpt lat="47.26212" lon="-2.30142">
        <ele>29.60000038147</ele>
        <time>2019-09-05T08:08:22.000Z</time>
      </trkpt>
      <trkpt lat="47.26217" lon="-2.3014">
        <ele>30</ele>
        <time>2019-09-05T08:08:23.000Z</time>
      </trkpt>
      <trkpt lat="47.26221" lon="-2.30139">
        <ele>30.39999961853</ele>
        <time>2019-09-05T08:08:24.000Z</time>
      </trkpt>
      <trkpt lat="47.26225" lon="-2.30138">
        <ele>30.799999237061</ele>
        <time>2019-09-05T08:08:25.000Z</time>
      </trkpt>
      <trkpt lat="47.26229" lon="-2.30136">
        <ele>31.200000762939</ele>
        <time>2019-09-05T08:08:26.000Z</time>
      </trkpt>
      <trkpt lat="47.26233" lon="-2.30135">
        <ele>31.200000762939</ele>
        <time>2019-09-05T08:08:27.000Z</time>
      </trkpt>
      <trkpt lat="47.2625" lon="-2.30133">
        <ele>31.200000762939</ele>
        <time>2019-09-05T08:08:31.000Z</time>
      </trkpt>
      <trkpt lat="47.26254" lon="-2.30135">
        <ele>31.200000762939</ele>
        <time>2019-09-05T08:08:32.000Z</time>
      </trkpt>
      <trkpt lat="47.26265" lon="-2.30149">
        <ele>31.200000762939</ele>
        <time>2019-09-05T08:08:35.000Z</time>
      </trkpt>
      <trkpt lat="47.26275" lon="-2.30168">
        <ele>31.200000762939</ele>
        <time>2019-09-05T08:08:38.000Z</time>
      </trkpt>
      <trkpt lat="47.26277" lon="-2.30175">
        <ele>31.200000762939</ele>
        <time>2019-09-05T08:08:39.000Z</time>
      </trkpt>
      <trkpt lat="47.26287" lon="-2.30218">
        <ele>31.200000762939</ele>
        <time>2019-09-05T08:08:44.000Z</time>
      </trkpt>
      <trkpt lat="47.26293" lon="-2.30292">
        <ele>31.200000762939</ele>
        <time>2019-09-05T08:08:51.000Z</time>
      </trkpt>
      <trkpt lat="47.26306" lon="-2.30333">
        <ele>31.200000762939</ele>
        <time>2019-09-05T08:08:56.000Z</time>
      </trkpt>
      <trkpt lat="47.26309" lon="-2.30348">
        <ele>31.200000762939</ele>
        <time>2019-09-05T08:08:58.000Z</time>
      </trkpt>
      <trkpt lat="47.26313" lon="-2.30375">
        <ele>31.200000762939</ele>
        <time>2019-09-05T08:09:01.000Z</time>
      </trkpt>
      <trkpt lat="47.26322" lon="-2.30434">
        <ele>31.200000762939</ele>
        <time>2019-09-05T08:09:07.000Z</time>
      </trkpt>
      <trkpt lat="47.26332" lon="-2.30491">
        <ele>31.200000762939</ele>
        <time>2019-09-05T08:09:13.000Z</time>
      </trkpt>
      <trkpt lat="47.26338" lon="-2.30528">
        <ele>31.200000762939</ele>
        <time>2019-09-05T08:09:17.000Z</time>
      </trkpt>
      <trkpt lat="47.26342" lon="-2.30545">
        <ele>31.200000762939</ele>
        <time>2019-09-05T08:09:19.000Z</time>
      </trkpt>
      <trkpt lat="47.26342" lon="-2.30551">
        <ele>31.200000762939</ele>
        <time>2019-09-05T08:09:20.000Z</time>
      </trkpt>
      <trkpt lat="47.26343" lon="-2.30557">
        <ele>30.799999237061</ele>
        <time>2019-09-05T08:09:21.000Z</time>
      </trkpt>
      <trkpt lat="47.26344" lon="-2.3056">
        <ele>30.39999961853</ele>
        <time>2019-09-05T08:09:22.000Z</time>
      </trkpt>
      <trkpt lat="47.26344" lon="-2.30563">
        <ele>30</ele>
        <time>2019-09-05T08:09:23.000Z</time>
      </trkpt>
      <trkpt lat="47.26344" lon="-2.30566">
        <ele>29.60000038147</ele>
        <time>2019-09-05T08:09:24.000Z</time>
      </trkpt>
      <trkpt lat="47.26345" lon="-2.30568">
        <ele>29.200000762939</ele>
        <time>2019-09-05T08:09:25.000Z</time>
      </trkpt>
      <trkpt lat="47.26345" lon="-2.30572">
        <ele>29.200000762939</ele>
        <time>2019-09-05T08:09:26.000Z</time>
      </trkpt>
      <trkpt lat="47.26349" lon="-2.30592">
        <ele>29.200000762939</ele>
        <time>2019-09-05T08:09:29.000Z</time>
      </trkpt>
      <trkpt lat="47.26361" lon="-2.30623">
        <ele>29.200000762939</ele>
        <time>2019-09-05T08:09:34.000Z</time>
      </trkpt>
      <trkpt lat="47.26376" lon="-2.30649">
        <ele>29.200000762939</ele>
        <time>2019-09-05T08:09:39.000Z</time>
      </trkpt>
      <trkpt lat="47.2638" lon="-2.30654">
        <ele>29.200000762939</ele>
        <time>2019-09-05T08:09:40.000Z</time>
      </trkpt>
      <trkpt lat="47.26398" lon="-2.3067">
        <ele>29.200000762939</ele>
        <time>2019-09-05T08:09:44.000Z</time>
      </trkpt>
      <trkpt lat="47.26403" lon="-2.30673">
        <ele>29.200000762939</ele>
        <time>2019-09-05T08:09:45.000Z</time>
      </trkpt>
      <trkpt lat="47.26416" lon="-2.30682">
        <ele>29.200000762939</ele>
        <time>2019-09-05T08:09:48.000Z</time>
      </trkpt>
      <trkpt lat="47.26422" lon="-2.3069">
        <ele>29.200000762939</ele>
        <time>2019-09-05T08:09:50.000Z</time>
      </trkpt>
      <trkpt lat="47.26432" lon="-2.30711">
        <ele>28.799999237061</ele>
        <time>2019-09-05T08:09:55.000Z</time>
      </trkpt>
      <trkpt lat="47.26433" lon="-2.30716">
        <ele>28.39999961853</ele>
        <time>2019-09-05T08:09:56.000Z</time>
      </trkpt>
      <trkpt lat="47.26436" lon="-2.30721">
        <ele>28</ele>
        <time>2019-09-05T08:09:57.000Z</time>
      </trkpt>
      <trkpt lat="47.26438" lon="-2.30727">
        <ele>27.39999961853</ele>
        <time>2019-09-05T08:09:58.000Z</time>
      </trkpt>
      <trkpt lat="47.2644" lon="-2.30734">
        <ele>27</ele>
        <time>2019-09-05T08:09:59.000Z</time>
      </trkpt>
      <trkpt lat="47.26443" lon="-2.3074">
        <ele>27</ele>
        <time>2019-09-05T08:10:00.000Z</time>
      </trkpt>
      <trkpt lat="47.26459" lon="-2.30778">
        <ele>27</ele>
        <time>2019-09-05T08:10:06.000Z</time>
      </trkpt>
      <trkpt lat="47.2647" lon="-2.30808">
        <ele>26.60000038147</ele>
        <time>2019-09-05T08:10:10.000Z</time>
      </trkpt>
      <trkpt lat="47.26472" lon="-2.30815">
        <ele>26.200000762939</ele>
        <time>2019-09-05T08:10:11.000Z</time>
      </trkpt>
      <trkpt lat="47.26475" lon="-2.30823">
        <ele>25.799999237061</ele>
        <time>2019-09-05T08:10:12.000Z</time>
      </trkpt>
      <trkpt lat="47.26477" lon="-2.3083">
        <ele>25.39999961853</ele>
        <time>2019-09-05T08:10:13.000Z</time>
      </trkpt>
      <trkpt lat="47.2648" lon="-2.30836">
        <ele>24.799999237061</ele>
        <time>2019-09-05T08:10:14.000Z</time>
      </trkpt>
      <trkpt lat="47.26484" lon="-2.30849">
        <ele>24.799999237061</ele>
        <time>2019-09-05T08:10:16.000Z</time>
      </trkpt>
      <trkpt lat="47.26488" lon="-2.30855">
        <ele>24.799999237061</ele>
        <time>2019-09-05T08:10:17.000Z</time>
      </trkpt>
      <trkpt lat="47.26491" lon="-2.3086">
        <ele>24.39999961853</ele>
        <time>2019-09-05T08:10:18.000Z</time>
      </trkpt>
      <trkpt lat="47.26493" lon="-2.30865">
        <ele>23.799999237061</ele>
        <time>2019-09-05T08:10:19.000Z</time>
      </trkpt>
      <trkpt lat="47.26496" lon="-2.3087">
        <ele>23.39999961853</ele>
        <time>2019-09-05T08:10:20.000Z</time>
      </trkpt>
      <trkpt lat="47.265" lon="-2.30876">
        <ele>22.60000038147</ele>
        <time>2019-09-05T08:10:21.000Z</time>
      </trkpt>
      <trkpt lat="47.26503" lon="-2.30881">
        <ele>22</ele>
        <time>2019-09-05T08:10:22.000Z</time>
      </trkpt>
      <trkpt lat="47.26505" lon="-2.30885">
        <ele>21.200000762939</ele>
        <time>2019-09-05T08:10:23.000Z</time>
      </trkpt>
      <trkpt lat="47.26506" lon="-2.30889">
        <ele>20.60000038147</ele>
        <time>2019-09-05T08:10:24.000Z</time>
      </trkpt>
      <trkpt lat="47.26508" lon="-2.30889">
        <ele>19.799999237061</ele>
        <time>2019-09-05T08:10:25.000Z</time>
      </trkpt>
      <trkpt lat="47.26518" lon="-2.3088">
        <ele>19.799999237061</ele>
        <time>2019-09-05T08:10:28.000Z</time>
      </trkpt>
      <trkpt lat="47.26529" lon="-2.30862">
        <ele>19.799999237061</ele>
        <time>2019-09-05T08:10:32.000Z</time>
      </trkpt>
      <trkpt lat="47.26546" lon="-2.30847">
        <ele>19.799999237061</ele>
        <time>2019-09-05T08:10:37.000Z</time>
      </trkpt>
      <trkpt lat="47.26549" lon="-2.30844">
        <ele>19.799999237061</ele>
        <time>2019-09-05T08:10:38.000Z</time>
      </trkpt>
      <trkpt lat="47.26558" lon="-2.30831">
        <ele>19.799999237061</ele>
        <time>2019-09-05T08:10:41.000Z</time>
      </trkpt>
      <trkpt lat="47.26572" lon="-2.30813">
        <ele>20.39999961853</ele>
        <time>2019-09-05T08:10:46.000Z</time>
      </trkpt>
      <trkpt lat="47.26576" lon="-2.3081">
        <ele>20.799999237061</ele>
        <time>2019-09-05T08:10:47.000Z</time>
      </trkpt>
      <trkpt lat="47.2658" lon="-2.30806">
        <ele>21.200000762939</ele>
        <time>2019-09-05T08:10:48.000Z</time>
      </trkpt>
      <trkpt lat="47.26584" lon="-2.30803">
        <ele>21.60000038147</ele>
        <time>2019-09-05T08:10:49.000Z</time>
      </trkpt>
      <trkpt lat="47.26587" lon="-2.30799">
        <ele>22.200000762939</ele>
        <time>2019-09-05T08:10:50.000Z</time>
      </trkpt>
      <trkpt lat="47.26594" lon="-2.30792">
        <ele>22.200000762939</ele>
        <time>2019-09-05T08:10:52.000Z</time>
      </trkpt>
      <trkpt lat="47.26608" lon="-2.30772">
        <ele>22.200000762939</ele>
        <time>2019-09-05T08:10:57.000Z</time>
      </trkpt>
      <trkpt lat="47.26623" lon="-2.30749">
        <ele>22.200000762939</ele>
        <time>2019-09-05T08:11:03.000Z</time>
      </trkpt>
      <trkpt lat="47.26628" lon="-2.30735">
        <ele>22.60000038147</ele>
        <time>2019-09-05T08:11:05.000Z</time>
      </trkpt>
      <trkpt lat="47.26629" lon="-2.30729">
        <ele>23</ele>
        <time>2019-09-05T08:11:06.000Z</time>
      </trkpt>
      <trkpt lat="47.26631" lon="-2.30723">
        <ele>23.39999961853</ele>
        <time>2019-09-05T08:11:07.000Z</time>
      </trkpt>
      <trkpt lat="47.26634" lon="-2.30713">
        <ele>23.799999237061</ele>
        <time>2019-09-05T08:11:08.000Z</time>
      </trkpt>
      <trkpt lat="47.26638" lon="-2.30706">
        <ele>24.200000762939</ele>
        <time>2019-09-05T08:11:09.000Z</time>
      </trkpt>
      <trkpt lat="47.26644" lon="-2.30702">
        <ele>24.200000762939</ele>
        <time>2019-09-05T08:11:10.000Z</time>
      </trkpt>
      <trkpt lat="47.26649" lon="-2.307">
        <ele>24.200000762939</ele>
        <time>2019-09-05T08:11:11.000Z</time>
      </trkpt>
      <trkpt lat="47.26657" lon="-2.3071">
        <ele>24.200000762939</ele>
        <time>2019-09-05T08:11:14.000Z</time>
      </trkpt>
      <trkpt lat="47.26664" lon="-2.30723">
        <ele>24.200000762939</ele>
        <time>2019-09-05T08:11:16.000Z</time>
      </trkpt>
      <trkpt lat="47.26674" lon="-2.30743">
        <ele>24.200000762939</ele>
        <time>2019-09-05T08:11:19.000Z</time>
      </trkpt>
      <trkpt lat="47.26677" lon="-2.3075">
        <ele>24.200000762939</ele>
        <time>2019-09-05T08:11:20.000Z</time>
      </trkpt>
      <trkpt lat="47.26684" lon="-2.30762">
        <ele>24.60000038147</ele>
        <time>2019-09-05T08:11:22.000Z</time>
      </trkpt>
      <trkpt lat="47.26687" lon="-2.30768">
        <ele>25.39999961853</ele>
        <time>2019-09-05T08:11:23.000Z</time>
      </trkpt>
      <trkpt lat="47.2669" lon="-2.30774">
        <ele>26</ele>
        <time>2019-09-05T08:11:24.000Z</time>
      </trkpt>
      <trkpt lat="47.26693" lon="-2.3078">
        <ele>26.39999961853</ele>
        <time>2019-09-05T08:11:25.000Z</time>
      </trkpt>
      <trkpt lat="47.2671" lon="-2.30825">
        <ele>26.799999237061</ele>
        <time>2019-09-05T08:11:32.000Z</time>
      </trkpt>
      <trkpt lat="47.26712" lon="-2.30832">
        <ele>27.200000762939</ele>
        <time>2019-09-05T08:11:33.000Z</time>
      </trkpt>
      <trkpt lat="47.26715" lon="-2.30838">
        <ele>27.60000038147</ele>
        <time>2019-09-05T08:11:34.000Z</time>
      </trkpt>
      <trkpt lat="47.26718" lon="-2.30844">
        <ele>28</ele>
        <time>2019-09-05T08:11:35.000Z</time>
      </trkpt>
      <trkpt lat="47.26721" lon="-2.30849">
        <ele>28.39999961853</ele>
        <time>2019-09-05T08:11:36.000Z</time>
      </trkpt>
      <trkpt lat="47.2673" lon="-2.30865">
        <ele>28.39999961853</ele>
        <time>2019-09-05T08:11:39.000Z</time>
      </trkpt>
      <trkpt lat="47.26733" lon="-2.30869">
        <ele>28.39999961853</ele>
        <time>2019-09-05T08:11:40.000Z</time>
      </trkpt>
      <trkpt lat="47.26745" lon="-2.30873">
        <ele>28.39999961853</ele>
        <time>2019-09-05T08:11:43.000Z</time>
      </trkpt>
      <trkpt lat="47.2676" lon="-2.3086">
        <ele>28.39999961853</ele>
        <time>2019-09-05T08:11:47.000Z</time>
      </trkpt>
      <trkpt lat="47.26791" lon="-2.30825">
        <ele>28.39999961853</ele>
        <time>2019-09-05T08:11:53.000Z</time>
      </trkpt>
      <trkpt lat="47.26809" lon="-2.30805">
        <ele>28.39999961853</ele>
        <time>2019-09-05T08:11:57.000Z</time>
      </trkpt>
      <trkpt lat="47.26815" lon="-2.30801">
        <ele>28.39999961853</ele>
        <time>2019-09-05T08:11:58.000Z</time>
      </trkpt>
      <trkpt lat="47.26828" lon="-2.30789">
        <ele>28.39999961853</ele>
        <time>2019-09-05T08:12:01.000Z</time>
      </trkpt>
      <trkpt lat="47.26834" lon="-2.30775">
        <ele>28.39999961853</ele>
        <time>2019-09-05T08:12:03.000Z</time>
      </trkpt>
      <trkpt lat="47.26857" lon="-2.30716">
        <ele>28.799999237061</ele>
        <time>2019-09-05T08:12:11.000Z</time>
      </trkpt>
      <trkpt lat="47.2686" lon="-2.30709">
        <ele>29.799999237061</ele>
        <time>2019-09-05T08:12:12.000Z</time>
      </trkpt>
      <trkpt lat="47.26864" lon="-2.30702">
        <ele>30.200000762939</ele>
        <time>2019-09-05T08:12:13.000Z</time>
      </trkpt>
      <trkpt lat="47.26867" lon="-2.30695">
        <ele>30.60000038147</ele>
        <time>2019-09-05T08:12:14.000Z</time>
      </trkpt>
      <trkpt lat="47.26879" lon="-2.30678">
        <ele>30.60000038147</ele>
        <time>2019-09-05T08:12:17.000Z</time>
      </trkpt>
      <trkpt lat="47.26892" lon="-2.30667">
        <ele>30.60000038147</ele>
        <time>2019-09-05T08:12:20.000Z</time>
      </trkpt>
      <trkpt lat="47.26897" lon="-2.30669">
        <ele>30.60000038147</ele>
        <time>2019-09-05T08:12:21.000Z</time>
      </trkpt>
      <trkpt lat="47.26908" lon="-2.3068">
        <ele>30.60000038147</ele>
        <time>2019-09-05T08:12:24.000Z</time>
      </trkpt>
      <trkpt lat="47.26916" lon="-2.30689">
        <ele>30.60000038147</ele>
        <time>2019-09-05T08:12:26.000Z</time>
      </trkpt>
      <trkpt lat="47.2694" lon="-2.30724">
        <ele>30.200000762939</ele>
        <time>2019-09-05T08:12:32.000Z</time>
      </trkpt>
      <trkpt lat="47.26944" lon="-2.30731">
        <ele>29.799999237061</ele>
        <time>2019-09-05T08:12:33.000Z</time>
      </trkpt>
      <trkpt lat="47.26948" lon="-2.30739">
        <ele>29.39999961853</ele>
        <time>2019-09-05T08:12:34.000Z</time>
      </trkpt>
      <trkpt lat="47.26953" lon="-2.30746">
        <ele>29</ele>
        <time>2019-09-05T08:12:35.000Z</time>
      </trkpt>
      <trkpt lat="47.26958" lon="-2.30752">
        <ele>28.60000038147</ele>
        <time>2019-09-05T08:12:36.000Z</time>
      </trkpt>
      <trkpt lat="47.26963" lon="-2.30758">
        <ele>28.60000038147</ele>
        <time>2019-09-05T08:12:37.000Z</time>
      </trkpt>
      <trkpt lat="47.26979" lon="-2.30775">
        <ele>28.200000762939</ele>
        <time>2019-09-05T08:12:40.000Z</time>
      </trkpt>
      <trkpt lat="47.26984" lon="-2.30782">
        <ele>27.799999237061</ele>
        <time>2019-09-05T08:12:41.000Z</time>
      </trkpt>
      <trkpt lat="47.26989" lon="-2.30789">
        <ele>27.39999961853</ele>
        <time>2019-09-05T08:12:42.000Z</time>
      </trkpt>
      <trkpt lat="47.26994" lon="-2.30797">
        <ele>27</ele>
        <time>2019-09-05T08:12:43.000Z</time>
      </trkpt>
      <trkpt lat="47.26999" lon="-2.30805">
        <ele>26.60000038147</ele>
        <time>2019-09-05T08:12:44.000Z</time>
      </trkpt>
      <trkpt lat="47.27004" lon="-2.30813">
        <ele>26.60000038147</ele>
        <time>2019-09-05T08:12:45.000Z</time>
      </trkpt>
      <trkpt lat="47.27018" lon="-2.30836">
        <ele>26</ele>
        <time>2019-09-05T08:12:48.000Z</time>
      </trkpt>
      <trkpt lat="47.27023" lon="-2.30844">
        <ele>25.60000038147</ele>
        <time>2019-09-05T08:12:49.000Z</time>
      </trkpt>
      <trkpt lat="47.27027" lon="-2.30852">
        <ele>25.200000762939</ele>
        <time>2019-09-05T08:12:50.000Z</time>
      </trkpt>
      <trkpt lat="47.27033" lon="-2.30861">
        <ele>24.799999237061</ele>
        <time>2019-09-05T08:12:51.000Z</time>
      </trkpt>
      <trkpt lat="47.27037" lon="-2.30869">
        <ele>24.39999961853</ele>
        <time>2019-09-05T08:12:52.000Z</time>
      </trkpt>
      <trkpt lat="47.27041" lon="-2.30875">
        <ele>24.39999961853</ele>
        <time>2019-09-05T08:12:53.000Z</time>
      </trkpt>
      <trkpt lat="47.27049" lon="-2.30885">
        <ele>24</ele>
        <time>2019-09-05T08:12:55.000Z</time>
      </trkpt>
      <trkpt lat="47.27049" lon="-2.3089">
        <ele>23.39999961853</ele>
        <time>2019-09-05T08:12:56.000Z</time>
      </trkpt>
      <trkpt lat="47.27049" lon="-2.30891">
        <ele>23</ele>
        <time>2019-09-05T08:12:57.000Z</time>
      </trkpt>
      <trkpt lat="47.27049" lon="-2.30893">
        <ele>22.60000038147</ele>
        <time>2019-09-05T08:12:58.000Z</time>
      </trkpt>
      <trkpt lat="47.27048" lon="-2.30894">
        <ele>22</ele>
        <time>2019-09-05T08:12:59.000Z</time>
      </trkpt>
      <trkpt lat="47.27048" lon="-2.30899">
        <ele>22</ele>
        <time>2019-09-05T08:13:08.000Z</time>
      </trkpt>
      <trkpt lat="47.27048" lon="-2.30903">
        <ele>22</ele>
        <time>2019-09-05T08:13:09.000Z</time>
      </trkpt>
      <trkpt lat="47.27055" lon="-2.30923">
        <ele>22</ele>
        <time>2019-09-05T08:13:13.000Z</time>
      </trkpt>
      <trkpt lat="47.27063" lon="-2.3094">
        <ele>22</ele>
        <time>2019-09-05T08:13:17.000Z</time>
      </trkpt>
      <trkpt lat="47.27069" lon="-2.30961">
        <ele>22</ele>
        <time>2019-09-05T08:13:21.000Z</time>
      </trkpt>
      <trkpt lat="47.27069" lon="-2.30977">
        <ele>22</ele>
        <time>2019-09-05T08:13:23.000Z</time>
      </trkpt>
      <trkpt lat="47.27068" lon="-2.30982">
        <ele>22</ele>
        <time>2019-09-05T08:13:24.000Z</time>
      </trkpt>
      <trkpt lat="47.27059" lon="-2.30993">
        <ele>22</ele>
        <time>2019-09-05T08:13:27.000Z</time>
      </trkpt>
      <trkpt lat="47.27055" lon="-2.30996">
        <ele>22</ele>
        <time>2019-09-05T08:13:28.000Z</time>
      </trkpt>
      <trkpt lat="47.27029" lon="-2.31017">
        <ele>22</ele>
        <time>2019-09-05T08:13:35.000Z</time>
      </trkpt>
      <trkpt lat="47.27026" lon="-2.31019">
        <ele>22.39999961853</ele>
        <time>2019-09-05T08:13:36.000Z</time>
      </trkpt>
      <trkpt lat="47.27022" lon="-2.31022">
        <ele>22.799999237061</ele>
        <time>2019-09-05T08:13:37.000Z</time>
      </trkpt>
      <trkpt lat="47.27017" lon="-2.31028">
        <ele>23.200000762939</ele>
        <time>2019-09-05T08:13:38.000Z</time>
      </trkpt>
      <trkpt lat="47.27013" lon="-2.31033">
        <ele>23.799999237061</ele>
        <time>2019-09-05T08:13:39.000Z</time>
      </trkpt>
      <trkpt lat="47.2701" lon="-2.31041">
        <ele>24.200000762939</ele>
        <time>2019-09-05T08:13:40.000Z</time>
      </trkpt>
      <trkpt lat="47.27002" lon="-2.31077">
        <ele>24.200000762939</ele>
        <time>2019-09-05T08:13:43.000Z</time>
      </trkpt>
      <trkpt lat="47.27" lon="-2.31093">
        <ele>24.200000762939</ele>
        <time>2019-09-05T08:13:45.000Z</time>
      </trkpt>
      <trkpt lat="47.26997" lon="-2.31118">
        <ele>24.60000038147</ele>
        <time>2019-09-05T08:13:48.000Z</time>
      </trkpt>
      <trkpt lat="47.26996" lon="-2.31127">
        <ele>25</ele>
        <time>2019-09-05T08:13:49.000Z</time>
      </trkpt>
      <trkpt lat="47.26994" lon="-2.31136">
        <ele>25.799999237061</ele>
        <time>2019-09-05T08:13:50.000Z</time>
      </trkpt>
      <trkpt lat="47.26993" lon="-2.31144">
        <ele>26.39999961853</ele>
        <time>2019-09-05T08:13:51.000Z</time>
      </trkpt>
      <trkpt lat="47.26989" lon="-2.31171">
        <ele>26.39999961853</ele>
        <time>2019-09-05T08:13:54.000Z</time>
      </trkpt>
      <trkpt lat="47.26986" lon="-2.31188">
        <ele>26.799999237061</ele>
        <time>2019-09-05T08:13:56.000Z</time>
      </trkpt>
      <trkpt lat="47.26985" lon="-2.31196">
        <ele>27.200000762939</ele>
        <time>2019-09-05T08:13:57.000Z</time>
      </trkpt>
      <trkpt lat="47.26984" lon="-2.31204">
        <ele>27.60000038147</ele>
        <time>2019-09-05T08:13:58.000Z</time>
      </trkpt>
      <trkpt lat="47.26983" lon="-2.31212">
        <ele>28</ele>
        <time>2019-09-05T08:13:59.000Z</time>
      </trkpt>
      <trkpt lat="47.26982" lon="-2.31219">
        <ele>28.39999961853</ele>
        <time>2019-09-05T08:14:00.000Z</time>
      </trkpt>
      <trkpt lat="47.26979" lon="-2.31237">
        <ele>28.39999961853</ele>
        <time>2019-09-05T08:14:02.000Z</time>
      </trkpt>
      <trkpt lat="47.26977" lon="-2.31262">
        <ele>28.39999961853</ele>
        <time>2019-09-05T08:14:05.000Z</time>
      </trkpt>
      <trkpt lat="47.26978" lon="-2.31277">
        <ele>28.39999961853</ele>
        <time>2019-09-05T08:14:07.000Z</time>
      </trkpt>
      <trkpt lat="47.26978" lon="-2.31284">
        <ele>28.799999237061</ele>
        <time>2019-09-05T08:14:08.000Z</time>
      </trkpt>
      <trkpt lat="47.26978" lon="-2.31291">
        <ele>29.39999961853</ele>
        <time>2019-09-05T08:14:09.000Z</time>
      </trkpt>
      <trkpt lat="47.26979" lon="-2.31299">
        <ele>29.799999237061</ele>
        <time>2019-09-05T08:14:10.000Z</time>
      </trkpt>
      <trkpt lat="47.26979" lon="-2.31307">
        <ele>30.200000762939</ele>
        <time>2019-09-05T08:14:11.000Z</time>
      </trkpt>
      <trkpt lat="47.26979" lon="-2.31313">
        <ele>30.60000038147</ele>
        <time>2019-09-05T08:14:12.000Z</time>
      </trkpt>
      <trkpt lat="47.26987" lon="-2.31357">
        <ele>30.60000038147</ele>
        <time>2019-09-05T08:14:18.000Z</time>
      </trkpt>
      <trkpt lat="47.26991" lon="-2.31381">
        <ele>30.60000038147</ele>
        <time>2019-09-05T08:14:21.000Z</time>
      </trkpt>
      <trkpt lat="47.26992" lon="-2.314">
        <ele>30.60000038147</ele>
        <time>2019-09-05T08:14:23.000Z</time>
      </trkpt>
      <trkpt lat="47.26993" lon="-2.3141">
        <ele>30.200000762939</ele>
        <time>2019-09-05T08:14:24.000Z</time>
      </trkpt>
      <trkpt lat="47.26994" lon="-2.3142">
        <ele>29.60000038147</ele>
        <time>2019-09-05T08:14:25.000Z</time>
      </trkpt>
      <trkpt lat="47.26994" lon="-2.3143">
        <ele>29.200000762939</ele>
        <time>2019-09-05T08:14:26.000Z</time>
      </trkpt>
      <trkpt lat="47.26994" lon="-2.31439">
        <ele>28.799999237061</ele>
        <time>2019-09-05T08:14:27.000Z</time>
      </trkpt>
      <trkpt lat="47.26994" lon="-2.31448">
        <ele>28.200000762939</ele>
        <time>2019-09-05T08:14:28.000Z</time>
      </trkpt>
      <trkpt lat="47.26995" lon="-2.31457">
        <ele>28.200000762939</ele>
        <time>2019-09-05T08:14:29.000Z</time>
      </trkpt>
      <trkpt lat="47.26998" lon="-2.31475">
        <ele>28.200000762939</ele>
        <time>2019-09-05T08:14:31.000Z</time>
      </trkpt>
      <trkpt lat="47.27004" lon="-2.31503">
        <ele>27.799999237061</ele>
        <time>2019-09-05T08:14:34.000Z</time>
      </trkpt>
      <trkpt lat="47.27006" lon="-2.31513">
        <ele>27.39999961853</ele>
        <time>2019-09-05T08:14:35.000Z</time>
      </trkpt>
      <trkpt lat="47.27009" lon="-2.31523">
        <ele>26.799999237061</ele>
        <time>2019-09-05T08:14:36.000Z</time>
      </trkpt>
      <trkpt lat="47.27012" lon="-2.31534">
        <ele>26.39999961853</ele>
        <time>2019-09-05T08:14:37.000Z</time>
      </trkpt>
      <trkpt lat="47.27014" lon="-2.31543">
        <ele>26</ele>
        <time>2019-09-05T08:14:38.000Z</time>
      </trkpt>
      <trkpt lat="47.27022" lon="-2.31562">
        <ele>25.39999961853</ele>
        <time>2019-09-05T08:14:40.000Z</time>
      </trkpt>
      <trkpt lat="47.27025" lon="-2.31571">
        <ele>25</ele>
        <time>2019-09-05T08:14:41.000Z</time>
      </trkpt>
      <trkpt lat="47.27027" lon="-2.31577">
        <ele>24.60000038147</ele>
        <time>2019-09-05T08:14:42.000Z</time>
      </trkpt>
      <trkpt lat="47.27029" lon="-2.31582">
        <ele>24</ele>
        <time>2019-09-05T08:14:43.000Z</time>
      </trkpt>
      <trkpt lat="47.27031" lon="-2.31587">
        <ele>23.39999961853</ele>
        <time>2019-09-05T08:14:44.000Z</time>
      </trkpt>
      <trkpt lat="47.27033" lon="-2.31594">
        <ele>22.799999237061</ele>
        <time>2019-09-05T08:14:45.000Z</time>
      </trkpt>
      <trkpt lat="47.27035" lon="-2.316">
        <ele>22.200000762939</ele>
        <time>2019-09-05T08:14:46.000Z</time>
      </trkpt>
      <trkpt lat="47.27038" lon="-2.31607">
        <ele>21.60000038147</ele>
        <time>2019-09-05T08:14:47.000Z</time>
      </trkpt>
      <trkpt lat="47.27039" lon="-2.31614">
        <ele>21.200000762939</ele>
        <time>2019-09-05T08:14:48.000Z</time>
      </trkpt>
      <trkpt lat="47.27041" lon="-2.31621">
        <ele>20.60000038147</ele>
        <time>2019-09-05T08:14:49.000Z</time>
      </trkpt>
      <trkpt lat="47.27043" lon="-2.31627">
        <ele>20.200000762939</ele>
        <time>2019-09-05T08:14:50.000Z</time>
      </trkpt>
      <trkpt lat="47.27044" lon="-2.31636">
        <ele>19.799999237061</ele>
        <time>2019-09-05T08:14:51.000Z</time>
      </trkpt>
      <trkpt lat="47.27044" lon="-2.31645">
        <ele>19.39999961853</ele>
        <time>2019-09-05T08:14:52.000Z</time>
      </trkpt>
      <trkpt lat="47.27042" lon="-2.31655">
        <ele>19</ele>
        <time>2019-09-05T08:14:53.000Z</time>
      </trkpt>
      <trkpt lat="47.27038" lon="-2.31673">
        <ele>18.39999961853</ele>
        <time>2019-09-05T08:14:55.000Z</time>
      </trkpt>
      <trkpt lat="47.27036" lon="-2.31678">
        <ele>18</ele>
        <time>2019-09-05T08:14:56.000Z</time>
      </trkpt>
      <trkpt lat="47.27035" lon="-2.31684">
        <ele>17.60000038147</ele>
        <time>2019-09-05T08:14:57.000Z</time>
      </trkpt>
      <trkpt lat="47.27034" lon="-2.31691">
        <ele>17.200000762939</ele>
        <time>2019-09-05T08:14:58.000Z</time>
      </trkpt>
      <trkpt lat="47.27036" lon="-2.31698">
        <ele>16.799999237061</ele>
        <time>2019-09-05T08:14:59.000Z</time>
      </trkpt>
      <trkpt lat="47.27051" lon="-2.31714">
        <ele>16.799999237061</ele>
        <time>2019-09-05T08:15:03.000Z</time>
      </trkpt>
      <trkpt lat="47.27055" lon="-2.31717">
        <ele>16.799999237061</ele>
        <time>2019-09-05T08:15:04.000Z</time>
      </trkpt>
      <trkpt lat="47.27061" lon="-2.31728">
        <ele>16.39999961853</ele>
        <time>2019-09-05T08:15:07.000Z</time>
      </trkpt>
      <trkpt lat="47.2706" lon="-2.31734">
        <ele>16</ele>
        <time>2019-09-05T08:15:08.000Z</time>
      </trkpt>
      <trkpt lat="47.27058" lon="-2.31744">
        <ele>15.60000038147</ele>
        <time>2019-09-05T08:15:09.000Z</time>
      </trkpt>
      <trkpt lat="47.27058" lon="-2.31751">
        <ele>15.199999809265</ele>
        <time>2019-09-05T08:15:10.000Z</time>
      </trkpt>
      <trkpt lat="47.2706" lon="-2.31759">
        <ele>14.800000190735</ele>
        <time>2019-09-05T08:15:11.000Z</time>
      </trkpt>
      <trkpt lat="47.27062" lon="-2.31793">
        <ele>14.800000190735</ele>
        <time>2019-09-05T08:15:15.000Z</time>
      </trkpt>
      <trkpt lat="47.27063" lon="-2.31801">
        <ele>14.800000190735</ele>
        <time>2019-09-05T08:15:16.000Z</time>
      </trkpt>
      <trkpt lat="47.27064" lon="-2.31825">
        <ele>14.39999961853</ele>
        <time>2019-09-05T08:15:19.000Z</time>
      </trkpt>
      <trkpt lat="47.27064" lon="-2.31833">
        <ele>13.800000190735</ele>
        <time>2019-09-05T08:15:20.000Z</time>
      </trkpt>
      <trkpt lat="47.27066" lon="-2.31841">
        <ele>13.39999961853</ele>
        <time>2019-09-05T08:15:21.000Z</time>
      </trkpt>
      <trkpt lat="47.27067" lon="-2.31848">
        <ele>13</ele>
        <time>2019-09-05T08:15:22.000Z</time>
      </trkpt>
      <trkpt lat="47.27069" lon="-2.31853">
        <ele>12.60000038147</ele>
        <time>2019-09-05T08:15:23.000Z</time>
      </trkpt>
      <trkpt lat="47.27076" lon="-2.31859">
        <ele>12.60000038147</ele>
        <time>2019-09-05T08:15:25.000Z</time>
      </trkpt>
      <trkpt lat="47.27077" lon="-2.31868">
        <ele>12.199999809265</ele>
        <time>2019-09-05T08:15:28.000Z</time>
      </trkpt>
      <trkpt lat="47.27077" lon="-2.3187">
        <ele>11.800000190735</ele>
        <time>2019-09-05T08:15:29.000Z</time>
      </trkpt>
      <trkpt lat="47.27077" lon="-2.31872">
        <ele>11</ele>
        <time>2019-09-05T08:15:30.000Z</time>
      </trkpt>
      <trkpt lat="47.27077" lon="-2.31874">
        <ele>10.60000038147</ele>
        <time>2019-09-05T08:15:31.000Z</time>
      </trkpt>
      <trkpt lat="47.27077" lon="-2.31881">
        <ele>10.60000038147</ele>
        <time>2019-09-05T08:15:33.000Z</time>
      </trkpt>
      <trkpt lat="47.2708" lon="-2.31902">
        <ele>10.60000038147</ele>
        <time>2019-09-05T08:15:38.000Z</time>
      </trkpt>
      <trkpt lat="47.27081" lon="-2.31907">
        <ele>10.60000038147</ele>
        <time>2019-09-05T08:15:39.000Z</time>
      </trkpt>
      <trkpt lat="47.27081" lon="-2.31919">
        <ele>10.60000038147</ele>
        <time>2019-09-05T08:15:42.000Z</time>
      </trkpt>
      <trkpt lat="47.27081" lon="-2.31924">
        <ele>10.60000038147</ele>
        <time>2019-09-05T08:15:43.000Z</time>
      </trkpt>
      <trkpt lat="47.2708" lon="-2.31937">
        <ele>10.60000038147</ele>
        <time>2019-09-05T08:15:46.000Z</time>
      </trkpt>
      <trkpt lat="47.27077" lon="-2.31941">
        <ele>10.60000038147</ele>
        <time>2019-09-05T08:15:47.000Z</time>
      </trkpt>
      <trkpt lat="47.27074" lon="-2.31944">
        <ele>10.199999809265</ele>
        <time>2019-09-05T08:15:48.000Z</time>
      </trkpt>
      <trkpt lat="47.2707" lon="-2.31946">
        <ele>9.8000001907349</ele>
        <time>2019-09-05T08:15:49.000Z</time>
      </trkpt>
      <trkpt lat="47.27066" lon="-2.31948">
        <ele>9.3999996185303</ele>
        <time>2019-09-05T08:15:50.000Z</time>
      </trkpt>
      <trkpt lat="47.27062" lon="-2.31948">
        <ele>9</ele>
        <time>2019-09-05T08:15:51.000Z</time>
      </trkpt>
      <trkpt lat="47.27058" lon="-2.31949">
        <ele>8.6000003814697</ele>
        <time>2019-09-05T08:15:52.000Z</time>
      </trkpt>
      <trkpt lat="47.27045" lon="-2.31953">
        <ele>8.6000003814697</ele>
        <time>2019-09-05T08:15:55.000Z</time>
      </trkpt>
      <trkpt lat="47.27037" lon="-2.31958">
        <ele>8.6000003814697</ele>
        <time>2019-09-05T08:15:57.000Z</time>
      </trkpt>
      <trkpt lat="47.27027" lon="-2.31964">
        <ele>8.6000003814697</ele>
        <time>2019-09-05T08:15:59.000Z</time>
      </trkpt>
      <trkpt lat="47.27012" lon="-2.31974">
        <ele>8.6000003814697</ele>
        <time>2019-09-05T08:16:02.000Z</time>
      </trkpt>
      <trkpt lat="47.27008" lon="-2.31979">
        <ele>8.6000003814697</ele>
        <time>2019-09-05T08:16:03.000Z</time>
      </trkpt>
      <trkpt lat="47.27007" lon="-2.31986">
        <ele>8.6000003814697</ele>
        <time>2019-09-05T08:16:04.000Z</time>
      </trkpt>
      <trkpt lat="47.27013" lon="-2.32014">
        <ele>8.6000003814697</ele>
        <time>2019-09-05T08:16:08.000Z</time>
      </trkpt>
      <trkpt lat="47.27017" lon="-2.32029">
        <ele>8.6000003814697</ele>
        <time>2019-09-05T08:16:10.000Z</time>
      </trkpt>
      <trkpt lat="47.2702" lon="-2.32045">
        <ele>8.6000003814697</ele>
        <time>2019-09-05T08:16:12.000Z</time>
      </trkpt>
      <trkpt lat="47.2702" lon="-2.32053">
        <ele>8.6000003814697</ele>
        <time>2019-09-05T08:16:13.000Z</time>
      </trkpt>
      <trkpt lat="47.2702" lon="-2.32079">
        <ele>8.6000003814697</ele>
        <time>2019-09-05T08:16:16.000Z</time>
      </trkpt>
      <trkpt lat="47.27018" lon="-2.32088">
        <ele>8.6000003814697</ele>
        <time>2019-09-05T08:16:17.000Z</time>
      </trkpt>
      <trkpt lat="47.27009" lon="-2.32112">
        <ele>8.6000003814697</ele>
        <time>2019-09-05T08:16:20.000Z</time>
      </trkpt>
      <trkpt lat="47.26999" lon="-2.32123">
        <ele>8.1999998092651</ele>
        <time>2019-09-05T08:16:22.000Z</time>
      </trkpt>
      <trkpt lat="47.26994" lon="-2.32129">
        <ele>7.8000001907349</ele>
        <time>2019-09-05T08:16:23.000Z</time>
      </trkpt>
      <trkpt lat="47.26992" lon="-2.32136">
        <ele>7.1999998092651</ele>
        <time>2019-09-05T08:16:24.000Z</time>
      </trkpt>
      <trkpt lat="47.26992" lon="-2.32144">
        <ele>6.8000001907349</ele>
        <time>2019-09-05T08:16:25.000Z</time>
      </trkpt>
      <trkpt lat="47.26994" lon="-2.32152">
        <ele>6.4000000953674</ele>
        <time>2019-09-05T08:16:26.000Z</time>
      </trkpt>
      <trkpt lat="47.27008" lon="-2.32172">
        <ele>6.4000000953674</ele>
        <time>2019-09-05T08:16:29.000Z</time>
      </trkpt>
      <trkpt lat="47.27013" lon="-2.32178">
        <ele>6.4000000953674</ele>
        <time>2019-09-05T08:16:30.000Z</time>
      </trkpt>
      <trkpt lat="47.27029" lon="-2.32204">
        <ele>6.4000000953674</ele>
        <time>2019-09-05T08:16:34.000Z</time>
      </trkpt>
      <trkpt lat="47.27031" lon="-2.32212">
        <ele>6.4000000953674</ele>
        <time>2019-09-05T08:16:35.000Z</time>
      </trkpt>
      <trkpt lat="47.27034" lon="-2.32244">
        <ele>6.4000000953674</ele>
        <time>2019-09-05T08:16:39.000Z</time>
      </trkpt>
      <trkpt lat="47.27033" lon="-2.32296">
        <ele>6.4000000953674</ele>
        <time>2019-09-05T08:16:44.000Z</time>
      </trkpt>
      <trkpt lat="47.27038" lon="-2.32364">
        <ele>6.4000000953674</ele>
        <time>2019-09-05T08:16:51.000Z</time>
      </trkpt>
      <trkpt lat="47.27038" lon="-2.3243">
        <ele>6.4000000953674</ele>
        <time>2019-09-05T08:16:57.000Z</time>
      </trkpt>
      <trkpt lat="47.27037" lon="-2.32441">
        <ele>6.4000000953674</ele>
        <time>2019-09-05T08:16:58.000Z</time>
      </trkpt>
      <trkpt lat="47.27036" lon="-2.32469">
        <ele>6.4000000953674</ele>
        <time>2019-09-05T08:17:01.000Z</time>
      </trkpt>
      <trkpt lat="47.27035" lon="-2.32478">
        <ele>6.4000000953674</ele>
        <time>2019-09-05T08:17:02.000Z</time>
      </trkpt>
      <trkpt lat="47.27028" lon="-2.32491">
        <ele>6.4000000953674</ele>
        <time>2019-09-05T08:17:04.000Z</time>
      </trkpt>
      <trkpt lat="47.27011" lon="-2.32499">
        <ele>6.4000000953674</ele>
        <time>2019-09-05T08:17:07.000Z</time>
      </trkpt>
      <trkpt lat="47.26997" lon="-2.32488">
        <ele>6.4000000953674</ele>
        <time>2019-09-05T08:17:10.000Z</time>
      </trkpt>
      <trkpt lat="47.26993" lon="-2.32482">
        <ele>6.4000000953674</ele>
        <time>2019-09-05T08:17:11.000Z</time>
      </trkpt>
      <trkpt lat="47.26975" lon="-2.32448">
        <ele>6.4000000953674</ele>
        <time>2019-09-05T08:17:16.000Z</time>
      </trkpt>
      <trkpt lat="47.26971" lon="-2.32442">
        <ele>6.4000000953674</ele>
        <time>2019-09-05T08:17:17.000Z</time>
      </trkpt>
      <trkpt lat="47.26958" lon="-2.32425">
        <ele>6.4000000953674</ele>
        <time>2019-09-05T08:17:20.000Z</time>
      </trkpt>
      <trkpt lat="47.26954" lon="-2.32419">
        <ele>6.4000000953674</ele>
        <time>2019-09-05T08:17:21.000Z</time>
      </trkpt>
      <trkpt lat="47.26945" lon="-2.32397">
        <ele>6.4000000953674</ele>
        <time>2019-09-05T08:17:24.000Z</time>
      </trkpt>
      <trkpt lat="47.26942" lon="-2.32381">
        <ele>6.4000000953674</ele>
        <time>2019-09-05T08:17:26.000Z</time>
      </trkpt>
      <trkpt lat="47.26934" lon="-2.3235">
        <ele>6.8000001907349</ele>
        <time>2019-09-05T08:17:30.000Z</time>
      </trkpt>
      <trkpt lat="47.26932" lon="-2.32343">
        <ele>7.4000000953674</ele>
        <time>2019-09-05T08:17:31.000Z</time>
      </trkpt>
      <trkpt lat="47.26928" lon="-2.32337">
        <ele>7.8000001907349</ele>
        <time>2019-09-05T08:17:32.000Z</time>
      </trkpt>
      <trkpt lat="47.26925" lon="-2.32332">
        <ele>8.6000003814697</ele>
        <time>2019-09-05T08:17:33.000Z</time>
      </trkpt>
      <trkpt lat="47.26915" lon="-2.3233">
        <ele>8.6000003814697</ele>
        <time>2019-09-05T08:17:35.000Z</time>
      </trkpt>
      <trkpt lat="47.26895" lon="-2.32336">
        <ele>8.6000003814697</ele>
        <time>2019-09-05T08:17:39.000Z</time>
      </trkpt>
      <trkpt lat="47.2689" lon="-2.32338">
        <ele>8.6000003814697</ele>
        <time>2019-09-05T08:17:40.000Z</time>
      </trkpt>
      <trkpt lat="47.26881" lon="-2.32341">
        <ele>8.6000003814697</ele>
        <time>2019-09-05T08:17:42.000Z</time>
      </trkpt>
      <trkpt lat="47.26877" lon="-2.32343">
        <ele>9</ele>
        <time>2019-09-05T08:17:43.000Z</time>
      </trkpt>
      <trkpt lat="47.26872" lon="-2.32344">
        <ele>9.3999996185303</ele>
        <time>2019-09-05T08:17:44.000Z</time>
      </trkpt>
      <trkpt lat="47.26868" lon="-2.32346">
        <ele>9.8000001907349</ele>
        <time>2019-09-05T08:17:45.000Z</time>
      </trkpt>
      <trkpt lat="47.26863" lon="-2.32347">
        <ele>10.199999809265</ele>
        <time>2019-09-05T08:17:46.000Z</time>
      </trkpt>
      <trkpt lat="47.26858" lon="-2.32348">
        <ele>10.60000038147</ele>
        <time>2019-09-05T08:17:47.000Z</time>
      </trkpt>
      <trkpt lat="47.26849" lon="-2.3235">
        <ele>10.60000038147</ele>
        <time>2019-09-05T08:17:49.000Z</time>
      </trkpt>
      <trkpt lat="47.26835" lon="-2.32354">
        <ele>11</ele>
        <time>2019-09-05T08:17:52.000Z</time>
      </trkpt>
      <trkpt lat="47.26831" lon="-2.32356">
        <ele>11.60000038147</ele>
        <time>2019-09-05T08:17:53.000Z</time>
      </trkpt>
      <trkpt lat="47.26826" lon="-2.32357">
        <ele>12</ele>
        <time>2019-09-05T08:17:54.000Z</time>
      </trkpt>
      <trkpt lat="47.26822" lon="-2.32358">
        <ele>12.39999961853</ele>
        <time>2019-09-05T08:17:55.000Z</time>
      </trkpt>
      <trkpt lat="47.26818" lon="-2.32359">
        <ele>13</ele>
        <time>2019-09-05T08:17:56.000Z</time>
      </trkpt>
      <trkpt lat="47.26809" lon="-2.32361">
        <ele>14</ele>
        <time>2019-09-05T08:17:58.000Z</time>
      </trkpt>
      <trkpt lat="47.26805" lon="-2.32362">
        <ele>14.39999961853</ele>
        <time>2019-09-05T08:17:59.000Z</time>
      </trkpt>
      <trkpt lat="47.26801" lon="-2.32363">
        <ele>14.800000190735</ele>
        <time>2019-09-05T08:18:00.000Z</time>
      </trkpt>
      <trkpt lat="47.26797" lon="-2.32365">
        <ele>15.39999961853</ele>
        <time>2019-09-05T08:18:01.000Z</time>
      </trkpt>
      <trkpt lat="47.26789" lon="-2.32367">
        <ele>15.39999961853</ele>
        <time>2019-09-05T08:18:03.000Z</time>
      </trkpt>
      <trkpt lat="47.26785" lon="-2.32368">
        <ele>15.800000190735</ele>
        <time>2019-09-05T08:18:04.000Z</time>
      </trkpt>
      <trkpt lat="47.26782" lon="-2.3237">
        <ele>16.200000762939</ele>
        <time>2019-09-05T08:18:05.000Z</time>
      </trkpt>
      <trkpt lat="47.26779" lon="-2.32373">
        <ele>16.60000038147</ele>
        <time>2019-09-05T08:18:06.000Z</time>
      </trkpt>
      <trkpt lat="47.26778" lon="-2.32378">
        <ele>17</ele>
        <time>2019-09-05T08:18:07.000Z</time>
      </trkpt>
      <trkpt lat="47.26778" lon="-2.32384">
        <ele>17.60000038147</ele>
        <time>2019-09-05T08:18:08.000Z</time>
      </trkpt>
      <trkpt lat="47.2678" lon="-2.32395">
        <ele>17.60000038147</ele>
        <time>2019-09-05T08:18:10.000Z</time>
      </trkpt>
      <trkpt lat="47.26788" lon="-2.32445">
        <ele>17.60000038147</ele>
        <time>2019-09-05T08:18:17.000Z</time>
      </trkpt>
      <trkpt lat="47.26794" lon="-2.32495">
        <ele>17.60000038147</ele>
        <time>2019-09-05T08:18:23.000Z</time>
      </trkpt>
      <trkpt lat="47.26799" lon="-2.3256">
        <ele>17.60000038147</ele>
        <time>2019-09-05T08:18:30.000Z</time>
      </trkpt>
      <trkpt lat="47.268" lon="-2.32588">
        <ele>17.60000038147</ele>
        <time>2019-09-05T08:18:33.000Z</time>
      </trkpt>
      <trkpt lat="47.26803" lon="-2.32606">
        <ele>17.60000038147</ele>
        <time>2019-09-05T08:18:35.000Z</time>
      </trkpt>
      <trkpt lat="47.26809" lon="-2.32646">
        <ele>17.60000038147</ele>
        <time>2019-09-05T08:18:40.000Z</time>
      </trkpt>
      <trkpt lat="47.26809" lon="-2.32654">
        <ele>17.60000038147</ele>
        <time>2019-09-05T08:18:41.000Z</time>
      </trkpt>
      <trkpt lat="47.26803" lon="-2.32676">
        <ele>17.60000038147</ele>
        <time>2019-09-05T08:18:44.000Z</time>
      </trkpt>
      <trkpt lat="47.26801" lon="-2.327">
        <ele>17.60000038147</ele>
        <time>2019-09-05T08:18:47.000Z</time>
      </trkpt>
      <trkpt lat="47.26813" lon="-2.32729">
        <ele>17.60000038147</ele>
        <time>2019-09-05T08:18:51.000Z</time>
      </trkpt>
      <trkpt lat="47.26832" lon="-2.32773">
        <ele>17.60000038147</ele>
        <time>2019-09-05T08:18:57.000Z</time>
      </trkpt>
      <trkpt lat="47.26838" lon="-2.32793">
        <ele>17</ele>
        <time>2019-09-05T08:18:59.000Z</time>
      </trkpt>
      <trkpt lat="47.26841" lon="-2.32803">
        <ele>16.60000038147</ele>
        <time>2019-09-05T08:19:00.000Z</time>
      </trkpt>
      <trkpt lat="47.26843" lon="-2.32812">
        <ele>16.200000762939</ele>
        <time>2019-09-05T08:19:01.000Z</time>
      </trkpt>
      <trkpt lat="47.26846" lon="-2.32822">
        <ele>15.60000038147</ele>
        <time>2019-09-05T08:19:02.000Z</time>
      </trkpt>
      <trkpt lat="47.26849" lon="-2.32832">
        <ele>15</ele>
        <time>2019-09-05T08:19:03.000Z</time>
      </trkpt>
      <trkpt lat="47.26853" lon="-2.32841">
        <ele>14.199999809265</ele>
        <time>2019-09-05T08:19:04.000Z</time>
      </trkpt>
      <trkpt lat="47.26857" lon="-2.3285">
        <ele>13.60000038147</ele>
        <time>2019-09-05T08:19:05.000Z</time>
      </trkpt>
      <trkpt lat="47.26859" lon="-2.32858">
        <ele>12.800000190735</ele>
        <time>2019-09-05T08:19:06.000Z</time>
      </trkpt>
      <trkpt lat="47.26862" lon="-2.32865">
        <ele>12</ele>
        <time>2019-09-05T08:19:07.000Z</time>
      </trkpt>
      <trkpt lat="47.26863" lon="-2.32871">
        <ele>11</ele>
        <time>2019-09-05T08:19:08.000Z</time>
      </trkpt>
      <trkpt lat="47.26861" lon="-2.32877">
        <ele>10.199999809265</ele>
        <time>2019-09-05T08:19:09.000Z</time>
      </trkpt>
      <trkpt lat="47.26858" lon="-2.32881">
        <ele>9.1999998092651</ele>
        <time>2019-09-05T08:19:10.000Z</time>
      </trkpt>
      <trkpt lat="47.26853" lon="-2.32883">
        <ele>8.3999996185303</ele>
        <time>2019-09-05T08:19:11.000Z</time>
      </trkpt>
      <trkpt lat="47.26848" lon="-2.32885">
        <ele>6.8000001907349</ele>
        <time>2019-09-05T08:19:12.000Z</time>
      </trkpt>
      <trkpt lat="47.26843" lon="-2.32887">
        <ele>6</ele>
        <time>2019-09-05T08:19:13.000Z</time>
      </trkpt>
      <trkpt lat="47.26837" lon="-2.32888">
        <ele>5.1999998092651</ele>
        <time>2019-09-05T08:19:14.000Z</time>
      </trkpt>
      <trkpt lat="47.26819" lon="-2.32899">
        <ele>5.1999998092651</ele>
        <time>2019-09-05T08:19:18.000Z</time>
      </trkpt>
      <trkpt lat="47.26815" lon="-2.32903">
        <ele>5.1999998092651</ele>
        <time>2019-09-05T08:19:19.000Z</time>
      </trkpt>
      <trkpt lat="47.2681" lon="-2.32907">
        <ele>5.1999998092651</ele>
        <time>2019-09-05T08:19:20.000Z</time>
      </trkpt>
      <trkpt lat="47.26789" lon="-2.32922">
        <ele>5.1999998092651</ele>
        <time>2019-09-05T08:19:23.000Z</time>
      </trkpt>
      <trkpt lat="47.26784" lon="-2.32927">
        <ele>5.1999998092651</ele>
        <time>2019-09-05T08:19:24.000Z</time>
      </trkpt>
      <trkpt lat="47.26763" lon="-2.32952">
        <ele>5.1999998092651</ele>
        <time>2019-09-05T08:19:28.000Z</time>
      </trkpt>
      <trkpt lat="47.26747" lon="-2.3297">
        <ele>5.1999998092651</ele>
        <time>2019-09-05T08:19:31.000Z</time>
      </trkpt>
      <trkpt lat="47.26735" lon="-2.32994">
        <ele>5.1999998092651</ele>
        <time>2019-09-05T08:19:34.000Z</time>
      </trkpt>
      <trkpt lat="47.26732" lon="-2.33022">
        <ele>5.1999998092651</ele>
        <time>2019-09-05T08:19:37.000Z</time>
      </trkpt>
      <trkpt lat="47.26732" lon="-2.3303">
        <ele>5.1999998092651</ele>
        <time>2019-09-05T08:19:38.000Z</time>
      </trkpt>
      <trkpt lat="47.26726" lon="-2.33056">
        <ele>5.1999998092651</ele>
        <time>2019-09-05T08:19:41.000Z</time>
      </trkpt>
      <trkpt lat="47.26709" lon="-2.33085">
        <ele>5.1999998092651</ele>
        <time>2019-09-05T08:19:45.000Z</time>
      </trkpt>
      <trkpt lat="47.26683" lon="-2.33113">
        <ele>5.1999998092651</ele>
        <time>2019-09-05T08:19:50.000Z</time>
      </trkpt>
      <trkpt lat="47.26645" lon="-2.33146">
        <ele>5.1999998092651</ele>
        <time>2019-09-05T08:19:57.000Z</time>
      </trkpt>
      <trkpt lat="47.26633" lon="-2.33152">
        <ele>5.1999998092651</ele>
        <time>2019-09-05T08:19:59.000Z</time>
      </trkpt>
      <trkpt lat="47.26621" lon="-2.33152">
        <ele>5.1999998092651</ele>
        <time>2019-09-05T08:20:01.000Z</time>
      </trkpt>
      <trkpt lat="47.26609" lon="-2.33148">
        <ele>5.1999998092651</ele>
        <time>2019-09-05T08:20:03.000Z</time>
      </trkpt>
      <trkpt lat="47.26598" lon="-2.33144">
        <ele>4.8000001907349</ele>
        <time>2019-09-05T08:20:05.000Z</time>
      </trkpt>
      <trkpt lat="47.26593" lon="-2.33144">
        <ele>4.4000000953674</ele>
        <time>2019-09-05T08:20:06.000Z</time>
      </trkpt>
      <trkpt lat="47.26589" lon="-2.33148">
        <ele>4</ele>
        <time>2019-09-05T08:20:07.000Z</time>
      </trkpt>
      <trkpt lat="47.26586" lon="-2.33155">
        <ele>3.5999999046326</ele>
        <time>2019-09-05T08:20:08.000Z</time>
      </trkpt>
      <trkpt lat="47.26584" lon="-2.33163">
        <ele>3.2000000476837</ele>
        <time>2019-09-05T08:20:09.000Z</time>
      </trkpt>
      <trkpt lat="47.26583" lon="-2.33172">
        <ele>3.2000000476837</ele>
        <time>2019-09-05T08:20:10.000Z</time>
      </trkpt>
      <trkpt lat="47.26581" lon="-2.33181">
        <ele>3.2000000476837</ele>
        <time>2019-09-05T08:20:11.000Z</time>
      </trkpt>
      <trkpt lat="47.26577" lon="-2.33189">
        <ele>3.2000000476837</ele>
        <time>2019-09-05T08:20:12.000Z</time>
      </trkpt>
      <trkpt lat="47.26561" lon="-2.33205">
        <ele>3.2000000476837</ele>
        <time>2019-09-05T08:20:15.000Z</time>
      </trkpt>
      <trkpt lat="47.26555" lon="-2.33209">
        <ele>3.2000000476837</ele>
        <time>2019-09-05T08:20:16.000Z</time>
      </trkpt>
      <trkpt lat="47.26509" lon="-2.3324">
        <ele>3.2000000476837</ele>
        <time>2019-09-05T08:20:24.000Z</time>
      </trkpt>
      <trkpt lat="47.26504" lon="-2.33245">
        <ele>3.2000000476837</ele>
        <time>2019-09-05T08:20:25.000Z</time>
      </trkpt>
      <trkpt lat="47.26497" lon="-2.33259">
        <ele>3.2000000476837</ele>
        <time>2019-09-05T08:20:27.000Z</time>
      </trkpt>
      <trkpt lat="47.26499" lon="-2.33281">
        <ele>3.2000000476837</ele>
        <time>2019-09-05T08:20:30.000Z</time>
      </trkpt>
      <trkpt lat="47.26511" lon="-2.33289">
        <ele>3.2000000476837</ele>
        <time>2019-09-05T08:20:34.000Z</time>
      </trkpt>
      <trkpt lat="47.26527" lon="-2.33289">
        <ele>3.2000000476837</ele>
        <time>2019-09-05T08:20:39.000Z</time>
      </trkpt>
      <trkpt lat="47.26538" lon="-2.33301">
        <ele>3.2000000476837</ele>
        <time>2019-09-05T08:20:43.000Z</time>
      </trkpt>
      <trkpt lat="47.26546" lon="-2.33292">
        <ele>3.2000000476837</ele>
        <time>2019-09-05T08:20:46.000Z</time>
      </trkpt>
      <trkpt lat="47.26549" lon="-2.33288">
        <ele>3.2000000476837</ele>
        <time>2019-09-05T08:20:47.000Z</time>
      </trkpt>
      <trkpt lat="47.26552" lon="-2.33284">
        <ele>3.2000000476837</ele>
        <time>2019-09-05T08:20:48.000Z</time>
      </trkpt>
      <trkpt lat="47.26565" lon="-2.33271">
        <ele>3.2000000476837</ele>
        <time>2019-09-05T08:20:51.000Z</time>
      </trkpt>
      <trkpt lat="47.26598" lon="-2.33239">
        <ele>3.2000000476837</ele>
        <time>2019-09-05T08:20:58.000Z</time>
      </trkpt>
      <trkpt lat="47.26631" lon="-2.33205">
        <ele>3.2000000476837</ele>
        <time>2019-09-05T08:21:05.000Z</time>
      </trkpt>
      <trkpt lat="47.2666" lon="-2.33175">
        <ele>3.2000000476837</ele>
        <time>2019-09-05T08:21:12.000Z</time>
      </trkpt>
      <trkpt lat="47.26673" lon="-2.33165">
        <ele>3.2000000476837</ele>
        <time>2019-09-05T08:21:16.000Z</time>
      </trkpt>
      <trkpt lat="47.26675" lon="-2.33166">
        <ele>3.2000000476837</ele>
        <time>2019-09-05T08:21:17.000Z</time>
      </trkpt>
      <trkpt lat="47.26684" lon="-2.33174">
        <ele>3.2000000476837</ele>
        <time>2019-09-05T08:21:20.000Z</time>
      </trkpt>
      <trkpt lat="47.26688" lon="-2.3318">
        <ele>3.2000000476837</ele>
        <time>2019-09-05T08:21:22.000Z</time>
      </trkpt>
      <trkpt lat="47.26695" lon="-2.33205">
        <ele>3.2000000476837</ele>
        <time>2019-09-05T08:21:27.000Z</time>
      </trkpt>
      <trkpt lat="47.26697" lon="-2.33226">
        <ele>3.2000000476837</ele>
        <time>2019-09-05T08:21:31.000Z</time>
      </trkpt>
      <trkpt lat="47.26702" lon="-2.33245">
        <ele>3.2000000476837</ele>
        <time>2019-09-05T08:21:35.000Z</time>
      </trkpt>
      <trkpt lat="47.26706" lon="-2.33277">
        <ele>3.2000000476837</ele>
        <time>2019-09-05T08:21:41.000Z</time>
      </trkpt>
      <trkpt lat="47.26707" lon="-2.33283">
        <ele>3.2000000476837</ele>
        <time>2019-09-05T08:21:42.000Z</time>
      </trkpt>
      <trkpt lat="47.26712" lon="-2.3331">
        <ele>3.2000000476837</ele>
        <time>2019-09-05T08:21:46.000Z</time>
      </trkpt>
      <trkpt lat="47.26725" lon="-2.33326">
        <ele>3.2000000476837</ele>
        <time>2019-09-05T08:21:50.000Z</time>
      </trkpt>
      <trkpt lat="47.26733" lon="-2.33331">
        <ele>3.2000000476837</ele>
        <time>2019-09-05T08:21:52.000Z</time>
      </trkpt>
      <trkpt lat="47.26743" lon="-2.3334">
        <ele>3.2000000476837</ele>
        <time>2019-09-05T08:21:55.000Z</time>
      </trkpt>
      <trkpt lat="47.26746" lon="-2.33346">
        <ele>3.2000000476837</ele>
        <time>2019-09-05T08:21:56.000Z</time>
      </trkpt>
      <trkpt lat="47.26756" lon="-2.33374">
        <ele>3.2000000476837</ele>
        <time>2019-09-05T08:22:01.000Z</time>
      </trkpt>
      <trkpt lat="47.26759" lon="-2.33389">
        <ele>3.2000000476837</ele>
        <time>2019-09-05T08:22:03.000Z</time>
      </trkpt>
      <trkpt lat="47.26761" lon="-2.33418">
        <ele>3.2000000476837</ele>
        <time>2019-09-05T08:22:06.000Z</time>
      </trkpt>
      <trkpt lat="47.26765" lon="-2.3347">
        <ele>3.2000000476837</ele>
        <time>2019-09-05T08:22:12.000Z</time>
      </trkpt>
      <trkpt lat="47.26767" lon="-2.33478">
        <ele>3.2000000476837</ele>
        <time>2019-09-05T08:22:13.000Z</time>
      </trkpt>
      <trkpt lat="47.26773" lon="-2.33517">
        <ele>3.2000000476837</ele>
        <time>2019-09-05T08:22:18.000Z</time>
      </trkpt>
      <trkpt lat="47.26777" lon="-2.33554">
        <ele>3.2000000476837</ele>
        <time>2019-09-05T08:22:23.000Z</time>
      </trkpt>
      <trkpt lat="47.2678" lon="-2.33565">
        <ele>3.2000000476837</ele>
        <time>2019-09-05T08:22:25.000Z</time>
      </trkpt>
      <trkpt lat="47.26788" lon="-2.33573">
        <ele>3.2000000476837</ele>
        <time>2019-09-05T08:22:28.000Z</time>
      </trkpt>
      <trkpt lat="47.26801" lon="-2.33569">
        <ele>3.2000000476837</ele>
        <time>2019-09-05T08:22:32.000Z</time>
      </trkpt>
      <trkpt lat="47.26804" lon="-2.33566">
        <ele>3.2000000476837</ele>
        <time>2019-09-05T08:22:33.000Z</time>
      </trkpt>
      <trkpt lat="47.26808" lon="-2.33563">
        <ele>3.2000000476837</ele>
        <time>2019-09-05T08:22:34.000Z</time>
      </trkpt>
      <trkpt lat="47.26824" lon="-2.33555">
        <ele>3.2000000476837</ele>
        <time>2019-09-05T08:22:37.000Z</time>
      </trkpt>
      <trkpt lat="47.26854" lon="-2.33543">
        <ele>3.2000000476837</ele>
        <time>2019-09-05T08:22:42.000Z</time>
      </trkpt>
      <trkpt lat="47.26871" lon="-2.33538">
        <ele>3.2000000476837</ele>
        <time>2019-09-05T08:22:45.000Z</time>
      </trkpt>
      <trkpt lat="47.26881" lon="-2.3354">
        <ele>3.2000000476837</ele>
        <time>2019-09-05T08:22:47.000Z</time>
      </trkpt>
      <trkpt lat="47.26893" lon="-2.33551">
        <ele>3.2000000476837</ele>
        <time>2019-09-05T08:22:50.000Z</time>
      </trkpt>
      <trkpt lat="47.26896" lon="-2.33556">
        <ele>3.5999999046326</ele>
        <time>2019-09-05T08:22:51.000Z</time>
      </trkpt>
      <trkpt lat="47.26899" lon="-2.33561">
        <ele>4</ele>
        <time>2019-09-05T08:22:52.000Z</time>
      </trkpt>
      <trkpt lat="47.26902" lon="-2.33566">
        <ele>4.4000000953674</ele>
        <time>2019-09-05T08:22:53.000Z</time>
      </trkpt>
      <trkpt lat="47.26904" lon="-2.33571">
        <ele>5.1999998092651</ele>
        <time>2019-09-05T08:22:54.000Z</time>
      </trkpt>
      <trkpt lat="47.26909" lon="-2.33582">
        <ele>5.1999998092651</ele>
        <time>2019-09-05T08:22:56.000Z</time>
      </trkpt>
      <trkpt lat="47.26925" lon="-2.33632">
        <ele>5.1999998092651</ele>
        <time>2019-09-05T08:23:05.000Z</time>
      </trkpt>
      <trkpt lat="47.26927" lon="-2.33638">
        <ele>5.5999999046326</ele>
        <time>2019-09-05T08:23:06.000Z</time>
      </trkpt>
      <trkpt lat="47.26928" lon="-2.33644">
        <ele>6</ele>
        <time>2019-09-05T08:23:07.000Z</time>
      </trkpt>
      <trkpt lat="47.26929" lon="-2.3365">
        <ele>6.4000000953674</ele>
        <time>2019-09-05T08:23:08.000Z</time>
      </trkpt>
      <trkpt lat="47.26931" lon="-2.33656">
        <ele>6.8000001907349</ele>
        <time>2019-09-05T08:23:09.000Z</time>
      </trkpt>
      <trkpt lat="47.26932" lon="-2.33662">
        <ele>7.1999998092651</ele>
        <time>2019-09-05T08:23:10.000Z</time>
      </trkpt>
      <trkpt lat="47.26933" lon="-2.33668">
        <ele>7.1999998092651</ele>
        <time>2019-09-05T08:23:11.000Z</time>
      </trkpt>
      <trkpt lat="47.26935" lon="-2.33686">
        <ele>7.1999998092651</ele>
        <time>2019-09-05T08:23:14.000Z</time>
      </trkpt>
      <trkpt lat="47.26939" lon="-2.33711">
        <ele>7.1999998092651</ele>
        <time>2019-09-05T08:23:18.000Z</time>
      </trkpt>
      <trkpt lat="47.26939" lon="-2.33717">
        <ele>7.1999998092651</ele>
        <time>2019-09-05T08:23:19.000Z</time>
      </trkpt>
      <trkpt lat="47.26936" lon="-2.33743">
        <ele>7.1999998092651</ele>
        <time>2019-09-05T08:23:23.000Z</time>
      </trkpt>
      <trkpt lat="47.26928" lon="-2.33785">
        <ele>7.1999998092651</ele>
        <time>2019-09-05T08:23:29.000Z</time>
      </trkpt>
      <trkpt lat="47.26928" lon="-2.33792">
        <ele>7.1999998092651</ele>
        <time>2019-09-05T08:23:30.000Z</time>
      </trkpt>
      <trkpt lat="47.26934" lon="-2.3381">
        <ele>7.1999998092651</ele>
        <time>2019-09-05T08:23:33.000Z</time>
      </trkpt>
      <trkpt lat="47.26941" lon="-2.33819">
        <ele>7.1999998092651</ele>
        <time>2019-09-05T08:23:35.000Z</time>
      </trkpt>
      <trkpt lat="47.26945" lon="-2.33823">
        <ele>7.1999998092651</ele>
        <time>2019-09-05T08:23:36.000Z</time>
      </trkpt>
      <trkpt lat="47.26954" lon="-2.3383">
        <ele>7.1999998092651</ele>
        <time>2019-09-05T08:23:38.000Z</time>
      </trkpt>
      <trkpt lat="47.26978" lon="-2.33843">
        <ele>7.5999999046326</ele>
        <time>2019-09-05T08:23:43.000Z</time>
      </trkpt>
      <trkpt lat="47.26983" lon="-2.33846">
        <ele>8.3999996185303</ele>
        <time>2019-09-05T08:23:44.000Z</time>
      </trkpt>
      <trkpt lat="47.26988" lon="-2.33849">
        <ele>9</ele>
        <time>2019-09-05T08:23:45.000Z</time>
      </trkpt>
      <trkpt lat="47.26993" lon="-2.33852">
        <ele>9.3999996185303</ele>
        <time>2019-09-05T08:23:46.000Z</time>
      </trkpt>
      <trkpt lat="47.27003" lon="-2.33858">
        <ele>9.8000001907349</ele>
        <time>2019-09-05T08:23:48.000Z</time>
      </trkpt>
      <trkpt lat="47.27007" lon="-2.33861">
        <ele>10.199999809265</ele>
        <time>2019-09-05T08:23:49.000Z</time>
      </trkpt>
      <trkpt lat="47.27012" lon="-2.33865">
        <ele>10.60000038147</ele>
        <time>2019-09-05T08:23:50.000Z</time>
      </trkpt>
      <trkpt lat="47.27016" lon="-2.33868">
        <ele>11</ele>
        <time>2019-09-05T08:23:51.000Z</time>
      </trkpt>
      <trkpt lat="47.27021" lon="-2.33872">
        <ele>11.39999961853</ele>
        <time>2019-09-05T08:23:52.000Z</time>
      </trkpt>
      <trkpt lat="47.27026" lon="-2.33875">
        <ele>11.39999961853</ele>
        <time>2019-09-05T08:23:53.000Z</time>
      </trkpt>
      <trkpt lat="47.27031" lon="-2.33879">
        <ele>11.800000190735</ele>
        <time>2019-09-05T08:23:54.000Z</time>
      </trkpt>
      <trkpt lat="47.27035" lon="-2.33883">
        <ele>12.199999809265</ele>
        <time>2019-09-05T08:23:55.000Z</time>
      </trkpt>
      <trkpt lat="47.2704" lon="-2.33888">
        <ele>12.60000038147</ele>
        <time>2019-09-05T08:23:56.000Z</time>
      </trkpt>
      <trkpt lat="47.27045" lon="-2.33892">
        <ele>13.199999809265</ele>
        <time>2019-09-05T08:23:57.000Z</time>
      </trkpt>
      <trkpt lat="47.2705" lon="-2.33896">
        <ele>13.60000038147</ele>
        <time>2019-09-05T08:23:58.000Z</time>
      </trkpt>
      <trkpt lat="47.27078" lon="-2.33924">
        <ele>14</ele>
        <time>2019-09-05T08:24:04.000Z</time>
      </trkpt>
      <trkpt lat="47.27082" lon="-2.33928">
        <ele>14.39999961853</ele>
        <time>2019-09-05T08:24:05.000Z</time>
      </trkpt>
      <trkpt lat="47.27086" lon="-2.33933">
        <ele>14.800000190735</ele>
        <time>2019-09-05T08:24:06.000Z</time>
      </trkpt>
      <trkpt lat="47.2709" lon="-2.33937">
        <ele>15.199999809265</ele>
        <time>2019-09-05T08:24:07.000Z</time>
      </trkpt>
      <trkpt lat="47.27094" lon="-2.3394">
        <ele>16</ele>
        <time>2019-09-05T08:24:08.000Z</time>
      </trkpt>
      <trkpt lat="47.27099" lon="-2.33943">
        <ele>16.39999961853</ele>
        <time>2019-09-05T08:24:09.000Z</time>
      </trkpt>
      <trkpt lat="47.27103" lon="-2.33946">
        <ele>17</ele>
        <time>2019-09-05T08:24:10.000Z</time>
      </trkpt>
      <trkpt lat="47.27107" lon="-2.3395">
        <ele>17.39999961853</ele>
        <time>2019-09-05T08:24:11.000Z</time>
      </trkpt>
      <trkpt lat="47.27112" lon="-2.33953">
        <ele>17.799999237061</ele>
        <time>2019-09-05T08:24:12.000Z</time>
      </trkpt>
      <trkpt lat="47.27133" lon="-2.33972">
        <ele>18.200000762939</ele>
        <time>2019-09-05T08:24:17.000Z</time>
      </trkpt>
      <trkpt lat="47.27137" lon="-2.33976">
        <ele>18.60000038147</ele>
        <time>2019-09-05T08:24:18.000Z</time>
      </trkpt>
      <trkpt lat="47.27141" lon="-2.3398">
        <ele>19</ele>
        <time>2019-09-05T08:24:19.000Z</time>
      </trkpt>
      <trkpt lat="47.27145" lon="-2.33984">
        <ele>19.39999961853</ele>
        <time>2019-09-05T08:24:20.000Z</time>
      </trkpt>
      <trkpt lat="47.27149" lon="-2.33988">
        <ele>19.799999237061</ele>
        <time>2019-09-05T08:24:21.000Z</time>
      </trkpt>
      <trkpt lat="47.27161" lon="-2.34">
        <ele>19.799999237061</ele>
        <time>2019-09-05T08:24:24.000Z</time>
      </trkpt>
      <trkpt lat="47.27185" lon="-2.34026">
        <ele>19.799999237061</ele>
        <time>2019-09-05T08:24:30.000Z</time>
      </trkpt>
      <trkpt lat="47.27205" lon="-2.34047">
        <ele>19.799999237061</ele>
        <time>2019-09-05T08:24:35.000Z</time>
      </trkpt>
      <trkpt lat="47.27214" lon="-2.34054">
        <ele>19.799999237061</ele>
        <time>2019-09-05T08:24:37.000Z</time>
      </trkpt>
      <trkpt lat="47.27234" lon="-2.34056">
        <ele>20.39999961853</ele>
        <time>2019-09-05T08:24:41.000Z</time>
      </trkpt>
      <trkpt lat="47.27239" lon="-2.34055">
        <ele>20.799999237061</ele>
        <time>2019-09-05T08:24:42.000Z</time>
      </trkpt>
      <trkpt lat="47.27244" lon="-2.34054">
        <ele>21.200000762939</ele>
        <time>2019-09-05T08:24:43.000Z</time>
      </trkpt>
      <trkpt lat="47.27248" lon="-2.34054">
        <ele>21.60000038147</ele>
        <time>2019-09-05T08:24:44.000Z</time>
      </trkpt>
      <trkpt lat="47.27253" lon="-2.34055">
        <ele>22</ele>
        <time>2019-09-05T08:24:45.000Z</time>
      </trkpt>
      <trkpt lat="47.27263" lon="-2.3406">
        <ele>22</ele>
        <time>2019-09-05T08:24:47.000Z</time>
      </trkpt>
      <trkpt lat="47.2728" lon="-2.34079">
        <ele>22</ele>
        <time>2019-09-05T08:24:52.000Z</time>
      </trkpt>
      <trkpt lat="47.27284" lon="-2.34109">
        <ele>22</ele>
        <time>2019-09-05T08:24:56.000Z</time>
      </trkpt>
      <trkpt lat="47.27293" lon="-2.34127">
        <ele>22</ele>
        <time>2019-09-05T08:24:59.000Z</time>
      </trkpt>
      <trkpt lat="47.27302" lon="-2.34136">
        <ele>22</ele>
        <time>2019-09-05T08:25:01.000Z</time>
      </trkpt>
      <trkpt lat="47.27319" lon="-2.34148">
        <ele>22</ele>
        <time>2019-09-05T08:25:04.000Z</time>
      </trkpt>
      <trkpt lat="47.27356" lon="-2.34171">
        <ele>22</ele>
        <time>2019-09-05T08:25:11.000Z</time>
      </trkpt>
      <trkpt lat="47.27387" lon="-2.34192">
        <ele>22</ele>
        <time>2019-09-05T08:25:18.000Z</time>
      </trkpt>
      <trkpt lat="47.274" lon="-2.34213">
        <ele>22</ele>
        <time>2019-09-05T08:25:23.000Z</time>
      </trkpt>
      <trkpt lat="47.27402" lon="-2.34229">
        <ele>22</ele>
        <time>2019-09-05T08:25:27.000Z</time>
      </trkpt>
      <trkpt lat="47.27404" lon="-2.34239">
        <ele>22</ele>
        <time>2019-09-05T08:25:31.000Z</time>
      </trkpt>
      <trkpt lat="47.27407" lon="-2.34241">
        <ele>22</ele>
        <time>2019-09-05T08:25:32.000Z</time>
      </trkpt>
      <trkpt lat="47.27414" lon="-2.34257">
        <ele>22</ele>
        <time>2019-09-05T08:25:36.000Z</time>
      </trkpt>
      <trkpt lat="47.27415" lon="-2.34277">
        <ele>22</ele>
        <time>2019-09-05T08:25:39.000Z</time>
      </trkpt>
      <trkpt lat="47.27415" lon="-2.34291">
        <ele>22</ele>
        <time>2019-09-05T08:25:41.000Z</time>
      </trkpt>
      <trkpt lat="47.27416" lon="-2.34351">
        <ele>22</ele>
        <time>2019-09-05T08:25:49.000Z</time>
      </trkpt>
      <trkpt lat="47.27421" lon="-2.34405">
        <ele>22</ele>
        <time>2019-09-05T08:25:56.000Z</time>
      </trkpt>
      <trkpt lat="47.27424" lon="-2.34466">
        <ele>22</ele>
        <time>2019-09-05T08:26:04.000Z</time>
      </trkpt>
      <trkpt lat="47.27429" lon="-2.34504">
        <ele>22.39999961853</ele>
        <time>2019-09-05T08:26:09.000Z</time>
      </trkpt>
      <trkpt lat="47.27431" lon="-2.34511">
        <ele>22.799999237061</ele>
        <time>2019-09-05T08:26:10.000Z</time>
      </trkpt>
      <trkpt lat="47.27432" lon="-2.34519">
        <ele>23.200000762939</ele>
        <time>2019-09-05T08:26:11.000Z</time>
      </trkpt>
      <trkpt lat="47.27434" lon="-2.34527">
        <ele>24.200000762939</ele>
        <time>2019-09-05T08:26:12.000Z</time>
      </trkpt>
      <trkpt lat="47.27441" lon="-2.34554">
        <ele>24.200000762939</ele>
        <time>2019-09-05T08:26:16.000Z</time>
      </trkpt>
      <trkpt lat="47.2745" lon="-2.34592">
        <ele>24.200000762939</ele>
        <time>2019-09-05T08:26:21.000Z</time>
      </trkpt>
      <trkpt lat="47.27451" lon="-2.346">
        <ele>24.200000762939</ele>
        <time>2019-09-05T08:26:22.000Z</time>
      </trkpt>
      <trkpt lat="47.27455" lon="-2.34653">
        <ele>24.200000762939</ele>
        <time>2019-09-05T08:26:28.000Z</time>
      </trkpt>
      <trkpt lat="47.27459" lon="-2.34686">
        <ele>24.200000762939</ele>
        <time>2019-09-05T08:26:32.000Z</time>
      </trkpt>
      <trkpt lat="47.27461" lon="-2.34691">
        <ele>24.200000762939</ele>
        <time>2019-09-05T08:26:33.000Z</time>
      </trkpt>
      <trkpt lat="47.27473" lon="-2.34695">
        <ele>24.200000762939</ele>
        <time>2019-09-05T08:26:36.000Z</time>
      </trkpt>
      <trkpt lat="47.27488" lon="-2.3469">
        <ele>24.200000762939</ele>
        <time>2019-09-05T08:26:39.000Z</time>
      </trkpt>
      <trkpt lat="47.27501" lon="-2.34685">
        <ele>24.200000762939</ele>
        <time>2019-09-05T08:26:41.000Z</time>
      </trkpt>
      <trkpt lat="47.27507" lon="-2.34683">
        <ele>24.200000762939</ele>
        <time>2019-09-05T08:26:42.000Z</time>
      </trkpt>
      <trkpt lat="47.27532" lon="-2.34678">
        <ele>24.200000762939</ele>
        <time>2019-09-05T08:26:46.000Z</time>
      </trkpt>
      <trkpt lat="47.27563" lon="-2.34666">
        <ele>24.200000762939</ele>
        <time>2019-09-05T08:26:51.000Z</time>
      </trkpt>
      <trkpt lat="47.27591" lon="-2.34642">
        <ele>24.200000762939</ele>
        <time>2019-09-05T08:26:56.000Z</time>
      </trkpt>
      <trkpt lat="47.27636" lon="-2.34599">
        <ele>24.200000762939</ele>
        <time>2019-09-05T08:27:04.000Z</time>
      </trkpt>
      <trkpt lat="47.27666" lon="-2.3457">
        <ele>24.200000762939</ele>
        <time>2019-09-05T08:27:10.000Z</time>
      </trkpt>
      <trkpt lat="47.27673" lon="-2.34563">
        <ele>24.200000762939</ele>
        <time>2019-09-05T08:27:14.000Z</time>
      </trkpt>
      <trkpt lat="47.27674" lon="-2.34563">
        <ele>24.200000762939</ele>
        <time>2019-09-05T08:27:15.000Z</time>
      </trkpt>
      <trkpt lat="47.27678" lon="-2.34565">
        <ele>24.200000762939</ele>
        <time>2019-09-05T08:27:20.000Z</time>
      </trkpt>
      <trkpt lat="47.2768" lon="-2.34568">
        <ele>24.200000762939</ele>
        <time>2019-09-05T08:27:22.000Z</time>
      </trkpt>
      <trkpt lat="47.27682" lon="-2.34575">
        <ele>24.200000762939</ele>
        <time>2019-09-05T08:27:24.000Z</time>
      </trkpt>
      <trkpt lat="47.27687" lon="-2.34599">
        <ele>24.200000762939</ele>
        <time>2019-09-05T08:27:28.000Z</time>
      </trkpt>
      <trkpt lat="47.27692" lon="-2.34622">
        <ele>24.200000762939</ele>
        <time>2019-09-05T08:27:31.000Z</time>
      </trkpt>
      <trkpt lat="47.27693" lon="-2.34645">
        <ele>24.200000762939</ele>
        <time>2019-09-05T08:27:34.000Z</time>
      </trkpt>
      <trkpt lat="47.27694" lon="-2.34658">
        <ele>24.200000762939</ele>
        <time>2019-09-05T08:27:36.000Z</time>
      </trkpt>
      <trkpt lat="47.27696" lon="-2.34675">
        <ele>24.200000762939</ele>
        <time>2019-09-05T08:27:39.000Z</time>
      </trkpt>
      <trkpt lat="47.277" lon="-2.34696">
        <ele>24.200000762939</ele>
        <time>2019-09-05T08:27:43.000Z</time>
      </trkpt>
      <trkpt lat="47.27703" lon="-2.34702">
        <ele>24.200000762939</ele>
        <time>2019-09-05T08:27:44.000Z</time>
      </trkpt>
      <trkpt lat="47.27715" lon="-2.34736">
        <ele>24.200000762939</ele>
        <time>2019-09-05T08:27:49.000Z</time>
      </trkpt>
      <trkpt lat="47.27719" lon="-2.34743">
        <ele>24.200000762939</ele>
        <time>2019-09-05T08:27:50.000Z</time>
      </trkpt>
      <trkpt lat="47.27741" lon="-2.34789">
        <ele>24.200000762939</ele>
        <time>2019-09-05T08:27:56.000Z</time>
      </trkpt>
      <trkpt lat="47.27756" lon="-2.34817">
        <ele>23.60000038147</ele>
        <time>2019-09-05T08:28:00.000Z</time>
      </trkpt>
      <trkpt lat="47.27759" lon="-2.34824">
        <ele>23.200000762939</ele>
        <time>2019-09-05T08:28:01.000Z</time>
      </trkpt>
      <trkpt lat="47.27763" lon="-2.34831">
        <ele>22.799999237061</ele>
        <time>2019-09-05T08:28:02.000Z</time>
      </trkpt>
      <trkpt lat="47.27766" lon="-2.34838">
        <ele>22.39999961853</ele>
        <time>2019-09-05T08:28:03.000Z</time>
      </trkpt>
      <trkpt lat="47.27769" lon="-2.34844">
        <ele>22</ele>
        <time>2019-09-05T08:28:04.000Z</time>
      </trkpt>
      <trkpt lat="47.27782" lon="-2.34865">
        <ele>22</ele>
        <time>2019-09-05T08:28:08.000Z</time>
      </trkpt>
      <trkpt lat="47.27787" lon="-2.34873">
        <ele>21.60000038147</ele>
        <time>2019-09-05T08:28:10.000Z</time>
      </trkpt>
      <trkpt lat="47.2779" lon="-2.34876">
        <ele>21</ele>
        <time>2019-09-05T08:28:11.000Z</time>
      </trkpt>
      <trkpt lat="47.27792" lon="-2.34879">
        <ele>20.60000038147</ele>
        <time>2019-09-05T08:28:12.000Z</time>
      </trkpt>
      <trkpt lat="47.27793" lon="-2.34881">
        <ele>20.200000762939</ele>
        <time>2019-09-05T08:28:13.000Z</time>
      </trkpt>
      <trkpt lat="47.27795" lon="-2.34882">
        <ele>19.60000038147</ele>
        <time>2019-09-05T08:28:14.000Z</time>
      </trkpt>
      <trkpt lat="47.27799" lon="-2.34887">
        <ele>19.60000038147</ele>
        <time>2019-09-05T08:28:16.000Z</time>
      </trkpt>
      <trkpt lat="47.27806" lon="-2.34892">
        <ele>19.60000038147</ele>
        <time>2019-09-05T08:28:18.000Z</time>
      </trkpt>
      <trkpt lat="47.27818" lon="-2.34903">
        <ele>19.60000038147</ele>
        <time>2019-09-05T08:28:21.000Z</time>
      </trkpt>
      <trkpt lat="47.27843" lon="-2.3493">
        <ele>19.60000038147</ele>
        <time>2019-09-05T08:28:27.000Z</time>
      </trkpt>
      <trkpt lat="47.27876" lon="-2.34971">
        <ele>19.60000038147</ele>
        <time>2019-09-05T08:28:35.000Z</time>
      </trkpt>
      <trkpt lat="47.2789" lon="-2.35007">
        <ele>19.60000038147</ele>
        <time>2019-09-05T08:28:40.000Z</time>
      </trkpt>
      <trkpt lat="47.27899" lon="-2.3503">
        <ele>19.60000038147</ele>
        <time>2019-09-05T08:28:44.000Z</time>
      </trkpt>
      <trkpt lat="47.27911" lon="-2.35034">
        <ele>19.60000038147</ele>
        <time>2019-09-05T08:28:48.000Z</time>
      </trkpt>
      <trkpt lat="47.27914" lon="-2.35035">
        <ele>19.60000038147</ele>
        <time>2019-09-05T08:28:49.000Z</time>
      </trkpt>
      <trkpt lat="47.27935" lon="-2.35044">
        <ele>19.60000038147</ele>
        <time>2019-09-05T08:28:56.000Z</time>
      </trkpt>
      <trkpt lat="47.27951" lon="-2.35064">
        <ele>19.60000038147</ele>
        <time>2019-09-05T08:29:01.000Z</time>
      </trkpt>
      <trkpt lat="47.27957" lon="-2.35073">
        <ele>19.60000038147</ele>
        <time>2019-09-05T08:29:03.000Z</time>
      </trkpt>
      <trkpt lat="47.27966" lon="-2.35094">
        <ele>19.60000038147</ele>
        <time>2019-09-05T08:29:08.000Z</time>
      </trkpt>
      <trkpt lat="47.27967" lon="-2.35107">
        <ele>19.60000038147</ele>
        <time>2019-09-05T08:29:12.000Z</time>
      </trkpt>
      <trkpt lat="47.27965" lon="-2.35111">
        <ele>19.60000038147</ele>
        <time>2019-09-05T08:29:13.000Z</time>
      </trkpt>
      <trkpt lat="47.27957" lon="-2.35132">
        <ele>19.60000038147</ele>
        <time>2019-09-05T08:29:16.000Z</time>
      </trkpt>
      <trkpt lat="47.27955" lon="-2.35139">
        <ele>19.60000038147</ele>
        <time>2019-09-05T08:29:17.000Z</time>
      </trkpt>
      <trkpt lat="47.27947" lon="-2.35158">
        <ele>19.60000038147</ele>
        <time>2019-09-05T08:29:20.000Z</time>
      </trkpt>
      <trkpt lat="47.27945" lon="-2.35163">
        <ele>19.200000762939</ele>
        <time>2019-09-05T08:29:21.000Z</time>
      </trkpt>
      <trkpt lat="47.27942" lon="-2.35168">
        <ele>18.799999237061</ele>
        <time>2019-09-05T08:29:22.000Z</time>
      </trkpt>
      <trkpt lat="47.2794" lon="-2.35173">
        <ele>18.39999961853</ele>
        <time>2019-09-05T08:29:23.000Z</time>
      </trkpt>
      <trkpt lat="47.27937" lon="-2.35179">
        <ele>18</ele>
        <time>2019-09-05T08:29:24.000Z</time>
      </trkpt>
      <trkpt lat="47.27933" lon="-2.35184">
        <ele>17.39999961853</ele>
        <time>2019-09-05T08:29:25.000Z</time>
      </trkpt>
      <trkpt lat="47.2792" lon="-2.35199">
        <ele>17.39999961853</ele>
        <time>2019-09-05T08:29:28.000Z</time>
      </trkpt>
      <trkpt lat="47.27917" lon="-2.35224">
        <ele>17.39999961853</ele>
        <time>2019-09-05T08:29:31.000Z</time>
      </trkpt>
      <trkpt lat="47.27919" lon="-2.35239">
        <ele>17.39999961853</ele>
        <time>2019-09-05T08:29:33.000Z</time>
      </trkpt>
      <trkpt lat="47.2792" lon="-2.35246">
        <ele>17.39999961853</ele>
        <time>2019-09-05T08:29:34.000Z</time>
      </trkpt>
      <trkpt lat="47.27922" lon="-2.35259">
        <ele>17.39999961853</ele>
        <time>2019-09-05T08:29:36.000Z</time>
      </trkpt>
      <trkpt lat="47.27925" lon="-2.35289">
        <ele>17.39999961853</ele>
        <time>2019-09-05T08:29:42.000Z</time>
      </trkpt>
      <trkpt lat="47.27935" lon="-2.3531">
        <ele>17.39999961853</ele>
        <time>2019-09-05T08:29:47.000Z</time>
      </trkpt>
      <trkpt lat="47.27936" lon="-2.35315">
        <ele>17.39999961853</ele>
        <time>2019-09-05T08:29:48.000Z</time>
      </trkpt>
      <trkpt lat="47.27934" lon="-2.35326">
        <ele>17.39999961853</ele>
        <time>2019-09-05T08:29:50.000Z</time>
      </trkpt>
      <trkpt lat="47.27929" lon="-2.35342">
        <ele>17.39999961853</ele>
        <time>2019-09-05T08:29:53.000Z</time>
      </trkpt>
      <trkpt lat="47.27929" lon="-2.35348">
        <ele>17.39999961853</ele>
        <time>2019-09-05T08:29:54.000Z</time>
      </trkpt>
      <trkpt lat="47.27929" lon="-2.35354">
        <ele>17.39999961853</ele>
        <time>2019-09-05T08:29:55.000Z</time>
      </trkpt>
      <trkpt lat="47.2793" lon="-2.35391">
        <ele>17.39999961853</ele>
        <time>2019-09-05T08:30:00.000Z</time>
      </trkpt>
      <trkpt lat="47.27929" lon="-2.35416">
        <ele>17.39999961853</ele>
        <time>2019-09-05T08:30:04.000Z</time>
      </trkpt>
      <trkpt lat="47.27927" lon="-2.35422">
        <ele>17.39999961853</ele>
        <time>2019-09-05T08:30:05.000Z</time>
      </trkpt>
      <trkpt lat="47.27931" lon="-2.35442">
        <ele>17.39999961853</ele>
        <time>2019-09-05T08:30:08.000Z</time>
      </trkpt>
      <trkpt lat="47.27949" lon="-2.3546">
        <ele>17.39999961853</ele>
        <time>2019-09-05T08:30:12.000Z</time>
      </trkpt>
      <trkpt lat="47.2796" lon="-2.35467">
        <ele>17.39999961853</ele>
        <time>2019-09-05T08:30:14.000Z</time>
      </trkpt>
      <trkpt lat="47.27965" lon="-2.35471">
        <ele>17.39999961853</ele>
        <time>2019-09-05T08:30:15.000Z</time>
      </trkpt>
      <trkpt lat="47.27981" lon="-2.35485">
        <ele>17.39999961853</ele>
        <time>2019-09-05T08:30:18.000Z</time>
      </trkpt>
      <trkpt lat="47.2799" lon="-2.35498">
        <ele>17.39999961853</ele>
        <time>2019-09-05T08:30:20.000Z</time>
      </trkpt>
      <trkpt lat="47.27996" lon="-2.35512">
        <ele>17.39999961853</ele>
        <time>2019-09-05T08:30:22.000Z</time>
      </trkpt>
      <trkpt lat="47.28004" lon="-2.35529">
        <ele>17.39999961853</ele>
        <time>2019-09-05T08:30:25.000Z</time>
      </trkpt>
      <trkpt lat="47.28007" lon="-2.3554">
        <ele>17.39999961853</ele>
        <time>2019-09-05T08:30:27.000Z</time>
      </trkpt>
      <trkpt lat="47.2802" lon="-2.35559">
        <ele>17.39999961853</ele>
        <time>2019-09-05T08:30:32.000Z</time>
      </trkpt>
      <trkpt lat="47.2804" lon="-2.35577">
        <ele>17.39999961853</ele>
        <time>2019-09-05T08:30:38.000Z</time>
      </trkpt>
      <trkpt lat="47.28044" lon="-2.35578">
        <ele>17.799999237061</ele>
        <time>2019-09-05T08:30:39.000Z</time>
      </trkpt>
      <trkpt lat="47.28048" lon="-2.35579">
        <ele>18.39999961853</ele>
        <time>2019-09-05T08:30:40.000Z</time>
      </trkpt>
      <trkpt lat="47.28052" lon="-2.3558">
        <ele>18.799999237061</ele>
        <time>2019-09-05T08:30:41.000Z</time>
      </trkpt>
      <trkpt lat="47.28056" lon="-2.35581">
        <ele>19.200000762939</ele>
        <time>2019-09-05T08:30:42.000Z</time>
      </trkpt>
      <trkpt lat="47.2806" lon="-2.35582">
        <ele>19.60000038147</ele>
        <time>2019-09-05T08:30:43.000Z</time>
      </trkpt>
      <trkpt lat="47.28063" lon="-2.35584">
        <ele>19.60000038147</ele>
        <time>2019-09-05T08:30:44.000Z</time>
      </trkpt>
      <trkpt lat="47.28072" lon="-2.35597">
        <ele>19.60000038147</ele>
        <time>2019-09-05T08:30:48.000Z</time>
      </trkpt>
      <trkpt lat="47.28078" lon="-2.35624">
        <ele>20</ele>
        <time>2019-09-05T08:30:53.000Z</time>
      </trkpt>
      <trkpt lat="47.28078" lon="-2.3563">
        <ele>20.39999961853</ele>
        <time>2019-09-05T08:30:54.000Z</time>
      </trkpt>
      <trkpt lat="47.28078" lon="-2.35636">
        <ele>20.799999237061</ele>
        <time>2019-09-05T08:30:55.000Z</time>
      </trkpt>
      <trkpt lat="47.28078" lon="-2.35641">
        <ele>21.200000762939</ele>
        <time>2019-09-05T08:30:56.000Z</time>
      </trkpt>
      <trkpt lat="47.28079" lon="-2.35645">
        <ele>21.60000038147</ele>
        <time>2019-09-05T08:30:57.000Z</time>
      </trkpt>
      <trkpt lat="47.2808" lon="-2.3565">
        <ele>22</ele>
        <time>2019-09-05T08:30:58.000Z</time>
      </trkpt>
      <trkpt lat="47.28081" lon="-2.35654">
        <ele>22.39999961853</ele>
        <time>2019-09-05T08:30:59.000Z</time>
      </trkpt>
      <trkpt lat="47.28083" lon="-2.35658">
        <ele>23</ele>
        <time>2019-09-05T08:31:00.000Z</time>
      </trkpt>
      <trkpt lat="47.28085" lon="-2.35662">
        <ele>23.39999961853</ele>
        <time>2019-09-05T08:31:01.000Z</time>
      </trkpt>
      <trkpt lat="47.28087" lon="-2.35666">
        <ele>24</ele>
        <time>2019-09-05T08:31:02.000Z</time>
      </trkpt>
      <trkpt lat="47.28088" lon="-2.35672">
        <ele>24</ele>
        <time>2019-09-05T08:31:03.000Z</time>
      </trkpt>
      <trkpt lat="47.2809" lon="-2.35676">
        <ele>24.39999961853</ele>
        <time>2019-09-05T08:31:04.000Z</time>
      </trkpt>
      <trkpt lat="47.28091" lon="-2.35681">
        <ele>24.799999237061</ele>
        <time>2019-09-05T08:31:05.000Z</time>
      </trkpt>
      <trkpt lat="47.28091" lon="-2.35684">
        <ele>25.200000762939</ele>
        <time>2019-09-05T08:31:06.000Z</time>
      </trkpt>
      <trkpt lat="47.28091" lon="-2.35686">
        <ele>25.60000038147</ele>
        <time>2019-09-05T08:31:07.000Z</time>
      </trkpt>
      <trkpt lat="47.28091" lon="-2.35687">
        <ele>26</ele>
        <time>2019-09-05T08:31:08.000Z</time>
      </trkpt>
      <trkpt lat="47.28091" lon="-2.35689">
        <ele>26</ele>
        <time>2019-09-05T08:31:10.000Z</time>
      </trkpt>
      <trkpt lat="47.28095" lon="-2.35688">
        <ele>28.60000038147</ele>
        <time>2019-09-05T08:31:27.000Z</time>
      </trkpt>
      <trkpt lat="47.28096" lon="-2.35684">
        <ele>28.60000038147</ele>
        <time>2019-09-05T08:31:30.000Z</time>
      </trkpt>
      <trkpt lat="47.2811" lon="-2.35674">
        <ele>29.39999961853</ele>
        <time>2019-09-05T08:31:37.000Z</time>
      </trkpt>
      <trkpt lat="47.28115" lon="-2.35674">
        <ele>28</ele>
        <time>2019-09-05T08:31:40.000Z</time>
      </trkpt>
      <trkpt lat="47.28115" lon="-2.35674">
        <ele>28</ele>
        <time>2019-09-05T08:31:42.000Z</time>
      </trkpt>
      <trkpt lat="47.28118" lon="-2.35673">
        <ele>31.39999961853</ele>
        <time>2019-09-05T08:31:43.000Z</time>
      </trkpt>
      <trkpt lat="47.2812" lon="-2.35672">
        <ele>32.200000762939</ele>
        <time>2019-09-05T08:31:46.000Z</time>
      </trkpt>
      <trkpt lat="47.28124" lon="-2.35678">
        <ele>32.799999237061</ele>
        <time>2019-09-05T08:31:47.000Z</time>
      </trkpt>
      <trkpt lat="47.28126" lon="-2.35678">
        <ele>33.599998474121</ele>
        <time>2019-09-05T08:31:48.000Z</time>
      </trkpt>
      <trkpt lat="47.28127" lon="-2.35677">
        <ele>33.599998474121</ele>
        <time>2019-09-05T08:31:49.000Z</time>
      </trkpt>
      <trkpt lat="47.28129" lon="-2.35676">
        <ele>33.599998474121</ele>
        <time>2019-09-05T08:31:50.000Z</time>
      </trkpt>
      <trkpt lat="47.28136" lon="-2.35673">
        <ele>33.599998474121</ele>
        <time>2019-09-05T08:31:53.000Z</time>
      </trkpt>
      <trkpt lat="47.28141" lon="-2.35669">
        <ele>33.599998474121</ele>
        <time>2019-09-05T08:31:56.000Z</time>
      </trkpt>
      <trkpt lat="47.28144" lon="-2.35669">
        <ele>33.599998474121</ele>
        <time>2019-09-05T08:31:58.000Z</time>
      </trkpt>
      <trkpt lat="47.28151" lon="-2.35675">
        <ele>33.599998474121</ele>
        <time>2019-09-05T08:32:01.000Z</time>
      </trkpt>
      <trkpt lat="47.28158" lon="-2.35682">
        <ele>33.200000762939</ele>
        <time>2019-09-05T08:32:05.000Z</time>
      </trkpt>
      <trkpt lat="47.2816" lon="-2.35681">
        <ele>32.200000762939</ele>
        <time>2019-09-05T08:32:06.000Z</time>
      </trkpt>
      <trkpt lat="47.2816" lon="-2.35681">
        <ele>32.200000762939</ele>
        <time>2019-09-05T08:32:07.000Z</time>
      </trkpt>
      <trkpt lat="47.28161" lon="-2.35681">
        <ele>31.799999237061</ele>
        <time>2019-09-05T08:32:08.000Z</time>
      </trkpt>
      <trkpt lat="47.28163" lon="-2.35682">
        <ele>31.39999961853</ele>
        <time>2019-09-05T08:32:09.000Z</time>
      </trkpt>
      <trkpt lat="47.28166" lon="-2.35684">
        <ele>31.39999961853</ele>
        <time>2019-09-05T08:32:11.000Z</time>
      </trkpt>
      <trkpt lat="47.28168" lon="-2.35686">
        <ele>31.39999961853</ele>
        <time>2019-09-05T08:32:12.000Z</time>
      </trkpt>
      <trkpt lat="47.28171" lon="-2.35688">
        <ele>31</ele>
        <time>2019-09-05T08:32:13.000Z</time>
      </trkpt>
      <trkpt lat="47.28173" lon="-2.35691">
        <ele>30.39999961853</ele>
        <time>2019-09-05T08:32:14.000Z</time>
      </trkpt>
      <trkpt lat="47.28175" lon="-2.35694">
        <ele>30</ele>
        <time>2019-09-05T08:32:15.000Z</time>
      </trkpt>
      <trkpt lat="47.28177" lon="-2.35698">
        <ele>29.39999961853</ele>
        <time>2019-09-05T08:32:16.000Z</time>
      </trkpt>
      <trkpt lat="47.28179" lon="-2.35701">
        <ele>29</ele>
        <time>2019-09-05T08:32:17.000Z</time>
      </trkpt>
      <trkpt lat="47.2818" lon="-2.35704">
        <ele>28.60000038147</ele>
        <time>2019-09-05T08:32:18.000Z</time>
      </trkpt>
      <trkpt lat="47.28182" lon="-2.35705">
        <ele>28</ele>
        <time>2019-09-05T08:32:19.000Z</time>
      </trkpt>
      <trkpt lat="47.28184" lon="-2.35705">
        <ele>27.60000038147</ele>
        <time>2019-09-05T08:32:20.000Z</time>
      </trkpt>
      <trkpt lat="47.28186" lon="-2.35706">
        <ele>27.200000762939</ele>
        <time>2019-09-05T08:32:21.000Z</time>
      </trkpt>
      <trkpt lat="47.28188" lon="-2.35707">
        <ele>26.60000038147</ele>
        <time>2019-09-05T08:32:22.000Z</time>
      </trkpt>
      <trkpt lat="47.2819" lon="-2.35708">
        <ele>26</ele>
        <time>2019-09-05T08:32:23.000Z</time>
      </trkpt>
      <trkpt lat="47.28192" lon="-2.3571">
        <ele>24.799999237061</ele>
        <time>2019-09-05T08:32:24.000Z</time>
      </trkpt>
      <trkpt lat="47.28194" lon="-2.35713">
        <ele>24.200000762939</ele>
        <time>2019-09-05T08:32:25.000Z</time>
      </trkpt>
      <trkpt lat="47.28197" lon="-2.35718">
        <ele>24.200000762939</ele>
        <time>2019-09-05T08:32:27.000Z</time>
      </trkpt>
      <trkpt lat="47.28208" lon="-2.3572">
        <ele>24.200000762939</ele>
        <time>2019-09-05T08:32:32.000Z</time>
      </trkpt>
      <trkpt lat="47.28223" lon="-2.35715">
        <ele>24.200000762939</ele>
        <time>2019-09-05T08:32:38.000Z</time>
      </trkpt>
      <trkpt lat="47.28238" lon="-2.35715">
        <ele>24.200000762939</ele>
        <time>2019-09-05T08:32:46.000Z</time>
      </trkpt>
      <trkpt lat="47.28242" lon="-2.35722">
        <ele>24.200000762939</ele>
        <time>2019-09-05T08:32:50.000Z</time>
      </trkpt>
      <trkpt lat="47.28242" lon="-2.35726">
        <ele>24.200000762939</ele>
        <time>2019-09-05T08:32:52.000Z</time>
      </trkpt>
      <trkpt lat="47.28241" lon="-2.3573">
        <ele>24.200000762939</ele>
        <time>2019-09-05T08:32:55.000Z</time>
      </trkpt>
      <trkpt lat="47.28243" lon="-2.35741">
        <ele>24.200000762939</ele>
        <time>2019-09-05T08:33:46.000Z</time>
      </trkpt>
      <trkpt lat="47.28245" lon="-2.35745">
        <ele>24.200000762939</ele>
        <time>2019-09-05T08:33:48.000Z</time>
      </trkpt>
      <trkpt lat="47.28251" lon="-2.35756">
        <ele>24.200000762939</ele>
        <time>2019-09-05T08:33:55.000Z</time>
      </trkpt>
      <trkpt lat="47.28256" lon="-2.35769">
        <ele>24.200000762939</ele>
        <time>2019-09-05T08:34:00.000Z</time>
      </trkpt>
      <trkpt lat="47.28261" lon="-2.35771">
        <ele>24.60000038147</ele>
        <time>2019-09-05T08:34:02.000Z</time>
      </trkpt>
      <trkpt lat="47.28263" lon="-2.35774">
        <ele>25.200000762939</ele>
        <time>2019-09-05T08:34:03.000Z</time>
      </trkpt>
      <trkpt lat="47.28266" lon="-2.35775">
        <ele>25.60000038147</ele>
        <time>2019-09-05T08:34:04.000Z</time>
      </trkpt>
      <trkpt lat="47.28268" lon="-2.35776">
        <ele>26</ele>
        <time>2019-09-05T08:34:05.000Z</time>
      </trkpt>
      <trkpt lat="47.2827" lon="-2.35777">
        <ele>26.39999961853</ele>
        <time>2019-09-05T08:34:06.000Z</time>
      </trkpt>
      <trkpt lat="47.28274" lon="-2.35778">
        <ele>26.39999961853</ele>
        <time>2019-09-05T08:34:07.000Z</time>
      </trkpt>
      <trkpt lat="47.28292" lon="-2.35784">
        <ele>26.39999961853</ele>
        <time>2019-09-05T08:34:13.000Z</time>
      </trkpt>
      <trkpt lat="47.28298" lon="-2.35787">
        <ele>26.799999237061</ele>
        <time>2019-09-05T08:34:15.000Z</time>
      </trkpt>
      <trkpt lat="47.283" lon="-2.3579">
        <ele>27.200000762939</ele>
        <time>2019-09-05T08:34:16.000Z</time>
      </trkpt>
      <trkpt lat="47.28303" lon="-2.35793">
        <ele>27.60000038147</ele>
        <time>2019-09-05T08:34:17.000Z</time>
      </trkpt>
      <trkpt lat="47.28305" lon="-2.35797">
        <ele>28.200000762939</ele>
        <time>2019-09-05T08:34:18.000Z</time>
      </trkpt>
      <trkpt lat="47.28307" lon="-2.358">
        <ele>28.60000038147</ele>
        <time>2019-09-05T08:34:19.000Z</time>
      </trkpt>
      <trkpt lat="47.28316" lon="-2.3581">
        <ele>28.60000038147</ele>
        <time>2019-09-05T08:34:24.000Z</time>
      </trkpt>
      <trkpt lat="47.28321" lon="-2.35827">
        <ele>28.60000038147</ele>
        <time>2019-09-05T08:34:30.000Z</time>
      </trkpt>
      <trkpt lat="47.2832" lon="-2.3583">
        <ele>28.60000038147</ele>
        <time>2019-09-05T08:34:31.000Z</time>
      </trkpt>
      <trkpt lat="47.28309" lon="-2.35843">
        <ele>28.60000038147</ele>
        <time>2019-09-05T08:34:36.000Z</time>
      </trkpt>
      <trkpt lat="47.28302" lon="-2.3585">
        <ele>28.200000762939</ele>
        <time>2019-09-05T08:34:38.000Z</time>
      </trkpt>
      <trkpt lat="47.28297" lon="-2.35854">
        <ele>27.799999237061</ele>
        <time>2019-09-05T08:34:39.000Z</time>
      </trkpt>
      <trkpt lat="47.28292" lon="-2.35858">
        <ele>27.39999961853</ele>
        <time>2019-09-05T08:34:40.000Z</time>
      </trkpt>
      <trkpt lat="47.28287" lon="-2.35864">
        <ele>27</ele>
        <time>2019-09-05T08:34:41.000Z</time>
      </trkpt>
      <trkpt lat="47.28282" lon="-2.35868">
        <ele>26.39999961853</ele>
        <time>2019-09-05T08:34:42.000Z</time>
      </trkpt>
      <trkpt lat="47.28265" lon="-2.35881">
        <ele>26.39999961853</ele>
        <time>2019-09-05T08:34:46.000Z</time>
      </trkpt>
      <trkpt lat="47.28257" lon="-2.3589">
        <ele>26.39999961853</ele>
        <time>2019-09-05T08:34:49.000Z</time>
      </trkpt>
      <trkpt lat="47.28256" lon="-2.35894">
        <ele>26.39999961853</ele>
        <time>2019-09-05T08:34:50.000Z</time>
      </trkpt>
      <trkpt lat="47.28259" lon="-2.35908">
        <ele>26.39999961853</ele>
        <time>2019-09-05T08:34:54.000Z</time>
      </trkpt>
      <trkpt lat="47.28269" lon="-2.35926">
        <ele>26</ele>
        <time>2019-09-05T08:34:58.000Z</time>
      </trkpt>
      <trkpt lat="47.28271" lon="-2.35931">
        <ele>25.60000038147</ele>
        <time>2019-09-05T08:34:59.000Z</time>
      </trkpt>
      <trkpt lat="47.28275" lon="-2.35937">
        <ele>25.200000762939</ele>
        <time>2019-09-05T08:35:00.000Z</time>
      </trkpt>
      <trkpt lat="47.28278" lon="-2.35944">
        <ele>24.60000038147</ele>
        <time>2019-09-05T08:35:01.000Z</time>
      </trkpt>
      <trkpt lat="47.28281" lon="-2.3595">
        <ele>24.200000762939</ele>
        <time>2019-09-05T08:35:02.000Z</time>
      </trkpt>
      <trkpt lat="47.28282" lon="-2.35957">
        <ele>24.200000762939</ele>
        <time>2019-09-05T08:35:03.000Z</time>
      </trkpt>
      <trkpt lat="47.28283" lon="-2.35963">
        <ele>24.200000762939</ele>
        <time>2019-09-05T08:35:04.000Z</time>
      </trkpt>
      <trkpt lat="47.28281" lon="-2.35975">
        <ele>24.200000762939</ele>
        <time>2019-09-05T08:35:06.000Z</time>
      </trkpt>
      <trkpt lat="47.2828" lon="-2.35998">
        <ele>24.200000762939</ele>
        <time>2019-09-05T08:35:11.000Z</time>
      </trkpt>
      <trkpt lat="47.28284" lon="-2.36018">
        <ele>24.60000038147</ele>
        <time>2019-09-05T08:35:16.000Z</time>
      </trkpt>
      <trkpt lat="47.28286" lon="-2.36022">
        <ele>25</ele>
        <time>2019-09-05T08:35:17.000Z</time>
      </trkpt>
      <trkpt lat="47.28287" lon="-2.36025">
        <ele>25.39999961853</ele>
        <time>2019-09-05T08:35:18.000Z</time>
      </trkpt>
      <trkpt lat="47.28288" lon="-2.36028">
        <ele>25.799999237061</ele>
        <time>2019-09-05T08:35:19.000Z</time>
      </trkpt>
      <trkpt lat="47.2829" lon="-2.36031">
        <ele>26.200000762939</ele>
        <time>2019-09-05T08:35:20.000Z</time>
      </trkpt>
      <trkpt lat="47.28291" lon="-2.36033">
        <ele>26.799999237061</ele>
        <time>2019-09-05T08:35:21.000Z</time>
      </trkpt>
      <trkpt lat="47.28294" lon="-2.36035">
        <ele>27.200000762939</ele>
        <time>2019-09-05T08:35:22.000Z</time>
      </trkpt>
      <trkpt lat="47.28295" lon="-2.36036">
        <ele>27.60000038147</ele>
        <time>2019-09-05T08:35:23.000Z</time>
      </trkpt>
      <trkpt lat="47.28297" lon="-2.36037">
        <ele>28.200000762939</ele>
        <time>2019-09-05T08:35:24.000Z</time>
      </trkpt>
      <trkpt lat="47.28299" lon="-2.36038">
        <ele>28.60000038147</ele>
        <time>2019-09-05T08:35:25.000Z</time>
      </trkpt>
      <trkpt lat="47.28303" lon="-2.36041">
        <ele>28.60000038147</ele>
        <time>2019-09-05T08:35:27.000Z</time>
      </trkpt>
      <trkpt lat="47.28319" lon="-2.36043">
        <ele>28.60000038147</ele>
        <time>2019-09-05T08:35:34.000Z</time>
      </trkpt>
      <trkpt lat="47.28327" lon="-2.36037">
        <ele>29</ele>
        <time>2019-09-05T08:35:37.000Z</time>
      </trkpt>
      <trkpt lat="47.2833" lon="-2.36035">
        <ele>29.39999961853</ele>
        <time>2019-09-05T08:35:38.000Z</time>
      </trkpt>
      <trkpt lat="47.28333" lon="-2.36033">
        <ele>29.799999237061</ele>
        <time>2019-09-05T08:35:39.000Z</time>
      </trkpt>
      <trkpt lat="47.28336" lon="-2.36031">
        <ele>30.39999961853</ele>
        <time>2019-09-05T08:35:40.000Z</time>
      </trkpt>
      <trkpt lat="47.28338" lon="-2.36029">
        <ele>30.799999237061</ele>
        <time>2019-09-05T08:35:41.000Z</time>
      </trkpt>
      <trkpt lat="47.28352" lon="-2.36024">
        <ele>31.200000762939</ele>
        <time>2019-09-05T08:35:47.000Z</time>
      </trkpt>
      <trkpt lat="47.28354" lon="-2.36024">
        <ele>31.60000038147</ele>
        <time>2019-09-05T08:35:48.000Z</time>
      </trkpt>
      <trkpt lat="47.28355" lon="-2.36025">
        <ele>32</ele>
        <time>2019-09-05T08:35:49.000Z</time>
      </trkpt>
      <trkpt lat="47.28358" lon="-2.36026">
        <ele>32.400001525879</ele>
        <time>2019-09-05T08:35:50.000Z</time>
      </trkpt>
      <trkpt lat="47.2836" lon="-2.36025">
        <ele>32.799999237061</ele>
        <time>2019-09-05T08:35:51.000Z</time>
      </trkpt>
      <trkpt lat="47.28366" lon="-2.36025">
        <ele>32.799999237061</ele>
        <time>2019-09-05T08:35:53.000Z</time>
      </trkpt>
      <trkpt lat="47.28368" lon="-2.36025">
        <ele>33.200000762939</ele>
        <time>2019-09-05T08:35:54.000Z</time>
      </trkpt>
      <trkpt lat="47.28371" lon="-2.36024">
        <ele>33.599998474121</ele>
        <time>2019-09-05T08:35:55.000Z</time>
      </trkpt>
      <trkpt lat="47.28374" lon="-2.36024">
        <ele>34</ele>
        <time>2019-09-05T08:35:56.000Z</time>
      </trkpt>
      <trkpt lat="47.28376" lon="-2.36024">
        <ele>34.400001525879</ele>
        <time>2019-09-05T08:35:57.000Z</time>
      </trkpt>
      <trkpt lat="47.28379" lon="-2.36025">
        <ele>34.799999237061</ele>
        <time>2019-09-05T08:35:58.000Z</time>
      </trkpt>
      <trkpt lat="47.28383" lon="-2.36024">
        <ele>34.799999237061</ele>
        <time>2019-09-05T08:36:00.000Z</time>
      </trkpt>
      <trkpt lat="47.28387" lon="-2.36024">
        <ele>35.400001525879</ele>
        <time>2019-09-05T08:36:02.000Z</time>
      </trkpt>
      <trkpt lat="47.28389" lon="-2.36023">
        <ele>35.799999237061</ele>
        <time>2019-09-05T08:36:03.000Z</time>
      </trkpt>
      <trkpt lat="47.28393" lon="-2.36022">
        <ele>37</ele>
        <time>2019-09-05T08:36:04.000Z</time>
      </trkpt>
      <trkpt lat="47.28399" lon="-2.3602">
        <ele>37</ele>
        <time>2019-09-05T08:36:08.000Z</time>
      </trkpt>
      <trkpt lat="47.28412" lon="-2.36007">
        <ele>37</ele>
        <time>2019-09-05T08:36:14.000Z</time>
      </trkpt>
      <trkpt lat="47.28434" lon="-2.35997">
        <ele>37</ele>
        <time>2019-09-05T08:36:21.000Z</time>
      </trkpt>
      <trkpt lat="47.28451" lon="-2.36006">
        <ele>37</ele>
        <time>2019-09-05T08:36:27.000Z</time>
      </trkpt>
      <trkpt lat="47.28461" lon="-2.36018">
        <ele>38.799999237061</ele>
        <time>2019-09-05T08:36:29.000Z</time>
      </trkpt>
      <trkpt lat="47.28464" lon="-2.36021">
        <ele>39.200000762939</ele>
        <time>2019-09-05T08:36:32.000Z</time>
      </trkpt>
      <trkpt lat="47.28467" lon="-2.36025">
        <ele>39.200000762939</ele>
        <time>2019-09-05T08:36:33.000Z</time>
      </trkpt>
      <trkpt lat="47.28483" lon="-2.36032">
        <ele>39.200000762939</ele>
        <time>2019-09-05T08:36:38.000Z</time>
      </trkpt>
      <trkpt lat="47.285" lon="-2.36048">
        <ele>39.200000762939</ele>
        <time>2019-09-05T08:36:42.000Z</time>
      </trkpt>
      <trkpt lat="47.28519" lon="-2.36077">
        <ele>39.200000762939</ele>
        <time>2019-09-05T08:36:48.000Z</time>
      </trkpt>
      <trkpt lat="47.28535" lon="-2.36111">
        <ele>39.200000762939</ele>
        <time>2019-09-05T08:36:54.000Z</time>
      </trkpt>
      <trkpt lat="47.28552" lon="-2.36149">
        <ele>39.200000762939</ele>
        <time>2019-09-05T08:37:00.000Z</time>
      </trkpt>
      <trkpt lat="47.28557" lon="-2.3615">
        <ele>39.200000762939</ele>
        <time>2019-09-05T08:37:03.000Z</time>
      </trkpt>
      <trkpt lat="47.28569" lon="-2.36144">
        <ele>39.599998474121</ele>
        <time>2019-09-05T08:37:09.000Z</time>
      </trkpt>
      <trkpt lat="47.28571" lon="-2.36143">
        <ele>40.200000762939</ele>
        <time>2019-09-05T08:37:10.000Z</time>
      </trkpt>
      <trkpt lat="47.28573" lon="-2.36143">
        <ele>40.599998474121</ele>
        <time>2019-09-05T08:37:11.000Z</time>
      </trkpt>
      <trkpt lat="47.28575" lon="-2.36143">
        <ele>41</ele>
        <time>2019-09-05T08:37:12.000Z</time>
      </trkpt>
      <trkpt lat="47.28576" lon="-2.36144">
        <ele>41.599998474121</ele>
        <time>2019-09-05T08:37:13.000Z</time>
      </trkpt>
      <trkpt lat="47.2858" lon="-2.36146">
        <ele>41.599998474121</ele>
        <time>2019-09-05T08:37:15.000Z</time>
      </trkpt>
      <trkpt lat="47.28596" lon="-2.3615">
        <ele>41.599998474121</ele>
        <time>2019-09-05T08:37:22.000Z</time>
      </trkpt>
      <trkpt lat="47.28607" lon="-2.36143">
        <ele>41.599998474121</ele>
        <time>2019-09-05T08:37:27.000Z</time>
      </trkpt>
      <trkpt lat="47.28618" lon="-2.36138">
        <ele>41.599998474121</ele>
        <time>2019-09-05T08:37:35.000Z</time>
      </trkpt>
      <trkpt lat="47.28623" lon="-2.36132">
        <ele>41.599998474121</ele>
        <time>2019-09-05T08:37:38.000Z</time>
      </trkpt>
      <trkpt lat="47.28627" lon="-2.36123">
        <ele>41.599998474121</ele>
        <time>2019-09-05T08:37:40.000Z</time>
      </trkpt>
      <trkpt lat="47.28633" lon="-2.36112">
        <ele>39.799999237061</ele>
        <time>2019-09-05T08:37:42.000Z</time>
      </trkpt>
      <trkpt lat="47.28633" lon="-2.36112">
        <ele>39.799999237061</ele>
        <time>2019-09-05T08:37:44.000Z</time>
      </trkpt>
      <trkpt lat="47.28636" lon="-2.36102">
        <ele>37.799999237061</ele>
        <time>2019-09-05T08:37:45.000Z</time>
      </trkpt>
      <trkpt lat="47.28636" lon="-2.36102">
        <ele>37.799999237061</ele>
        <time>2019-09-05T08:37:47.000Z</time>
      </trkpt>
      <trkpt lat="47.28637" lon="-2.36099">
        <ele>37</ele>
        <time>2019-09-05T08:37:48.000Z</time>
      </trkpt>
      <trkpt lat="47.28639" lon="-2.36095">
        <ele>36.200000762939</ele>
        <time>2019-09-05T08:37:49.000Z</time>
      </trkpt>
      <trkpt lat="47.28641" lon="-2.36093">
        <ele>35.599998474121</ele>
        <time>2019-09-05T08:37:50.000Z</time>
      </trkpt>
      <trkpt lat="47.28644" lon="-2.36094">
        <ele>34.799999237061</ele>
        <time>2019-09-05T08:37:51.000Z</time>
      </trkpt>
      <trkpt lat="47.28647" lon="-2.36097">
        <ele>34</ele>
        <time>2019-09-05T08:37:52.000Z</time>
      </trkpt>
      <trkpt lat="47.28652" lon="-2.36105">
        <ele>34</ele>
        <time>2019-09-05T08:37:54.000Z</time>
      </trkpt>
      <trkpt lat="47.28655" lon="-2.3611">
        <ele>34</ele>
        <time>2019-09-05T08:37:55.000Z</time>
      </trkpt>
      <trkpt lat="47.28659" lon="-2.36121">
        <ele>34</ele>
        <time>2019-09-05T08:37:57.000Z</time>
      </trkpt>
      <trkpt lat="47.28667" lon="-2.36145">
        <ele>34</ele>
        <time>2019-09-05T08:38:01.000Z</time>
      </trkpt>
      <trkpt lat="47.28668" lon="-2.36151">
        <ele>34</ele>
        <time>2019-09-05T08:38:02.000Z</time>
      </trkpt>
      <trkpt lat="47.28671" lon="-2.36165">
        <ele>34</ele>
        <time>2019-09-05T08:38:05.000Z</time>
      </trkpt>
      <trkpt lat="47.28674" lon="-2.36177">
        <ele>34</ele>
        <time>2019-09-05T08:38:10.000Z</time>
      </trkpt>
      <trkpt lat="47.28683" lon="-2.36191">
        <ele>34</ele>
        <time>2019-09-05T08:38:15.000Z</time>
      </trkpt>
      <trkpt lat="47.28693" lon="-2.36213">
        <ele>34</ele>
        <time>2019-09-05T08:38:20.000Z</time>
      </trkpt>
      <trkpt lat="47.28711" lon="-2.36218">
        <ele>34</ele>
        <time>2019-09-05T08:38:25.000Z</time>
      </trkpt>
      <trkpt lat="47.28731" lon="-2.36209">
        <ele>34</ele>
        <time>2019-09-05T08:38:30.000Z</time>
      </trkpt>
      <trkpt lat="47.28749" lon="-2.36214">
        <ele>33.599998474121</ele>
        <time>2019-09-05T08:38:34.000Z</time>
      </trkpt>
      <trkpt lat="47.28753" lon="-2.36214">
        <ele>33.200000762939</ele>
        <time>2019-09-05T08:38:35.000Z</time>
      </trkpt>
      <trkpt lat="47.28758" lon="-2.36212">
        <ele>32.799999237061</ele>
        <time>2019-09-05T08:38:36.000Z</time>
      </trkpt>
      <trkpt lat="47.28764" lon="-2.36209">
        <ele>32.400001525879</ele>
        <time>2019-09-05T08:38:37.000Z</time>
      </trkpt>
      <trkpt lat="47.2877" lon="-2.36205">
        <ele>32</ele>
        <time>2019-09-05T08:38:38.000Z</time>
      </trkpt>
      <trkpt lat="47.28808" lon="-2.36182">
        <ele>32</ele>
        <time>2019-09-05T08:38:44.000Z</time>
      </trkpt>
      <trkpt lat="47.28814" lon="-2.36178">
        <ele>32</ele>
        <time>2019-09-05T08:38:45.000Z</time>
      </trkpt>
      <trkpt lat="47.28828" lon="-2.36159">
        <ele>32</ele>
        <time>2019-09-05T08:38:48.000Z</time>
      </trkpt>
      <trkpt lat="47.28832" lon="-2.36152">
        <ele>32</ele>
        <time>2019-09-05T08:38:49.000Z</time>
      </trkpt>
      <trkpt lat="47.28853" lon="-2.36126">
        <ele>32</ele>
        <time>2019-09-05T08:38:54.000Z</time>
      </trkpt>
      <trkpt lat="47.28895" lon="-2.3609">
        <ele>32</ele>
        <time>2019-09-05T08:39:03.000Z</time>
      </trkpt>
      <trkpt lat="47.28932" lon="-2.36059">
        <ele>32</ele>
        <time>2019-09-05T08:39:11.000Z</time>
      </trkpt>
      <trkpt lat="47.28936" lon="-2.36056">
        <ele>32</ele>
        <time>2019-09-05T08:39:12.000Z</time>
      </trkpt>
      <trkpt lat="47.28975" lon="-2.36024">
        <ele>32</ele>
        <time>2019-09-05T08:39:20.000Z</time>
      </trkpt>
      <trkpt lat="47.29007" lon="-2.35993">
        <ele>32</ele>
        <time>2019-09-05T08:39:27.000Z</time>
      </trkpt>
      <trkpt lat="47.29043" lon="-2.35952">
        <ele>32</ele>
        <time>2019-09-05T08:39:35.000Z</time>
      </trkpt>
      <trkpt lat="47.29084" lon="-2.35904">
        <ele>32</ele>
        <time>2019-09-05T08:39:44.000Z</time>
      </trkpt>
      <trkpt lat="47.2912" lon="-2.35863">
        <ele>32</ele>
        <time>2019-09-05T08:39:52.000Z</time>
      </trkpt>
      <trkpt lat="47.29152" lon="-2.3583">
        <ele>32</ele>
        <time>2019-09-05T08:39:59.000Z</time>
      </trkpt>
      <trkpt lat="47.29156" lon="-2.35826">
        <ele>32</ele>
        <time>2019-09-05T08:40:00.000Z</time>
      </trkpt>
      <trkpt lat="47.2918" lon="-2.35811">
        <ele>32</ele>
        <time>2019-09-05T08:40:05.000Z</time>
      </trkpt>
      <trkpt lat="47.29216" lon="-2.35784">
        <ele>32</ele>
        <time>2019-09-05T08:40:13.000Z</time>
      </trkpt>
      <trkpt lat="47.2924" lon="-2.35759">
        <ele>32</ele>
        <time>2019-09-05T08:40:20.000Z</time>
      </trkpt>
      <trkpt lat="47.29251" lon="-2.35736">
        <ele>32</ele>
        <time>2019-09-05T08:40:26.000Z</time>
      </trkpt>
      <trkpt lat="47.29256" lon="-2.35725">
        <ele>32</ele>
        <time>2019-09-05T08:40:32.000Z</time>
      </trkpt>
      <trkpt lat="47.29268" lon="-2.35734">
        <ele>32</ele>
        <time>2019-09-05T08:40:36.000Z</time>
      </trkpt>
      <trkpt lat="47.29291" lon="-2.35754">
        <ele>32</ele>
        <time>2019-09-05T08:40:42.000Z</time>
      </trkpt>
      <trkpt lat="47.29295" lon="-2.35759">
        <ele>32</ele>
        <time>2019-09-05T08:40:43.000Z</time>
      </trkpt>
      <trkpt lat="47.29316" lon="-2.35779">
        <ele>32</ele>
        <time>2019-09-05T08:40:48.000Z</time>
      </trkpt>
      <trkpt lat="47.29356" lon="-2.35817">
        <ele>32</ele>
        <time>2019-09-05T08:40:55.000Z</time>
      </trkpt>
      <trkpt lat="47.29399" lon="-2.35857">
        <ele>32</ele>
        <time>2019-09-05T08:41:07.000Z</time>
      </trkpt>
      <trkpt lat="47.29427" lon="-2.35891">
        <ele>32</ele>
        <time>2019-09-05T08:41:15.000Z</time>
      </trkpt>
      <trkpt lat="47.29446" lon="-2.35906">
        <ele>31.60000038147</ele>
        <time>2019-09-05T08:41:21.000Z</time>
      </trkpt>
      <trkpt lat="47.2945" lon="-2.35906">
        <ele>31.200000762939</ele>
        <time>2019-09-05T08:41:22.000Z</time>
      </trkpt>
      <trkpt lat="47.29453" lon="-2.35906">
        <ele>30.39999961853</ele>
        <time>2019-09-05T08:41:23.000Z</time>
      </trkpt>
      <trkpt lat="47.29457" lon="-2.35906">
        <ele>30</ele>
        <time>2019-09-05T08:41:24.000Z</time>
      </trkpt>
      <trkpt lat="47.29473" lon="-2.35903">
        <ele>30</ele>
        <time>2019-09-05T08:41:28.000Z</time>
      </trkpt>
      <trkpt lat="47.29497" lon="-2.35904">
        <ele>30</ele>
        <time>2019-09-05T08:41:34.000Z</time>
      </trkpt>
      <trkpt lat="47.295" lon="-2.35908">
        <ele>30</ele>
        <time>2019-09-05T08:41:35.000Z</time>
      </trkpt>
      <trkpt lat="47.29506" lon="-2.35926">
        <ele>30</ele>
        <time>2019-09-05T08:41:38.000Z</time>
      </trkpt>
      <trkpt lat="47.29508" lon="-2.35938">
        <ele>30</ele>
        <time>2019-09-05T08:41:40.000Z</time>
      </trkpt>
      <trkpt lat="47.29511" lon="-2.35943">
        <ele>30</ele>
        <time>2019-09-05T08:41:41.000Z</time>
      </trkpt>
      <trkpt lat="47.29515" lon="-2.35944">
        <ele>30</ele>
        <time>2019-09-05T08:41:42.000Z</time>
      </trkpt>
      <trkpt lat="47.29527" lon="-2.35938">
        <ele>30</ele>
        <time>2019-09-05T08:41:45.000Z</time>
      </trkpt>
      <trkpt lat="47.29531" lon="-2.35936">
        <ele>30</ele>
        <time>2019-09-05T08:41:46.000Z</time>
      </trkpt>
      <trkpt lat="47.29562" lon="-2.35918">
        <ele>30</ele>
        <time>2019-09-05T08:41:52.000Z</time>
      </trkpt>
      <trkpt lat="47.29578" lon="-2.35908">
        <ele>30.39999961853</ele>
        <time>2019-09-05T08:41:55.000Z</time>
      </trkpt>
      <trkpt lat="47.29584" lon="-2.35905">
        <ele>30.799999237061</ele>
        <time>2019-09-05T08:41:56.000Z</time>
      </trkpt>
      <trkpt lat="47.29589" lon="-2.35902">
        <ele>31.200000762939</ele>
        <time>2019-09-05T08:41:57.000Z</time>
      </trkpt>
      <trkpt lat="47.29595" lon="-2.35899">
        <ele>31.60000038147</ele>
        <time>2019-09-05T08:41:58.000Z</time>
      </trkpt>
      <trkpt lat="47.29599" lon="-2.35896">
        <ele>32</ele>
        <time>2019-09-05T08:41:59.000Z</time>
      </trkpt>
      <trkpt lat="47.29637" lon="-2.35874">
        <ele>32</ele>
        <time>2019-09-05T08:42:06.000Z</time>
      </trkpt>
      <trkpt lat="47.29642" lon="-2.3587">
        <ele>32</ele>
        <time>2019-09-05T08:42:07.000Z</time>
      </trkpt>
      <trkpt lat="47.29653" lon="-2.3585">
        <ele>32</ele>
        <time>2019-09-05T08:42:10.000Z</time>
      </trkpt>
      <trkpt lat="47.29665" lon="-2.3584">
        <ele>32</ele>
        <time>2019-09-05T08:42:13.000Z</time>
      </trkpt>
      <trkpt lat="47.29676" lon="-2.35841">
        <ele>32</ele>
        <time>2019-09-05T08:42:15.000Z</time>
      </trkpt>
      <trkpt lat="47.29687" lon="-2.35841">
        <ele>32</ele>
        <time>2019-09-05T08:42:17.000Z</time>
      </trkpt>
      <trkpt lat="47.29693" lon="-2.3584">
        <ele>32</ele>
        <time>2019-09-05T08:42:18.000Z</time>
      </trkpt>
      <trkpt lat="47.29716" lon="-2.3583">
        <ele>32</ele>
        <time>2019-09-05T08:42:22.000Z</time>
      </trkpt>
      <trkpt lat="47.29751" lon="-2.3581">
        <ele>32</ele>
        <time>2019-09-05T08:42:29.000Z</time>
      </trkpt>
      <trkpt lat="47.29765" lon="-2.35805">
        <ele>33</ele>
        <time>2019-09-05T08:42:30.000Z</time>
      </trkpt>
      <trkpt lat="47.29769" lon="-2.35803">
        <ele>33.400001525879</ele>
        <time>2019-09-05T08:42:33.000Z</time>
      </trkpt>
      <trkpt lat="47.29774" lon="-2.35801">
        <ele>34</ele>
        <time>2019-09-05T08:42:34.000Z</time>
      </trkpt>
      <trkpt lat="47.29779" lon="-2.35799">
        <ele>34.400001525879</ele>
        <time>2019-09-05T08:42:35.000Z</time>
      </trkpt>
      <trkpt lat="47.29794" lon="-2.35794">
        <ele>34.400001525879</ele>
        <time>2019-09-05T08:42:38.000Z</time>
      </trkpt>
      <trkpt lat="47.29837" lon="-2.35779">
        <ele>34.400001525879</ele>
        <time>2019-09-05T08:42:46.000Z</time>
      </trkpt>
      <trkpt lat="47.29875" lon="-2.35766">
        <ele>34</ele>
        <time>2019-09-05T08:42:52.000Z</time>
      </trkpt>
      <trkpt lat="47.29881" lon="-2.35764">
        <ele>33.599998474121</ele>
        <time>2019-09-05T08:42:53.000Z</time>
      </trkpt>
      <trkpt lat="47.29886" lon="-2.35762">
        <ele>33</ele>
        <time>2019-09-05T08:42:54.000Z</time>
      </trkpt>
      <trkpt lat="47.29891" lon="-2.3576">
        <ele>32.599998474121</ele>
        <time>2019-09-05T08:42:55.000Z</time>
      </trkpt>
      <trkpt lat="47.29895" lon="-2.35756">
        <ele>32.200000762939</ele>
        <time>2019-09-05T08:42:56.000Z</time>
      </trkpt>
      <trkpt lat="47.29897" lon="-2.35751">
        <ele>32.200000762939</ele>
        <time>2019-09-05T08:42:57.000Z</time>
      </trkpt>
      <trkpt lat="47.29894" lon="-2.35731">
        <ele>32.200000762939</ele>
        <time>2019-09-05T08:43:00.000Z</time>
      </trkpt>
      <trkpt lat="47.29891" lon="-2.35724">
        <ele>32.200000762939</ele>
        <time>2019-09-05T08:43:01.000Z</time>
      </trkpt>
      <trkpt lat="47.29878" lon="-2.35692">
        <ele>32.200000762939</ele>
        <time>2019-09-05T08:43:07.000Z</time>
      </trkpt>
      <trkpt lat="47.29875" lon="-2.35659">
        <ele>32.200000762939</ele>
        <time>2019-09-05T08:43:09.000Z</time>
      </trkpt>
      <trkpt lat="47.29871" lon="-2.35633">
        <ele>32.200000762939</ele>
        <time>2019-09-05T08:43:12.000Z</time>
      </trkpt>
      <trkpt lat="47.29869" lon="-2.35624">
        <ele>32.200000762939</ele>
        <time>2019-09-05T08:43:13.000Z</time>
      </trkpt>
      <trkpt lat="47.29855" lon="-2.35572">
        <ele>32.200000762939</ele>
        <time>2019-09-05T08:43:19.000Z</time>
      </trkpt>
      <trkpt lat="47.29844" lon="-2.35526">
        <ele>31.799999237061</ele>
        <time>2019-09-05T08:43:24.000Z</time>
      </trkpt>
      <trkpt lat="47.29841" lon="-2.35517">
        <ele>31.39999961853</ele>
        <time>2019-09-05T08:43:25.000Z</time>
      </trkpt>
      <trkpt lat="47.29839" lon="-2.35508">
        <ele>31</ele>
        <time>2019-09-05T08:43:26.000Z</time>
      </trkpt>
      <trkpt lat="47.29836" lon="-2.35499">
        <ele>30.200000762939</ele>
        <time>2019-09-05T08:43:27.000Z</time>
      </trkpt>
      <trkpt lat="47.29829" lon="-2.35463">
        <ele>30.200000762939</ele>
        <time>2019-09-05T08:43:31.000Z</time>
      </trkpt>
      <trkpt lat="47.29831" lon="-2.35456">
        <ele>30.200000762939</ele>
        <time>2019-09-05T08:43:32.000Z</time>
      </trkpt>
      <trkpt lat="47.29843" lon="-2.35439">
        <ele>30.200000762939</ele>
        <time>2019-09-05T08:43:35.000Z</time>
      </trkpt>
      <trkpt lat="47.29849" lon="-2.35432">
        <ele>30.200000762939</ele>
        <time>2019-09-05T08:43:36.000Z</time>
      </trkpt>
      <trkpt lat="47.2987" lon="-2.3541">
        <ele>30.200000762939</ele>
        <time>2019-09-05T08:43:40.000Z</time>
      </trkpt>
      <trkpt lat="47.29897" lon="-2.35383">
        <ele>29.799999237061</ele>
        <time>2019-09-05T08:43:45.000Z</time>
      </trkpt>
      <trkpt lat="47.29903" lon="-2.35377">
        <ele>29.39999961853</ele>
        <time>2019-09-05T08:43:46.000Z</time>
      </trkpt>
      <trkpt lat="47.29908" lon="-2.35371">
        <ele>29</ele>
        <time>2019-09-05T08:43:47.000Z</time>
      </trkpt>
      <trkpt lat="47.29913" lon="-2.35364">
        <ele>28.60000038147</ele>
        <time>2019-09-05T08:43:48.000Z</time>
      </trkpt>
      <trkpt lat="47.29919" lon="-2.35358">
        <ele>28.200000762939</ele>
        <time>2019-09-05T08:43:49.000Z</time>
      </trkpt>
      <trkpt lat="47.29939" lon="-2.35332">
        <ele>28.200000762939</ele>
        <time>2019-09-05T08:43:53.000Z</time>
      </trkpt>
      <trkpt lat="47.29972" lon="-2.3529">
        <ele>28.200000762939</ele>
        <time>2019-09-05T08:44:00.000Z</time>
      </trkpt>
      <trkpt lat="47.30001" lon="-2.3526">
        <ele>28.200000762939</ele>
        <time>2019-09-05T08:44:07.000Z</time>
      </trkpt>
      <trkpt lat="47.30017" lon="-2.35251">
        <ele>28.200000762939</ele>
        <time>2019-09-05T08:44:12.000Z</time>
      </trkpt>
      <trkpt lat="47.30021" lon="-2.35248">
        <ele>28.200000762939</ele>
        <time>2019-09-05T08:44:16.000Z</time>
      </trkpt>
      <trkpt lat="47.30023" lon="-2.35248">
        <ele>27.39999961853</ele>
        <time>2019-09-05T08:44:17.000Z</time>
      </trkpt>
      <trkpt lat="47.30024" lon="-2.35247">
        <ele>26.799999237061</ele>
        <time>2019-09-05T08:44:18.000Z</time>
      </trkpt>
      <trkpt lat="47.30026" lon="-2.35246">
        <ele>26.39999961853</ele>
        <time>2019-09-05T08:44:19.000Z</time>
      </trkpt>
      <trkpt lat="47.30027" lon="-2.35245">
        <ele>26</ele>
        <time>2019-09-05T08:44:20.000Z</time>
      </trkpt>
      <trkpt lat="47.30031" lon="-2.35242">
        <ele>26</ele>
        <time>2019-09-05T08:44:22.000Z</time>
      </trkpt>
      <trkpt lat="47.30046" lon="-2.35233">
        <ele>26</ele>
        <time>2019-09-05T08:44:26.000Z</time>
      </trkpt>
      <trkpt lat="47.30072" lon="-2.35219">
        <ele>26</ele>
        <time>2019-09-05T08:44:29.000Z</time>
      </trkpt>
      <trkpt lat="47.30083" lon="-2.35213">
        <ele>26</ele>
        <time>2019-09-05T08:44:33.000Z</time>
      </trkpt>
      <trkpt lat="47.30113" lon="-2.352">
        <ele>26</ele>
        <time>2019-09-05T08:44:38.000Z</time>
      </trkpt>
      <trkpt lat="47.30119" lon="-2.35197">
        <ele>26</ele>
        <time>2019-09-05T08:44:39.000Z</time>
      </trkpt>
      <trkpt lat="47.30131" lon="-2.35193">
        <ele>26</ele>
        <time>2019-09-05T08:44:41.000Z</time>
      </trkpt>
      <trkpt lat="47.30148" lon="-2.3519">
        <ele>26</ele>
        <time>2019-09-05T08:44:44.000Z</time>
      </trkpt>
      <trkpt lat="47.30155" lon="-2.35188">
        <ele>26</ele>
        <time>2019-09-05T08:44:45.000Z</time>
      </trkpt>
      <trkpt lat="47.30165" lon="-2.35179">
        <ele>26</ele>
        <time>2019-09-05T08:44:47.000Z</time>
      </trkpt>
      <trkpt lat="47.30176" lon="-2.35175">
        <ele>26.39999961853</ele>
        <time>2019-09-05T08:44:49.000Z</time>
      </trkpt>
      <trkpt lat="47.30181" lon="-2.35174">
        <ele>26.799999237061</ele>
        <time>2019-09-05T08:44:50.000Z</time>
      </trkpt>
      <trkpt lat="47.30187" lon="-2.35172">
        <ele>27.200000762939</ele>
        <time>2019-09-05T08:44:51.000Z</time>
      </trkpt>
      <trkpt lat="47.30193" lon="-2.35169">
        <ele>27.60000038147</ele>
        <time>2019-09-05T08:44:52.000Z</time>
      </trkpt>
      <trkpt lat="47.30198" lon="-2.35165">
        <ele>28</ele>
        <time>2019-09-05T08:44:53.000Z</time>
      </trkpt>
      <trkpt lat="47.30202" lon="-2.35158">
        <ele>28</ele>
        <time>2019-09-05T08:44:54.000Z</time>
      </trkpt>
      <trkpt lat="47.30205" lon="-2.35134">
        <ele>28</ele>
        <time>2019-09-05T08:44:57.000Z</time>
      </trkpt>
      <trkpt lat="47.30205" lon="-2.35126">
        <ele>28</ele>
        <time>2019-09-05T08:44:58.000Z</time>
      </trkpt>
      <trkpt lat="47.30207" lon="-2.35101">
        <ele>28</ele>
        <time>2019-09-05T08:45:01.000Z</time>
      </trkpt>
      <trkpt lat="47.30207" lon="-2.35092">
        <ele>28.60000038147</ele>
        <time>2019-09-05T08:45:02.000Z</time>
      </trkpt>
      <trkpt lat="47.30207" lon="-2.35084">
        <ele>29</ele>
        <time>2019-09-05T08:45:03.000Z</time>
      </trkpt>
      <trkpt lat="47.30207" lon="-2.35075">
        <ele>29.39999961853</ele>
        <time>2019-09-05T08:45:04.000Z</time>
      </trkpt>
      <trkpt lat="47.30208" lon="-2.35066">
        <ele>29.799999237061</ele>
        <time>2019-09-05T08:45:05.000Z</time>
      </trkpt>
      <trkpt lat="47.30208" lon="-2.35057">
        <ele>30.200000762939</ele>
        <time>2019-09-05T08:45:06.000Z</time>
      </trkpt>
      <trkpt lat="47.30207" lon="-2.35033">
        <ele>30.200000762939</ele>
        <time>2019-09-05T08:45:09.000Z</time>
      </trkpt>
      <trkpt lat="47.30206" lon="-2.35008">
        <ele>30.200000762939</ele>
        <time>2019-09-05T08:45:12.000Z</time>
      </trkpt>
      <trkpt lat="47.30206" lon="-2.34992">
        <ele>30.200000762939</ele>
        <time>2019-09-05T08:45:14.000Z</time>
      </trkpt>
      <trkpt lat="47.30206" lon="-2.34984">
        <ele>30.200000762939</ele>
        <time>2019-09-05T08:45:15.000Z</time>
      </trkpt>
      <trkpt lat="47.30207" lon="-2.3496">
        <ele>30.60000038147</ele>
        <time>2019-09-05T08:45:18.000Z</time>
      </trkpt>
      <trkpt lat="47.30207" lon="-2.34952">
        <ele>31</ele>
        <time>2019-09-05T08:45:19.000Z</time>
      </trkpt>
      <trkpt lat="47.30207" lon="-2.34927">
        <ele>32.400001525879</ele>
        <time>2019-09-05T08:45:20.000Z</time>
      </trkpt>
      <trkpt lat="47.30207" lon="-2.34927">
        <ele>32.400001525879</ele>
        <time>2019-09-05T08:45:21.000Z</time>
      </trkpt>
      <trkpt lat="47.30208" lon="-2.3492">
        <ele>32.400001525879</ele>
        <time>2019-09-05T08:45:22.000Z</time>
      </trkpt>
      <trkpt lat="47.30211" lon="-2.34906">
        <ele>32.400001525879</ele>
        <time>2019-09-05T08:45:24.000Z</time>
      </trkpt>
      <trkpt lat="47.30214" lon="-2.349">
        <ele>32.400001525879</ele>
        <time>2019-09-05T08:45:25.000Z</time>
      </trkpt>
      <trkpt lat="47.30226" lon="-2.34888">
        <ele>32.400001525879</ele>
        <time>2019-09-05T08:45:28.000Z</time>
      </trkpt>
      <trkpt lat="47.3024" lon="-2.34874">
        <ele>32.400001525879</ele>
        <time>2019-09-05T08:45:31.000Z</time>
      </trkpt>
      <trkpt lat="47.30245" lon="-2.34871">
        <ele>32.400001525879</ele>
        <time>2019-09-05T08:45:32.000Z</time>
      </trkpt>
      <trkpt lat="47.30279" lon="-2.34854">
        <ele>32.799999237061</ele>
        <time>2019-09-05T08:45:38.000Z</time>
      </trkpt>
      <trkpt lat="47.30284" lon="-2.3485">
        <ele>33.200000762939</ele>
        <time>2019-09-05T08:45:39.000Z</time>
      </trkpt>
      <trkpt lat="47.30289" lon="-2.34847">
        <ele>33.599998474121</ele>
        <time>2019-09-05T08:45:40.000Z</time>
      </trkpt>
      <trkpt lat="47.30293" lon="-2.34842">
        <ele>34</ele>
        <time>2019-09-05T08:45:41.000Z</time>
      </trkpt>
      <trkpt lat="47.30307" lon="-2.34825">
        <ele>34.400001525879</ele>
        <time>2019-09-05T08:45:42.000Z</time>
      </trkpt>
      <trkpt lat="47.30307" lon="-2.34825">
        <ele>34.400001525879</ele>
        <time>2019-09-05T08:45:45.000Z</time>
      </trkpt>
      <trkpt lat="47.30315" lon="-2.34813">
        <ele>34.400001525879</ele>
        <time>2019-09-05T08:45:47.000Z</time>
      </trkpt>
      <trkpt lat="47.30329" lon="-2.34786">
        <ele>34.400001525879</ele>
        <time>2019-09-05T08:45:51.000Z</time>
      </trkpt>
      <trkpt lat="47.30337" lon="-2.34775">
        <ele>34.400001525879</ele>
        <time>2019-09-05T08:45:53.000Z</time>
      </trkpt>
      <trkpt lat="47.3035" lon="-2.34765">
        <ele>34.400001525879</ele>
        <time>2019-09-05T08:45:56.000Z</time>
      </trkpt>
      <trkpt lat="47.30355" lon="-2.34762">
        <ele>34.400001525879</ele>
        <time>2019-09-05T08:45:57.000Z</time>
      </trkpt>
      <trkpt lat="47.3038" lon="-2.34748">
        <ele>34.400001525879</ele>
        <time>2019-09-05T08:46:01.000Z</time>
      </trkpt>
      <trkpt lat="47.30386" lon="-2.34745">
        <ele>34.400001525879</ele>
        <time>2019-09-05T08:46:02.000Z</time>
      </trkpt>
      <trkpt lat="47.30411" lon="-2.3473">
        <ele>34.400001525879</ele>
        <time>2019-09-05T08:46:06.000Z</time>
      </trkpt>
      <trkpt lat="47.30448" lon="-2.34694">
        <ele>34.400001525879</ele>
        <time>2019-09-05T08:46:13.000Z</time>
      </trkpt>
      <trkpt lat="47.30487" lon="-2.34652">
        <ele>34.400001525879</ele>
        <time>2019-09-05T08:46:20.000Z</time>
      </trkpt>
      <trkpt lat="47.30507" lon="-2.34617">
        <ele>34.400001525879</ele>
        <time>2019-09-05T08:46:25.000Z</time>
      </trkpt>
      <trkpt lat="47.30512" lon="-2.34611">
        <ele>34.400001525879</ele>
        <time>2019-09-05T08:46:26.000Z</time>
      </trkpt>
      <trkpt lat="47.30526" lon="-2.34596">
        <ele>34.400001525879</ele>
        <time>2019-09-05T08:46:29.000Z</time>
      </trkpt>
      <trkpt lat="47.30539" lon="-2.34577">
        <ele>34.400001525879</ele>
        <time>2019-09-05T08:46:32.000Z</time>
      </trkpt>
      <trkpt lat="47.30547" lon="-2.34566">
        <ele>34.400001525879</ele>
        <time>2019-09-05T08:46:34.000Z</time>
      </trkpt>
      <trkpt lat="47.3056" lon="-2.34544">
        <ele>34.400001525879</ele>
        <time>2019-09-05T08:46:39.000Z</time>
      </trkpt>
      <trkpt lat="47.3056" lon="-2.34539">
        <ele>34.400001525879</ele>
        <time>2019-09-05T08:46:40.000Z</time>
      </trkpt>
      <trkpt lat="47.30559" lon="-2.34532">
        <ele>34.400001525879</ele>
        <time>2019-09-05T08:46:42.000Z</time>
      </trkpt>
      <trkpt lat="47.3055" lon="-2.34521">
        <ele>34.400001525879</ele>
        <time>2019-09-05T08:46:47.000Z</time>
      </trkpt>
      <trkpt lat="47.30547" lon="-2.34519">
        <ele>34.400001525879</ele>
        <time>2019-09-05T08:46:48.000Z</time>
      </trkpt>
      <trkpt lat="47.30533" lon="-2.34503">
        <ele>34.400001525879</ele>
        <time>2019-09-05T08:46:53.000Z</time>
      </trkpt>
      <trkpt lat="47.30517" lon="-2.3449">
        <ele>34.400001525879</ele>
        <time>2019-09-05T08:46:58.000Z</time>
      </trkpt>
      <trkpt lat="47.30509" lon="-2.34473">
        <ele>34.400001525879</ele>
        <time>2019-09-05T08:47:02.000Z</time>
      </trkpt>
      <trkpt lat="47.30508" lon="-2.34467">
        <ele>34.400001525879</ele>
        <time>2019-09-05T08:47:03.000Z</time>
      </trkpt>
      <trkpt lat="47.30505" lon="-2.34435">
        <ele>34.400001525879</ele>
        <time>2019-09-05T08:47:08.000Z</time>
      </trkpt>
      <trkpt lat="47.30509" lon="-2.34416">
        <ele>34.400001525879</ele>
        <time>2019-09-05T08:47:11.000Z</time>
      </trkpt>
      <trkpt lat="47.30511" lon="-2.34409">
        <ele>34.400001525879</ele>
        <time>2019-09-05T08:47:12.000Z</time>
      </trkpt>
      <trkpt lat="47.30516" lon="-2.3439">
        <ele>34.400001525879</ele>
        <time>2019-09-05T08:47:15.000Z</time>
      </trkpt>
      <trkpt lat="47.30517" lon="-2.34367">
        <ele>34.400001525879</ele>
        <time>2019-09-05T08:47:18.000Z</time>
      </trkpt>
      <trkpt lat="47.30511" lon="-2.3433">
        <ele>34.400001525879</ele>
        <time>2019-09-05T08:47:23.000Z</time>
      </trkpt>
      <trkpt lat="47.30498" lon="-2.343">
        <ele>34.400001525879</ele>
        <time>2019-09-05T08:47:27.000Z</time>
      </trkpt>
      <trkpt lat="47.30491" lon="-2.34278">
        <ele>34.400001525879</ele>
        <time>2019-09-05T08:47:28.000Z</time>
      </trkpt>
      <trkpt lat="47.30488" lon="-2.3426">
        <ele>34.400001525879</ele>
        <time>2019-09-05T08:47:33.000Z</time>
      </trkpt>
      <trkpt lat="47.3049" lon="-2.34254">
        <ele>34.400001525879</ele>
        <time>2019-09-05T08:47:34.000Z</time>
      </trkpt>
      <trkpt lat="47.30495" lon="-2.34241">
        <ele>34.400001525879</ele>
        <time>2019-09-05T08:47:36.000Z</time>
      </trkpt>
      <trkpt lat="47.30498" lon="-2.34234">
        <ele>34.400001525879</ele>
        <time>2019-09-05T08:47:37.000Z</time>
      </trkpt>
      <trkpt lat="47.30508" lon="-2.34206">
        <ele>34.400001525879</ele>
        <time>2019-09-05T08:47:41.000Z</time>
      </trkpt>
      <trkpt lat="47.30512" lon="-2.342">
        <ele>34.400001525879</ele>
        <time>2019-09-05T08:47:42.000Z</time>
      </trkpt>
      <trkpt lat="47.30527" lon="-2.34189">
        <ele>34.400001525879</ele>
        <time>2019-09-05T08:47:45.000Z</time>
      </trkpt>
      <trkpt lat="47.30544" lon="-2.34175">
        <ele>34.400001525879</ele>
        <time>2019-09-05T08:47:49.000Z</time>
      </trkpt>
      <trkpt lat="47.30553" lon="-2.34164">
        <ele>34.400001525879</ele>
        <time>2019-09-05T08:47:51.000Z</time>
      </trkpt>
      <trkpt lat="47.30585" lon="-2.34122">
        <ele>34.400001525879</ele>
        <time>2019-09-05T08:47:56.000Z</time>
      </trkpt>
      <trkpt lat="47.30585" lon="-2.34122">
        <ele>34.400001525879</ele>
        <time>2019-09-05T08:47:59.000Z</time>
      </trkpt>
      <trkpt lat="47.30601" lon="-2.34087">
        <ele>34.400001525879</ele>
        <time>2019-09-05T08:48:05.000Z</time>
      </trkpt>
      <trkpt lat="47.30609" lon="-2.34079">
        <ele>34.400001525879</ele>
        <time>2019-09-05T08:48:07.000Z</time>
      </trkpt>
      <trkpt lat="47.30637" lon="-2.34061">
        <ele>34.400001525879</ele>
        <time>2019-09-05T08:48:14.000Z</time>
      </trkpt>
      <trkpt lat="47.30641" lon="-2.34058">
        <ele>34.400001525879</ele>
        <time>2019-09-05T08:48:15.000Z</time>
      </trkpt>
      <trkpt lat="47.30645" lon="-2.34056">
        <ele>34</ele>
        <time>2019-09-05T08:48:16.000Z</time>
      </trkpt>
      <trkpt lat="47.30648" lon="-2.34053">
        <ele>33.599998474121</ele>
        <time>2019-09-05T08:48:17.000Z</time>
      </trkpt>
      <trkpt lat="47.30652" lon="-2.34052">
        <ele>33.200000762939</ele>
        <time>2019-09-05T08:48:18.000Z</time>
      </trkpt>
      <trkpt lat="47.30656" lon="-2.3405">
        <ele>32.799999237061</ele>
        <time>2019-09-05T08:48:19.000Z</time>
      </trkpt>
      <trkpt lat="47.30659" lon="-2.34046">
        <ele>32.400001525879</ele>
        <time>2019-09-05T08:48:20.000Z</time>
      </trkpt>
      <trkpt lat="47.30669" lon="-2.34035">
        <ele>32.400001525879</ele>
        <time>2019-09-05T08:48:23.000Z</time>
      </trkpt>
      <trkpt lat="47.30685" lon="-2.34022">
        <ele>32.400001525879</ele>
        <time>2019-09-05T08:48:26.000Z</time>
      </trkpt>
      <trkpt lat="47.30689" lon="-2.34022">
        <ele>32.400001525879</ele>
        <time>2019-09-05T08:48:29.000Z</time>
      </trkpt>
      <trkpt lat="47.30711" lon="-2.3402">
        <ele>32.400001525879</ele>
        <time>2019-09-05T08:48:35.000Z</time>
      </trkpt>
      <trkpt lat="47.30719" lon="-2.34012">
        <ele>32.400001525879</ele>
        <time>2019-09-05T08:48:38.000Z</time>
      </trkpt>
      <trkpt lat="47.30719" lon="-2.34006">
        <ele>32.400001525879</ele>
        <time>2019-09-05T08:48:39.000Z</time>
      </trkpt>
      <trkpt lat="47.30724" lon="-2.33987">
        <ele>32.400001525879</ele>
        <time>2019-09-05T08:48:43.000Z</time>
      </trkpt>
      <trkpt lat="47.30739" lon="-2.33979">
        <ele>32.400001525879</ele>
        <time>2019-09-05T08:48:47.000Z</time>
      </trkpt>
      <trkpt lat="47.30751" lon="-2.33977">
        <ele>32.400001525879</ele>
        <time>2019-09-05T08:48:50.000Z</time>
      </trkpt>
      <trkpt lat="47.30767" lon="-2.33976">
        <ele>32.400001525879</ele>
        <time>2019-09-05T08:48:55.000Z</time>
      </trkpt>
      <trkpt lat="47.30772" lon="-2.33977">
        <ele>32.400001525879</ele>
        <time>2019-09-05T08:49:00.000Z</time>
      </trkpt>
      <trkpt lat="47.30777" lon="-2.33977">
        <ele>32.400001525879</ele>
        <time>2019-09-05T09:00:25.000Z</time>
      </trkpt>
      <trkpt lat="47.30781" lon="-2.33974">
        <ele>32.400001525879</ele>
        <time>2019-09-05T09:00:28.000Z</time>
      </trkpt>
      <trkpt lat="47.30798" lon="-2.33967">
        <ele>32.400001525879</ele>
        <time>2019-09-05T09:00:34.000Z</time>
      </trkpt>
      <trkpt lat="47.30824" lon="-2.33956">
        <ele>32.400001525879</ele>
        <time>2019-09-05T09:00:39.000Z</time>
      </trkpt>
      <trkpt lat="47.30854" lon="-2.33952">
        <ele>32.400001525879</ele>
        <time>2019-09-05T09:00:48.000Z</time>
      </trkpt>
      <trkpt lat="47.30891" lon="-2.33948">
        <ele>32.400001525879</ele>
        <time>2019-09-05T09:00:56.000Z</time>
      </trkpt>
      <trkpt lat="47.30931" lon="-2.33948">
        <ele>32.400001525879</ele>
        <time>2019-09-05T09:01:05.000Z</time>
      </trkpt>
      <trkpt lat="47.30963" lon="-2.33954">
        <ele>32.400001525879</ele>
        <time>2019-09-05T09:01:12.000Z</time>
      </trkpt>
      <trkpt lat="47.30977" lon="-2.33956">
        <ele>32.400001525879</ele>
        <time>2019-09-05T09:01:15.000Z</time>
      </trkpt>
      <trkpt lat="47.30991" lon="-2.33956">
        <ele>32.400001525879</ele>
        <time>2019-09-05T09:01:18.000Z</time>
      </trkpt>
      <trkpt lat="47.31024" lon="-2.33952">
        <ele>32</ele>
        <time>2019-09-05T09:01:25.000Z</time>
      </trkpt>
      <trkpt lat="47.31029" lon="-2.33952">
        <ele>31.60000038147</ele>
        <time>2019-09-05T09:01:26.000Z</time>
      </trkpt>
      <trkpt lat="47.31034" lon="-2.33951">
        <ele>31.200000762939</ele>
        <time>2019-09-05T09:01:27.000Z</time>
      </trkpt>
      <trkpt lat="47.3104" lon="-2.33949">
        <ele>30.799999237061</ele>
        <time>2019-09-05T09:01:28.000Z</time>
      </trkpt>
      <trkpt lat="47.31045" lon="-2.33947">
        <ele>30.200000762939</ele>
        <time>2019-09-05T09:01:29.000Z</time>
      </trkpt>
      <trkpt lat="47.3105" lon="-2.33946">
        <ele>30.200000762939</ele>
        <time>2019-09-05T09:01:30.000Z</time>
      </trkpt>
      <trkpt lat="47.31055" lon="-2.33946">
        <ele>30.200000762939</ele>
        <time>2019-09-05T09:01:31.000Z</time>
      </trkpt>
      <trkpt lat="47.31062" lon="-2.33953">
        <ele>30.200000762939</ele>
        <time>2019-09-05T09:01:33.000Z</time>
      </trkpt>
      <trkpt lat="47.31066" lon="-2.33975">
        <ele>30.200000762939</ele>
        <time>2019-09-05T09:01:37.000Z</time>
      </trkpt>
      <trkpt lat="47.31069" lon="-2.34028">
        <ele>30.200000762939</ele>
        <time>2019-09-05T09:01:44.000Z</time>
      </trkpt>
      <trkpt lat="47.31075" lon="-2.34072">
        <ele>30.200000762939</ele>
        <time>2019-09-05T09:01:50.000Z</time>
      </trkpt>
      <trkpt lat="47.31083" lon="-2.34094">
        <ele>29.799999237061</ele>
        <time>2019-09-05T09:01:53.000Z</time>
      </trkpt>
      <trkpt lat="47.31085" lon="-2.34102">
        <ele>29.39999961853</ele>
        <time>2019-09-05T09:01:54.000Z</time>
      </trkpt>
      <trkpt lat="47.31089" lon="-2.34109">
        <ele>29</ele>
        <time>2019-09-05T09:01:55.000Z</time>
      </trkpt>
      <trkpt lat="47.31092" lon="-2.34117">
        <ele>28.60000038147</ele>
        <time>2019-09-05T09:01:56.000Z</time>
      </trkpt>
      <trkpt lat="47.31096" lon="-2.34125">
        <ele>28.200000762939</ele>
        <time>2019-09-05T09:01:57.000Z</time>
      </trkpt>
      <trkpt lat="47.31104" lon="-2.34142">
        <ele>27.799999237061</ele>
        <time>2019-09-05T09:01:59.000Z</time>
      </trkpt>
      <trkpt lat="47.31121" lon="-2.34177">
        <ele>26.200000762939</ele>
        <time>2019-09-05T09:02:00.000Z</time>
      </trkpt>
      <trkpt lat="47.31121" lon="-2.34177">
        <ele>26.200000762939</ele>
        <time>2019-09-05T09:02:02.000Z</time>
      </trkpt>
      <trkpt lat="47.31126" lon="-2.34186">
        <ele>25.60000038147</ele>
        <time>2019-09-05T09:02:03.000Z</time>
      </trkpt>
      <trkpt lat="47.3113" lon="-2.34195">
        <ele>25.200000762939</ele>
        <time>2019-09-05T09:02:04.000Z</time>
      </trkpt>
      <trkpt lat="47.31135" lon="-2.34204">
        <ele>24.60000038147</ele>
        <time>2019-09-05T09:02:05.000Z</time>
      </trkpt>
      <trkpt lat="47.31139" lon="-2.34214">
        <ele>24.200000762939</ele>
        <time>2019-09-05T09:02:06.000Z</time>
      </trkpt>
      <trkpt lat="47.31144" lon="-2.34223">
        <ele>23.60000038147</ele>
        <time>2019-09-05T09:02:07.000Z</time>
      </trkpt>
      <trkpt lat="47.31154" lon="-2.34243">
        <ele>23.200000762939</ele>
        <time>2019-09-05T09:02:09.000Z</time>
      </trkpt>
      <trkpt lat="47.31159" lon="-2.34253">
        <ele>22.799999237061</ele>
        <time>2019-09-05T09:02:10.000Z</time>
      </trkpt>
      <trkpt lat="47.31164" lon="-2.34263">
        <ele>22.200000762939</ele>
        <time>2019-09-05T09:02:11.000Z</time>
      </trkpt>
      <trkpt lat="47.31168" lon="-2.34273">
        <ele>21.799999237061</ele>
        <time>2019-09-05T09:02:12.000Z</time>
      </trkpt>
      <trkpt lat="47.31173" lon="-2.34283">
        <ele>21.39999961853</ele>
        <time>2019-09-05T09:02:13.000Z</time>
      </trkpt>
      <trkpt lat="47.31185" lon="-2.34311">
        <ele>21.39999961853</ele>
        <time>2019-09-05T09:02:16.000Z</time>
      </trkpt>
      <trkpt lat="47.3119" lon="-2.3432">
        <ele>21.39999961853</ele>
        <time>2019-09-05T09:02:17.000Z</time>
      </trkpt>
      <trkpt lat="47.31208" lon="-2.3434">
        <ele>21.39999961853</ele>
        <time>2019-09-05T09:02:20.000Z</time>
      </trkpt>
      <trkpt lat="47.31228" lon="-2.3435">
        <ele>21.39999961853</ele>
        <time>2019-09-05T09:02:23.000Z</time>
      </trkpt>
      <trkpt lat="47.31235" lon="-2.34352">
        <ele>21.39999961853</ele>
        <time>2019-09-05T09:02:24.000Z</time>
      </trkpt>
      <trkpt lat="47.31248" lon="-2.34358">
        <ele>21.39999961853</ele>
        <time>2019-09-05T09:02:26.000Z</time>
      </trkpt>
      <trkpt lat="47.31259" lon="-2.34368">
        <ele>21.39999961853</ele>
        <time>2019-09-05T09:02:28.000Z</time>
      </trkpt>
      <trkpt lat="47.31272" lon="-2.34396">
        <ele>21.39999961853</ele>
        <time>2019-09-05T09:02:32.000Z</time>
      </trkpt>
      <trkpt lat="47.31274" lon="-2.34404">
        <ele>21.39999961853</ele>
        <time>2019-09-05T09:02:33.000Z</time>
      </trkpt>
      <trkpt lat="47.31277" lon="-2.34452">
        <ele>21.39999961853</ele>
        <time>2019-09-05T09:02:38.000Z</time>
      </trkpt>
      <trkpt lat="47.31278" lon="-2.34462">
        <ele>21.799999237061</ele>
        <time>2019-09-05T09:02:39.000Z</time>
      </trkpt>
      <trkpt lat="47.31279" lon="-2.34471">
        <ele>22.200000762939</ele>
        <time>2019-09-05T09:02:40.000Z</time>
      </trkpt>
      <trkpt lat="47.3128" lon="-2.3448">
        <ele>22.799999237061</ele>
        <time>2019-09-05T09:02:41.000Z</time>
      </trkpt>
      <trkpt lat="47.31281" lon="-2.34489">
        <ele>23.200000762939</ele>
        <time>2019-09-05T09:02:42.000Z</time>
      </trkpt>
      <trkpt lat="47.31282" lon="-2.34498">
        <ele>23.60000038147</ele>
        <time>2019-09-05T09:02:43.000Z</time>
      </trkpt>
      <trkpt lat="47.31284" lon="-2.34525">
        <ele>23.60000038147</ele>
        <time>2019-09-05T09:02:46.000Z</time>
      </trkpt>
      <trkpt lat="47.31286" lon="-2.3456">
        <ele>24</ele>
        <time>2019-09-05T09:02:50.000Z</time>
      </trkpt>
      <trkpt lat="47.31287" lon="-2.34569">
        <ele>24.39999961853</ele>
        <time>2019-09-05T09:02:51.000Z</time>
      </trkpt>
      <trkpt lat="47.31288" lon="-2.34577">
        <ele>24.799999237061</ele>
        <time>2019-09-05T09:02:52.000Z</time>
      </trkpt>
      <trkpt lat="47.31289" lon="-2.34585">
        <ele>25.200000762939</ele>
        <time>2019-09-05T09:02:53.000Z</time>
      </trkpt>
      <trkpt lat="47.31289" lon="-2.34593">
        <ele>25.799999237061</ele>
        <time>2019-09-05T09:02:54.000Z</time>
      </trkpt>
      <trkpt lat="47.31291" lon="-2.34608">
        <ele>25.799999237061</ele>
        <time>2019-09-05T09:02:56.000Z</time>
      </trkpt>
      <trkpt lat="47.31294" lon="-2.34635">
        <ele>25.799999237061</ele>
        <time>2019-09-05T09:03:00.000Z</time>
      </trkpt>
      <trkpt lat="47.31294" lon="-2.34643">
        <ele>26.200000762939</ele>
        <time>2019-09-05T09:03:02.000Z</time>
      </trkpt>
      <trkpt lat="47.31294" lon="-2.34646">
        <ele>26.60000038147</ele>
        <time>2019-09-05T09:03:03.000Z</time>
      </trkpt>
      <trkpt lat="47.31294" lon="-2.34648">
        <ele>27</ele>
        <time>2019-09-05T09:03:04.000Z</time>
      </trkpt>
      <trkpt lat="47.31295" lon="-2.3465">
        <ele>27.39999961853</ele>
        <time>2019-09-05T09:03:05.000Z</time>
      </trkpt>
      <trkpt lat="47.31296" lon="-2.34652">
        <ele>27.799999237061</ele>
        <time>2019-09-05T09:03:06.000Z</time>
      </trkpt>
      <trkpt lat="47.313" lon="-2.34657">
        <ele>27.799999237061</ele>
        <time>2019-09-05T09:03:08.000Z</time>
      </trkpt>
      <trkpt lat="47.31303" lon="-2.34665">
        <ele>27.799999237061</ele>
        <time>2019-09-05T09:03:10.000Z</time>
      </trkpt>
      <trkpt lat="47.31301" lon="-2.3467">
        <ele>27.799999237061</ele>
        <time>2019-09-05T09:03:11.000Z</time>
      </trkpt>
      <trkpt lat="47.3129" lon="-2.34681">
        <ele>27.799999237061</ele>
        <time>2019-09-05T09:03:14.000Z</time>
      </trkpt>
      <trkpt lat="47.31286" lon="-2.34685">
        <ele>27.799999237061</ele>
        <time>2019-09-05T09:03:15.000Z</time>
      </trkpt>
      <trkpt lat="47.31279" lon="-2.34703">
        <ele>27.799999237061</ele>
        <time>2019-09-05T09:03:18.000Z</time>
      </trkpt>
      <trkpt lat="47.31279" lon="-2.34724">
        <ele>28.200000762939</ele>
        <time>2019-09-05T09:03:19.000Z</time>
      </trkpt>
      <trkpt lat="47.31279" lon="-2.34732">
        <ele>28.60000038147</ele>
        <time>2019-09-05T09:03:22.000Z</time>
      </trkpt>
      <trkpt lat="47.31279" lon="-2.34732">
        <ele>28.60000038147</ele>
        <time>2019-09-05T09:03:23.000Z</time>
      </trkpt>
      <trkpt lat="47.31284" lon="-2.34763">
        <ele>29.799999237061</ele>
        <time>2019-09-05T09:03:24.000Z</time>
      </trkpt>
      <trkpt lat="47.31292" lon="-2.34802">
        <ele>29.799999237061</ele>
        <time>2019-09-05T09:03:31.000Z</time>
      </trkpt>
      <trkpt lat="47.31308" lon="-2.3488">
        <ele>29.799999237061</ele>
        <time>2019-09-05T09:03:40.000Z</time>
      </trkpt>
      <trkpt lat="47.3133" lon="-2.34953">
        <ele>29.799999237061</ele>
        <time>2019-09-05T09:03:49.000Z</time>
      </trkpt>
      <trkpt lat="47.31342" lon="-2.35023">
        <ele>29.799999237061</ele>
        <time>2019-09-05T09:03:56.000Z</time>
      </trkpt>
      <trkpt lat="47.31343" lon="-2.35095">
        <ele>29.799999237061</ele>
        <time>2019-09-05T09:04:03.000Z</time>
      </trkpt>
      <trkpt lat="47.31342" lon="-2.3516">
        <ele>29.799999237061</ele>
        <time>2019-09-05T09:04:09.000Z</time>
      </trkpt>
      <trkpt lat="47.31339" lon="-2.35246">
        <ele>29.799999237061</ele>
        <time>2019-09-05T09:04:17.000Z</time>
      </trkpt>
      <trkpt lat="47.31337" lon="-2.35334">
        <ele>29.799999237061</ele>
        <time>2019-09-05T09:04:25.000Z</time>
      </trkpt>
      <trkpt lat="47.31336" lon="-2.35399">
        <ele>29.799999237061</ele>
        <time>2019-09-05T09:04:31.000Z</time>
      </trkpt>
      <trkpt lat="47.31335" lon="-2.35465">
        <ele>29.799999237061</ele>
        <time>2019-09-05T09:04:37.000Z</time>
      </trkpt>
      <trkpt lat="47.31333" lon="-2.35522">
        <ele>29.799999237061</ele>
        <time>2019-09-05T09:04:43.000Z</time>
      </trkpt>
      <trkpt lat="47.31334" lon="-2.35529">
        <ele>29.799999237061</ele>
        <time>2019-09-05T09:04:44.000Z</time>
      </trkpt>
      <trkpt lat="47.3134" lon="-2.3554">
        <ele>29.799999237061</ele>
        <time>2019-09-05T09:04:46.000Z</time>
      </trkpt>
      <trkpt lat="47.31352" lon="-2.35538">
        <ele>29.799999237061</ele>
        <time>2019-09-05T09:04:49.000Z</time>
      </trkpt>
      <trkpt lat="47.31361" lon="-2.35533">
        <ele>29.799999237061</ele>
        <time>2019-09-05T09:04:51.000Z</time>
      </trkpt>
      <trkpt lat="47.31366" lon="-2.3553">
        <ele>29.799999237061</ele>
        <time>2019-09-05T09:04:52.000Z</time>
      </trkpt>
      <trkpt lat="47.31377" lon="-2.35525">
        <ele>29.799999237061</ele>
        <time>2019-09-05T09:04:54.000Z</time>
      </trkpt>
      <trkpt lat="47.31383" lon="-2.35524">
        <ele>29.799999237061</ele>
        <time>2019-09-05T09:04:55.000Z</time>
      </trkpt>
      <trkpt lat="47.31402" lon="-2.35523">
        <ele>29.799999237061</ele>
        <time>2019-09-05T09:04:58.000Z</time>
      </trkpt>
      <trkpt lat="47.31437" lon="-2.35525">
        <ele>29.799999237061</ele>
        <time>2019-09-05T09:05:04.000Z</time>
      </trkpt>
      <trkpt lat="47.31443" lon="-2.35525">
        <ele>29.799999237061</ele>
        <time>2019-09-05T09:05:05.000Z</time>
      </trkpt>
      <trkpt lat="47.31466" lon="-2.3552">
        <ele>29.799999237061</ele>
        <time>2019-09-05T09:05:09.000Z</time>
      </trkpt>
      <trkpt lat="47.31471" lon="-2.35517">
        <ele>29.799999237061</ele>
        <time>2019-09-05T09:05:10.000Z</time>
      </trkpt>
      <trkpt lat="47.3148" lon="-2.35504">
        <ele>29.799999237061</ele>
        <time>2019-09-05T09:05:12.000Z</time>
      </trkpt>
      <trkpt lat="47.31488" lon="-2.35469">
        <ele>29.799999237061</ele>
        <time>2019-09-05T09:05:16.000Z</time>
      </trkpt>
      <trkpt lat="47.31489" lon="-2.35459">
        <ele>29.799999237061</ele>
        <time>2019-09-05T09:05:17.000Z</time>
      </trkpt>
      <trkpt lat="47.31494" lon="-2.35441">
        <ele>29.799999237061</ele>
        <time>2019-09-05T09:05:19.000Z</time>
      </trkpt>
      <trkpt lat="47.31501" lon="-2.35426">
        <ele>29.799999237061</ele>
        <time>2019-09-05T09:05:21.000Z</time>
      </trkpt>
      <trkpt lat="47.31521" lon="-2.35407">
        <ele>29.799999237061</ele>
        <time>2019-09-05T09:05:25.000Z</time>
      </trkpt>
      <trkpt lat="47.31528" lon="-2.35403">
        <ele>29.799999237061</ele>
        <time>2019-09-05T09:05:26.000Z</time>
      </trkpt>
      <trkpt lat="47.31571" lon="-2.35378">
        <ele>29.799999237061</ele>
        <time>2019-09-05T09:05:33.000Z</time>
      </trkpt>
      <trkpt lat="47.31606" lon="-2.35363">
        <ele>29.799999237061</ele>
        <time>2019-09-05T09:05:39.000Z</time>
      </trkpt>
      <trkpt lat="47.31624" lon="-2.35363">
        <ele>29.799999237061</ele>
        <time>2019-09-05T09:05:42.000Z</time>
      </trkpt>
      <trkpt lat="47.31636" lon="-2.35367">
        <ele>29.799999237061</ele>
        <time>2019-09-05T09:05:44.000Z</time>
      </trkpt>
      <trkpt lat="47.31669" lon="-2.35374">
        <ele>29.799999237061</ele>
        <time>2019-09-05T09:05:49.000Z</time>
      </trkpt>
      <trkpt lat="47.31716" lon="-2.35368">
        <ele>29.799999237061</ele>
        <time>2019-09-05T09:05:56.000Z</time>
      </trkpt>
      <trkpt lat="47.31729" lon="-2.35366">
        <ele>29.39999961853</ele>
        <time>2019-09-05T09:05:58.000Z</time>
      </trkpt>
      <trkpt lat="47.31735" lon="-2.35367">
        <ele>29</ele>
        <time>2019-09-05T09:05:59.000Z</time>
      </trkpt>
      <trkpt lat="47.31742" lon="-2.3537">
        <ele>28.39999961853</ele>
        <time>2019-09-05T09:06:00.000Z</time>
      </trkpt>
      <trkpt lat="47.31747" lon="-2.35374">
        <ele>28</ele>
        <time>2019-09-05T09:06:01.000Z</time>
      </trkpt>
      <trkpt lat="47.31753" lon="-2.3538">
        <ele>27.60000038147</ele>
        <time>2019-09-05T09:06:02.000Z</time>
      </trkpt>
      <trkpt lat="47.31764" lon="-2.35393">
        <ele>27.60000038147</ele>
        <time>2019-09-05T09:06:04.000Z</time>
      </trkpt>
      <trkpt lat="47.31769" lon="-2.35401">
        <ele>27.60000038147</ele>
        <time>2019-09-05T09:06:05.000Z</time>
      </trkpt>
      <trkpt lat="47.31779" lon="-2.35417">
        <ele>27.200000762939</ele>
        <time>2019-09-05T09:06:07.000Z</time>
      </trkpt>
      <trkpt lat="47.31784" lon="-2.35423">
        <ele>26.799999237061</ele>
        <time>2019-09-05T09:06:08.000Z</time>
      </trkpt>
      <trkpt lat="47.31789" lon="-2.35429">
        <ele>26.200000762939</ele>
        <time>2019-09-05T09:06:09.000Z</time>
      </trkpt>
      <trkpt lat="47.31794" lon="-2.35436">
        <ele>25.799999237061</ele>
        <time>2019-09-05T09:06:10.000Z</time>
      </trkpt>
      <trkpt lat="47.31799" lon="-2.35444">
        <ele>25.39999961853</ele>
        <time>2019-09-05T09:06:11.000Z</time>
      </trkpt>
      <trkpt lat="47.31817" lon="-2.35477">
        <ele>25</ele>
        <time>2019-09-05T09:06:15.000Z</time>
      </trkpt>
      <trkpt lat="47.31821" lon="-2.35485">
        <ele>24.39999961853</ele>
        <time>2019-09-05T09:06:16.000Z</time>
      </trkpt>
      <trkpt lat="47.31824" lon="-2.35493">
        <ele>24</ele>
        <time>2019-09-05T09:06:17.000Z</time>
      </trkpt>
      <trkpt lat="47.31827" lon="-2.35501">
        <ele>23.60000038147</ele>
        <time>2019-09-05T09:06:18.000Z</time>
      </trkpt>
      <trkpt lat="47.3183" lon="-2.35508">
        <ele>23</ele>
        <time>2019-09-05T09:06:19.000Z</time>
      </trkpt>
      <trkpt lat="47.31833" lon="-2.35515">
        <ele>23</ele>
        <time>2019-09-05T09:06:20.000Z</time>
      </trkpt>
      <trkpt lat="47.31837" lon="-2.35534">
        <ele>23</ele>
        <time>2019-09-05T09:06:23.000Z</time>
      </trkpt>
      <trkpt lat="47.31827" lon="-2.3555">
        <ele>23</ele>
        <time>2019-09-05T09:06:26.000Z</time>
      </trkpt>
      <trkpt lat="47.31823" lon="-2.35554">
        <ele>23</ele>
        <time>2019-09-05T09:06:27.000Z</time>
      </trkpt>
      <trkpt lat="47.31818" lon="-2.35558">
        <ele>23</ele>
        <time>2019-09-05T09:06:28.000Z</time>
      </trkpt>
      <trkpt lat="47.31806" lon="-2.35579">
        <ele>23</ele>
        <time>2019-09-05T09:06:31.000Z</time>
      </trkpt>
      <trkpt lat="47.31799" lon="-2.35593">
        <ele>23</ele>
        <time>2019-09-05T09:06:33.000Z</time>
      </trkpt>
      <trkpt lat="47.31796" lon="-2.356">
        <ele>23</ele>
        <time>2019-09-05T09:06:34.000Z</time>
      </trkpt>
      <trkpt lat="47.3179" lon="-2.35615">
        <ele>23</ele>
        <time>2019-09-05T09:06:36.000Z</time>
      </trkpt>
      <trkpt lat="47.31785" lon="-2.3563">
        <ele>23</ele>
        <time>2019-09-05T09:06:38.000Z</time>
      </trkpt>
      <trkpt lat="47.31783" lon="-2.35647">
        <ele>23</ele>
        <time>2019-09-05T09:06:40.000Z</time>
      </trkpt>
      <trkpt lat="47.31781" lon="-2.35664">
        <ele>23.39999961853</ele>
        <time>2019-09-05T09:06:42.000Z</time>
      </trkpt>
      <trkpt lat="47.31781" lon="-2.35672">
        <ele>24</ele>
        <time>2019-09-05T09:06:43.000Z</time>
      </trkpt>
      <trkpt lat="47.31781" lon="-2.35679">
        <ele>24.39999961853</ele>
        <time>2019-09-05T09:06:44.000Z</time>
      </trkpt>
      <trkpt lat="47.31781" lon="-2.35687">
        <ele>24.799999237061</ele>
        <time>2019-09-05T09:06:45.000Z</time>
      </trkpt>
      <trkpt lat="47.31781" lon="-2.3571">
        <ele>25.200000762939</ele>
        <time>2019-09-05T09:06:46.000Z</time>
      </trkpt>
      <trkpt lat="47.3178" lon="-2.35739">
        <ele>26</ele>
        <time>2019-09-05T09:06:52.000Z</time>
      </trkpt>
      <trkpt lat="47.31779" lon="-2.35748">
        <ele>26.39999961853</ele>
        <time>2019-09-05T09:06:53.000Z</time>
      </trkpt>
      <trkpt lat="47.31779" lon="-2.35757">
        <ele>26.799999237061</ele>
        <time>2019-09-05T09:06:54.000Z</time>
      </trkpt>
      <trkpt lat="47.3178" lon="-2.35765">
        <ele>27.200000762939</ele>
        <time>2019-09-05T09:06:55.000Z</time>
      </trkpt>
      <trkpt lat="47.31782" lon="-2.35773">
        <ele>27.200000762939</ele>
        <time>2019-09-05T09:06:56.000Z</time>
      </trkpt>
      <trkpt lat="47.31798" lon="-2.35803">
        <ele>27.200000762939</ele>
        <time>2019-09-05T09:07:00.000Z</time>
      </trkpt>
      <trkpt lat="47.31818" lon="-2.35835">
        <ele>27.200000762939</ele>
        <time>2019-09-05T09:07:04.000Z</time>
      </trkpt>
      <trkpt lat="47.31823" lon="-2.3587">
        <ele>27.200000762939</ele>
        <time>2019-09-05T09:07:08.000Z</time>
      </trkpt>
      <trkpt lat="47.3181" lon="-2.35884">
        <ele>27.200000762939</ele>
        <time>2019-09-05T09:07:11.000Z</time>
      </trkpt>
      <trkpt lat="47.31804" lon="-2.35886">
        <ele>27.200000762939</ele>
        <time>2019-09-05T09:07:12.000Z</time>
      </trkpt>
      <trkpt lat="47.31773" lon="-2.35905">
        <ele>27.200000762939</ele>
        <time>2019-09-05T09:07:18.000Z</time>
      </trkpt>
      <trkpt lat="47.31744" lon="-2.35921">
        <ele>27.799999237061</ele>
        <time>2019-09-05T09:07:23.000Z</time>
      </trkpt>
      <trkpt lat="47.31738" lon="-2.35926">
        <ele>28.200000762939</ele>
        <time>2019-09-05T09:07:24.000Z</time>
      </trkpt>
      <trkpt lat="47.31732" lon="-2.3593">
        <ele>28.60000038147</ele>
        <time>2019-09-05T09:07:25.000Z</time>
      </trkpt>
      <trkpt lat="47.31727" lon="-2.35933">
        <ele>29</ele>
        <time>2019-09-05T09:07:26.000Z</time>
      </trkpt>
      <trkpt lat="47.31721" lon="-2.35936">
        <ele>29.39999961853</ele>
        <time>2019-09-05T09:07:27.000Z</time>
      </trkpt>
      <trkpt lat="47.31704" lon="-2.35946">
        <ele>29.39999961853</ele>
        <time>2019-09-05T09:07:30.000Z</time>
      </trkpt>
      <trkpt lat="47.31694" lon="-2.35954">
        <ele>29.39999961853</ele>
        <time>2019-09-05T09:07:32.000Z</time>
      </trkpt>
      <trkpt lat="47.31688" lon="-2.35956">
        <ele>29.39999961853</ele>
        <time>2019-09-05T09:07:33.000Z</time>
      </trkpt>
      <trkpt lat="47.31683" lon="-2.35959">
        <ele>29.799999237061</ele>
        <time>2019-09-05T09:07:34.000Z</time>
      </trkpt>
      <trkpt lat="47.31678" lon="-2.35962">
        <ele>30.200000762939</ele>
        <time>2019-09-05T09:07:35.000Z</time>
      </trkpt>
      <trkpt lat="47.31672" lon="-2.35966">
        <ele>30.60000038147</ele>
        <time>2019-09-05T09:07:36.000Z</time>
      </trkpt>
      <trkpt lat="47.31667" lon="-2.35969">
        <ele>31</ele>
        <time>2019-09-05T09:07:37.000Z</time>
      </trkpt>
      <trkpt lat="47.31662" lon="-2.35972">
        <ele>31.39999961853</ele>
        <time>2019-09-05T09:07:38.000Z</time>
      </trkpt>
      <trkpt lat="47.31637" lon="-2.35992">
        <ele>31.39999961853</ele>
        <time>2019-09-05T09:07:43.000Z</time>
      </trkpt>
      <trkpt lat="47.31611" lon="-2.3602">
        <ele>31.39999961853</ele>
        <time>2019-09-05T09:07:49.000Z</time>
      </trkpt>
      <trkpt lat="47.31603" lon="-2.36029">
        <ele>31.39999961853</ele>
        <time>2019-09-05T09:07:51.000Z</time>
      </trkpt>
      <trkpt lat="47.31589" lon="-2.36041">
        <ele>31.39999961853</ele>
        <time>2019-09-05T09:07:54.000Z</time>
      </trkpt>
      <trkpt lat="47.31576" lon="-2.36054">
        <ele>31.39999961853</ele>
        <time>2019-09-05T09:07:57.000Z</time>
      </trkpt>
      <trkpt lat="47.31563" lon="-2.36066">
        <ele>31.799999237061</ele>
        <time>2019-09-05T09:08:00.000Z</time>
      </trkpt>
      <trkpt lat="47.31558" lon="-2.36069">
        <ele>32.200000762939</ele>
        <time>2019-09-05T09:08:01.000Z</time>
      </trkpt>
      <trkpt lat="47.31553" lon="-2.36073">
        <ele>32.599998474121</ele>
        <time>2019-09-05T09:08:02.000Z</time>
      </trkpt>
      <trkpt lat="47.31549" lon="-2.36078">
        <ele>33</ele>
        <time>2019-09-05T09:08:03.000Z</time>
      </trkpt>
      <trkpt lat="47.31537" lon="-2.36092">
        <ele>33.400001525879</ele>
        <time>2019-09-05T09:08:04.000Z</time>
      </trkpt>
      <trkpt lat="47.31537" lon="-2.36092">
        <ele>33.400001525879</ele>
        <time>2019-09-05T09:08:06.000Z</time>
      </trkpt>
      <trkpt lat="47.31481" lon="-2.36156">
        <ele>33.400001525879</ele>
        <time>2019-09-05T09:08:18.000Z</time>
      </trkpt>
      <trkpt lat="47.31477" lon="-2.3616">
        <ele>33.400001525879</ele>
        <time>2019-09-05T09:08:19.000Z</time>
      </trkpt>
      <trkpt lat="47.31466" lon="-2.36176">
        <ele>33.400001525879</ele>
        <time>2019-09-05T09:08:22.000Z</time>
      </trkpt>
      <trkpt lat="47.31466" lon="-2.36201">
        <ele>33.400001525879</ele>
        <time>2019-09-05T09:08:25.000Z</time>
      </trkpt>
      <trkpt lat="47.31468" lon="-2.36209">
        <ele>33.400001525879</ele>
        <time>2019-09-05T09:08:26.000Z</time>
      </trkpt>
      <trkpt lat="47.31478" lon="-2.3625">
        <ele>33.400001525879</ele>
        <time>2019-09-05T09:08:31.000Z</time>
      </trkpt>
      <trkpt lat="47.3149" lon="-2.36302">
        <ele>33.400001525879</ele>
        <time>2019-09-05T09:08:37.000Z</time>
      </trkpt>
      <trkpt lat="47.31494" lon="-2.3633">
        <ele>33.400001525879</ele>
        <time>2019-09-05T09:08:40.000Z</time>
      </trkpt>
      <trkpt lat="47.31494" lon="-2.36351">
        <ele>33.400001525879</ele>
        <time>2019-09-05T09:08:42.000Z</time>
      </trkpt>
      <trkpt lat="47.31493" lon="-2.36372">
        <ele>33.400001525879</ele>
        <time>2019-09-05T09:08:44.000Z</time>
      </trkpt>
      <trkpt lat="47.31492" lon="-2.36383">
        <ele>33.400001525879</ele>
        <time>2019-09-05T09:08:45.000Z</time>
      </trkpt>
      <trkpt lat="47.31493" lon="-2.36405">
        <ele>33.400001525879</ele>
        <time>2019-09-05T09:08:47.000Z</time>
      </trkpt>
      <trkpt lat="47.31493" lon="-2.36416">
        <ele>33</ele>
        <time>2019-09-05T09:08:48.000Z</time>
      </trkpt>
      <trkpt lat="47.31494" lon="-2.36426">
        <ele>32.599998474121</ele>
        <time>2019-09-05T09:08:49.000Z</time>
      </trkpt>
      <trkpt lat="47.31494" lon="-2.36436">
        <ele>32</ele>
        <time>2019-09-05T09:08:50.000Z</time>
      </trkpt>
      <trkpt lat="47.31496" lon="-2.36445">
        <ele>31.60000038147</ele>
        <time>2019-09-05T09:08:51.000Z</time>
      </trkpt>
      <trkpt lat="47.31496" lon="-2.36453">
        <ele>31</ele>
        <time>2019-09-05T09:08:52.000Z</time>
      </trkpt>
      <trkpt lat="47.31496" lon="-2.3646">
        <ele>30.60000038147</ele>
        <time>2019-09-05T09:08:53.000Z</time>
      </trkpt>
      <trkpt lat="47.31497" lon="-2.36468">
        <ele>29.799999237061</ele>
        <time>2019-09-05T09:08:54.000Z</time>
      </trkpt>
      <trkpt lat="47.31498" lon="-2.36475">
        <ele>29.39999961853</ele>
        <time>2019-09-05T09:08:55.000Z</time>
      </trkpt>
      <trkpt lat="47.31498" lon="-2.36483">
        <ele>29</ele>
        <time>2019-09-05T09:08:56.000Z</time>
      </trkpt>
      <trkpt lat="47.31499" lon="-2.36491">
        <ele>29</ele>
        <time>2019-09-05T09:08:57.000Z</time>
      </trkpt>
      <trkpt lat="47.31498" lon="-2.365">
        <ele>29</ele>
        <time>2019-09-05T09:08:58.000Z</time>
      </trkpt>
      <trkpt lat="47.31499" lon="-2.36531">
        <ele>29</ele>
        <time>2019-09-05T09:09:02.000Z</time>
      </trkpt>
      <trkpt lat="47.315" lon="-2.36552">
        <ele>28.60000038147</ele>
        <time>2019-09-05T09:09:05.000Z</time>
      </trkpt>
      <trkpt lat="47.315" lon="-2.36559">
        <ele>28.200000762939</ele>
        <time>2019-09-05T09:09:06.000Z</time>
      </trkpt>
      <trkpt lat="47.31501" lon="-2.36567">
        <ele>27.799999237061</ele>
        <time>2019-09-05T09:09:07.000Z</time>
      </trkpt>
      <trkpt lat="47.315" lon="-2.36574">
        <ele>27.39999961853</ele>
        <time>2019-09-05T09:09:08.000Z</time>
      </trkpt>
      <trkpt lat="47.31498" lon="-2.36582">
        <ele>27</ele>
        <time>2019-09-05T09:09:09.000Z</time>
      </trkpt>
      <trkpt lat="47.31498" lon="-2.36608">
        <ele>27</ele>
        <time>2019-09-05T09:09:12.000Z</time>
      </trkpt>
      <trkpt lat="47.31506" lon="-2.36642">
        <ele>27</ele>
        <time>2019-09-05T09:09:16.000Z</time>
      </trkpt>
      <trkpt lat="47.31519" lon="-2.36698">
        <ele>27</ele>
        <time>2019-09-05T09:09:23.000Z</time>
      </trkpt>
      <trkpt lat="47.31521" lon="-2.36706">
        <ele>27</ele>
        <time>2019-09-05T09:09:24.000Z</time>
      </trkpt>
      <trkpt lat="47.31527" lon="-2.3673">
        <ele>27.39999961853</ele>
        <time>2019-09-05T09:09:27.000Z</time>
      </trkpt>
      <trkpt lat="47.31529" lon="-2.36737">
        <ele>27.799999237061</ele>
        <time>2019-09-05T09:09:28.000Z</time>
      </trkpt>
      <trkpt lat="47.31534" lon="-2.3676">
        <ele>29</ele>
        <time>2019-09-05T09:09:29.000Z</time>
      </trkpt>
      <trkpt lat="47.31536" lon="-2.36767">
        <ele>29</ele>
        <time>2019-09-05T09:09:33.000Z</time>
      </trkpt>
      <trkpt lat="47.31545" lon="-2.36803">
        <ele>29</ele>
        <time>2019-09-05T09:09:38.000Z</time>
      </trkpt>
      <trkpt lat="47.31547" lon="-2.36811">
        <ele>29</ele>
        <time>2019-09-05T09:09:39.000Z</time>
      </trkpt>
      <trkpt lat="47.31552" lon="-2.36831">
        <ele>29.39999961853</ele>
        <time>2019-09-05T09:09:42.000Z</time>
      </trkpt>
      <trkpt lat="47.31554" lon="-2.36839">
        <ele>29.799999237061</ele>
        <time>2019-09-05T09:09:43.000Z</time>
      </trkpt>
      <trkpt lat="47.31556" lon="-2.36845">
        <ele>30.60000038147</ele>
        <time>2019-09-05T09:09:44.000Z</time>
      </trkpt>
      <trkpt lat="47.31558" lon="-2.36852">
        <ele>31</ele>
        <time>2019-09-05T09:09:45.000Z</time>
      </trkpt>
      <trkpt lat="47.31568" lon="-2.36887">
        <ele>31.39999961853</ele>
        <time>2019-09-05T09:09:50.000Z</time>
      </trkpt>
      <trkpt lat="47.3157" lon="-2.36894">
        <ele>31.799999237061</ele>
        <time>2019-09-05T09:09:51.000Z</time>
      </trkpt>
      <trkpt lat="47.31572" lon="-2.369">
        <ele>32.200000762939</ele>
        <time>2019-09-05T09:09:52.000Z</time>
      </trkpt>
      <trkpt lat="47.31574" lon="-2.36906">
        <ele>32.799999237061</ele>
        <time>2019-09-05T09:09:53.000Z</time>
      </trkpt>
      <trkpt lat="47.31576" lon="-2.36912">
        <ele>33.200000762939</ele>
        <time>2019-09-05T09:09:54.000Z</time>
      </trkpt>
      <trkpt lat="47.31581" lon="-2.36931">
        <ele>33.200000762939</ele>
        <time>2019-09-05T09:09:57.000Z</time>
      </trkpt>
      <trkpt lat="47.31588" lon="-2.3695">
        <ele>33.599998474121</ele>
        <time>2019-09-05T09:10:00.000Z</time>
      </trkpt>
      <trkpt lat="47.3159" lon="-2.36956">
        <ele>34</ele>
        <time>2019-09-05T09:10:01.000Z</time>
      </trkpt>
      <trkpt lat="47.31592" lon="-2.36962">
        <ele>34.400001525879</ele>
        <time>2019-09-05T09:10:02.000Z</time>
      </trkpt>
      <trkpt lat="47.31594" lon="-2.36968">
        <ele>34.799999237061</ele>
        <time>2019-09-05T09:10:03.000Z</time>
      </trkpt>
      <trkpt lat="47.31596" lon="-2.36974">
        <ele>35.200000762939</ele>
        <time>2019-09-05T09:10:04.000Z</time>
      </trkpt>
      <trkpt lat="47.31611" lon="-2.37017">
        <ele>35.200000762939</ele>
        <time>2019-09-05T09:10:11.000Z</time>
      </trkpt>
      <trkpt lat="47.31613" lon="-2.37023">
        <ele>35.599998474121</ele>
        <time>2019-09-05T09:10:12.000Z</time>
      </trkpt>
      <trkpt lat="47.31615" lon="-2.37029">
        <ele>36</ele>
        <time>2019-09-05T09:10:13.000Z</time>
      </trkpt>
      <trkpt lat="47.31617" lon="-2.37035">
        <ele>36.400001525879</ele>
        <time>2019-09-05T09:10:14.000Z</time>
      </trkpt>
      <trkpt lat="47.3162" lon="-2.3704">
        <ele>36.799999237061</ele>
        <time>2019-09-05T09:10:15.000Z</time>
      </trkpt>
      <trkpt lat="47.31622" lon="-2.37045">
        <ele>37.200000762939</ele>
        <time>2019-09-05T09:10:16.000Z</time>
      </trkpt>
      <trkpt lat="47.31637" lon="-2.37076">
        <ele>37.200000762939</ele>
        <time>2019-09-05T09:10:22.000Z</time>
      </trkpt>
      <trkpt lat="47.31652" lon="-2.37104">
        <ele>37.599998474121</ele>
        <time>2019-09-05T09:10:27.000Z</time>
      </trkpt>
      <trkpt lat="47.31655" lon="-2.3711">
        <ele>38</ele>
        <time>2019-09-05T09:10:28.000Z</time>
      </trkpt>
      <trkpt lat="47.31658" lon="-2.37116">
        <ele>38.400001525879</ele>
        <time>2019-09-05T09:10:29.000Z</time>
      </trkpt>
      <trkpt lat="47.31661" lon="-2.37122">
        <ele>38.799999237061</ele>
        <time>2019-09-05T09:10:30.000Z</time>
      </trkpt>
      <trkpt lat="47.31664" lon="-2.37127">
        <ele>39.400001525879</ele>
        <time>2019-09-05T09:10:31.000Z</time>
      </trkpt>
      <trkpt lat="47.31677" lon="-2.37155">
        <ele>39.400001525879</ele>
        <time>2019-09-05T09:10:36.000Z</time>
      </trkpt>
      <trkpt lat="47.31685" lon="-2.37174">
        <ele>39.400001525879</ele>
        <time>2019-09-05T09:10:39.000Z</time>
      </trkpt>
      <trkpt lat="47.31687" lon="-2.37193">
        <ele>39.400001525879</ele>
        <time>2019-09-05T09:10:41.000Z</time>
      </trkpt>
      <trkpt lat="47.31679" lon="-2.37226">
        <ele>39.400001525879</ele>
        <time>2019-09-05T09:10:45.000Z</time>
      </trkpt>
      <trkpt lat="47.31666" lon="-2.37243">
        <ele>39.400001525879</ele>
        <time>2019-09-05T09:10:47.000Z</time>
      </trkpt>
      <trkpt lat="47.31651" lon="-2.37257">
        <ele>39.400001525879</ele>
        <time>2019-09-05T09:10:48.000Z</time>
      </trkpt>
      <trkpt lat="47.31647" lon="-2.37261">
        <ele>39.400001525879</ele>
        <time>2019-09-05T09:10:52.000Z</time>
      </trkpt>
      <trkpt lat="47.31624" lon="-2.37288">
        <ele>39.400001525879</ele>
        <time>2019-09-05T09:10:57.000Z</time>
      </trkpt>
      <trkpt lat="47.31621" lon="-2.37295">
        <ele>39.400001525879</ele>
        <time>2019-09-05T09:10:58.000Z</time>
      </trkpt>
      <trkpt lat="47.31618" lon="-2.3732">
        <ele>39.400001525879</ele>
        <time>2019-09-05T09:11:01.000Z</time>
      </trkpt>
      <trkpt lat="47.31624" lon="-2.37352">
        <ele>39.400001525879</ele>
        <time>2019-09-05T09:11:05.000Z</time>
      </trkpt>
      <trkpt lat="47.31633" lon="-2.37407">
        <ele>39.400001525879</ele>
        <time>2019-09-05T09:11:12.000Z</time>
      </trkpt>
      <trkpt lat="47.31637" lon="-2.37472">
        <ele>39.400001525879</ele>
        <time>2019-09-05T09:11:20.000Z</time>
      </trkpt>
      <trkpt lat="47.31637" lon="-2.37495">
        <ele>39.400001525879</ele>
        <time>2019-09-05T09:11:23.000Z</time>
      </trkpt>
      <trkpt lat="47.31634" lon="-2.3751">
        <ele>38.799999237061</ele>
        <time>2019-09-05T09:11:25.000Z</time>
      </trkpt>
      <trkpt lat="47.31632" lon="-2.37517">
        <ele>38.400001525879</ele>
        <time>2019-09-05T09:11:26.000Z</time>
      </trkpt>
      <trkpt lat="47.3163" lon="-2.37524">
        <ele>38</ele>
        <time>2019-09-05T09:11:27.000Z</time>
      </trkpt>
      <trkpt lat="47.31628" lon="-2.37531">
        <ele>37.599998474121</ele>
        <time>2019-09-05T09:11:28.000Z</time>
      </trkpt>
      <trkpt lat="47.31626" lon="-2.37537">
        <ele>37</ele>
        <time>2019-09-05T09:11:29.000Z</time>
      </trkpt>
      <trkpt lat="47.31621" lon="-2.37551">
        <ele>37</ele>
        <time>2019-09-05T09:11:31.000Z</time>
      </trkpt>
      <trkpt lat="47.31614" lon="-2.37583">
        <ele>37</ele>
        <time>2019-09-05T09:11:35.000Z</time>
      </trkpt>
      <trkpt lat="47.31613" lon="-2.37591">
        <ele>37</ele>
        <time>2019-09-05T09:11:36.000Z</time>
      </trkpt>
      <trkpt lat="47.31616" lon="-2.37631">
        <ele>37</ele>
        <time>2019-09-05T09:11:41.000Z</time>
      </trkpt>
      <trkpt lat="47.31631" lon="-2.37656">
        <ele>37</ele>
        <time>2019-09-05T09:11:45.000Z</time>
      </trkpt>
      <trkpt lat="47.31642" lon="-2.37663">
        <ele>37</ele>
        <time>2019-09-05T09:11:47.000Z</time>
      </trkpt>
      <trkpt lat="47.31662" lon="-2.37678">
        <ele>37</ele>
        <time>2019-09-05T09:11:51.000Z</time>
      </trkpt>
      <trkpt lat="47.31685" lon="-2.37703">
        <ele>37</ele>
        <time>2019-09-05T09:11:56.000Z</time>
      </trkpt>
      <trkpt lat="47.31689" lon="-2.37707">
        <ele>37</ele>
        <time>2019-09-05T09:11:57.000Z</time>
      </trkpt>
      <trkpt lat="47.31711" lon="-2.37717">
        <ele>37</ele>
        <time>2019-09-05T09:12:01.000Z</time>
      </trkpt>
      <trkpt lat="47.31716" lon="-2.37717">
        <ele>37</ele>
        <time>2019-09-05T09:12:02.000Z</time>
      </trkpt>
      <trkpt lat="47.31721" lon="-2.37716">
        <ele>37</ele>
        <time>2019-09-05T09:12:03.000Z</time>
      </trkpt>
      <trkpt lat="47.31739" lon="-2.3771">
        <ele>37</ele>
        <time>2019-09-05T09:12:06.000Z</time>
      </trkpt>
      <trkpt lat="47.31775" lon="-2.3768">
        <ele>37</ele>
        <time>2019-09-05T09:12:10.000Z</time>
      </trkpt>
      <trkpt lat="47.3178" lon="-2.37675">
        <ele>37</ele>
        <time>2019-09-05T09:12:13.000Z</time>
      </trkpt>
      <trkpt lat="47.318" lon="-2.37659">
        <ele>37</ele>
        <time>2019-09-05T09:12:17.000Z</time>
      </trkpt>
      <trkpt lat="47.3181" lon="-2.37655">
        <ele>37</ele>
        <time>2019-09-05T09:12:19.000Z</time>
      </trkpt>
      <trkpt lat="47.31821" lon="-2.37654">
        <ele>37</ele>
        <time>2019-09-05T09:12:21.000Z</time>
      </trkpt>
      <trkpt lat="47.31825" lon="-2.37657">
        <ele>37</ele>
        <time>2019-09-05T09:12:22.000Z</time>
      </trkpt>
      <trkpt lat="47.31826" lon="-2.37674">
        <ele>37</ele>
        <time>2019-09-05T09:12:25.000Z</time>
      </trkpt>
      <trkpt lat="47.31825" lon="-2.37681">
        <ele>37</ele>
        <time>2019-09-05T09:12:26.000Z</time>
      </trkpt>
      <trkpt lat="47.31822" lon="-2.37697">
        <ele>37</ele>
        <time>2019-09-05T09:12:28.000Z</time>
      </trkpt>
      <trkpt lat="47.3182" lon="-2.37705">
        <ele>37</ele>
        <time>2019-09-05T09:12:29.000Z</time>
      </trkpt>
      <trkpt lat="47.31817" lon="-2.37721">
        <ele>37</ele>
        <time>2019-09-05T09:12:31.000Z</time>
      </trkpt>
      <trkpt lat="47.31815" lon="-2.37745">
        <ele>37</ele>
        <time>2019-09-05T09:12:34.000Z</time>
      </trkpt>
      <trkpt lat="47.31808" lon="-2.37813">
        <ele>37</ele>
        <time>2019-09-05T09:12:43.000Z</time>
      </trkpt>
      <trkpt lat="47.31806" lon="-2.37832">
        <ele>36.599998474121</ele>
        <time>2019-09-05T09:12:45.000Z</time>
      </trkpt>
      <trkpt lat="47.31804" lon="-2.37842">
        <ele>36.200000762939</ele>
        <time>2019-09-05T09:12:46.000Z</time>
      </trkpt>
      <trkpt lat="47.31804" lon="-2.37851">
        <ele>35.799999237061</ele>
        <time>2019-09-05T09:12:47.000Z</time>
      </trkpt>
      <trkpt lat="47.31803" lon="-2.37861">
        <ele>35.400001525879</ele>
        <time>2019-09-05T09:12:48.000Z</time>
      </trkpt>
      <trkpt lat="47.31802" lon="-2.3787">
        <ele>35</ele>
        <time>2019-09-05T09:12:49.000Z</time>
      </trkpt>
      <trkpt lat="47.31798" lon="-2.379">
        <ele>35</ele>
        <time>2019-09-05T09:12:52.000Z</time>
      </trkpt>
      <trkpt lat="47.31797" lon="-2.37921">
        <ele>34.599998474121</ele>
        <time>2019-09-05T09:12:54.000Z</time>
      </trkpt>
      <trkpt lat="47.31796" lon="-2.37931">
        <ele>34</ele>
        <time>2019-09-05T09:12:55.000Z</time>
      </trkpt>
      <trkpt lat="47.31795" lon="-2.37941">
        <ele>33.599998474121</ele>
        <time>2019-09-05T09:12:56.000Z</time>
      </trkpt>
      <trkpt lat="47.31794" lon="-2.37952">
        <ele>33.200000762939</ele>
        <time>2019-09-05T09:12:57.000Z</time>
      </trkpt>
      <trkpt lat="47.31794" lon="-2.37962">
        <ele>32.799999237061</ele>
        <time>2019-09-05T09:12:58.000Z</time>
      </trkpt>
      <trkpt lat="47.31794" lon="-2.37974">
        <ele>32.799999237061</ele>
        <time>2019-09-05T09:12:59.000Z</time>
      </trkpt>
      <trkpt lat="47.31795" lon="-2.38007">
        <ele>32.400001525879</ele>
        <time>2019-09-05T09:13:02.000Z</time>
      </trkpt>
      <trkpt lat="47.31795" lon="-2.38019">
        <ele>31.799999237061</ele>
        <time>2019-09-05T09:13:03.000Z</time>
      </trkpt>
      <trkpt lat="47.31796" lon="-2.38031">
        <ele>31.39999961853</ele>
        <time>2019-09-05T09:13:04.000Z</time>
      </trkpt>
      <trkpt lat="47.31797" lon="-2.38042">
        <ele>31</ele>
        <time>2019-09-05T09:13:05.000Z</time>
      </trkpt>
      <trkpt lat="47.31798" lon="-2.38054">
        <ele>30.39999961853</ele>
        <time>2019-09-05T09:13:06.000Z</time>
      </trkpt>
      <trkpt lat="47.31799" lon="-2.38066">
        <ele>30.39999961853</ele>
        <time>2019-09-05T09:13:07.000Z</time>
      </trkpt>
      <trkpt lat="47.31803" lon="-2.38144">
        <ele>30.39999961853</ele>
        <time>2019-09-05T09:13:14.000Z</time>
      </trkpt>
      <trkpt lat="47.31807" lon="-2.38228">
        <ele>30.39999961853</ele>
        <time>2019-09-05T09:13:22.000Z</time>
      </trkpt>
      <trkpt lat="47.31809" lon="-2.38269">
        <ele>31</ele>
        <time>2019-09-05T09:13:26.000Z</time>
      </trkpt>
      <trkpt lat="47.31809" lon="-2.3828">
        <ele>31.799999237061</ele>
        <time>2019-09-05T09:13:27.000Z</time>
      </trkpt>
      <trkpt lat="47.31809" lon="-2.3829">
        <ele>32.400001525879</ele>
        <time>2019-09-05T09:13:28.000Z</time>
      </trkpt>
      <trkpt lat="47.31809" lon="-2.38299">
        <ele>32.799999237061</ele>
        <time>2019-09-05T09:13:29.000Z</time>
      </trkpt>
      <trkpt lat="47.3181" lon="-2.38309">
        <ele>32.799999237061</ele>
        <time>2019-09-05T09:13:30.000Z</time>
      </trkpt>
      <trkpt lat="47.31811" lon="-2.3833">
        <ele>33.200000762939</ele>
        <time>2019-09-05T09:13:32.000Z</time>
      </trkpt>
      <trkpt lat="47.31811" lon="-2.38339">
        <ele>33.799999237061</ele>
        <time>2019-09-05T09:13:33.000Z</time>
      </trkpt>
      <trkpt lat="47.31811" lon="-2.38349">
        <ele>34.200000762939</ele>
        <time>2019-09-05T09:13:34.000Z</time>
      </trkpt>
      <trkpt lat="47.31811" lon="-2.38359">
        <ele>34.599998474121</ele>
        <time>2019-09-05T09:13:35.000Z</time>
      </trkpt>
      <trkpt lat="47.31811" lon="-2.38369">
        <ele>35.200000762939</ele>
        <time>2019-09-05T09:13:36.000Z</time>
      </trkpt>
      <trkpt lat="47.31811" lon="-2.38378">
        <ele>35.200000762939</ele>
        <time>2019-09-05T09:13:37.000Z</time>
      </trkpt>
      <trkpt lat="47.31812" lon="-2.38444">
        <ele>35.200000762939</ele>
        <time>2019-09-05T09:13:44.000Z</time>
      </trkpt>
      <trkpt lat="47.31812" lon="-2.38452">
        <ele>35.599998474121</ele>
        <time>2019-09-05T09:13:45.000Z</time>
      </trkpt>
      <trkpt lat="47.31812" lon="-2.38461">
        <ele>36</ele>
        <time>2019-09-05T09:13:46.000Z</time>
      </trkpt>
      <trkpt lat="47.31812" lon="-2.38469">
        <ele>36.400001525879</ele>
        <time>2019-09-05T09:13:47.000Z</time>
      </trkpt>
      <trkpt lat="47.31812" lon="-2.38478">
        <ele>36.799999237061</ele>
        <time>2019-09-05T09:13:48.000Z</time>
      </trkpt>
      <trkpt lat="47.31812" lon="-2.38485">
        <ele>37.200000762939</ele>
        <time>2019-09-05T09:13:49.000Z</time>
      </trkpt>
      <trkpt lat="47.31812" lon="-2.38493">
        <ele>37.200000762939</ele>
        <time>2019-09-05T09:13:50.000Z</time>
      </trkpt>
      <trkpt lat="47.31811" lon="-2.38522">
        <ele>37.200000762939</ele>
        <time>2019-09-05T09:13:54.000Z</time>
      </trkpt>
      <trkpt lat="47.31812" lon="-2.38528">
        <ele>37.200000762939</ele>
        <time>2019-09-05T09:13:55.000Z</time>
      </trkpt>
      <trkpt lat="47.31823" lon="-2.38539">
        <ele>37.200000762939</ele>
        <time>2019-09-05T09:13:58.000Z</time>
      </trkpt>
      <trkpt lat="47.31834" lon="-2.38536">
        <ele>37.200000762939</ele>
        <time>2019-09-05T09:14:00.000Z</time>
      </trkpt>
      <trkpt lat="47.31845" lon="-2.38532">
        <ele>37.200000762939</ele>
        <time>2019-09-05T09:14:02.000Z</time>
      </trkpt>
      <trkpt lat="47.31888" lon="-2.38514">
        <ele>37.200000762939</ele>
        <time>2019-09-05T09:14:09.000Z</time>
      </trkpt>
      <trkpt lat="47.31914" lon="-2.38499">
        <ele>36.799999237061</ele>
        <time>2019-09-05T09:14:13.000Z</time>
      </trkpt>
      <trkpt lat="47.31921" lon="-2.38496">
        <ele>36.200000762939</ele>
        <time>2019-09-05T09:14:14.000Z</time>
      </trkpt>
      <trkpt lat="47.31927" lon="-2.38494">
        <ele>35.799999237061</ele>
        <time>2019-09-05T09:14:15.000Z</time>
      </trkpt>
      <trkpt lat="47.31948" lon="-2.3849">
        <ele>35</ele>
        <time>2019-09-05T09:14:16.000Z</time>
      </trkpt>
      <trkpt lat="47.31962" lon="-2.38486">
        <ele>35</ele>
        <time>2019-09-05T09:14:20.000Z</time>
      </trkpt>
      <trkpt lat="47.31969" lon="-2.38484">
        <ele>34.599998474121</ele>
        <time>2019-09-05T09:14:21.000Z</time>
      </trkpt>
      <trkpt lat="47.31976" lon="-2.38481">
        <ele>34.200000762939</ele>
        <time>2019-09-05T09:14:22.000Z</time>
      </trkpt>
      <trkpt lat="47.31984" lon="-2.38477">
        <ele>33.799999237061</ele>
        <time>2019-09-05T09:14:23.000Z</time>
      </trkpt>
      <trkpt lat="47.31991" lon="-2.38475">
        <ele>33.400001525879</ele>
        <time>2019-09-05T09:14:24.000Z</time>
      </trkpt>
      <trkpt lat="47.31999" lon="-2.38472">
        <ele>33</ele>
        <time>2019-09-05T09:14:25.000Z</time>
      </trkpt>
      <trkpt lat="47.3204" lon="-2.38454">
        <ele>32.599998474121</ele>
        <time>2019-09-05T09:14:31.000Z</time>
      </trkpt>
      <trkpt lat="47.32048" lon="-2.38452">
        <ele>32.200000762939</ele>
        <time>2019-09-05T09:14:32.000Z</time>
      </trkpt>
      <trkpt lat="47.32056" lon="-2.38449">
        <ele>31.799999237061</ele>
        <time>2019-09-05T09:14:33.000Z</time>
      </trkpt>
      <trkpt lat="47.32063" lon="-2.38446">
        <ele>31.39999961853</ele>
        <time>2019-09-05T09:14:34.000Z</time>
      </trkpt>
      <trkpt lat="47.32072" lon="-2.38442">
        <ele>31</ele>
        <time>2019-09-05T09:14:35.000Z</time>
      </trkpt>
      <trkpt lat="47.32101" lon="-2.38429">
        <ele>31</ele>
        <time>2019-09-05T09:14:39.000Z</time>
      </trkpt>
      <trkpt lat="47.32108" lon="-2.38426">
        <ele>30.39999961853</ele>
        <time>2019-09-05T09:14:40.000Z</time>
      </trkpt>
      <trkpt lat="47.32114" lon="-2.38423">
        <ele>29.60000038147</ele>
        <time>2019-09-05T09:14:41.000Z</time>
      </trkpt>
      <trkpt lat="47.32121" lon="-2.38419">
        <ele>29.200000762939</ele>
        <time>2019-09-05T09:14:42.000Z</time>
      </trkpt>
      <trkpt lat="47.32127" lon="-2.38415">
        <ele>28.799999237061</ele>
        <time>2019-09-05T09:14:43.000Z</time>
      </trkpt>
      <trkpt lat="47.32138" lon="-2.38405">
        <ele>28.799999237061</ele>
        <time>2019-09-05T09:14:45.000Z</time>
      </trkpt>
      <trkpt lat="47.32151" lon="-2.38386">
        <ele>28.799999237061</ele>
        <time>2019-09-05T09:14:48.000Z</time>
      </trkpt>
      <trkpt lat="47.3216" lon="-2.38372">
        <ele>28.799999237061</ele>
        <time>2019-09-05T09:14:50.000Z</time>
      </trkpt>
      <trkpt lat="47.32167" lon="-2.3836">
        <ele>28.799999237061</ele>
        <time>2019-09-05T09:14:52.000Z</time>
      </trkpt>
      <trkpt lat="47.32174" lon="-2.38349">
        <ele>28.39999961853</ele>
        <time>2019-09-05T09:14:54.000Z</time>
      </trkpt>
      <trkpt lat="47.32177" lon="-2.38345">
        <ele>28</ele>
        <time>2019-09-05T09:14:55.000Z</time>
      </trkpt>
      <trkpt lat="47.3218" lon="-2.3834">
        <ele>27.60000038147</ele>
        <time>2019-09-05T09:14:56.000Z</time>
      </trkpt>
      <trkpt lat="47.32183" lon="-2.38335">
        <ele>27</ele>
        <time>2019-09-05T09:14:57.000Z</time>
      </trkpt>
      <trkpt lat="47.32187" lon="-2.38329">
        <ele>26.60000038147</ele>
        <time>2019-09-05T09:14:58.000Z</time>
      </trkpt>
      <trkpt lat="47.32194" lon="-2.38319">
        <ele>26.60000038147</ele>
        <time>2019-09-05T09:15:00.000Z</time>
      </trkpt>
      <trkpt lat="47.32215" lon="-2.38296">
        <ele>26.60000038147</ele>
        <time>2019-09-05T09:15:03.000Z</time>
      </trkpt>
      <trkpt lat="47.32215" lon="-2.38296">
        <ele>26.60000038147</ele>
        <time>2019-09-05T09:15:06.000Z</time>
      </trkpt>
      <trkpt lat="47.3222" lon="-2.38295">
        <ele>26.60000038147</ele>
        <time>2019-09-05T09:15:07.000Z</time>
      </trkpt>
      <trkpt lat="47.32234" lon="-2.38293">
        <ele>26.60000038147</ele>
        <time>2019-09-05T09:15:10.000Z</time>
      </trkpt>
      <trkpt lat="47.32251" lon="-2.38288">
        <ele>26.60000038147</ele>
        <time>2019-09-05T09:15:13.000Z</time>
      </trkpt>
      <trkpt lat="47.32268" lon="-2.38285">
        <ele>26.60000038147</ele>
        <time>2019-09-05T09:15:16.000Z</time>
      </trkpt>
      <trkpt lat="47.32279" lon="-2.38286">
        <ele>26.60000038147</ele>
        <time>2019-09-05T09:15:18.000Z</time>
      </trkpt>
      <trkpt lat="47.3229" lon="-2.3829">
        <ele>26.60000038147</ele>
        <time>2019-09-05T09:15:20.000Z</time>
      </trkpt>
      <trkpt lat="47.32305" lon="-2.38296">
        <ele>26.60000038147</ele>
        <time>2019-09-05T09:15:23.000Z</time>
      </trkpt>
      <trkpt lat="47.3232" lon="-2.38302">
        <ele>27</ele>
        <time>2019-09-05T09:15:26.000Z</time>
      </trkpt>
      <trkpt lat="47.32325" lon="-2.38305">
        <ele>27.39999961853</ele>
        <time>2019-09-05T09:15:27.000Z</time>
      </trkpt>
      <trkpt lat="47.3233" lon="-2.38307">
        <ele>28</ele>
        <time>2019-09-05T09:15:28.000Z</time>
      </trkpt>
      <trkpt lat="47.32335" lon="-2.3831">
        <ele>28.39999961853</ele>
        <time>2019-09-05T09:15:29.000Z</time>
      </trkpt>
      <trkpt lat="47.3234" lon="-2.38311">
        <ele>28.799999237061</ele>
        <time>2019-09-05T09:15:30.000Z</time>
      </trkpt>
      <trkpt lat="47.32357" lon="-2.38318">
        <ele>28.799999237061</ele>
        <time>2019-09-05T09:15:34.000Z</time>
      </trkpt>
      <trkpt lat="47.32376" lon="-2.38328">
        <ele>29.200000762939</ele>
        <time>2019-09-05T09:15:38.000Z</time>
      </trkpt>
      <trkpt lat="47.3238" lon="-2.3833">
        <ele>29.60000038147</ele>
        <time>2019-09-05T09:15:39.000Z</time>
      </trkpt>
      <trkpt lat="47.32396" lon="-2.3834">
        <ele>30.799999237061</ele>
        <time>2019-09-05T09:15:40.000Z</time>
      </trkpt>
      <trkpt lat="47.32396" lon="-2.3834">
        <ele>30.799999237061</ele>
        <time>2019-09-05T09:15:42.000Z</time>
      </trkpt>
      <trkpt lat="47.32435" lon="-2.38357">
        <ele>30.799999237061</ele>
        <time>2019-09-05T09:15:49.000Z</time>
      </trkpt>
      <trkpt lat="47.32471" lon="-2.3837">
        <ele>30.799999237061</ele>
        <time>2019-09-05T09:15:55.000Z</time>
      </trkpt>
      <trkpt lat="47.32508" lon="-2.38385">
        <ele>30.799999237061</ele>
        <time>2019-09-05T09:16:02.000Z</time>
      </trkpt>
      <trkpt lat="47.32518" lon="-2.38382">
        <ele>30.799999237061</ele>
        <time>2019-09-05T09:16:06.000Z</time>
      </trkpt>
      <trkpt lat="47.32519" lon="-2.38379">
        <ele>30.799999237061</ele>
        <time>2019-09-05T09:16:07.000Z</time>
      </trkpt>
      <trkpt lat="47.32522" lon="-2.38363">
        <ele>30.799999237061</ele>
        <time>2019-09-05T09:16:10.000Z</time>
      </trkpt>
      <trkpt lat="47.32523" lon="-2.38348">
        <ele>30.799999237061</ele>
        <time>2019-09-05T09:16:12.000Z</time>
      </trkpt>
      <trkpt lat="47.32524" lon="-2.38331">
        <ele>30.799999237061</ele>
        <time>2019-09-05T09:16:15.000Z</time>
      </trkpt>
      <trkpt lat="47.32527" lon="-2.38318">
        <ele>30.799999237061</ele>
        <time>2019-09-05T09:16:19.000Z</time>
      </trkpt>
      <trkpt lat="47.3253" lon="-2.38316">
        <ele>30.799999237061</ele>
        <time>2019-09-05T09:16:20.000Z</time>
      </trkpt>
      <trkpt lat="47.32552" lon="-2.38311">
        <ele>30</ele>
        <time>2019-09-05T09:16:23.000Z</time>
      </trkpt>
      <trkpt lat="47.32559" lon="-2.38309">
        <ele>29.60000038147</ele>
        <time>2019-09-05T09:16:25.000Z</time>
      </trkpt>
      <trkpt lat="47.32566" lon="-2.38307">
        <ele>29</ele>
        <time>2019-09-05T09:16:26.000Z</time>
      </trkpt>
      <trkpt lat="47.32572" lon="-2.38304">
        <ele>28.60000038147</ele>
        <time>2019-09-05T09:16:27.000Z</time>
      </trkpt>
      <trkpt lat="47.32585" lon="-2.38299">
        <ele>28.60000038147</ele>
        <time>2019-09-05T09:16:29.000Z</time>
      </trkpt>
      <trkpt lat="47.32591" lon="-2.38298">
        <ele>28.60000038147</ele>
        <time>2019-09-05T09:16:30.000Z</time>
      </trkpt>
      <trkpt lat="47.32616" lon="-2.38305">
        <ele>28.60000038147</ele>
        <time>2019-09-05T09:16:35.000Z</time>
      </trkpt>
      <trkpt lat="47.32634" lon="-2.38324">
        <ele>28.60000038147</ele>
        <time>2019-09-05T09:16:37.000Z</time>
      </trkpt>
      <trkpt lat="47.32638" lon="-2.38329">
        <ele>28.60000038147</ele>
        <time>2019-09-05T09:16:40.000Z</time>
      </trkpt>
      <trkpt lat="47.32662" lon="-2.38362">
        <ele>28.60000038147</ele>
        <time>2019-09-05T09:16:47.000Z</time>
      </trkpt>
      <trkpt lat="47.32668" lon="-2.38371">
        <ele>29.200000762939</ele>
        <time>2019-09-05T09:16:49.000Z</time>
      </trkpt>
      <trkpt lat="47.32671" lon="-2.38375">
        <ele>29.60000038147</ele>
        <time>2019-09-05T09:16:50.000Z</time>
      </trkpt>
      <trkpt lat="47.32674" lon="-2.3838">
        <ele>30.200000762939</ele>
        <time>2019-09-05T09:16:51.000Z</time>
      </trkpt>
      <trkpt lat="47.32677" lon="-2.38384">
        <ele>30.799999237061</ele>
        <time>2019-09-05T09:16:52.000Z</time>
      </trkpt>
      <trkpt lat="47.32681" lon="-2.38388">
        <ele>31.200000762939</ele>
        <time>2019-09-05T09:16:53.000Z</time>
      </trkpt>
      <trkpt lat="47.32685" lon="-2.38391">
        <ele>31.200000762939</ele>
        <time>2019-09-05T09:16:54.000Z</time>
      </trkpt>
      <trkpt lat="47.32696" lon="-2.384">
        <ele>31.60000038147</ele>
        <time>2019-09-05T09:16:57.000Z</time>
      </trkpt>
      <trkpt lat="47.32701" lon="-2.38402">
        <ele>32</ele>
        <time>2019-09-05T09:16:58.000Z</time>
      </trkpt>
      <trkpt lat="47.32705" lon="-2.38404">
        <ele>32.400001525879</ele>
        <time>2019-09-05T09:16:59.000Z</time>
      </trkpt>
      <trkpt lat="47.32709" lon="-2.38405">
        <ele>32.799999237061</ele>
        <time>2019-09-05T09:17:00.000Z</time>
      </trkpt>
      <trkpt lat="47.32713" lon="-2.38406">
        <ele>33.200000762939</ele>
        <time>2019-09-05T09:17:01.000Z</time>
      </trkpt>
      <trkpt lat="47.32716" lon="-2.38406">
        <ele>33.200000762939</ele>
        <time>2019-09-05T09:17:02.000Z</time>
      </trkpt>
      <trkpt lat="47.32734" lon="-2.38402">
        <ele>33.200000762939</ele>
        <time>2019-09-05T09:17:07.000Z</time>
      </trkpt>
      <trkpt lat="47.32742" lon="-2.384">
        <ele>34.200000762939</ele>
        <time>2019-09-05T09:17:09.000Z</time>
      </trkpt>
      <trkpt lat="47.32746" lon="-2.38399">
        <ele>34.799999237061</ele>
        <time>2019-09-05T09:17:10.000Z</time>
      </trkpt>
      <trkpt lat="47.3275" lon="-2.38398">
        <ele>35.200000762939</ele>
        <time>2019-09-05T09:17:11.000Z</time>
      </trkpt>
      <trkpt lat="47.32754" lon="-2.38396">
        <ele>35.799999237061</ele>
        <time>2019-09-05T09:17:12.000Z</time>
      </trkpt>
      <trkpt lat="47.32772" lon="-2.38392">
        <ele>35.799999237061</ele>
        <time>2019-09-05T09:17:16.000Z</time>
      </trkpt>
      <trkpt lat="47.32779" lon="-2.38383">
        <ele>35.799999237061</ele>
        <time>2019-09-05T09:17:18.000Z</time>
      </trkpt>
      <trkpt lat="47.3278" lon="-2.38368">
        <ele>35.799999237061</ele>
        <time>2019-09-05T09:17:20.000Z</time>
      </trkpt>
      <trkpt lat="47.32782" lon="-2.3836">
        <ele>35.799999237061</ele>
        <time>2019-09-05T09:17:21.000Z</time>
      </trkpt>
      <trkpt lat="47.32795" lon="-2.38289">
        <ele>35.799999237061</ele>
        <time>2019-09-05T09:17:26.000Z</time>
      </trkpt>
      <trkpt lat="47.32809" lon="-2.38233">
        <ele>35.200000762939</ele>
        <time>2019-09-05T09:17:33.000Z</time>
      </trkpt>
      <trkpt lat="47.32813" lon="-2.3822">
        <ele>34.200000762939</ele>
        <time>2019-09-05T09:17:34.000Z</time>
      </trkpt>
      <trkpt lat="47.32818" lon="-2.38208">
        <ele>33.799999237061</ele>
        <time>2019-09-05T09:17:35.000Z</time>
      </trkpt>
      <trkpt lat="47.32822" lon="-2.38196">
        <ele>33.200000762939</ele>
        <time>2019-09-05T09:17:36.000Z</time>
      </trkpt>
      <trkpt lat="47.32841" lon="-2.38154">
        <ele>32.799999237061</ele>
        <time>2019-09-05T09:17:40.000Z</time>
      </trkpt>
      <trkpt lat="47.32846" lon="-2.38145">
        <ele>32.400001525879</ele>
        <time>2019-09-05T09:17:41.000Z</time>
      </trkpt>
      <trkpt lat="47.32852" lon="-2.38136">
        <ele>32</ele>
        <time>2019-09-05T09:17:42.000Z</time>
      </trkpt>
      <trkpt lat="47.32857" lon="-2.38127">
        <ele>31.60000038147</ele>
        <time>2019-09-05T09:17:43.000Z</time>
      </trkpt>
      <trkpt lat="47.32862" lon="-2.38118">
        <ele>31.200000762939</ele>
        <time>2019-09-05T09:17:44.000Z</time>
      </trkpt>
      <trkpt lat="47.32873" lon="-2.38101">
        <ele>30.60000038147</ele>
        <time>2019-09-05T09:17:46.000Z</time>
      </trkpt>
      <trkpt lat="47.32878" lon="-2.38092">
        <ele>30.200000762939</ele>
        <time>2019-09-05T09:17:47.000Z</time>
      </trkpt>
      <trkpt lat="47.32883" lon="-2.38084">
        <ele>29.60000038147</ele>
        <time>2019-09-05T09:17:48.000Z</time>
      </trkpt>
      <trkpt lat="47.32888" lon="-2.38075">
        <ele>29.200000762939</ele>
        <time>2019-09-05T09:17:49.000Z</time>
      </trkpt>
      <trkpt lat="47.32893" lon="-2.38066">
        <ele>28.60000038147</ele>
        <time>2019-09-05T09:17:50.000Z</time>
      </trkpt>
      <trkpt lat="47.32919" lon="-2.38024">
        <ele>28.60000038147</ele>
        <time>2019-09-05T09:17:55.000Z</time>
      </trkpt>
      <trkpt lat="47.32925" lon="-2.38015">
        <ele>28.200000762939</ele>
        <time>2019-09-05T09:17:56.000Z</time>
      </trkpt>
      <trkpt lat="47.3293" lon="-2.38007">
        <ele>27.799999237061</ele>
        <time>2019-09-05T09:17:57.000Z</time>
      </trkpt>
      <trkpt lat="47.32935" lon="-2.38">
        <ele>27.39999961853</ele>
        <time>2019-09-05T09:17:58.000Z</time>
      </trkpt>
      <trkpt lat="47.32941" lon="-2.37992">
        <ele>26.39999961853</ele>
        <time>2019-09-05T09:17:59.000Z</time>
      </trkpt>
      <trkpt lat="47.32952" lon="-2.37977">
        <ele>26.39999961853</ele>
        <time>2019-09-05T09:18:01.000Z</time>
      </trkpt>
      <trkpt lat="47.32967" lon="-2.37954">
        <ele>26.39999961853</ele>
        <time>2019-09-05T09:18:04.000Z</time>
      </trkpt>
      <trkpt lat="47.32978" lon="-2.37937">
        <ele>26.39999961853</ele>
        <time>2019-09-05T09:18:06.000Z</time>
      </trkpt>
      <trkpt lat="47.33005" lon="-2.37889">
        <ele>26.39999961853</ele>
        <time>2019-09-05T09:18:12.000Z</time>
      </trkpt>
      <trkpt lat="47.33027" lon="-2.37848">
        <ele>26.39999961853</ele>
        <time>2019-09-05T09:18:17.000Z</time>
      </trkpt>
      <trkpt lat="47.33037" lon="-2.37835">
        <ele>26</ele>
        <time>2019-09-05T09:18:19.000Z</time>
      </trkpt>
      <trkpt lat="47.33043" lon="-2.3783">
        <ele>25.60000038147</ele>
        <time>2019-09-05T09:18:20.000Z</time>
      </trkpt>
      <trkpt lat="47.33048" lon="-2.37824">
        <ele>25.200000762939</ele>
        <time>2019-09-05T09:18:21.000Z</time>
      </trkpt>
      <trkpt lat="47.33054" lon="-2.37819">
        <ele>24.799999237061</ele>
        <time>2019-09-05T09:18:22.000Z</time>
      </trkpt>
      <trkpt lat="47.3306" lon="-2.37813">
        <ele>24.39999961853</ele>
        <time>2019-09-05T09:18:23.000Z</time>
      </trkpt>
      <trkpt lat="47.33071" lon="-2.37803">
        <ele>24</ele>
        <time>2019-09-05T09:18:25.000Z</time>
      </trkpt>
      <trkpt lat="47.33077" lon="-2.37797">
        <ele>23.60000038147</ele>
        <time>2019-09-05T09:18:26.000Z</time>
      </trkpt>
      <trkpt lat="47.33083" lon="-2.37792">
        <ele>23.200000762939</ele>
        <time>2019-09-05T09:18:27.000Z</time>
      </trkpt>
      <trkpt lat="47.33088" lon="-2.37787">
        <ele>22.799999237061</ele>
        <time>2019-09-05T09:18:28.000Z</time>
      </trkpt>
      <trkpt lat="47.33093" lon="-2.37781">
        <ele>22.200000762939</ele>
        <time>2019-09-05T09:18:29.000Z</time>
      </trkpt>
      <trkpt lat="47.33111" lon="-2.37761">
        <ele>22.200000762939</ele>
        <time>2019-09-05T09:18:33.000Z</time>
      </trkpt>
      <trkpt lat="47.33115" lon="-2.37757">
        <ele>21.799999237061</ele>
        <time>2019-09-05T09:18:34.000Z</time>
      </trkpt>
      <trkpt lat="47.33118" lon="-2.37753">
        <ele>21.39999961853</ele>
        <time>2019-09-05T09:18:35.000Z</time>
      </trkpt>
      <trkpt lat="47.3312" lon="-2.37751">
        <ele>21</ele>
        <time>2019-09-05T09:18:36.000Z</time>
      </trkpt>
      <trkpt lat="47.33125" lon="-2.37743">
        <ele>20</ele>
        <time>2019-09-05T09:18:37.000Z</time>
      </trkpt>
      <trkpt lat="47.33125" lon="-2.37738">
        <ele>20</ele>
        <time>2019-09-05T09:18:40.000Z</time>
      </trkpt>
      <trkpt lat="47.33121" lon="-2.37734">
        <ele>20</ele>
        <time>2019-09-05T09:18:42.000Z</time>
      </trkpt>
      <trkpt lat="47.33113" lon="-2.37732">
        <ele>20</ele>
        <time>2019-09-05T09:18:46.000Z</time>
      </trkpt>
      <trkpt lat="47.33099" lon="-2.37723">
        <ele>20</ele>
        <time>2019-09-05T09:18:50.000Z</time>
      </trkpt>
      <trkpt lat="47.33095" lon="-2.3772">
        <ele>20.60000038147</ele>
        <time>2019-09-05T09:18:51.000Z</time>
      </trkpt>
      <trkpt lat="47.33091" lon="-2.37718">
        <ele>21</ele>
        <time>2019-09-05T09:18:52.000Z</time>
      </trkpt>
      <trkpt lat="47.33087" lon="-2.37717">
        <ele>21.39999961853</ele>
        <time>2019-09-05T09:18:53.000Z</time>
      </trkpt>
      <trkpt lat="47.33083" lon="-2.37714">
        <ele>21.799999237061</ele>
        <time>2019-09-05T09:18:54.000Z</time>
      </trkpt>
      <trkpt lat="47.3308" lon="-2.37711">
        <ele>22.200000762939</ele>
        <time>2019-09-05T09:18:55.000Z</time>
      </trkpt>
      <trkpt lat="47.33075" lon="-2.37708">
        <ele>22.200000762939</ele>
        <time>2019-09-05T09:18:56.000Z</time>
      </trkpt>
      <trkpt lat="47.33057" lon="-2.37685">
        <ele>22.200000762939</ele>
        <time>2019-09-05T09:19:01.000Z</time>
      </trkpt>
      <trkpt lat="47.33045" lon="-2.37668">
        <ele>22.200000762939</ele>
        <time>2019-09-05T09:19:04.000Z</time>
      </trkpt>
      <trkpt lat="47.33034" lon="-2.3765">
        <ele>22.200000762939</ele>
        <time>2019-09-05T09:19:07.000Z</time>
      </trkpt>
      <trkpt lat="47.33031" lon="-2.37643">
        <ele>22.200000762939</ele>
        <time>2019-09-05T09:19:08.000Z</time>
      </trkpt>
      <trkpt lat="47.3303" lon="-2.37621">
        <ele>22.200000762939</ele>
        <time>2019-09-05T09:19:11.000Z</time>
      </trkpt>
      <trkpt lat="47.3304" lon="-2.37598">
        <ele>22.200000762939</ele>
        <time>2019-09-05T09:19:14.000Z</time>
      </trkpt>
      <trkpt lat="47.33044" lon="-2.37591">
        <ele>22.200000762939</ele>
        <time>2019-09-05T09:19:15.000Z</time>
      </trkpt>
      <trkpt lat="47.33069" lon="-2.37541">
        <ele>22.200000762939</ele>
        <time>2019-09-05T09:19:21.000Z</time>
      </trkpt>
      <trkpt lat="47.33081" lon="-2.37514">
        <ele>21.799999237061</ele>
        <time>2019-09-05T09:19:24.000Z</time>
      </trkpt>
      <trkpt lat="47.33085" lon="-2.37505">
        <ele>21.39999961853</ele>
        <time>2019-09-05T09:19:25.000Z</time>
      </trkpt>
      <trkpt lat="47.33089" lon="-2.37495">
        <ele>21</ele>
        <time>2019-09-05T09:19:26.000Z</time>
      </trkpt>
      <trkpt lat="47.33093" lon="-2.37485">
        <ele>20.60000038147</ele>
        <time>2019-09-05T09:19:27.000Z</time>
      </trkpt>
      <trkpt lat="47.33097" lon="-2.37474">
        <ele>20</ele>
        <time>2019-09-05T09:19:28.000Z</time>
      </trkpt>
      <trkpt lat="47.331" lon="-2.37464">
        <ele>20</ele>
        <time>2019-09-05T09:19:29.000Z</time>
      </trkpt>
      <trkpt lat="47.33108" lon="-2.37431">
        <ele>20</ele>
        <time>2019-09-05T09:19:32.000Z</time>
      </trkpt>
      <trkpt lat="47.33108" lon="-2.37408">
        <ele>20</ele>
        <time>2019-09-05T09:19:34.000Z</time>
      </trkpt>
      <trkpt lat="47.33101" lon="-2.37327">
        <ele>20</ele>
        <time>2019-09-05T09:19:41.000Z</time>
      </trkpt>
      <trkpt lat="47.33099" lon="-2.37293">
        <ele>20</ele>
        <time>2019-09-05T09:19:45.000Z</time>
      </trkpt>
      <trkpt lat="47.331" lon="-2.37278">
        <ele>20</ele>
        <time>2019-09-05T09:19:47.000Z</time>
      </trkpt>
      <trkpt lat="47.331" lon="-2.3727">
        <ele>20</ele>
        <time>2019-09-05T09:19:48.000Z</time>
      </trkpt>
      <trkpt lat="47.331" lon="-2.37249">
        <ele>20</ele>
        <time>2019-09-05T09:19:51.000Z</time>
      </trkpt>
      <trkpt lat="47.331" lon="-2.37242">
        <ele>20</ele>
        <time>2019-09-05T09:19:52.000Z</time>
      </trkpt>
      <trkpt lat="47.331" lon="-2.3723">
        <ele>20.39999961853</ele>
        <time>2019-09-05T09:19:54.000Z</time>
      </trkpt>
      <trkpt lat="47.33101" lon="-2.37224">
        <ele>20.799999237061</ele>
        <time>2019-09-05T09:19:55.000Z</time>
      </trkpt>
      <trkpt lat="47.33101" lon="-2.37218">
        <ele>21.200000762939</ele>
        <time>2019-09-05T09:19:56.000Z</time>
      </trkpt>
      <trkpt lat="47.331" lon="-2.37213">
        <ele>21.60000038147</ele>
        <time>2019-09-05T09:19:57.000Z</time>
      </trkpt>
      <trkpt lat="47.33099" lon="-2.37196">
        <ele>23</ele>
        <time>2019-09-05T09:19:58.000Z</time>
      </trkpt>
      <trkpt lat="47.331" lon="-2.3719">
        <ele>23.39999961853</ele>
        <time>2019-09-05T09:20:02.000Z</time>
      </trkpt>
      <trkpt lat="47.331" lon="-2.37185">
        <ele>23.799999237061</ele>
        <time>2019-09-05T09:20:03.000Z</time>
      </trkpt>
      <trkpt lat="47.33101" lon="-2.37179">
        <ele>24.200000762939</ele>
        <time>2019-09-05T09:20:04.000Z</time>
      </trkpt>
      <trkpt lat="47.33101" lon="-2.37174">
        <ele>24.60000038147</ele>
        <time>2019-09-05T09:20:05.000Z</time>
      </trkpt>
      <trkpt lat="47.33101" lon="-2.37169">
        <ele>25</ele>
        <time>2019-09-05T09:20:06.000Z</time>
      </trkpt>
      <trkpt lat="47.33101" lon="-2.37163">
        <ele>25.39999961853</ele>
        <time>2019-09-05T09:20:07.000Z</time>
      </trkpt>
      <trkpt lat="47.33102" lon="-2.37158">
        <ele>25.799999237061</ele>
        <time>2019-09-05T09:20:08.000Z</time>
      </trkpt>
      <trkpt lat="47.33102" lon="-2.37152">
        <ele>26.200000762939</ele>
        <time>2019-09-05T09:20:09.000Z</time>
      </trkpt>
      <trkpt lat="47.33102" lon="-2.37147">
        <ele>26.60000038147</ele>
        <time>2019-09-05T09:20:10.000Z</time>
      </trkpt>
      <trkpt lat="47.33102" lon="-2.37141">
        <ele>27.200000762939</ele>
        <time>2019-09-05T09:20:11.000Z</time>
      </trkpt>
      <trkpt lat="47.33102" lon="-2.37135">
        <ele>27.60000038147</ele>
        <time>2019-09-05T09:20:12.000Z</time>
      </trkpt>
      <trkpt lat="47.33102" lon="-2.3713">
        <ele>28.200000762939</ele>
        <time>2019-09-05T09:20:13.000Z</time>
      </trkpt>
      <trkpt lat="47.33103" lon="-2.37124">
        <ele>28.60000038147</ele>
        <time>2019-09-05T09:20:14.000Z</time>
      </trkpt>
      <trkpt lat="47.33103" lon="-2.37118">
        <ele>28.60000038147</ele>
        <time>2019-09-05T09:20:15.000Z</time>
      </trkpt>
      <trkpt lat="47.33104" lon="-2.37094">
        <ele>28.60000038147</ele>
        <time>2019-09-05T09:20:19.000Z</time>
      </trkpt>
      <trkpt lat="47.33104" lon="-2.37083">
        <ele>29</ele>
        <time>2019-09-05T09:20:21.000Z</time>
      </trkpt>
      <trkpt lat="47.33103" lon="-2.37077">
        <ele>29.39999961853</ele>
        <time>2019-09-05T09:20:22.000Z</time>
      </trkpt>
      <trkpt lat="47.33102" lon="-2.37071">
        <ele>29.799999237061</ele>
        <time>2019-09-05T09:20:23.000Z</time>
      </trkpt>
      <trkpt lat="47.33101" lon="-2.37065">
        <ele>30.200000762939</ele>
        <time>2019-09-05T09:20:24.000Z</time>
      </trkpt>
      <trkpt lat="47.33101" lon="-2.37058">
        <ele>30.60000038147</ele>
        <time>2019-09-05T09:20:25.000Z</time>
      </trkpt>
      <trkpt lat="47.331" lon="-2.3701">
        <ele>30.60000038147</ele>
        <time>2019-09-05T09:20:32.000Z</time>
      </trkpt>
      <trkpt lat="47.33101" lon="-2.36963">
        <ele>30.60000038147</ele>
        <time>2019-09-05T09:20:37.000Z</time>
      </trkpt>
      <trkpt lat="47.33099" lon="-2.36907">
        <ele>30.60000038147</ele>
        <time>2019-09-05T09:20:43.000Z</time>
      </trkpt>
      <trkpt lat="47.331" lon="-2.36899">
        <ele>30.200000762939</ele>
        <time>2019-09-05T09:20:44.000Z</time>
      </trkpt>
      <trkpt lat="47.33103" lon="-2.36893">
        <ele>29.799999237061</ele>
        <time>2019-09-05T09:20:45.000Z</time>
      </trkpt>
      <trkpt lat="47.33107" lon="-2.36888">
        <ele>29.39999961853</ele>
        <time>2019-09-05T09:20:46.000Z</time>
      </trkpt>
      <trkpt lat="47.33112" lon="-2.36883">
        <ele>28.799999237061</ele>
        <time>2019-09-05T09:20:47.000Z</time>
      </trkpt>
      <trkpt lat="47.33118" lon="-2.36878">
        <ele>28.39999961853</ele>
        <time>2019-09-05T09:20:48.000Z</time>
      </trkpt>
      <trkpt lat="47.33131" lon="-2.3687">
        <ele>28.39999961853</ele>
        <time>2019-09-05T09:20:50.000Z</time>
      </trkpt>
      <trkpt lat="47.33149" lon="-2.36854">
        <ele>28.39999961853</ele>
        <time>2019-09-05T09:20:53.000Z</time>
      </trkpt>
      <trkpt lat="47.33174" lon="-2.36829">
        <ele>28</ele>
        <time>2019-09-05T09:20:57.000Z</time>
      </trkpt>
      <trkpt lat="47.33181" lon="-2.36823">
        <ele>27.60000038147</ele>
        <time>2019-09-05T09:20:58.000Z</time>
      </trkpt>
      <trkpt lat="47.33188" lon="-2.36817">
        <ele>27.200000762939</ele>
        <time>2019-09-05T09:20:59.000Z</time>
      </trkpt>
      <trkpt lat="47.33194" lon="-2.3681">
        <ele>26.60000038147</ele>
        <time>2019-09-05T09:21:00.000Z</time>
      </trkpt>
      <trkpt lat="47.332" lon="-2.36804">
        <ele>26.200000762939</ele>
        <time>2019-09-05T09:21:01.000Z</time>
      </trkpt>
      <trkpt lat="47.33222" lon="-2.36785">
        <ele>26.200000762939</ele>
        <time>2019-09-05T09:21:04.000Z</time>
      </trkpt>
      <trkpt lat="47.33248" lon="-2.36756">
        <ele>25.799999237061</ele>
        <time>2019-09-05T09:21:08.000Z</time>
      </trkpt>
      <trkpt lat="47.33254" lon="-2.36747">
        <ele>25.39999961853</ele>
        <time>2019-09-05T09:21:09.000Z</time>
      </trkpt>
      <trkpt lat="47.3326" lon="-2.36739">
        <ele>25</ele>
        <time>2019-09-05T09:21:10.000Z</time>
      </trkpt>
      <trkpt lat="47.33265" lon="-2.36729">
        <ele>24.60000038147</ele>
        <time>2019-09-05T09:21:11.000Z</time>
      </trkpt>
      <trkpt lat="47.3327" lon="-2.36719">
        <ele>24.200000762939</ele>
        <time>2019-09-05T09:21:12.000Z</time>
      </trkpt>
      <trkpt lat="47.33273" lon="-2.36708">
        <ele>24.200000762939</ele>
        <time>2019-09-05T09:21:13.000Z</time>
      </trkpt>
      <trkpt lat="47.3328" lon="-2.36687">
        <ele>23.799999237061</ele>
        <time>2019-09-05T09:21:15.000Z</time>
      </trkpt>
      <trkpt lat="47.33291" lon="-2.36656">
        <ele>22.39999961853</ele>
        <time>2019-09-05T09:21:16.000Z</time>
      </trkpt>
      <trkpt lat="47.33294" lon="-2.36646">
        <ele>22</ele>
        <time>2019-09-05T09:21:19.000Z</time>
      </trkpt>
      <trkpt lat="47.33297" lon="-2.36634">
        <ele>22</ele>
        <time>2019-09-05T09:21:20.000Z</time>
      </trkpt>
      <trkpt lat="47.33314" lon="-2.36576">
        <ele>22</ele>
        <time>2019-09-05T09:21:26.000Z</time>
      </trkpt>
      <trkpt lat="47.3332" lon="-2.36549">
        <ele>22</ele>
        <time>2019-09-05T09:21:27.000Z</time>
      </trkpt>
      <trkpt lat="47.33329" lon="-2.3651">
        <ele>22</ele>
        <time>2019-09-05T09:21:33.000Z</time>
      </trkpt>
      <trkpt lat="47.33331" lon="-2.36489">
        <ele>22.39999961853</ele>
        <time>2019-09-05T09:21:35.000Z</time>
      </trkpt>
      <trkpt lat="47.33332" lon="-2.36479">
        <ele>23</ele>
        <time>2019-09-05T09:21:36.000Z</time>
      </trkpt>
      <trkpt lat="47.33332" lon="-2.36469">
        <ele>23.39999961853</ele>
        <time>2019-09-05T09:21:37.000Z</time>
      </trkpt>
      <trkpt lat="47.33331" lon="-2.36459">
        <ele>24.200000762939</ele>
        <time>2019-09-05T09:21:38.000Z</time>
      </trkpt>
      <trkpt lat="47.33327" lon="-2.3643">
        <ele>24.200000762939</ele>
        <time>2019-09-05T09:21:41.000Z</time>
      </trkpt>
      <trkpt lat="47.33322" lon="-2.36401">
        <ele>24.200000762939</ele>
        <time>2019-09-05T09:21:44.000Z</time>
      </trkpt>
      <trkpt lat="47.3332" lon="-2.36392">
        <ele>24.60000038147</ele>
        <time>2019-09-05T09:21:45.000Z</time>
      </trkpt>
      <trkpt lat="47.33315" lon="-2.36364">
        <ele>26</ele>
        <time>2019-09-05T09:21:46.000Z</time>
      </trkpt>
      <trkpt lat="47.33313" lon="-2.36355">
        <ele>26.39999961853</ele>
        <time>2019-09-05T09:21:49.000Z</time>
      </trkpt>
      <trkpt lat="47.33308" lon="-2.36309">
        <ele>26.39999961853</ele>
        <time>2019-09-05T09:21:54.000Z</time>
      </trkpt>
      <trkpt lat="47.33306" lon="-2.36274">
        <ele>26.39999961853</ele>
        <time>2019-09-05T09:21:56.000Z</time>
      </trkpt>
      <trkpt lat="47.33306" lon="-2.36259">
        <ele>26.39999961853</ele>
        <time>2019-09-05T09:22:00.000Z</time>
      </trkpt>
      <trkpt lat="47.33308" lon="-2.36195">
        <ele>26.39999961853</ele>
        <time>2019-09-05T09:22:08.000Z</time>
      </trkpt>
      <trkpt lat="47.33308" lon="-2.36138">
        <ele>26.39999961853</ele>
        <time>2019-09-05T09:22:16.000Z</time>
      </trkpt>
      <trkpt lat="47.33309" lon="-2.3608">
        <ele>26.39999961853</ele>
        <time>2019-09-05T09:22:25.000Z</time>
      </trkpt>
      <trkpt lat="47.33309" lon="-2.36073">
        <ele>26.799999237061</ele>
        <time>2019-09-05T09:22:26.000Z</time>
      </trkpt>
      <trkpt lat="47.33309" lon="-2.36067">
        <ele>27.60000038147</ele>
        <time>2019-09-05T09:22:27.000Z</time>
      </trkpt>
      <trkpt lat="47.33309" lon="-2.36061">
        <ele>28</ele>
        <time>2019-09-05T09:22:28.000Z</time>
      </trkpt>
      <trkpt lat="47.33309" lon="-2.36054">
        <ele>28.39999961853</ele>
        <time>2019-09-05T09:22:29.000Z</time>
      </trkpt>
      <trkpt lat="47.3331" lon="-2.36033">
        <ele>28.39999961853</ele>
        <time>2019-09-05T09:22:32.000Z</time>
      </trkpt>
      <trkpt lat="47.33316" lon="-2.35983">
        <ele>28.39999961853</ele>
        <time>2019-09-05T09:22:39.000Z</time>
      </trkpt>
      <trkpt lat="47.3332" lon="-2.35952">
        <ele>28.39999961853</ele>
        <time>2019-09-05T09:22:43.000Z</time>
      </trkpt>
      <trkpt lat="47.3332" lon="-2.35927">
        <ele>28.39999961853</ele>
        <time>2019-09-05T09:22:44.000Z</time>
      </trkpt>
      <trkpt lat="47.33316" lon="-2.35911">
        <ele>28.39999961853</ele>
        <time>2019-09-05T09:22:48.000Z</time>
      </trkpt>
      <trkpt lat="47.33305" lon="-2.35891">
        <ele>28.39999961853</ele>
        <time>2019-09-05T09:22:51.000Z</time>
      </trkpt>
      <trkpt lat="47.33296" lon="-2.35881">
        <ele>28.39999961853</ele>
        <time>2019-09-05T09:22:53.000Z</time>
      </trkpt>
      <trkpt lat="47.33278" lon="-2.35869">
        <ele>28.39999961853</ele>
        <time>2019-09-05T09:22:56.000Z</time>
      </trkpt>
      <trkpt lat="47.33254" lon="-2.35846">
        <ele>27.200000762939</ele>
        <time>2019-09-05T09:22:58.000Z</time>
      </trkpt>
      <trkpt lat="47.33248" lon="-2.3584">
        <ele>26.799999237061</ele>
        <time>2019-09-05T09:23:01.000Z</time>
      </trkpt>
      <trkpt lat="47.33242" lon="-2.35835">
        <ele>26.39999961853</ele>
        <time>2019-09-05T09:23:02.000Z</time>
      </trkpt>
      <trkpt lat="47.33235" lon="-2.3583">
        <ele>26</ele>
        <time>2019-09-05T09:23:03.000Z</time>
      </trkpt>
      <trkpt lat="47.33227" lon="-2.35827">
        <ele>25.39999961853</ele>
        <time>2019-09-05T09:23:04.000Z</time>
      </trkpt>
      <trkpt lat="47.3322" lon="-2.35824">
        <ele>25</ele>
        <time>2019-09-05T09:23:05.000Z</time>
      </trkpt>
      <trkpt lat="47.33212" lon="-2.35821">
        <ele>24.60000038147</ele>
        <time>2019-09-05T09:23:06.000Z</time>
      </trkpt>
      <trkpt lat="47.33205" lon="-2.35819">
        <ele>24.200000762939</ele>
        <time>2019-09-05T09:23:07.000Z</time>
      </trkpt>
      <trkpt lat="47.33198" lon="-2.35817">
        <ele>24.200000762939</ele>
        <time>2019-09-05T09:23:08.000Z</time>
      </trkpt>
      <trkpt lat="47.3317" lon="-2.35813">
        <ele>23.60000038147</ele>
        <time>2019-09-05T09:23:12.000Z</time>
      </trkpt>
      <trkpt lat="47.33163" lon="-2.35812">
        <ele>23.200000762939</ele>
        <time>2019-09-05T09:23:13.000Z</time>
      </trkpt>
      <trkpt lat="47.33157" lon="-2.35811">
        <ele>22.60000038147</ele>
        <time>2019-09-05T09:23:14.000Z</time>
      </trkpt>
      <trkpt lat="47.33151" lon="-2.3581">
        <ele>22.200000762939</ele>
        <time>2019-09-05T09:23:15.000Z</time>
      </trkpt>
      <trkpt lat="47.33145" lon="-2.35809">
        <ele>21.60000038147</ele>
        <time>2019-09-05T09:23:16.000Z</time>
      </trkpt>
      <trkpt lat="47.33106" lon="-2.35807">
        <ele>21.60000038147</ele>
        <time>2019-09-05T09:23:21.000Z</time>
      </trkpt>
      <trkpt lat="47.33085" lon="-2.35808">
        <ele>21.200000762939</ele>
        <time>2019-09-05T09:23:24.000Z</time>
      </trkpt>
      <trkpt lat="47.33078" lon="-2.35809">
        <ele>20.799999237061</ele>
        <time>2019-09-05T09:23:25.000Z</time>
      </trkpt>
      <trkpt lat="47.33071" lon="-2.35809">
        <ele>20.39999961853</ele>
        <time>2019-09-05T09:23:26.000Z</time>
      </trkpt>
      <trkpt lat="47.33064" lon="-2.35809">
        <ele>20</ele>
        <time>2019-09-05T09:23:27.000Z</time>
      </trkpt>
      <trkpt lat="47.33058" lon="-2.35809">
        <ele>19.60000038147</ele>
        <time>2019-09-05T09:23:28.000Z</time>
      </trkpt>
      <trkpt lat="47.33043" lon="-2.35806">
        <ele>19.60000038147</ele>
        <time>2019-09-05T09:23:30.000Z</time>
      </trkpt>
      <trkpt lat="47.33036" lon="-2.35803">
        <ele>19.60000038147</ele>
        <time>2019-09-05T09:23:31.000Z</time>
      </trkpt>
      <trkpt lat="47.33018" lon="-2.35785">
        <ele>19.60000038147</ele>
        <time>2019-09-05T09:23:34.000Z</time>
      </trkpt>
      <trkpt lat="47.33013" lon="-2.35775">
        <ele>19.200000762939</ele>
        <time>2019-09-05T09:23:35.000Z</time>
      </trkpt>
      <trkpt lat="47.3301" lon="-2.35765">
        <ele>18.799999237061</ele>
        <time>2019-09-05T09:23:36.000Z</time>
      </trkpt>
      <trkpt lat="47.33007" lon="-2.35754">
        <ele>18.39999961853</ele>
        <time>2019-09-05T09:23:37.000Z</time>
      </trkpt>
      <trkpt lat="47.33005" lon="-2.35742">
        <ele>18</ele>
        <time>2019-09-05T09:23:38.000Z</time>
      </trkpt>
      <trkpt lat="47.33005" lon="-2.3573">
        <ele>17.60000038147</ele>
        <time>2019-09-05T09:23:39.000Z</time>
      </trkpt>
      <trkpt lat="47.33005" lon="-2.35718">
        <ele>17.60000038147</ele>
        <time>2019-09-05T09:23:40.000Z</time>
      </trkpt>
      <trkpt lat="47.33006" lon="-2.35707">
        <ele>17.60000038147</ele>
        <time>2019-09-05T09:23:41.000Z</time>
      </trkpt>
      <trkpt lat="47.33008" lon="-2.35696">
        <ele>17.60000038147</ele>
        <time>2019-09-05T09:23:42.000Z</time>
      </trkpt>
      <trkpt lat="47.33012" lon="-2.35677">
        <ele>17.60000038147</ele>
        <time>2019-09-05T09:23:44.000Z</time>
      </trkpt>
      <trkpt lat="47.33015" lon="-2.35657">
        <ele>17.60000038147</ele>
        <time>2019-09-05T09:23:46.000Z</time>
      </trkpt>
      <trkpt lat="47.33017" lon="-2.3564">
        <ele>17.60000038147</ele>
        <time>2019-09-05T09:23:48.000Z</time>
      </trkpt>
      <trkpt lat="47.33017" lon="-2.35633">
        <ele>17.60000038147</ele>
        <time>2019-09-05T09:23:49.000Z</time>
      </trkpt>
      <trkpt lat="47.33022" lon="-2.35599">
        <ele>17.60000038147</ele>
        <time>2019-09-05T09:23:54.000Z</time>
      </trkpt>
      <trkpt lat="47.33025" lon="-2.3557">
        <ele>17.60000038147</ele>
        <time>2019-09-05T09:23:58.000Z</time>
      </trkpt>
      <trkpt lat="47.33024" lon="-2.35555">
        <ele>17.60000038147</ele>
        <time>2019-09-05T09:24:00.000Z</time>
      </trkpt>
      <trkpt lat="47.33024" lon="-2.3554">
        <ele>18</ele>
        <time>2019-09-05T09:24:02.000Z</time>
      </trkpt>
      <trkpt lat="47.33025" lon="-2.35533">
        <ele>18.39999961853</ele>
        <time>2019-09-05T09:24:03.000Z</time>
      </trkpt>
      <trkpt lat="47.33024" lon="-2.35525">
        <ele>18.799999237061</ele>
        <time>2019-09-05T09:24:04.000Z</time>
      </trkpt>
      <trkpt lat="47.33025" lon="-2.35518">
        <ele>19.60000038147</ele>
        <time>2019-09-05T09:24:05.000Z</time>
      </trkpt>
      <trkpt lat="47.33027" lon="-2.35495">
        <ele>19.60000038147</ele>
        <time>2019-09-05T09:24:08.000Z</time>
      </trkpt>
      <trkpt lat="47.33029" lon="-2.35481">
        <ele>19.60000038147</ele>
        <time>2019-09-05T09:24:10.000Z</time>
      </trkpt>
      <trkpt lat="47.3303" lon="-2.3546">
        <ele>19.60000038147</ele>
        <time>2019-09-05T09:24:13.000Z</time>
      </trkpt>
      <trkpt lat="47.33028" lon="-2.35448">
        <ele>19.60000038147</ele>
        <time>2019-09-05T09:24:15.000Z</time>
      </trkpt>
      <trkpt lat="47.33028" lon="-2.35427">
        <ele>20</ele>
        <time>2019-09-05T09:24:18.000Z</time>
      </trkpt>
      <trkpt lat="47.33028" lon="-2.35421">
        <ele>20.39999961853</ele>
        <time>2019-09-05T09:24:19.000Z</time>
      </trkpt>
      <trkpt lat="47.33028" lon="-2.35414">
        <ele>20.799999237061</ele>
        <time>2019-09-05T09:24:20.000Z</time>
      </trkpt>
      <trkpt lat="47.33027" lon="-2.35406">
        <ele>21.200000762939</ele>
        <time>2019-09-05T09:24:21.000Z</time>
      </trkpt>
      <trkpt lat="47.33027" lon="-2.35399">
        <ele>21.799999237061</ele>
        <time>2019-09-05T09:24:22.000Z</time>
      </trkpt>
      <trkpt lat="47.33022" lon="-2.35371">
        <ele>21.799999237061</ele>
        <time>2019-09-05T09:24:26.000Z</time>
      </trkpt>
      <trkpt lat="47.33019" lon="-2.35342">
        <ele>22.200000762939</ele>
        <time>2019-09-05T09:24:30.000Z</time>
      </trkpt>
      <trkpt lat="47.33018" lon="-2.35334">
        <ele>22.60000038147</ele>
        <time>2019-09-05T09:24:31.000Z</time>
      </trkpt>
      <trkpt lat="47.33018" lon="-2.35327">
        <ele>23</ele>
        <time>2019-09-05T09:24:32.000Z</time>
      </trkpt>
      <trkpt lat="47.33018" lon="-2.35319">
        <ele>23.39999961853</ele>
        <time>2019-09-05T09:24:33.000Z</time>
      </trkpt>
      <trkpt lat="47.33018" lon="-2.35312">
        <ele>23.799999237061</ele>
        <time>2019-09-05T09:24:34.000Z</time>
      </trkpt>
      <trkpt lat="47.33019" lon="-2.3529">
        <ele>23.799999237061</ele>
        <time>2019-09-05T09:24:37.000Z</time>
      </trkpt>
      <trkpt lat="47.33021" lon="-2.35274">
        <ele>23.799999237061</ele>
        <time>2019-09-05T09:24:39.000Z</time>
      </trkpt>
      <trkpt lat="47.33021" lon="-2.35265">
        <ele>23.799999237061</ele>
        <time>2019-09-05T09:24:40.000Z</time>
      </trkpt>
      <trkpt lat="47.33019" lon="-2.35239">
        <ele>23.799999237061</ele>
        <time>2019-09-05T09:24:43.000Z</time>
      </trkpt>
      <trkpt lat="47.33018" lon="-2.35221">
        <ele>23.799999237061</ele>
        <time>2019-09-05T09:24:45.000Z</time>
      </trkpt>
      <trkpt lat="47.33017" lon="-2.35195">
        <ele>23.799999237061</ele>
        <time>2019-09-05T09:24:48.000Z</time>
      </trkpt>
      <trkpt lat="47.33012" lon="-2.35162">
        <ele>23.799999237061</ele>
        <time>2019-09-05T09:24:52.000Z</time>
      </trkpt>
      <trkpt lat="47.33012" lon="-2.35154">
        <ele>23.799999237061</ele>
        <time>2019-09-05T09:24:53.000Z</time>
      </trkpt>
      <trkpt lat="47.33011" lon="-2.35124">
        <ele>23.799999237061</ele>
        <time>2019-09-05T09:24:57.000Z</time>
      </trkpt>
      <trkpt lat="47.33004" lon="-2.35084">
        <ele>23.799999237061</ele>
        <time>2019-09-05T09:25:04.000Z</time>
      </trkpt>
      <trkpt lat="47.33003" lon="-2.35078">
        <ele>23.799999237061</ele>
        <time>2019-09-05T09:25:05.000Z</time>
      </trkpt>
      <trkpt lat="47.32994" lon="-2.35047">
        <ele>23.799999237061</ele>
        <time>2019-09-05T09:25:09.000Z</time>
      </trkpt>
      <trkpt lat="47.3299" lon="-2.35038">
        <ele>23.39999961853</ele>
        <time>2019-09-05T09:25:10.000Z</time>
      </trkpt>
      <trkpt lat="47.32986" lon="-2.35029">
        <ele>22.799999237061</ele>
        <time>2019-09-05T09:25:11.000Z</time>
      </trkpt>
      <trkpt lat="47.32983" lon="-2.35021">
        <ele>22.39999961853</ele>
        <time>2019-09-05T09:25:12.000Z</time>
      </trkpt>
      <trkpt lat="47.32979" lon="-2.35013">
        <ele>22</ele>
        <time>2019-09-05T09:25:13.000Z</time>
      </trkpt>
      <trkpt lat="47.32976" lon="-2.35005">
        <ele>21.60000038147</ele>
        <time>2019-09-05T09:25:14.000Z</time>
      </trkpt>
      <trkpt lat="47.32971" lon="-2.3499">
        <ele>21.60000038147</ele>
        <time>2019-09-05T09:25:16.000Z</time>
      </trkpt>
      <trkpt lat="47.32964" lon="-2.34966">
        <ele>21.60000038147</ele>
        <time>2019-09-05T09:25:19.000Z</time>
      </trkpt>
      <trkpt lat="47.32947" lon="-2.34911">
        <ele>21.60000038147</ele>
        <time>2019-09-05T09:25:25.000Z</time>
      </trkpt>
      <trkpt lat="47.32931" lon="-2.3487">
        <ele>21.200000762939</ele>
        <time>2019-09-05T09:25:28.000Z</time>
      </trkpt>
      <trkpt lat="47.32928" lon="-2.34863">
        <ele>20.799999237061</ele>
        <time>2019-09-05T09:25:31.000Z</time>
      </trkpt>
      <trkpt lat="47.32925" lon="-2.34856">
        <ele>20.39999961853</ele>
        <time>2019-09-05T09:25:32.000Z</time>
      </trkpt>
      <trkpt lat="47.32922" lon="-2.34848">
        <ele>20</ele>
        <time>2019-09-05T09:25:33.000Z</time>
      </trkpt>
      <trkpt lat="47.32919" lon="-2.34839">
        <ele>19.60000038147</ele>
        <time>2019-09-05T09:25:34.000Z</time>
      </trkpt>
      <trkpt lat="47.32913" lon="-2.34823">
        <ele>19.60000038147</ele>
        <time>2019-09-05T09:25:36.000Z</time>
      </trkpt>
      <trkpt lat="47.3291" lon="-2.34806">
        <ele>19.60000038147</ele>
        <time>2019-09-05T09:25:38.000Z</time>
      </trkpt>
      <trkpt lat="47.32911" lon="-2.34792">
        <ele>19.60000038147</ele>
        <time>2019-09-05T09:25:40.000Z</time>
      </trkpt>
      <trkpt lat="47.32921" lon="-2.3478">
        <ele>19.60000038147</ele>
        <time>2019-09-05T09:25:43.000Z</time>
      </trkpt>
      <trkpt lat="47.32948" lon="-2.34759">
        <ele>19.60000038147</ele>
        <time>2019-09-05T09:25:48.000Z</time>
      </trkpt>
      <trkpt lat="47.32975" lon="-2.34739">
        <ele>19.200000762939</ele>
        <time>2019-09-05T09:25:52.000Z</time>
      </trkpt>
      <trkpt lat="47.32982" lon="-2.34734">
        <ele>18.60000038147</ele>
        <time>2019-09-05T09:25:53.000Z</time>
      </trkpt>
      <trkpt lat="47.32989" lon="-2.34727">
        <ele>18.200000762939</ele>
        <time>2019-09-05T09:25:54.000Z</time>
      </trkpt>
      <trkpt lat="47.32995" lon="-2.34721">
        <ele>17.799999237061</ele>
        <time>2019-09-05T09:25:55.000Z</time>
      </trkpt>
      <trkpt lat="47.33002" lon="-2.34716">
        <ele>17.39999961853</ele>
        <time>2019-09-05T09:25:56.000Z</time>
      </trkpt>
      <trkpt lat="47.33042" lon="-2.34678">
        <ele>17.39999961853</ele>
        <time>2019-09-05T09:26:02.000Z</time>
      </trkpt>
      <trkpt lat="47.33068" lon="-2.34652">
        <ele>17.39999961853</ele>
        <time>2019-09-05T09:26:06.000Z</time>
      </trkpt>
      <trkpt lat="47.33074" lon="-2.34647">
        <ele>17.39999961853</ele>
        <time>2019-09-05T09:26:07.000Z</time>
      </trkpt>
      <trkpt lat="47.33107" lon="-2.34613">
        <ele>17.39999961853</ele>
        <time>2019-09-05T09:26:12.000Z</time>
      </trkpt>
      <trkpt lat="47.33167" lon="-2.34553">
        <ele>17.39999961853</ele>
        <time>2019-09-05T09:26:19.000Z</time>
      </trkpt>
      <trkpt lat="47.33173" lon="-2.34547">
        <ele>17</ele>
        <time>2019-09-05T09:26:22.000Z</time>
      </trkpt>
      <trkpt lat="47.33178" lon="-2.34541">
        <ele>16.60000038147</ele>
        <time>2019-09-05T09:26:23.000Z</time>
      </trkpt>
      <trkpt lat="47.33184" lon="-2.34534">
        <ele>16.200000762939</ele>
        <time>2019-09-05T09:26:24.000Z</time>
      </trkpt>
      <trkpt lat="47.3319" lon="-2.34528">
        <ele>15.800000190735</ele>
        <time>2019-09-05T09:26:25.000Z</time>
      </trkpt>
      <trkpt lat="47.33195" lon="-2.34522">
        <ele>15.39999961853</ele>
        <time>2019-09-05T09:26:26.000Z</time>
      </trkpt>
      <trkpt lat="47.33206" lon="-2.34512">
        <ele>15.39999961853</ele>
        <time>2019-09-05T09:26:28.000Z</time>
      </trkpt>
      <trkpt lat="47.33247" lon="-2.34476">
        <ele>15.39999961853</ele>
        <time>2019-09-05T09:26:35.000Z</time>
      </trkpt>
      <trkpt lat="47.33266" lon="-2.34478">
        <ele>15.39999961853</ele>
        <time>2019-09-05T09:26:38.000Z</time>
      </trkpt>
      <trkpt lat="47.33273" lon="-2.3448">
        <ele>15.39999961853</ele>
        <time>2019-09-05T09:26:39.000Z</time>
      </trkpt>
      <trkpt lat="47.33278" lon="-2.34483">
        <ele>15.39999961853</ele>
        <time>2019-09-05T09:26:40.000Z</time>
      </trkpt>
      <trkpt lat="47.33295" lon="-2.34492">
        <ele>15.39999961853</ele>
        <time>2019-09-05T09:26:43.000Z</time>
      </trkpt>
      <trkpt lat="47.3332" lon="-2.34505">
        <ele>15.39999961853</ele>
        <time>2019-09-05T09:26:48.000Z</time>
      </trkpt>
      <trkpt lat="47.33341" lon="-2.34517">
        <ele>15.39999961853</ele>
        <time>2019-09-05T09:26:53.000Z</time>
      </trkpt>
      <trkpt lat="47.33341" lon="-2.34524">
        <ele>15.39999961853</ele>
        <time>2019-09-05T09:26:55.000Z</time>
      </trkpt>
      <trkpt lat="47.33339" lon="-2.34539">
        <ele>15.39999961853</ele>
        <time>2019-09-05T09:26:59.000Z</time>
      </trkpt>
      <trkpt lat="47.33338" lon="-2.34542">
        <ele>15.39999961853</ele>
        <time>2019-09-05T09:27:00.000Z</time>
      </trkpt>
      <trkpt lat="47.33333" lon="-2.34561">
        <ele>15.39999961853</ele>
        <time>2019-09-05T09:27:05.000Z</time>
      </trkpt>
      <trkpt lat="47.33325" lon="-2.34592">
        <ele>15.39999961853</ele>
        <time>2019-09-05T09:27:12.000Z</time>
      </trkpt>
      <trkpt lat="47.33311" lon="-2.34625">
        <ele>15.39999961853</ele>
        <time>2019-09-05T09:27:17.000Z</time>
      </trkpt>
      <trkpt lat="47.33302" lon="-2.3465">
        <ele>15.39999961853</ele>
        <time>2019-09-05T09:27:21.000Z</time>
      </trkpt>
      <trkpt lat="47.33296" lon="-2.34662">
        <ele>15.39999961853</ele>
        <time>2019-09-05T09:27:23.000Z</time>
      </trkpt>
      <trkpt lat="47.33288" lon="-2.3468">
        <ele>15.39999961853</ele>
        <time>2019-09-05T09:27:26.000Z</time>
      </trkpt>
      <trkpt lat="47.33285" lon="-2.34687">
        <ele>15.39999961853</ele>
        <time>2019-09-05T09:27:27.000Z</time>
      </trkpt>
      <trkpt lat="47.33269" lon="-2.34731">
        <ele>15.39999961853</ele>
        <time>2019-09-05T09:27:34.000Z</time>
      </trkpt>
      <trkpt lat="47.33263" lon="-2.34751">
        <ele>15.39999961853</ele>
        <time>2019-09-05T09:27:35.000Z</time>
      </trkpt>
      <trkpt lat="47.33254" lon="-2.34776">
        <ele>15.39999961853</ele>
        <time>2019-09-05T09:27:41.000Z</time>
      </trkpt>
      <trkpt lat="47.33252" lon="-2.34783">
        <ele>15.800000190735</ele>
        <time>2019-09-05T09:27:42.000Z</time>
      </trkpt>
      <trkpt lat="47.33249" lon="-2.34791">
        <ele>16.200000762939</ele>
        <time>2019-09-05T09:27:43.000Z</time>
      </trkpt>
      <trkpt lat="47.33247" lon="-2.34799">
        <ele>16.60000038147</ele>
        <time>2019-09-05T09:27:44.000Z</time>
      </trkpt>
      <trkpt lat="47.33245" lon="-2.34805">
        <ele>17</ele>
        <time>2019-09-05T09:27:45.000Z</time>
      </trkpt>
      <trkpt lat="47.33242" lon="-2.34812">
        <ele>17.39999961853</ele>
        <time>2019-09-05T09:27:46.000Z</time>
      </trkpt>
      <trkpt lat="47.33229" lon="-2.3485">
        <ele>17.39999961853</ele>
        <time>2019-09-05T09:27:52.000Z</time>
      </trkpt>
      <trkpt lat="47.33219" lon="-2.34878">
        <ele>17.39999961853</ele>
        <time>2019-09-05T09:27:57.000Z</time>
      </trkpt>
      <trkpt lat="47.33204" lon="-2.34908">
        <ele>17.799999237061</ele>
        <time>2019-09-05T09:28:03.000Z</time>
      </trkpt>
      <trkpt lat="47.33201" lon="-2.34914">
        <ele>18.39999961853</ele>
        <time>2019-09-05T09:28:04.000Z</time>
      </trkpt>
      <trkpt lat="47.33199" lon="-2.3492">
        <ele>18.799999237061</ele>
        <time>2019-09-05T09:28:05.000Z</time>
      </trkpt>
      <trkpt lat="47.33197" lon="-2.34925">
        <ele>19.200000762939</ele>
        <time>2019-09-05T09:28:06.000Z</time>
      </trkpt>
      <trkpt lat="47.33194" lon="-2.34931">
        <ele>19.60000038147</ele>
        <time>2019-09-05T09:28:07.000Z</time>
      </trkpt>
      <trkpt lat="47.33188" lon="-2.34944">
        <ele>19.60000038147</ele>
        <time>2019-09-05T09:28:09.000Z</time>
      </trkpt>
      <trkpt lat="47.33175" lon="-2.34976">
        <ele>19.60000038147</ele>
        <time>2019-09-05T09:28:14.000Z</time>
      </trkpt>
      <trkpt lat="47.33176" lon="-2.34999">
        <ele>19.60000038147</ele>
        <time>2019-09-05T09:28:19.000Z</time>
      </trkpt>
      <trkpt lat="47.33181" lon="-2.34994">
        <ele>19.60000038147</ele>
        <time>2019-09-05T09:28:22.000Z</time>
      </trkpt>
      <trkpt lat="47.33184" lon="-2.3499">
        <ele>19.60000038147</ele>
        <time>2019-09-05T09:28:23.000Z</time>
      </trkpt>
      <trkpt lat="47.33187" lon="-2.34987">
        <ele>19.60000038147</ele>
        <time>2019-09-05T09:28:24.000Z</time>
      </trkpt>
      <trkpt lat="47.33203" lon="-2.3497">
        <ele>19.60000038147</ele>
        <time>2019-09-05T09:28:28.000Z</time>
      </trkpt>
      <trkpt lat="47.3322" lon="-2.34956">
        <ele>19.60000038147</ele>
        <time>2019-09-05T09:28:32.000Z</time>
      </trkpt>
      <trkpt lat="47.33226" lon="-2.34954">
        <ele>19.60000038147</ele>
        <time>2019-09-05T09:28:33.000Z</time>
      </trkpt>
      <trkpt lat="47.33261" lon="-2.34942">
        <ele>19.60000038147</ele>
        <time>2019-09-05T09:28:40.000Z</time>
      </trkpt>
      <trkpt lat="47.33276" lon="-2.34939">
        <ele>19.60000038147</ele>
        <time>2019-09-05T09:28:43.000Z</time>
      </trkpt>
      <trkpt lat="47.33285" lon="-2.34937">
        <ele>19.60000038147</ele>
        <time>2019-09-05T09:28:45.000Z</time>
      </trkpt>
      <trkpt lat="47.33289" lon="-2.34937">
        <ele>20</ele>
        <time>2019-09-05T09:28:46.000Z</time>
      </trkpt>
      <trkpt lat="47.33293" lon="-2.34936">
        <ele>20.39999961853</ele>
        <time>2019-09-05T09:28:47.000Z</time>
      </trkpt>
      <trkpt lat="47.33297" lon="-2.34936">
        <ele>20.799999237061</ele>
        <time>2019-09-05T09:28:48.000Z</time>
      </trkpt>
      <trkpt lat="47.33302" lon="-2.34936">
        <ele>21.200000762939</ele>
        <time>2019-09-05T09:28:49.000Z</time>
      </trkpt>
      <trkpt lat="47.33306" lon="-2.34937">
        <ele>21.60000038147</ele>
        <time>2019-09-05T09:28:50.000Z</time>
      </trkpt>
      <trkpt lat="47.3331" lon="-2.34937">
        <ele>21.60000038147</ele>
        <time>2019-09-05T09:28:51.000Z</time>
      </trkpt>
      <trkpt lat="47.33321" lon="-2.34939">
        <ele>21.60000038147</ele>
        <time>2019-09-05T09:28:55.000Z</time>
      </trkpt>
      <trkpt lat="47.33337" lon="-2.3494">
        <ele>21.60000038147</ele>
        <time>2019-09-05T09:29:00.000Z</time>
      </trkpt>
      <trkpt lat="47.33354" lon="-2.34935">
        <ele>21.60000038147</ele>
        <time>2019-09-05T09:29:04.000Z</time>
      </trkpt>
      <trkpt lat="47.33359" lon="-2.34934">
        <ele>21.60000038147</ele>
        <time>2019-09-05T09:29:05.000Z</time>
      </trkpt>
      <trkpt lat="47.33369" lon="-2.34934">
        <ele>21.60000038147</ele>
        <time>2019-09-05T09:29:07.000Z</time>
      </trkpt>
      <trkpt lat="47.33378" lon="-2.34932">
        <ele>21.60000038147</ele>
        <time>2019-09-05T09:29:09.000Z</time>
      </trkpt>
      <trkpt lat="47.33382" lon="-2.34931">
        <ele>21.60000038147</ele>
        <time>2019-09-05T09:29:10.000Z</time>
      </trkpt>
      <trkpt lat="47.33394" lon="-2.34927">
        <ele>22</ele>
        <time>2019-09-05T09:29:13.000Z</time>
      </trkpt>
      <trkpt lat="47.33398" lon="-2.34925">
        <ele>22.39999961853</ele>
        <time>2019-09-05T09:29:14.000Z</time>
      </trkpt>
      <trkpt lat="47.33402" lon="-2.34923">
        <ele>22.799999237061</ele>
        <time>2019-09-05T09:29:15.000Z</time>
      </trkpt>
      <trkpt lat="47.33406" lon="-2.3492">
        <ele>23.200000762939</ele>
        <time>2019-09-05T09:29:16.000Z</time>
      </trkpt>
      <trkpt lat="47.33411" lon="-2.34919">
        <ele>23.60000038147</ele>
        <time>2019-09-05T09:29:17.000Z</time>
      </trkpt>
      <trkpt lat="47.33432" lon="-2.34908">
        <ele>23.60000038147</ele>
        <time>2019-09-05T09:29:21.000Z</time>
      </trkpt>
      <trkpt lat="47.33464" lon="-2.34895">
        <ele>23.60000038147</ele>
        <time>2019-09-05T09:29:27.000Z</time>
      </trkpt>
      <trkpt lat="47.3349" lon="-2.34888">
        <ele>23.60000038147</ele>
        <time>2019-09-05T09:29:32.000Z</time>
      </trkpt>
      <trkpt lat="47.33495" lon="-2.34889">
        <ele>23.60000038147</ele>
        <time>2019-09-05T09:29:33.000Z</time>
      </trkpt>
      <trkpt lat="47.33505" lon="-2.3489">
        <ele>23.60000038147</ele>
        <time>2019-09-05T09:29:35.000Z</time>
      </trkpt>
      <trkpt lat="47.33514" lon="-2.34895">
        <ele>23.60000038147</ele>
        <time>2019-09-05T09:29:37.000Z</time>
      </trkpt>
      <trkpt lat="47.33519" lon="-2.34898">
        <ele>23.60000038147</ele>
        <time>2019-09-05T09:29:38.000Z</time>
      </trkpt>
      <trkpt lat="47.33536" lon="-2.34909">
        <ele>23.60000038147</ele>
        <time>2019-09-05T09:29:42.000Z</time>
      </trkpt>
      <trkpt lat="47.33546" lon="-2.34913">
        <ele>23.60000038147</ele>
        <time>2019-09-05T09:29:44.000Z</time>
      </trkpt>
      <trkpt lat="47.33589" lon="-2.34933">
        <ele>23.60000038147</ele>
        <time>2019-09-05T09:29:52.000Z</time>
      </trkpt>
      <trkpt lat="47.33626" lon="-2.34956">
        <ele>23.60000038147</ele>
        <time>2019-09-05T09:29:58.000Z</time>
      </trkpt>
      <trkpt lat="47.33632" lon="-2.34959">
        <ele>23.60000038147</ele>
        <time>2019-09-05T09:29:59.000Z</time>
      </trkpt>
      <trkpt lat="47.33638" lon="-2.3496">
        <ele>23.200000762939</ele>
        <time>2019-09-05T09:30:00.000Z</time>
      </trkpt>
      <trkpt lat="47.33645" lon="-2.34959">
        <ele>22.799999237061</ele>
        <time>2019-09-05T09:30:01.000Z</time>
      </trkpt>
      <trkpt lat="47.33653" lon="-2.3496">
        <ele>22.39999961853</ele>
        <time>2019-09-05T09:30:02.000Z</time>
      </trkpt>
      <trkpt lat="47.3366" lon="-2.34962">
        <ele>21.799999237061</ele>
        <time>2019-09-05T09:30:03.000Z</time>
      </trkpt>
      <trkpt lat="47.33668" lon="-2.34967">
        <ele>21.39999961853</ele>
        <time>2019-09-05T09:30:04.000Z</time>
      </trkpt>
      <trkpt lat="47.33681" lon="-2.34978">
        <ele>21.39999961853</ele>
        <time>2019-09-05T09:30:06.000Z</time>
      </trkpt>
      <trkpt lat="47.33688" lon="-2.34985">
        <ele>21.39999961853</ele>
        <time>2019-09-05T09:30:07.000Z</time>
      </trkpt>
      <trkpt lat="47.33695" lon="-2.34991">
        <ele>21.39999961853</ele>
        <time>2019-09-05T09:30:08.000Z</time>
      </trkpt>
      <trkpt lat="47.33723" lon="-2.35034">
        <ele>21.39999961853</ele>
        <time>2019-09-05T09:30:14.000Z</time>
      </trkpt>
      <trkpt lat="47.33752" lon="-2.35067">
        <ele>21.39999961853</ele>
        <time>2019-09-05T09:30:20.000Z</time>
      </trkpt>
      <trkpt lat="47.33773" lon="-2.35082">
        <ele>21.39999961853</ele>
        <time>2019-09-05T09:30:24.000Z</time>
      </trkpt>
      <trkpt lat="47.33778" lon="-2.35085">
        <ele>21.39999961853</ele>
        <time>2019-09-05T09:30:25.000Z</time>
      </trkpt>
      <trkpt lat="47.33806" lon="-2.35101">
        <ele>21.39999961853</ele>
        <time>2019-09-05T09:30:31.000Z</time>
      </trkpt>
      <trkpt lat="47.33823" lon="-2.35111">
        <ele>21.39999961853</ele>
        <time>2019-09-05T09:30:36.000Z</time>
      </trkpt>
      <trkpt lat="47.33831" lon="-2.35118">
        <ele>21.39999961853</ele>
        <time>2019-09-05T09:30:41.000Z</time>
      </trkpt>
      <trkpt lat="47.33841" lon="-2.35125">
        <ele>21.39999961853</ele>
        <time>2019-09-05T09:30:46.000Z</time>
      </trkpt>
      <trkpt lat="47.33852" lon="-2.3513">
        <ele>21.39999961853</ele>
        <time>2019-09-05T09:30:51.000Z</time>
      </trkpt>
      <trkpt lat="47.33871" lon="-2.35145">
        <ele>21.39999961853</ele>
        <time>2019-09-05T09:30:59.000Z</time>
      </trkpt>
      <trkpt lat="47.3389" lon="-2.35161">
        <ele>21.39999961853</ele>
        <time>2019-09-05T09:31:06.000Z</time>
      </trkpt>
      <trkpt lat="47.33898" lon="-2.35167">
        <ele>21.799999237061</ele>
        <time>2019-09-05T09:31:09.000Z</time>
      </trkpt>
      <trkpt lat="47.339" lon="-2.35169">
        <ele>22.200000762939</ele>
        <time>2019-09-05T09:31:10.000Z</time>
      </trkpt>
      <trkpt lat="47.33902" lon="-2.35172">
        <ele>22.60000038147</ele>
        <time>2019-09-05T09:31:11.000Z</time>
      </trkpt>
      <trkpt lat="47.33904" lon="-2.35174">
        <ele>23</ele>
        <time>2019-09-05T09:31:12.000Z</time>
      </trkpt>
      <trkpt lat="47.33907" lon="-2.35177">
        <ele>23.39999961853</ele>
        <time>2019-09-05T09:31:13.000Z</time>
      </trkpt>
      <trkpt lat="47.33922" lon="-2.35194">
        <ele>23.39999961853</ele>
        <time>2019-09-05T09:31:19.000Z</time>
      </trkpt>
      <trkpt lat="47.3394" lon="-2.3522">
        <ele>23.39999961853</ele>
        <time>2019-09-05T09:31:27.000Z</time>
      </trkpt>
      <trkpt lat="47.33947" lon="-2.35242">
        <ele>23.39999961853</ele>
        <time>2019-09-05T09:31:32.000Z</time>
      </trkpt>
      <trkpt lat="47.3396" lon="-2.35269">
        <ele>23.39999961853</ele>
        <time>2019-09-05T09:31:38.000Z</time>
      </trkpt>
      <trkpt lat="47.33978" lon="-2.35288">
        <ele>23</ele>
        <time>2019-09-05T09:31:43.000Z</time>
      </trkpt>
      <trkpt lat="47.3399" lon="-2.35301">
        <ele>21.799999237061</ele>
        <time>2019-09-05T09:31:44.000Z</time>
      </trkpt>
      <trkpt lat="47.33995" lon="-2.35305">
        <ele>21.200000762939</ele>
        <time>2019-09-05T09:31:47.000Z</time>
      </trkpt>
      <trkpt lat="47.3401" lon="-2.3532">
        <ele>21.200000762939</ele>
        <time>2019-09-05T09:31:51.000Z</time>
      </trkpt>
      <trkpt lat="47.34019" lon="-2.35326">
        <ele>21.200000762939</ele>
        <time>2019-09-05T09:31:53.000Z</time>
      </trkpt>
      <trkpt lat="47.34035" lon="-2.35343">
        <ele>20.799999237061</ele>
        <time>2019-09-05T09:31:58.000Z</time>
      </trkpt>
      <trkpt lat="47.34039" lon="-2.35346">
        <ele>20</ele>
        <time>2019-09-05T09:31:59.000Z</time>
      </trkpt>
      <trkpt lat="47.34042" lon="-2.35349">
        <ele>19.60000038147</ele>
        <time>2019-09-05T09:32:00.000Z</time>
      </trkpt>
      <trkpt lat="47.34045" lon="-2.35353">
        <ele>19.200000762939</ele>
        <time>2019-09-05T09:32:01.000Z</time>
      </trkpt>
      <trkpt lat="47.34048" lon="-2.35357">
        <ele>19.200000762939</ele>
        <time>2019-09-05T09:32:02.000Z</time>
      </trkpt>
      <trkpt lat="47.34057" lon="-2.35369">
        <ele>19.200000762939</ele>
        <time>2019-09-05T09:32:05.000Z</time>
      </trkpt>
      <trkpt lat="47.34066" lon="-2.35389">
        <ele>19.200000762939</ele>
        <time>2019-09-05T09:32:09.000Z</time>
      </trkpt>
      <trkpt lat="47.34079" lon="-2.35421">
        <ele>19.200000762939</ele>
        <time>2019-09-05T09:32:15.000Z</time>
      </trkpt>
      <trkpt lat="47.34083" lon="-2.35431">
        <ele>19.200000762939</ele>
        <time>2019-09-05T09:32:17.000Z</time>
      </trkpt>
      <trkpt lat="47.34089" lon="-2.35447">
        <ele>18.799999237061</ele>
        <time>2019-09-05T09:32:20.000Z</time>
      </trkpt>
      <trkpt lat="47.34091" lon="-2.35451">
        <ele>18.200000762939</ele>
        <time>2019-09-05T09:32:21.000Z</time>
      </trkpt>
      <trkpt lat="47.34093" lon="-2.35456">
        <ele>17.799999237061</ele>
        <time>2019-09-05T09:32:22.000Z</time>
      </trkpt>
      <trkpt lat="47.34094" lon="-2.35461">
        <ele>17.39999961853</ele>
        <time>2019-09-05T09:32:23.000Z</time>
      </trkpt>
      <trkpt lat="47.34096" lon="-2.35466">
        <ele>16.799999237061</ele>
        <time>2019-09-05T09:32:24.000Z</time>
      </trkpt>
      <trkpt lat="47.34098" lon="-2.35471">
        <ele>16.799999237061</ele>
        <time>2019-09-05T09:32:25.000Z</time>
      </trkpt>
      <trkpt lat="47.34109" lon="-2.35503">
        <ele>16.799999237061</ele>
        <time>2019-09-05T09:32:32.000Z</time>
      </trkpt>
      <trkpt lat="47.34121" lon="-2.35537">
        <ele>16.799999237061</ele>
        <time>2019-09-05T09:32:39.000Z</time>
      </trkpt>
      <trkpt lat="47.34133" lon="-2.35575">
        <ele>16.799999237061</ele>
        <time>2019-09-05T09:32:47.000Z</time>
      </trkpt>
      <trkpt lat="47.34145" lon="-2.35605">
        <ele>16.799999237061</ele>
        <time>2019-09-05T09:32:54.000Z</time>
      </trkpt>
      <trkpt lat="47.34162" lon="-2.35634">
        <ele>16.799999237061</ele>
        <time>2019-09-05T09:33:01.000Z</time>
      </trkpt>
      <trkpt lat="47.34183" lon="-2.35671">
        <ele>16.799999237061</ele>
        <time>2019-09-05T09:33:09.000Z</time>
      </trkpt>
      <trkpt lat="47.342" lon="-2.35698">
        <ele>16.39999961853</ele>
        <time>2019-09-05T09:33:15.000Z</time>
      </trkpt>
      <trkpt lat="47.34203" lon="-2.357">
        <ele>15.800000190735</ele>
        <time>2019-09-05T09:33:16.000Z</time>
      </trkpt>
      <trkpt lat="47.34204" lon="-2.35704">
        <ele>15.39999961853</ele>
        <time>2019-09-05T09:33:17.000Z</time>
      </trkpt>
      <trkpt lat="47.34206" lon="-2.35706">
        <ele>14.800000190735</ele>
        <time>2019-09-05T09:33:18.000Z</time>
      </trkpt>
      <trkpt lat="47.34207" lon="-2.35709">
        <ele>14.39999961853</ele>
        <time>2019-09-05T09:33:19.000Z</time>
      </trkpt>
      <trkpt lat="47.34211" lon="-2.35718">
        <ele>14</ele>
        <time>2019-09-05T09:33:21.000Z</time>
      </trkpt>
      <trkpt lat="47.34213" lon="-2.35721">
        <ele>13.39999961853</ele>
        <time>2019-09-05T09:33:22.000Z</time>
      </trkpt>
      <trkpt lat="47.34216" lon="-2.35724">
        <ele>13</ele>
        <time>2019-09-05T09:33:23.000Z</time>
      </trkpt>
      <trkpt lat="47.34218" lon="-2.35726">
        <ele>12.199999809265</ele>
        <time>2019-09-05T09:33:24.000Z</time>
      </trkpt>
      <trkpt lat="47.3422" lon="-2.35729">
        <ele>11.60000038147</ele>
        <time>2019-09-05T09:33:25.000Z</time>
      </trkpt>
      <trkpt lat="47.34222" lon="-2.35731">
        <ele>11</ele>
        <time>2019-09-05T09:33:26.000Z</time>
      </trkpt>
      <trkpt lat="47.34224" lon="-2.35735">
        <ele>10.199999809265</ele>
        <time>2019-09-05T09:33:27.000Z</time>
      </trkpt>
      <trkpt lat="47.34225" lon="-2.35739">
        <ele>9.6000003814697</ele>
        <time>2019-09-05T09:33:28.000Z</time>
      </trkpt>
      <trkpt lat="47.34225" lon="-2.35748">
        <ele>9.6000003814697</ele>
        <time>2019-09-05T09:33:30.000Z</time>
      </trkpt>
      <trkpt lat="47.34228" lon="-2.35765">
        <ele>9.6000003814697</ele>
        <time>2019-09-05T09:33:35.000Z</time>
      </trkpt>
      <trkpt lat="47.3423" lon="-2.35772">
        <ele>9.6000003814697</ele>
        <time>2019-09-05T09:33:37.000Z</time>
      </trkpt>
      <trkpt lat="47.34233" lon="-2.35782">
        <ele>9.6000003814697</ele>
        <time>2019-09-05T09:33:41.000Z</time>
      </trkpt>
      <trkpt lat="47.34234" lon="-2.35785">
        <ele>9.6000003814697</ele>
        <time>2019-09-05T09:33:42.000Z</time>
      </trkpt>
      <trkpt lat="47.34241" lon="-2.35805">
        <ele>9.6000003814697</ele>
        <time>2019-09-05T09:33:48.000Z</time>
      </trkpt>
      <trkpt lat="47.34251" lon="-2.35838">
        <ele>9.6000003814697</ele>
        <time>2019-09-05T09:33:55.000Z</time>
      </trkpt>
      <trkpt lat="47.34252" lon="-2.35843">
        <ele>9.1999998092651</ele>
        <time>2019-09-05T09:33:56.000Z</time>
      </trkpt>
      <trkpt lat="47.34252" lon="-2.35849">
        <ele>8.8000001907349</ele>
        <time>2019-09-05T09:33:57.000Z</time>
      </trkpt>
      <trkpt lat="47.34252" lon="-2.35854">
        <ele>8.3999996185303</ele>
        <time>2019-09-05T09:33:58.000Z</time>
      </trkpt>
      <trkpt lat="47.34252" lon="-2.35859">
        <ele>8</ele>
        <time>2019-09-05T09:33:59.000Z</time>
      </trkpt>
      <trkpt lat="47.34252" lon="-2.35864">
        <ele>7.5999999046326</ele>
        <time>2019-09-05T09:34:00.000Z</time>
      </trkpt>
      <trkpt lat="47.34254" lon="-2.35866">
        <ele>7.5999999046326</ele>
        <time>2019-09-05T09:34:01.000Z</time>
      </trkpt>
      <trkpt lat="47.34258" lon="-2.35866">
        <ele>7.5999999046326</ele>
        <time>2019-09-05T09:34:04.000Z</time>
      </trkpt>
      <trkpt lat="47.3426" lon="-2.35862">
        <ele>7.5999999046326</ele>
        <time>2019-09-05T09:34:07.000Z</time>
      </trkpt>
      <trkpt lat="47.3426" lon="-2.3586">
        <ele>7.5999999046326</ele>
        <time>2019-09-05T09:34:08.000Z</time>
      </trkpt>
      <trkpt lat="47.3426" lon="-2.35856">
        <ele>7.5999999046326</ele>
        <time>2019-09-05T09:34:10.000Z</time>
      </trkpt>
      <trkpt lat="47.34257" lon="-2.35843">
        <ele>7.5999999046326</ele>
        <time>2019-09-05T09:34:14.000Z</time>
      </trkpt>
      <trkpt lat="47.34255" lon="-2.35829">
        <ele>7.5999999046326</ele>
        <time>2019-09-05T09:34:19.000Z</time>
      </trkpt>
      <trkpt lat="47.3426" lon="-2.35813">
        <ele>7.5999999046326</ele>
        <time>2019-09-05T09:34:24.000Z</time>
      </trkpt>
      <trkpt lat="47.34263" lon="-2.3581">
        <ele>7.5999999046326</ele>
        <time>2019-09-05T09:34:28.000Z</time>
      </trkpt>
      <trkpt lat="47.34262" lon="-2.35808">
        <ele>7.5999999046326</ele>
        <time>2019-09-05T09:34:35.000Z</time>
      </trkpt>
      <trkpt lat="47.3426" lon="-2.35795">
        <ele>7.5999999046326</ele>
        <time>2019-09-05T09:34:39.000Z</time>
      </trkpt>
      <trkpt lat="47.34271" lon="-2.35772">
        <ele>7.5999999046326</ele>
        <time>2019-09-05T09:34:45.000Z</time>
      </trkpt>
      <trkpt lat="47.34274" lon="-2.35767">
        <ele>7.5999999046326</ele>
        <time>2019-09-05T09:34:46.000Z</time>
      </trkpt>
      <trkpt lat="47.34289" lon="-2.35749">
        <ele>7.5999999046326</ele>
        <time>2019-09-05T09:34:51.000Z</time>
      </trkpt>
      <trkpt lat="47.34312" lon="-2.35731">
        <ele>7.5999999046326</ele>
        <time>2019-09-05T09:34:58.000Z</time>
      </trkpt>
      <trkpt lat="47.34331" lon="-2.35711">
        <ele>7.5999999046326</ele>
        <time>2019-09-05T09:35:05.000Z</time>
      </trkpt>
      <trkpt lat="47.34346" lon="-2.35699">
        <ele>7.5999999046326</ele>
        <time>2019-09-05T09:35:10.000Z</time>
      </trkpt>
      <trkpt lat="47.34355" lon="-2.35693">
        <ele>7.5999999046326</ele>
        <time>2019-09-05T09:35:13.000Z</time>
      </trkpt>
      <trkpt lat="47.34364" lon="-2.35687">
        <ele>7.5999999046326</ele>
        <time>2019-09-05T09:35:16.000Z</time>
      </trkpt>
      <trkpt lat="47.34387" lon="-2.35679">
        <ele>7.5999999046326</ele>
        <time>2019-09-05T09:35:23.000Z</time>
      </trkpt>
      <trkpt lat="47.34415" lon="-2.35674">
        <ele>7.5999999046326</ele>
        <time>2019-09-05T09:35:31.000Z</time>
      </trkpt>
      <trkpt lat="47.34439" lon="-2.35667">
        <ele>7.5999999046326</ele>
        <time>2019-09-05T09:35:38.000Z</time>
      </trkpt>
      <trkpt lat="47.3446" lon="-2.35664">
        <ele>7.5999999046326</ele>
        <time>2019-09-05T09:35:44.000Z</time>
      </trkpt>
      <trkpt lat="47.34485" lon="-2.35656">
        <ele>7.5999999046326</ele>
        <time>2019-09-05T09:35:51.000Z</time>
      </trkpt>
      <trkpt lat="47.34506" lon="-2.35651">
        <ele>7.5999999046326</ele>
        <time>2019-09-05T09:35:57.000Z</time>
      </trkpt>
      <trkpt lat="47.34526" lon="-2.35645">
        <ele>7.5999999046326</ele>
        <time>2019-09-05T09:36:03.000Z</time>
      </trkpt>
      <trkpt lat="47.34532" lon="-2.35628">
        <ele>7.5999999046326</ele>
        <time>2019-09-05T09:36:07.000Z</time>
      </trkpt>
      <trkpt lat="47.34541" lon="-2.35597">
        <ele>7.5999999046326</ele>
        <time>2019-09-05T09:36:13.000Z</time>
      </trkpt>
      <trkpt lat="47.34558" lon="-2.35549">
        <ele>7.5999999046326</ele>
        <time>2019-09-05T09:36:23.000Z</time>
      </trkpt>
      <trkpt lat="47.34574" lon="-2.35527">
        <ele>7.5999999046326</ele>
        <time>2019-09-05T09:36:29.000Z</time>
      </trkpt>
      <trkpt lat="47.34597" lon="-2.35512">
        <ele>7.5999999046326</ele>
        <time>2019-09-05T09:36:36.000Z</time>
      </trkpt>
      <trkpt lat="47.34623" lon="-2.35513">
        <ele>7.5999999046326</ele>
        <time>2019-09-05T09:36:43.000Z</time>
      </trkpt>
      <trkpt lat="47.34631" lon="-2.35529">
        <ele>7.5999999046326</ele>
        <time>2019-09-05T09:36:45.000Z</time>
      </trkpt>
      <trkpt lat="47.34631" lon="-2.35529">
        <ele>7.5999999046326</ele>
        <time>2019-09-05T09:36:47.000Z</time>
      </trkpt>
      <trkpt lat="47.34631" lon="-2.35552">
        <ele>7.1999998092651</ele>
        <time>2019-09-05T09:36:51.000Z</time>
      </trkpt>
      <trkpt lat="47.34629" lon="-2.35557">
        <ele>6.8000001907349</ele>
        <time>2019-09-05T09:36:52.000Z</time>
      </trkpt>
      <trkpt lat="47.34628" lon="-2.35563">
        <ele>6.1999998092651</ele>
        <time>2019-09-05T09:36:53.000Z</time>
      </trkpt>
      <trkpt lat="47.34626" lon="-2.35568">
        <ele>5.8000001907349</ele>
        <time>2019-09-05T09:36:54.000Z</time>
      </trkpt>
      <trkpt lat="47.34624" lon="-2.35574">
        <ele>5.4000000953674</ele>
        <time>2019-09-05T09:36:55.000Z</time>
      </trkpt>
      <trkpt lat="47.3462" lon="-2.35585">
        <ele>5.4000000953674</ele>
        <time>2019-09-05T09:36:57.000Z</time>
      </trkpt>
      <trkpt lat="47.34615" lon="-2.35616">
        <ele>5.4000000953674</ele>
        <time>2019-09-05T09:37:02.000Z</time>
      </trkpt>
      <trkpt lat="47.34614" lon="-2.35627">
        <ele>5.4000000953674</ele>
        <time>2019-09-05T09:37:04.000Z</time>
      </trkpt>
      <trkpt lat="47.3461" lon="-2.35652">
        <ele>5.4000000953674</ele>
        <time>2019-09-05T09:37:09.000Z</time>
      </trkpt>
      <trkpt lat="47.346" lon="-2.35681">
        <ele>5.4000000953674</ele>
        <time>2019-09-05T09:37:15.000Z</time>
      </trkpt>
      <trkpt lat="47.3459" lon="-2.35708">
        <ele>5.4000000953674</ele>
        <time>2019-09-05T09:37:21.000Z</time>
      </trkpt>
      <trkpt lat="47.34574" lon="-2.35757">
        <ele>5.4000000953674</ele>
        <time>2019-09-05T09:37:32.000Z</time>
      </trkpt>
      <trkpt lat="47.34568" lon="-2.35795">
        <ele>5.4000000953674</ele>
        <time>2019-09-05T09:37:40.000Z</time>
      </trkpt>
      <trkpt lat="47.34576" lon="-2.35816">
        <ele>5.4000000953674</ele>
        <time>2019-09-05T09:37:45.000Z</time>
      </trkpt>
      <trkpt lat="47.34593" lon="-2.35829">
        <ele>5.4000000953674</ele>
        <time>2019-09-05T09:37:51.000Z</time>
      </trkpt>
      <trkpt lat="47.34596" lon="-2.35828">
        <ele>5.4000000953674</ele>
        <time>2019-09-05T09:37:52.000Z</time>
      </trkpt>
      <trkpt lat="47.34603" lon="-2.3582">
        <ele>5.4000000953674</ele>
        <time>2019-09-05T09:37:55.000Z</time>
      </trkpt>
      <trkpt lat="47.3461" lon="-2.35809">
        <ele>5.4000000953674</ele>
        <time>2019-09-05T09:37:56.000Z</time>
      </trkpt>
      <trkpt lat="47.34628" lon="-2.35788">
        <ele>5.4000000953674</ele>
        <time>2019-09-05T09:38:01.000Z</time>
      </trkpt>
      <trkpt lat="47.34647" lon="-2.35766">
        <ele>5.4000000953674</ele>
        <time>2019-09-05T09:38:10.000Z</time>
      </trkpt>
      <trkpt lat="47.3466" lon="-2.3575">
        <ele>5.4000000953674</ele>
        <time>2019-09-05T09:38:15.000Z</time>
      </trkpt>
      <trkpt lat="47.34678" lon="-2.35724">
        <ele>5.4000000953674</ele>
        <time>2019-09-05T09:38:22.000Z</time>
      </trkpt>
      <trkpt lat="47.34695" lon="-2.35702">
        <ele>5.4000000953674</ele>
        <time>2019-09-05T09:38:28.000Z</time>
      </trkpt>
      <trkpt lat="47.34711" lon="-2.35686">
        <ele>5.4000000953674</ele>
        <time>2019-09-05T09:38:33.000Z</time>
      </trkpt>
      <trkpt lat="47.34714" lon="-2.35681">
        <ele>5.4000000953674</ele>
        <time>2019-09-05T09:38:34.000Z</time>
      </trkpt>
      <trkpt lat="47.34729" lon="-2.3566">
        <ele>5.4000000953674</ele>
        <time>2019-09-05T09:38:39.000Z</time>
      </trkpt>
      <trkpt lat="47.34733" lon="-2.35641">
        <ele>5.4000000953674</ele>
        <time>2019-09-05T09:38:42.000Z</time>
      </trkpt>
      <trkpt lat="47.34729" lon="-2.35629">
        <ele>5.4000000953674</ele>
        <time>2019-09-05T09:38:45.000Z</time>
      </trkpt>
      <trkpt lat="47.34732" lon="-2.35624">
        <ele>5.4000000953674</ele>
        <time>2019-09-05T09:38:48.000Z</time>
      </trkpt>
      <trkpt lat="47.34737" lon="-2.35626">
        <ele>5.4000000953674</ele>
        <time>2019-09-05T09:38:50.000Z</time>
      </trkpt>
      <trkpt lat="47.34742" lon="-2.35632">
        <ele>5.4000000953674</ele>
        <time>2019-09-05T09:38:52.000Z</time>
      </trkpt>
      <trkpt lat="47.34749" lon="-2.35639">
        <ele>5.8000001907349</ele>
        <time>2019-09-05T09:38:55.000Z</time>
      </trkpt>
      <trkpt lat="47.34752" lon="-2.35641">
        <ele>6.1999998092651</ele>
        <time>2019-09-05T09:38:56.000Z</time>
      </trkpt>
      <trkpt lat="47.34754" lon="-2.35642">
        <ele>7</ele>
        <time>2019-09-05T09:38:57.000Z</time>
      </trkpt>
      <trkpt lat="47.34757" lon="-2.35641">
        <ele>7.5999999046326</ele>
        <time>2019-09-05T09:38:58.000Z</time>
      </trkpt>
      <trkpt lat="47.34765" lon="-2.3563">
        <ele>7.5999999046326</ele>
        <time>2019-09-05T09:39:02.000Z</time>
      </trkpt>
      <trkpt lat="47.34771" lon="-2.35616">
        <ele>8</ele>
        <time>2019-09-05T09:39:06.000Z</time>
      </trkpt>
      <trkpt lat="47.34771" lon="-2.35611">
        <ele>8.3999996185303</ele>
        <time>2019-09-05T09:39:07.000Z</time>
      </trkpt>
      <trkpt lat="47.34771" lon="-2.35606">
        <ele>8.8000001907349</ele>
        <time>2019-09-05T09:39:08.000Z</time>
      </trkpt>
      <trkpt lat="47.34771" lon="-2.35601">
        <ele>9.1999998092651</ele>
        <time>2019-09-05T09:39:09.000Z</time>
      </trkpt>
      <trkpt lat="47.3477" lon="-2.35596">
        <ele>9.6000003814697</ele>
        <time>2019-09-05T09:39:10.000Z</time>
      </trkpt>
      <trkpt lat="47.34765" lon="-2.35589">
        <ele>9.6000003814697</ele>
        <time>2019-09-05T09:39:12.000Z</time>
      </trkpt>
      <trkpt lat="47.34745" lon="-2.35562">
        <ele>9.6000003814697</ele>
        <time>2019-09-05T09:39:18.000Z</time>
      </trkpt>
      <trkpt lat="47.34719" lon="-2.35522">
        <ele>9.6000003814697</ele>
        <time>2019-09-05T09:39:24.000Z</time>
      </trkpt>
      <trkpt lat="47.34692" lon="-2.35476">
        <ele>9.6000003814697</ele>
        <time>2019-09-05T09:39:31.000Z</time>
      </trkpt>
      <trkpt lat="47.34666" lon="-2.35428">
        <ele>9.6000003814697</ele>
        <time>2019-09-05T09:39:39.000Z</time>
      </trkpt>
      <trkpt lat="47.34663" lon="-2.35424">
        <ele>9.6000003814697</ele>
        <time>2019-09-05T09:39:40.000Z</time>
      </trkpt>
      <trkpt lat="47.34646" lon="-2.3541">
        <ele>9.6000003814697</ele>
        <time>2019-09-05T09:39:45.000Z</time>
      </trkpt>
      <trkpt lat="47.34644" lon="-2.35405">
        <ele>9.6000003814697</ele>
        <time>2019-09-05T09:39:47.000Z</time>
      </trkpt>
      <trkpt lat="47.34645" lon="-2.35404">
        <ele>9.6000003814697</ele>
        <time>2019-09-05T09:39:48.000Z</time>
      </trkpt>
      <trkpt lat="47.34655" lon="-2.35402">
        <ele>9.6000003814697</ele>
        <time>2019-09-05T09:39:52.000Z</time>
      </trkpt>
      <trkpt lat="47.34672" lon="-2.35399">
        <ele>9.6000003814697</ele>
        <time>2019-09-05T09:39:57.000Z</time>
      </trkpt>
      <trkpt lat="47.34692" lon="-2.35391">
        <ele>9.6000003814697</ele>
        <time>2019-09-05T09:40:02.000Z</time>
      </trkpt>
      <trkpt lat="47.34708" lon="-2.35375">
        <ele>9.6000003814697</ele>
        <time>2019-09-05T09:40:10.000Z</time>
      </trkpt>
      <trkpt lat="47.34719" lon="-2.35355">
        <ele>9.6000003814697</ele>
        <time>2019-09-05T09:40:15.000Z</time>
      </trkpt>
      <trkpt lat="47.34722" lon="-2.3533">
        <ele>9.6000003814697</ele>
        <time>2019-09-05T09:40:21.000Z</time>
      </trkpt>
      <trkpt lat="47.3473" lon="-2.35306">
        <ele>9.6000003814697</ele>
        <time>2019-09-05T09:40:26.000Z</time>
      </trkpt>
      <trkpt lat="47.34733" lon="-2.353">
        <ele>9.6000003814697</ele>
        <time>2019-09-05T09:40:27.000Z</time>
      </trkpt>
      <trkpt lat="47.3474" lon="-2.35282">
        <ele>9.6000003814697</ele>
        <time>2019-09-05T09:40:30.000Z</time>
      </trkpt>
      <trkpt lat="47.34743" lon="-2.35267">
        <ele>9.6000003814697</ele>
        <time>2019-09-05T09:40:33.000Z</time>
      </trkpt>
      <trkpt lat="47.34748" lon="-2.35247">
        <ele>9.6000003814697</ele>
        <time>2019-09-05T09:40:36.000Z</time>
      </trkpt>
      <trkpt lat="47.3475" lon="-2.3524">
        <ele>9.6000003814697</ele>
        <time>2019-09-05T09:40:37.000Z</time>
      </trkpt>
      <trkpt lat="47.34754" lon="-2.35211">
        <ele>9.6000003814697</ele>
        <time>2019-09-05T09:40:41.000Z</time>
      </trkpt>
      <trkpt lat="47.34759" lon="-2.35192">
        <ele>9.6000003814697</ele>
        <time>2019-09-05T09:40:44.000Z</time>
      </trkpt>
      <trkpt lat="47.3476" lon="-2.35179">
        <ele>9.6000003814697</ele>
        <time>2019-09-05T09:40:46.000Z</time>
      </trkpt>
      <trkpt lat="47.3476" lon="-2.35172">
        <ele>9.6000003814697</ele>
        <time>2019-09-05T09:40:47.000Z</time>
      </trkpt>
      <trkpt lat="47.34758" lon="-2.35165">
        <ele>9.6000003814697</ele>
        <time>2019-09-05T09:40:48.000Z</time>
      </trkpt>
      <trkpt lat="47.34751" lon="-2.35149">
        <ele>9.6000003814697</ele>
        <time>2019-09-05T09:40:51.000Z</time>
      </trkpt>
      <trkpt lat="47.34743" lon="-2.35134">
        <ele>9.6000003814697</ele>
        <time>2019-09-05T09:40:55.000Z</time>
      </trkpt>
      <trkpt lat="47.34731" lon="-2.35111">
        <ele>9.6000003814697</ele>
        <time>2019-09-05T09:40:59.000Z</time>
      </trkpt>
      <trkpt lat="47.34731" lon="-2.35111">
        <ele>9.6000003814697</ele>
        <time>2019-09-05T09:41:00.000Z</time>
      </trkpt>
      <trkpt lat="47.34716" lon="-2.35086">
        <ele>9.6000003814697</ele>
        <time>2019-09-05T09:41:06.000Z</time>
      </trkpt>
      <trkpt lat="47.34712" lon="-2.35081">
        <ele>9.6000003814697</ele>
        <time>2019-09-05T09:41:07.000Z</time>
      </trkpt>
      <trkpt lat="47.34702" lon="-2.35067">
        <ele>9.6000003814697</ele>
        <time>2019-09-05T09:41:09.000Z</time>
      </trkpt>
      <trkpt lat="47.34698" lon="-2.35061">
        <ele>9.6000003814697</ele>
        <time>2019-09-05T09:41:10.000Z</time>
      </trkpt>
      <trkpt lat="47.34682" lon="-2.35045">
        <ele>9.6000003814697</ele>
        <time>2019-09-05T09:41:14.000Z</time>
      </trkpt>
      <trkpt lat="47.34676" lon="-2.35044">
        <ele>9.6000003814697</ele>
        <time>2019-09-05T09:41:15.000Z</time>
      </trkpt>
      <trkpt lat="47.34664" lon="-2.35041">
        <ele>9.6000003814697</ele>
        <time>2019-09-05T09:41:18.000Z</time>
      </trkpt>
      <trkpt lat="47.34656" lon="-2.3504">
        <ele>9.6000003814697</ele>
        <time>2019-09-05T09:41:20.000Z</time>
      </trkpt>
      <trkpt lat="47.34645" lon="-2.3503">
        <ele>9.6000003814697</ele>
        <time>2019-09-05T09:41:23.000Z</time>
      </trkpt>
      <trkpt lat="47.34642" lon="-2.35025">
        <ele>9.6000003814697</ele>
        <time>2019-09-05T09:41:24.000Z</time>
      </trkpt>
      <trkpt lat="47.34631" lon="-2.3501">
        <ele>9.6000003814697</ele>
        <time>2019-09-05T09:41:27.000Z</time>
      </trkpt>
      <trkpt lat="47.34623" lon="-2.35">
        <ele>9.6000003814697</ele>
        <time>2019-09-05T09:41:29.000Z</time>
      </trkpt>
      <trkpt lat="47.34604" lon="-2.34969">
        <ele>9.6000003814697</ele>
        <time>2019-09-05T09:41:35.000Z</time>
      </trkpt>
      <trkpt lat="47.34587" lon="-2.34931">
        <ele>9.6000003814697</ele>
        <time>2019-09-05T09:41:41.000Z</time>
      </trkpt>
      <trkpt lat="47.34581" lon="-2.34919">
        <ele>9.6000003814697</ele>
        <time>2019-09-05T09:41:45.000Z</time>
      </trkpt>
      <trkpt lat="47.3458" lon="-2.34915">
        <ele>9.6000003814697</ele>
        <time>2019-09-05T09:41:46.000Z</time>
      </trkpt>
      <trkpt lat="47.34581" lon="-2.34896">
        <ele>9.6000003814697</ele>
        <time>2019-09-05T09:41:49.000Z</time>
      </trkpt>
      <trkpt lat="47.34584" lon="-2.34882">
        <ele>9.6000003814697</ele>
        <time>2019-09-05T09:41:51.000Z</time>
      </trkpt>
      <trkpt lat="47.34587" lon="-2.34875">
        <ele>9.6000003814697</ele>
        <time>2019-09-05T09:41:52.000Z</time>
      </trkpt>
      <trkpt lat="47.3459" lon="-2.34868">
        <ele>9.6000003814697</ele>
        <time>2019-09-05T09:41:53.000Z</time>
      </trkpt>
      <trkpt lat="47.34614" lon="-2.34813">
        <ele>9.6000003814697</ele>
        <time>2019-09-05T09:42:01.000Z</time>
      </trkpt>
      <trkpt lat="47.34632" lon="-2.34772">
        <ele>9.6000003814697</ele>
        <time>2019-09-05T09:42:07.000Z</time>
      </trkpt>
      <trkpt lat="47.34633" lon="-2.34764">
        <ele>9.6000003814697</ele>
        <time>2019-09-05T09:42:08.000Z</time>
      </trkpt>
      <trkpt lat="47.34637" lon="-2.34725">
        <ele>9.6000003814697</ele>
        <time>2019-09-05T09:42:13.000Z</time>
      </trkpt>
      <trkpt lat="47.34637" lon="-2.34716">
        <ele>9.6000003814697</ele>
        <time>2019-09-05T09:42:14.000Z</time>
      </trkpt>
      <trkpt lat="47.34634" lon="-2.34692">
        <ele>9.6000003814697</ele>
        <time>2019-09-05T09:42:17.000Z</time>
      </trkpt>
      <trkpt lat="47.34634" lon="-2.34685">
        <ele>9.6000003814697</ele>
        <time>2019-09-05T09:42:18.000Z</time>
      </trkpt>
      <trkpt lat="47.34625" lon="-2.34648">
        <ele>9.6000003814697</ele>
        <time>2019-09-05T09:42:23.000Z</time>
      </trkpt>
      <trkpt lat="47.34617" lon="-2.34609">
        <ele>10</ele>
        <time>2019-09-05T09:42:29.000Z</time>
      </trkpt>
      <trkpt lat="47.34616" lon="-2.34601">
        <ele>10.39999961853</ele>
        <time>2019-09-05T09:42:30.000Z</time>
      </trkpt>
      <trkpt lat="47.34615" lon="-2.34594">
        <ele>10.800000190735</ele>
        <time>2019-09-05T09:42:31.000Z</time>
      </trkpt>
      <trkpt lat="47.34613" lon="-2.34587">
        <ele>11.199999809265</ele>
        <time>2019-09-05T09:42:32.000Z</time>
      </trkpt>
      <trkpt lat="47.34612" lon="-2.34579">
        <ele>11.60000038147</ele>
        <time>2019-09-05T09:42:33.000Z</time>
      </trkpt>
      <trkpt lat="47.34607" lon="-2.34546">
        <ele>11.60000038147</ele>
        <time>2019-09-05T09:42:37.000Z</time>
      </trkpt>
      <trkpt lat="47.34601" lon="-2.34514">
        <ele>12</ele>
        <time>2019-09-05T09:42:41.000Z</time>
      </trkpt>
      <trkpt lat="47.346" lon="-2.34506">
        <ele>12.39999961853</ele>
        <time>2019-09-05T09:42:42.000Z</time>
      </trkpt>
      <trkpt lat="47.34599" lon="-2.34497">
        <ele>12.800000190735</ele>
        <time>2019-09-05T09:42:43.000Z</time>
      </trkpt>
      <trkpt lat="47.34598" lon="-2.34489">
        <ele>13.199999809265</ele>
        <time>2019-09-05T09:42:44.000Z</time>
      </trkpt>
      <trkpt lat="47.34597" lon="-2.3448">
        <ele>13.60000038147</ele>
        <time>2019-09-05T09:42:45.000Z</time>
      </trkpt>
      <trkpt lat="47.34595" lon="-2.34448">
        <ele>13.60000038147</ele>
        <time>2019-09-05T09:42:49.000Z</time>
      </trkpt>
      <trkpt lat="47.34598" lon="-2.34423">
        <ele>13.60000038147</ele>
        <time>2019-09-05T09:42:50.000Z</time>
      </trkpt>
      <trkpt lat="47.34609" lon="-2.34375">
        <ele>13.60000038147</ele>
        <time>2019-09-05T09:42:58.000Z</time>
      </trkpt>
      <trkpt lat="47.34631" lon="-2.34302">
        <ele>13.60000038147</ele>
        <time>2019-09-05T09:43:07.000Z</time>
      </trkpt>
      <trkpt lat="47.34651" lon="-2.34277">
        <ele>13.60000038147</ele>
        <time>2019-09-05T09:43:11.000Z</time>
      </trkpt>
      <trkpt lat="47.34657" lon="-2.34272">
        <ele>13.199999809265</ele>
        <time>2019-09-05T09:43:12.000Z</time>
      </trkpt>
      <trkpt lat="47.34664" lon="-2.34268">
        <ele>12.800000190735</ele>
        <time>2019-09-05T09:43:13.000Z</time>
      </trkpt>
      <trkpt lat="47.3467" lon="-2.34265">
        <ele>12.39999961853</ele>
        <time>2019-09-05T09:43:14.000Z</time>
      </trkpt>
      <trkpt lat="47.34677" lon="-2.34263">
        <ele>12</ele>
        <time>2019-09-05T09:43:15.000Z</time>
      </trkpt>
      <trkpt lat="47.34684" lon="-2.34263">
        <ele>11.60000038147</ele>
        <time>2019-09-05T09:43:16.000Z</time>
      </trkpt>
      <trkpt lat="47.3469" lon="-2.34262">
        <ele>11.60000038147</ele>
        <time>2019-09-05T09:43:17.000Z</time>
      </trkpt>
      <trkpt lat="47.34708" lon="-2.34258">
        <ele>11.60000038147</ele>
        <time>2019-09-05T09:43:20.000Z</time>
      </trkpt>
      <trkpt lat="47.34747" lon="-2.34249">
        <ele>11.60000038147</ele>
        <time>2019-09-05T09:43:27.000Z</time>
      </trkpt>
      <trkpt lat="47.3476" lon="-2.34245">
        <ele>11.60000038147</ele>
        <time>2019-09-05T09:43:30.000Z</time>
      </trkpt>
      <trkpt lat="47.34768" lon="-2.34242">
        <ele>12</ele>
        <time>2019-09-05T09:43:32.000Z</time>
      </trkpt>
      <trkpt lat="47.34773" lon="-2.34241">
        <ele>12.39999961853</ele>
        <time>2019-09-05T09:43:33.000Z</time>
      </trkpt>
      <trkpt lat="47.34788" lon="-2.34238">
        <ele>13.60000038147</ele>
        <time>2019-09-05T09:43:34.000Z</time>
      </trkpt>
      <trkpt lat="47.34805" lon="-2.34233">
        <ele>13.60000038147</ele>
        <time>2019-09-05T09:43:41.000Z</time>
      </trkpt>
      <trkpt lat="47.34819" lon="-2.34231">
        <ele>13.60000038147</ele>
        <time>2019-09-05T09:43:44.000Z</time>
      </trkpt>
      <trkpt lat="47.3484" lon="-2.34231">
        <ele>13.60000038147</ele>
        <time>2019-09-05T09:43:47.000Z</time>
      </trkpt>
      <trkpt lat="47.34852" lon="-2.34234">
        <ele>14</ele>
        <time>2019-09-05T09:43:51.000Z</time>
      </trkpt>
      <trkpt lat="47.34855" lon="-2.34236">
        <ele>14.39999961853</ele>
        <time>2019-09-05T09:43:52.000Z</time>
      </trkpt>
      <trkpt lat="47.34857" lon="-2.34237">
        <ele>15.199999809265</ele>
        <time>2019-09-05T09:43:53.000Z</time>
      </trkpt>
      <trkpt lat="47.34859" lon="-2.34238">
        <ele>15.60000038147</ele>
        <time>2019-09-05T09:43:54.000Z</time>
      </trkpt>
      <trkpt lat="47.34863" lon="-2.34234">
        <ele>16</ele>
        <time>2019-09-05T09:43:56.000Z</time>
      </trkpt>
      <trkpt lat="47.34865" lon="-2.3423">
        <ele>16.39999961853</ele>
        <time>2019-09-05T09:43:57.000Z</time>
      </trkpt>
      <trkpt lat="47.34868" lon="-2.34228">
        <ele>16.799999237061</ele>
        <time>2019-09-05T09:43:58.000Z</time>
      </trkpt>
      <trkpt lat="47.34869" lon="-2.34225">
        <ele>17.39999961853</ele>
        <time>2019-09-05T09:43:59.000Z</time>
      </trkpt>
      <trkpt lat="47.34871" lon="-2.34223">
        <ele>17.799999237061</ele>
        <time>2019-09-05T09:44:00.000Z</time>
      </trkpt>
      <trkpt lat="47.34873" lon="-2.34219">
        <ele>18.200000762939</ele>
        <time>2019-09-05T09:44:01.000Z</time>
      </trkpt>
      <trkpt lat="47.34875" lon="-2.34216">
        <ele>18.799999237061</ele>
        <time>2019-09-05T09:44:02.000Z</time>
      </trkpt>
      <trkpt lat="47.34878" lon="-2.34213">
        <ele>19.200000762939</ele>
        <time>2019-09-05T09:44:03.000Z</time>
      </trkpt>
      <trkpt lat="47.34879" lon="-2.34211">
        <ele>19.60000038147</ele>
        <time>2019-09-05T09:44:04.000Z</time>
      </trkpt>
      <trkpt lat="47.34882" lon="-2.3421">
        <ele>20.200000762939</ele>
        <time>2019-09-05T09:44:05.000Z</time>
      </trkpt>
      <trkpt lat="47.34883" lon="-2.34209">
        <ele>20.200000762939</ele>
        <time>2019-09-05T09:44:06.000Z</time>
      </trkpt>
      <trkpt lat="47.34891" lon="-2.34206">
        <ele>20.200000762939</ele>
        <time>2019-09-05T09:44:13.000Z</time>
      </trkpt>
      <trkpt lat="47.34891" lon="-2.34206">
        <ele>20.200000762939</ele>
        <time>2019-09-05T09:44:15.000Z</time>
      </trkpt>
      <trkpt lat="47.34894" lon="-2.34206">
        <ele>20.200000762939</ele>
        <time>2019-09-05T09:46:44.000Z</time>
      </trkpt>
      <trkpt lat="47.34897" lon="-2.34206">
        <ele>20.200000762939</ele>
        <time>2019-09-05T09:46:45.000Z</time>
      </trkpt>
      <trkpt lat="47.34913" lon="-2.34213">
        <ele>20.200000762939</ele>
        <time>2019-09-05T09:46:47.000Z</time>
      </trkpt>
      <trkpt lat="47.34923" lon="-2.34225">
        <ele>20.200000762939</ele>
        <time>2019-09-05T09:46:50.000Z</time>
      </trkpt>
      <trkpt lat="47.3493" lon="-2.3424">
        <ele>20.200000762939</ele>
        <time>2019-09-05T09:46:53.000Z</time>
      </trkpt>
      <trkpt lat="47.34935" lon="-2.34255">
        <ele>19.60000038147</ele>
        <time>2019-09-05T09:46:57.000Z</time>
      </trkpt>
      <trkpt lat="47.34937" lon="-2.34263">
        <ele>19.200000762939</ele>
        <time>2019-09-05T09:46:58.000Z</time>
      </trkpt>
      <trkpt lat="47.3494" lon="-2.34272">
        <ele>18.60000038147</ele>
        <time>2019-09-05T09:46:59.000Z</time>
      </trkpt>
      <trkpt lat="47.34942" lon="-2.34281">
        <ele>18.200000762939</ele>
        <time>2019-09-05T09:47:00.000Z</time>
      </trkpt>
      <trkpt lat="47.34945" lon="-2.3429">
        <ele>17.799999237061</ele>
        <time>2019-09-05T09:47:01.000Z</time>
      </trkpt>
      <trkpt lat="47.34956" lon="-2.34326">
        <ele>17.200000762939</ele>
        <time>2019-09-05T09:47:05.000Z</time>
      </trkpt>
      <trkpt lat="47.3496" lon="-2.34334">
        <ele>16.60000038147</ele>
        <time>2019-09-05T09:47:06.000Z</time>
      </trkpt>
      <trkpt lat="47.34965" lon="-2.34343">
        <ele>16.200000762939</ele>
        <time>2019-09-05T09:47:07.000Z</time>
      </trkpt>
      <trkpt lat="47.3497" lon="-2.34353">
        <ele>15.60000038147</ele>
        <time>2019-09-05T09:47:08.000Z</time>
      </trkpt>
      <trkpt lat="47.34974" lon="-2.34363">
        <ele>14.800000190735</ele>
        <time>2019-09-05T09:47:09.000Z</time>
      </trkpt>
      <trkpt lat="47.34979" lon="-2.34371">
        <ele>13.60000038147</ele>
        <time>2019-09-05T09:47:10.000Z</time>
      </trkpt>
      <trkpt lat="47.34984" lon="-2.34379">
        <ele>13</ele>
        <time>2019-09-05T09:47:11.000Z</time>
      </trkpt>
      <trkpt lat="47.34988" lon="-2.34385">
        <ele>12.39999961853</ele>
        <time>2019-09-05T09:47:12.000Z</time>
      </trkpt>
      <trkpt lat="47.34991" lon="-2.34392">
        <ele>12</ele>
        <time>2019-09-05T09:47:13.000Z</time>
      </trkpt>
      <trkpt lat="47.34994" lon="-2.34399">
        <ele>11.60000038147</ele>
        <time>2019-09-05T09:47:14.000Z</time>
      </trkpt>
      <trkpt lat="47.34996" lon="-2.34407">
        <ele>11.199999809265</ele>
        <time>2019-09-05T09:47:15.000Z</time>
      </trkpt>
      <trkpt lat="47.34998" lon="-2.34415">
        <ele>10.60000038147</ele>
        <time>2019-09-05T09:47:16.000Z</time>
      </trkpt>
      <trkpt lat="47.34999" lon="-2.34424">
        <ele>10.199999809265</ele>
        <time>2019-09-05T09:47:17.000Z</time>
      </trkpt>
      <trkpt lat="47.35001" lon="-2.34433">
        <ele>9.8000001907349</ele>
        <time>2019-09-05T09:47:18.000Z</time>
      </trkpt>
      <trkpt lat="47.35003" lon="-2.34443">
        <ele>9.3999996185303</ele>
        <time>2019-09-05T09:47:19.000Z</time>
      </trkpt>
      <trkpt lat="47.35004" lon="-2.34451">
        <ele>9</ele>
        <time>2019-09-05T09:47:20.000Z</time>
      </trkpt>
      <trkpt lat="47.35007" lon="-2.34457">
        <ele>8.6000003814697</ele>
        <time>2019-09-05T09:47:21.000Z</time>
      </trkpt>
      <trkpt lat="47.3501" lon="-2.34461">
        <ele>8.1999998092651</ele>
        <time>2019-09-05T09:47:22.000Z</time>
      </trkpt>
      <trkpt lat="47.35015" lon="-2.34464">
        <ele>7.8000001907349</ele>
        <time>2019-09-05T09:47:23.000Z</time>
      </trkpt>
      <trkpt lat="47.35018" lon="-2.34466">
        <ele>7.4000000953674</ele>
        <time>2019-09-05T09:47:24.000Z</time>
      </trkpt>
      <trkpt lat="47.35029" lon="-2.34474">
        <ele>6</ele>
        <time>2019-09-05T09:47:25.000Z</time>
      </trkpt>
      <trkpt lat="47.35029" lon="-2.34474">
        <ele>6</ele>
        <time>2019-09-05T09:47:27.000Z</time>
      </trkpt>
      <trkpt lat="47.35033" lon="-2.34477">
        <ele>5.5999999046326</ele>
        <time>2019-09-05T09:47:28.000Z</time>
      </trkpt>
      <trkpt lat="47.35035" lon="-2.34482">
        <ele>5.1999998092651</ele>
        <time>2019-09-05T09:47:29.000Z</time>
      </trkpt>
      <trkpt lat="47.35036" lon="-2.34487">
        <ele>4.5999999046326</ele>
        <time>2019-09-05T09:47:30.000Z</time>
      </trkpt>
      <trkpt lat="47.35037" lon="-2.34489">
        <ele>4</ele>
        <time>2019-09-05T09:47:31.000Z</time>
      </trkpt>
      <trkpt lat="47.35038" lon="-2.34492">
        <ele>3.4000000953674</ele>
        <time>2019-09-05T09:47:32.000Z</time>
      </trkpt>
      <trkpt lat="47.35038" lon="-2.34493">
        <ele>2.7999999523163</ele>
        <time>2019-09-05T09:47:33.000Z</time>
      </trkpt>
      <trkpt lat="47.35038" lon="-2.34492">
        <ele>2</ele>
        <time>2019-09-05T09:47:34.000Z</time>
      </trkpt>
      <trkpt lat="47.35041" lon="-2.34495">
        <ele>2</ele>
        <time>2019-09-05T09:48:04.000Z</time>
      </trkpt>
      <trkpt lat="47.35043" lon="-2.34487">
        <ele>2</ele>
        <time>2019-09-05T09:48:06.000Z</time>
      </trkpt>
      <trkpt lat="47.35043" lon="-2.34487">
        <ele>2</ele>
        <time>2019-09-05T09:48:08.000Z</time>
      </trkpt>
      <trkpt lat="47.35047" lon="-2.34486">
        <ele>2</ele>
        <time>2019-09-05T09:48:09.000Z</time>
      </trkpt>
      <trkpt lat="47.35051" lon="-2.34489">
        <ele>2</ele>
        <time>2019-09-05T09:48:14.000Z</time>
      </trkpt>
      <trkpt lat="47.35065" lon="-2.34503">
        <ele>2</ele>
        <time>2019-09-05T09:48:19.000Z</time>
      </trkpt>
      <trkpt lat="47.35074" lon="-2.34519">
        <ele>3</ele>
        <time>2019-09-05T09:48:24.000Z</time>
      </trkpt>
      <trkpt lat="47.35076" lon="-2.34522">
        <ele>3.4000000953674</ele>
        <time>2019-09-05T09:48:25.000Z</time>
      </trkpt>
      <trkpt lat="47.35078" lon="-2.34525">
        <ele>3.7999999523163</ele>
        <time>2019-09-05T09:48:26.000Z</time>
      </trkpt>
      <trkpt lat="47.35079" lon="-2.34528">
        <ele>4.1999998092651</ele>
        <time>2019-09-05T09:48:27.000Z</time>
      </trkpt>
      <trkpt lat="47.35082" lon="-2.34536">
        <ele>4.1999998092651</ele>
        <time>2019-09-05T09:48:30.000Z</time>
      </trkpt>
      <trkpt lat="47.3509" lon="-2.34538">
        <ele>4.5999999046326</ele>
        <time>2019-09-05T09:48:33.000Z</time>
      </trkpt>
      <trkpt lat="47.35093" lon="-2.34539">
        <ele>5</ele>
        <time>2019-09-05T09:48:34.000Z</time>
      </trkpt>
      <trkpt lat="47.35097" lon="-2.34537">
        <ele>5.4000000953674</ele>
        <time>2019-09-05T09:48:35.000Z</time>
      </trkpt>
      <trkpt lat="47.35101" lon="-2.34537">
        <ele>5.8000001907349</ele>
        <time>2019-09-05T09:48:36.000Z</time>
      </trkpt>
      <trkpt lat="47.35105" lon="-2.34537">
        <ele>6.1999998092651</ele>
        <time>2019-09-05T09:48:37.000Z</time>
      </trkpt>
      <trkpt lat="47.35121" lon="-2.34535">
        <ele>6.1999998092651</ele>
        <time>2019-09-05T09:48:41.000Z</time>
      </trkpt>
      <trkpt lat="47.35153" lon="-2.34524">
        <ele>6.1999998092651</ele>
        <time>2019-09-05T09:48:47.000Z</time>
      </trkpt>
      <trkpt lat="47.35197" lon="-2.34505">
        <ele>6.1999998092651</ele>
        <time>2019-09-05T09:48:55.000Z</time>
      </trkpt>
      <trkpt lat="47.35248" lon="-2.34486">
        <ele>6.1999998092651</ele>
        <time>2019-09-05T09:49:01.000Z</time>
      </trkpt>
      <trkpt lat="47.3528" lon="-2.34473">
        <ele>6.1999998092651</ele>
        <time>2019-09-05T09:49:07.000Z</time>
      </trkpt>
      <trkpt lat="47.35291" lon="-2.34471">
        <ele>6.1999998092651</ele>
        <time>2019-09-05T09:49:11.000Z</time>
      </trkpt>
      <trkpt lat="47.35301" lon="-2.34473">
        <ele>6.1999998092651</ele>
        <time>2019-09-05T09:49:13.000Z</time>
      </trkpt>
      <trkpt lat="47.35311" lon="-2.34478">
        <ele>6.1999998092651</ele>
        <time>2019-09-05T09:49:15.000Z</time>
      </trkpt>
      <trkpt lat="47.3532" lon="-2.34484">
        <ele>6.1999998092651</ele>
        <time>2019-09-05T09:49:17.000Z</time>
      </trkpt>
      <trkpt lat="47.35339" lon="-2.34497">
        <ele>6.1999998092651</ele>
        <time>2019-09-05T09:49:21.000Z</time>
      </trkpt>
      <trkpt lat="47.35363" lon="-2.34526">
        <ele>6.1999998092651</ele>
        <time>2019-09-05T09:49:27.000Z</time>
      </trkpt>
      <trkpt lat="47.35367" lon="-2.34531">
        <ele>6.1999998092651</ele>
        <time>2019-09-05T09:49:28.000Z</time>
      </trkpt>
      <trkpt lat="47.35381" lon="-2.34564">
        <ele>6.1999998092651</ele>
        <time>2019-09-05T09:49:31.000Z</time>
      </trkpt>
      <trkpt lat="47.35384" lon="-2.34571">
        <ele>6.1999998092651</ele>
        <time>2019-09-05T09:49:34.000Z</time>
      </trkpt>
      <trkpt lat="47.35394" lon="-2.34597">
        <ele>6.1999998092651</ele>
        <time>2019-09-05T09:49:36.000Z</time>
      </trkpt>
      <trkpt lat="47.35401" lon="-2.34616">
        <ele>6.1999998092651</ele>
        <time>2019-09-05T09:49:42.000Z</time>
      </trkpt>
      <trkpt lat="47.35413" lon="-2.34652">
        <ele>6.1999998092651</ele>
        <time>2019-09-05T09:49:48.000Z</time>
      </trkpt>
      <trkpt lat="47.35416" lon="-2.3466">
        <ele>6.1999998092651</ele>
        <time>2019-09-05T09:49:49.000Z</time>
      </trkpt>
      <trkpt lat="47.35427" lon="-2.34686">
        <ele>6.1999998092651</ele>
        <time>2019-09-05T09:49:54.000Z</time>
      </trkpt>
      <trkpt lat="47.35429" lon="-2.3469">
        <ele>6.1999998092651</ele>
        <time>2019-09-05T09:49:55.000Z</time>
      </trkpt>
      <trkpt lat="47.3544" lon="-2.34705">
        <ele>6.1999998092651</ele>
        <time>2019-09-05T09:49:59.000Z</time>
      </trkpt>
      <trkpt lat="47.35442" lon="-2.34704">
        <ele>6.1999998092651</ele>
        <time>2019-09-05T09:50:00.000Z</time>
      </trkpt>
      <trkpt lat="47.3545" lon="-2.34694">
        <ele>6.1999998092651</ele>
        <time>2019-09-05T09:50:02.000Z</time>
      </trkpt>
      <trkpt lat="47.35455" lon="-2.34682">
        <ele>6.1999998092651</ele>
        <time>2019-09-05T09:50:04.000Z</time>
      </trkpt>
      <trkpt lat="47.35463" lon="-2.3466">
        <ele>6.1999998092651</ele>
        <time>2019-09-05T09:50:07.000Z</time>
      </trkpt>
      <trkpt lat="47.35483" lon="-2.34612">
        <ele>6.1999998092651</ele>
        <time>2019-09-05T09:50:13.000Z</time>
      </trkpt>
      <trkpt lat="47.35505" lon="-2.34562">
        <ele>6.1999998092651</ele>
        <time>2019-09-05T09:50:19.000Z</time>
      </trkpt>
      <trkpt lat="47.35526" lon="-2.34509">
        <ele>5.4000000953674</ele>
        <time>2019-09-05T09:50:23.000Z</time>
      </trkpt>
      <trkpt lat="47.35526" lon="-2.34509">
        <ele>5.4000000953674</ele>
        <time>2019-09-05T09:50:25.000Z</time>
      </trkpt>
      <trkpt lat="47.35533" lon="-2.34483">
        <ele>4.1999998092651</ele>
        <time>2019-09-05T09:50:26.000Z</time>
      </trkpt>
      <trkpt lat="47.35536" lon="-2.34457">
        <ele>4.1999998092651</ele>
        <time>2019-09-05T09:50:31.000Z</time>
      </trkpt>
      <trkpt lat="47.35543" lon="-2.34403">
        <ele>4.5999999046326</ele>
        <time>2019-09-05T09:50:38.000Z</time>
      </trkpt>
      <trkpt lat="47.35545" lon="-2.34396">
        <ele>5</ele>
        <time>2019-09-05T09:50:39.000Z</time>
      </trkpt>
      <trkpt lat="47.35546" lon="-2.34388">
        <ele>5.5999999046326</ele>
        <time>2019-09-05T09:50:40.000Z</time>
      </trkpt>
      <trkpt lat="47.35547" lon="-2.34381">
        <ele>6</ele>
        <time>2019-09-05T09:50:41.000Z</time>
      </trkpt>
      <trkpt lat="47.35549" lon="-2.34373">
        <ele>6.4000000953674</ele>
        <time>2019-09-05T09:50:42.000Z</time>
      </trkpt>
      <trkpt lat="47.35554" lon="-2.34346">
        <ele>6.4000000953674</ele>
        <time>2019-09-05T09:50:45.000Z</time>
      </trkpt>
      <trkpt lat="47.3556" lon="-2.34293">
        <ele>6.4000000953674</ele>
        <time>2019-09-05T09:50:51.000Z</time>
      </trkpt>
      <trkpt lat="47.35566" lon="-2.34221">
        <ele>6.4000000953674</ele>
        <time>2019-09-05T09:50:59.000Z</time>
      </trkpt>
      <trkpt lat="47.35568" lon="-2.34188">
        <ele>6.4000000953674</ele>
        <time>2019-09-05T09:51:03.000Z</time>
      </trkpt>
      <trkpt lat="47.35571" lon="-2.34184">
        <ele>6.4000000953674</ele>
        <time>2019-09-05T09:51:04.000Z</time>
      </trkpt>
      <trkpt lat="47.35586" lon="-2.34182">
        <ele>6.4000000953674</ele>
        <time>2019-09-05T09:51:07.000Z</time>
      </trkpt>
      <trkpt lat="47.35602" lon="-2.34186">
        <ele>6.4000000953674</ele>
        <time>2019-09-05T09:51:10.000Z</time>
      </trkpt>
      <trkpt lat="47.35607" lon="-2.34186">
        <ele>6.4000000953674</ele>
        <time>2019-09-05T09:51:11.000Z</time>
      </trkpt>
      <trkpt lat="47.35611" lon="-2.34186">
        <ele>6.8000001907349</ele>
        <time>2019-09-05T09:51:12.000Z</time>
      </trkpt>
      <trkpt lat="47.35616" lon="-2.34187">
        <ele>7.1999998092651</ele>
        <time>2019-09-05T09:51:13.000Z</time>
      </trkpt>
      <trkpt lat="47.35621" lon="-2.34187">
        <ele>7.5999999046326</ele>
        <time>2019-09-05T09:51:14.000Z</time>
      </trkpt>
      <trkpt lat="47.35627" lon="-2.34188">
        <ele>8.6000003814697</ele>
        <time>2019-09-05T09:51:15.000Z</time>
      </trkpt>
      <trkpt lat="47.35688" lon="-2.34205">
        <ele>8.6000003814697</ele>
        <time>2019-09-05T09:51:27.000Z</time>
      </trkpt>
      <trkpt lat="47.35708" lon="-2.34209">
        <ele>9.8000001907349</ele>
        <time>2019-09-05T09:51:29.000Z</time>
      </trkpt>
      <trkpt lat="47.35713" lon="-2.34209">
        <ele>10.199999809265</ele>
        <time>2019-09-05T09:51:32.000Z</time>
      </trkpt>
      <trkpt lat="47.35719" lon="-2.34208">
        <ele>10.60000038147</ele>
        <time>2019-09-05T09:51:33.000Z</time>
      </trkpt>
      <trkpt lat="47.35724" lon="-2.34207">
        <ele>10.60000038147</ele>
        <time>2019-09-05T09:51:34.000Z</time>
      </trkpt>
      <trkpt lat="47.35734" lon="-2.34205">
        <ele>11</ele>
        <time>2019-09-05T09:51:36.000Z</time>
      </trkpt>
      <trkpt lat="47.35738" lon="-2.34203">
        <ele>11.60000038147</ele>
        <time>2019-09-05T09:51:37.000Z</time>
      </trkpt>
      <trkpt lat="47.35742" lon="-2.34202">
        <ele>12.199999809265</ele>
        <time>2019-09-05T09:51:38.000Z</time>
      </trkpt>
      <trkpt lat="47.35746" lon="-2.34203">
        <ele>13.199999809265</ele>
        <time>2019-09-05T09:51:39.000Z</time>
      </trkpt>
      <trkpt lat="47.3575" lon="-2.34203">
        <ele>13.199999809265</ele>
        <time>2019-09-05T09:51:40.000Z</time>
      </trkpt>
      <trkpt lat="47.35761" lon="-2.34209">
        <ele>13.199999809265</ele>
        <time>2019-09-05T09:51:43.000Z</time>
      </trkpt>
      <trkpt lat="47.35763" lon="-2.34215">
        <ele>13.199999809265</ele>
        <time>2019-09-05T09:51:44.000Z</time>
      </trkpt>
      <trkpt lat="47.35763" lon="-2.34242">
        <ele>13.199999809265</ele>
        <time>2019-09-05T09:51:48.000Z</time>
      </trkpt>
      <trkpt lat="47.35762" lon="-2.34266">
        <ele>13.199999809265</ele>
        <time>2019-09-05T09:51:51.000Z</time>
      </trkpt>
      <trkpt lat="47.35762" lon="-2.34293">
        <ele>13.199999809265</ele>
        <time>2019-09-05T09:51:54.000Z</time>
      </trkpt>
      <trkpt lat="47.35765" lon="-2.3434">
        <ele>12.800000190735</ele>
        <time>2019-09-05T09:52:00.000Z</time>
      </trkpt>
      <trkpt lat="47.35767" lon="-2.34351">
        <ele>12.39999961853</ele>
        <time>2019-09-05T09:52:01.000Z</time>
      </trkpt>
      <trkpt lat="47.35768" lon="-2.34361">
        <ele>12</ele>
        <time>2019-09-05T09:52:02.000Z</time>
      </trkpt>
      <trkpt lat="47.35769" lon="-2.34371">
        <ele>11.39999961853</ele>
        <time>2019-09-05T09:52:03.000Z</time>
      </trkpt>
      <trkpt lat="47.35771" lon="-2.34382">
        <ele>11</ele>
        <time>2019-09-05T09:52:04.000Z</time>
      </trkpt>
      <trkpt lat="47.3578" lon="-2.34448">
        <ele>11</ele>
        <time>2019-09-05T09:52:10.000Z</time>
      </trkpt>
      <trkpt lat="47.35791" lon="-2.34531">
        <ele>11</ele>
        <time>2019-09-05T09:52:18.000Z</time>
      </trkpt>
      <trkpt lat="47.35795" lon="-2.34559">
        <ele>10.60000038147</ele>
        <time>2019-09-05T09:52:21.000Z</time>
      </trkpt>
      <trkpt lat="47.35797" lon="-2.34568">
        <ele>10.199999809265</ele>
        <time>2019-09-05T09:52:22.000Z</time>
      </trkpt>
      <trkpt lat="47.35799" lon="-2.34578">
        <ele>9.8000001907349</ele>
        <time>2019-09-05T09:52:23.000Z</time>
      </trkpt>
      <trkpt lat="47.35801" lon="-2.34585">
        <ele>9.3999996185303</ele>
        <time>2019-09-05T09:52:24.000Z</time>
      </trkpt>
      <trkpt lat="47.35805" lon="-2.34593">
        <ele>9</ele>
        <time>2019-09-05T09:52:25.000Z</time>
      </trkpt>
      <trkpt lat="47.35817" lon="-2.34621">
        <ele>9</ele>
        <time>2019-09-05T09:52:29.000Z</time>
      </trkpt>
      <trkpt lat="47.35837" lon="-2.34664">
        <ele>9</ele>
        <time>2019-09-05T09:52:35.000Z</time>
      </trkpt>
      <trkpt lat="47.35856" lon="-2.3471">
        <ele>9</ele>
        <time>2019-09-05T09:52:41.000Z</time>
      </trkpt>
      <trkpt lat="47.35878" lon="-2.34761">
        <ele>9</ele>
        <time>2019-09-05T09:52:48.000Z</time>
      </trkpt>
      <trkpt lat="47.359" lon="-2.34815">
        <ele>9</ele>
        <time>2019-09-05T09:52:55.000Z</time>
      </trkpt>
      <trkpt lat="47.35918" lon="-2.34853">
        <ele>9</ele>
        <time>2019-09-05T09:53:00.000Z</time>
      </trkpt>
      <trkpt lat="47.3593" lon="-2.34862">
        <ele>9</ele>
        <time>2019-09-05T09:53:02.000Z</time>
      </trkpt>
      <trkpt lat="47.35956" lon="-2.34865">
        <ele>9</ele>
        <time>2019-09-05T09:53:05.000Z</time>
      </trkpt>
      <trkpt lat="47.36023" lon="-2.34871">
        <ele>9</ele>
        <time>2019-09-05T09:53:15.000Z</time>
      </trkpt>
      <trkpt lat="47.36071" lon="-2.34876">
        <ele>9</ele>
        <time>2019-09-05T09:53:26.000Z</time>
      </trkpt>
      <trkpt lat="47.36086" lon="-2.34885">
        <ele>9</ele>
        <time>2019-09-05T09:53:31.000Z</time>
      </trkpt>
      <trkpt lat="47.36088" lon="-2.34906">
        <ele>9</ele>
        <time>2019-09-05T09:53:34.000Z</time>
      </trkpt>
      <trkpt lat="47.36088" lon="-2.34915">
        <ele>9</ele>
        <time>2019-09-05T09:53:35.000Z</time>
      </trkpt>
      <trkpt lat="47.36088" lon="-2.34951">
        <ele>9</ele>
        <time>2019-09-05T09:53:39.000Z</time>
      </trkpt>
      <trkpt lat="47.36096" lon="-2.34999">
        <ele>9</ele>
        <time>2019-09-05T09:53:45.000Z</time>
      </trkpt>
      <trkpt lat="47.36098" lon="-2.35049">
        <ele>9</ele>
        <time>2019-09-05T09:53:48.000Z</time>
      </trkpt>
      <trkpt lat="47.36098" lon="-2.35057">
        <ele>9</ele>
        <time>2019-09-05T09:53:51.000Z</time>
      </trkpt>
      <trkpt lat="47.36095" lon="-2.35108">
        <ele>9</ele>
        <time>2019-09-05T09:53:57.000Z</time>
      </trkpt>
      <trkpt lat="47.36095" lon="-2.35125">
        <ele>9</ele>
        <time>2019-09-05T09:53:59.000Z</time>
      </trkpt>
      <trkpt lat="47.36092" lon="-2.35163">
        <ele>9</ele>
        <time>2019-09-05T09:54:04.000Z</time>
      </trkpt>
      <trkpt lat="47.36093" lon="-2.35169">
        <ele>9</ele>
        <time>2019-09-05T09:54:05.000Z</time>
      </trkpt>
      <trkpt lat="47.36104" lon="-2.35174">
        <ele>7.4000000953674</ele>
        <time>2019-09-05T09:54:06.000Z</time>
      </trkpt>
      <trkpt lat="47.36104" lon="-2.35174">
        <ele>7.4000000953674</ele>
        <time>2019-09-05T09:54:08.000Z</time>
      </trkpt>
      <trkpt lat="47.36108" lon="-2.35171">
        <ele>7</ele>
        <time>2019-09-05T09:54:09.000Z</time>
      </trkpt>
      <trkpt lat="47.36127" lon="-2.35142">
        <ele>7</ele>
        <time>2019-09-05T09:54:13.000Z</time>
      </trkpt>
      <trkpt lat="47.36186" lon="-2.35079">
        <ele>7</ele>
        <time>2019-09-05T09:54:24.000Z</time>
      </trkpt>
      <trkpt lat="47.3621" lon="-2.35054">
        <ele>7</ele>
        <time>2019-09-05T09:54:29.000Z</time>
      </trkpt>
      <trkpt lat="47.36234" lon="-2.35011">
        <ele>7</ele>
        <time>2019-09-05T09:54:35.000Z</time>
      </trkpt>
      <trkpt lat="47.36258" lon="-2.34959">
        <ele>7</ele>
        <time>2019-09-05T09:54:42.000Z</time>
      </trkpt>
      <trkpt lat="47.3627" lon="-2.34934">
        <ele>7</ele>
        <time>2019-09-05T09:54:47.000Z</time>
      </trkpt>
      <trkpt lat="47.3628" lon="-2.34929">
        <ele>7</ele>
        <time>2019-09-05T09:54:51.000Z</time>
      </trkpt>
      <trkpt lat="47.36284" lon="-2.34943">
        <ele>7</ele>
        <time>2019-09-05T09:54:54.000Z</time>
      </trkpt>
      <trkpt lat="47.36287" lon="-2.34974">
        <ele>7</ele>
        <time>2019-09-05T09:54:58.000Z</time>
      </trkpt>
      <trkpt lat="47.36293" lon="-2.35013">
        <ele>7</ele>
        <time>2019-09-05T09:55:04.000Z</time>
      </trkpt>
      <trkpt lat="47.36298" lon="-2.35015">
        <ele>6.5999999046326</ele>
        <time>2019-09-05T09:55:06.000Z</time>
      </trkpt>
      <trkpt lat="47.36301" lon="-2.35015">
        <ele>6.1999998092651</ele>
        <time>2019-09-05T09:55:07.000Z</time>
      </trkpt>
      <trkpt lat="47.36301" lon="-2.35017">
        <ele>5.8000001907349</ele>
        <time>2019-09-05T09:55:08.000Z</time>
      </trkpt>
      <trkpt lat="47.36303" lon="-2.35019">
        <ele>5.4000000953674</ele>
        <time>2019-09-05T09:55:09.000Z</time>
      </trkpt>
      <trkpt lat="47.36305" lon="-2.35023">
        <ele>5</ele>
        <time>2019-09-05T09:55:10.000Z</time>
      </trkpt>
      <trkpt lat="47.3631" lon="-2.35029">
        <ele>5</ele>
        <time>2019-09-05T09:55:12.000Z</time>
      </trkpt>
      <trkpt lat="47.36316" lon="-2.35031">
        <ele>5</ele>
        <time>2019-09-05T09:55:14.000Z</time>
      </trkpt>
      <trkpt lat="47.36322" lon="-2.35027">
        <ele>5</ele>
        <time>2019-09-05T09:55:16.000Z</time>
      </trkpt>
      <trkpt lat="47.36332" lon="-2.35021">
        <ele>5</ele>
        <time>2019-09-05T09:55:20.000Z</time>
      </trkpt>
      <trkpt lat="47.36344" lon="-2.35012">
        <ele>5</ele>
        <time>2019-09-05T09:55:27.000Z</time>
      </trkpt>
      <trkpt lat="47.36344" lon="-2.35012">
        <ele>5</ele>
        <time>2019-09-05T09:55:28.000Z</time>
      </trkpt>
      <trkpt lat="47.36344" lon="-2.35013">
        <ele>5</ele>
        <time>2019-09-05T09:55:29.000Z</time>
      </trkpt>
    </trkseg>
  </trk>
</gpx>